Wetterdaten: Freitag, 22.12.2017
Datum Zeit Temp. A. Pool Temp. Feuchte A. Luftdruck Regen Wind Richtung Richtung Sonnenschein ET UV Solar Taupunkt Windchill Windben Empfang
22.12.2017 00:00 3,0 C 3,9 C 95 % 1034,1 hPa 0,0 l/m 19,3 km/h (3 Bft) W-SW 247 0 min 0,000 mm 0,0 UV-I 0 W/m 2,3 C -5,5 C 27,4 km/h (4 Bft) 95,65 %
22.12.2017 00:01 3,0 C 3,9 C 95 % 1034,1 hPa 0,0 l/m 22,5 km/h (4 Bft) W-SW 247 0 min 0,000 mm 0,0 UV-I 0 W/m 2,3 C -6,8 C 22,5 km/h (4 Bft) 8,70 %
22.12.2017 00:02 3,0 C 3,9 C 95 % 1034,0 hPa 0,0 l/m 0,0 km/h (0 Bft) N 0 0 min 0,000 mm 0,0 UV-I 0 W/m 2,3 C 3,0 C 0,0 km/h (0 Bft) 0,00 %
22.12.2017 00:03 3,0 C 3,9 C 95 % 1034,1 hPa 0,0 l/m 17,7 km/h (3 Bft) SW 225 0 min 0,000 mm 0,0 UV-I 0 W/m 2,3 C -4,7 C 22,5 km/h (4 Bft) 91,30 %
22.12.2017 00:04 3,0 C 3,9 C 95 % 1034,1 hPa 0,0 l/m 20,9 km/h (4 Bft) SW 225 0 min 0,000 mm 0,0 UV-I 0 W/m 2,3 C -6,1 C 24,1 km/h (4 Bft) 100,00 %
22.12.2017 00:05 3,0 C 3,9 C 95 % 1034,1 hPa 0,0 l/m 19,3 km/h (3 Bft) SW 225 0 min 0,000 mm 0,0 UV-I 0 W/m 2,3 C -5,5 C 24,1 km/h (4 Bft) 100,00 %
22.12.2017 00:06 3,0 C 3,9 C 95 % 1034,1 hPa 0,0 l/m 17,7 km/h (3 Bft) W-SW 247 0 min 0,000 mm 0,0 UV-I 0 W/m 2,3 C -4,7 C 22,5 km/h (4 Bft) 100,00 %
22.12.2017 00:07 3,0 C 3,9 C 95 % 1034,1 hPa 0,2 l/m 19,3 km/h (3 Bft) SW 225 0 min 0,000 mm 0,0 UV-I 0 W/m 2,3 C -5,5 C 25,7 km/h (4 Bft) 95,65 %
22.12.2017 00:08 3,0 C 3,9 C 95 % 1034,0 hPa 0,0 l/m 16,1 km/h (3 Bft) W-SW 247 0 min 0,000 mm 0,0 UV-I 0 W/m 2,3 C -3,9 C 19,3 km/h (3 Bft) 100,00 %
22.12.2017 00:09 3,0 C 3,9 C 95 % 1034,1 hPa 0,0 l/m 14,5 km/h (3 Bft) SW 225 0 min 0,000 mm 0,0 UV-I 0 W/m 2,3 C -3,1 C 22,5 km/h (4 Bft) 100,00 %
22.12.2017 00:10 3,0 C 3,9 C 95 % 1034,0 hPa 0,0 l/m 20,9 km/h (4 Bft) SW 225 0 min 0,000 mm 0,0 UV-I 0 W/m 2,3 C -6,1 C 27,4 km/h (4 Bft) 95,65 %
22.12.2017 00:11 3,0 C 3,9 C 95 % 1034,0 hPa 0,0 l/m 16,1 km/h (3 Bft) SW 225 0 min 0,000 mm 0,0 UV-I 0 W/m 2,3 C -3,9 C 24,1 km/h (4 Bft) 100,00 %
22.12.2017 00:12 3,0 C 3,9 C 95 % 1034,0 hPa 0,0 l/m 16,1 km/h (3 Bft) W-SW 247 0 min 0,000 mm 0,0 UV-I 0 W/m 2,3 C -3,9 C 22,5 km/h (4 Bft) 100,00 %
22.12.2017 00:13 3,0 C 3,9 C 95 % 1034,0 hPa 0,0 l/m 19,3 km/h (3 Bft) W-SW 247 0 min 0,000 mm 0,0 UV-I 0 W/m 2,3 C -5,5 C 24,1 km/h (4 Bft) 95,65 %
22.12.2017 00:14 3,0 C 3,9 C 95 % 1034,0 hPa 0,0 l/m 19,3 km/h (3 Bft) SW 225 0 min 0,000 mm 0,0 UV-I 0 W/m 2,3 C -5,5 C 24,1 km/h (4 Bft) 95,65 %
22.12.2017 00:15 3,0 C 3,9 C 95 % 1034,0 hPa 0,0 l/m 20,9 km/h (4 Bft) SW 225 0 min 0,000 mm 0,0 UV-I 0 W/m 2,3 C -6,1 C 27,4 km/h (4 Bft) 95,65 %
22.12.2017 00:16 3,0 C 3,9 C 95 % 1034,0 hPa 0,0 l/m 19,3 km/h (3 Bft) SW 225 0 min 0,000 mm 0,0 UV-I 0 W/m 2,3 C -5,5 C 25,7 km/h (4 Bft) 100,00 %
22.12.2017 00:17 3,0 C 3,9 C 95 % 1034,0 hPa 0,0 l/m 19,3 km/h (3 Bft) W-SW 247 0 min 0,000 mm 0,0 UV-I 0 W/m 2,3 C -5,5 C 25,7 km/h (4 Bft) 100,00 %
22.12.2017 00:18 3,0 C 3,9 C 95 % 1034,0 hPa 0,0 l/m 20,9 km/h (4 Bft) W-SW 247 0 min 0,000 mm 0,0 UV-I 0 W/m 2,3 C -6,1 C 29,0 km/h (5 Bft) 91,30 %
22.12.2017 00:19 3,1 C 3,9 C 95 % 1034,0 hPa 0,2 l/m 17,7 km/h (3 Bft) SW 225 0 min 0,000 mm 0,0 UV-I 0 W/m 2,4 C -4,6 C 25,7 km/h (4 Bft) 100,00 %
22.12.2017 00:20 3,1 C 3,9 C 95 % 1034,0 hPa 0,0 l/m 24,1 km/h (4 Bft) SW 225 0 min 0,000 mm 0,0 UV-I 0 W/m 2,4 C -7,2 C 32,2 km/h (5 Bft) 100,00 %
22.12.2017 00:21 3,0 C 3,9 C 95 % 1033,9 hPa 0,0 l/m 20,9 km/h (4 Bft) SW 225 0 min 0,000 mm 0,0 UV-I 0 W/m 2,3 C -6,1 C 32,2 km/h (5 Bft) 95,65 %
22.12.2017 00:22 3,0 C 3,9 C 95 % 1033,9 hPa 0,0 l/m 16,1 km/h (3 Bft) SW 225 0 min 0,000 mm 0,0 UV-I 0 W/m 2,3 C -3,9 C 20,9 km/h (4 Bft) 95,65 %
22.12.2017 00:23 3,1 C 3,9 C 95 % 1033,9 hPa 0,0 l/m 16,1 km/h (3 Bft) SW 225 0 min 0,000 mm 0,0 UV-I 0 W/m 2,4 C -3,8 C 25,7 km/h (4 Bft) 100,00 %
22.12.2017 00:24 3,0 C 3,9 C 95 % 1033,9 hPa 0,0 l/m 19,3 km/h (3 Bft) SW 225 0 min 0,000 mm 0,0 UV-I 0 W/m 2,3 C -5,5 C 25,7 km/h (4 Bft) 95,65 %
22.12.2017 00:25 3,1 C 3,9 C 95 % 1033,9 hPa 0,0 l/m 22,5 km/h (4 Bft) SW 225 0 min 0,000 mm 0,0 UV-I 0 W/m 2,4 C -6,6 C 29,0 km/h (5 Bft) 100,00 %
22.12.2017 00:26 3,0 C 3,9 C 95 % 1033,9 hPa 0,0 l/m 17,7 km/h (3 Bft) SW 225 0 min 0,000 mm 0,0 UV-I 0 W/m 2,3 C -4,7 C 27,4 km/h (4 Bft) 95,65 %
22.12.2017 00:27 3,0 C 3,9 C 95 % 1033,9 hPa 0,0 l/m 19,3 km/h (3 Bft) W-SW 247 0 min 0,000 mm 0,0 UV-I 0 W/m 2,3 C -5,5 C 27,4 km/h (4 Bft) 100,00 %
22.12.2017 00:28 3,0 C 3,9 C 95 % 1033,9 hPa 0,0 l/m 22,5 km/h (4 Bft) SW 225 0 min 0,000 mm 0,0 UV-I 0 W/m 2,3 C -6,8 C 30,6 km/h (5 Bft) 86,96 %
22.12.2017 00:29 3,1 C 3,9 C 95 % 1033,9 hPa 0,0 l/m 19,3 km/h (3 Bft) SW 225 0 min 0,000 mm 0,0 UV-I 0 W/m 2,4 C -5,3 C 27,4 km/h (4 Bft) 100,00 %
22.12.2017 00:30 3,1 C 3,9 C 95 % 1033,8 hPa 0,0 l/m 24,1 km/h (4 Bft) SW 225 0 min 0,000 mm 0,0 UV-I 0 W/m 2,4 C -7,2 C 33,8 km/h (5 Bft) 95,65 %
22.12.2017 00:31 3,1 C 3,9 C 95 % 1033,8 hPa 0,0 l/m 20,9 km/h (4 Bft) SW 225 0 min 0,000 mm 0,0 UV-I 0 W/m 2,4 C -6,0 C 33,8 km/h (5 Bft) 95,65 %
22.12.2017 00:32 3,1 C 3,9 C 95 % 1033,9 hPa 0,0 l/m 20,9 km/h (4 Bft) W-SW 247 0 min 0,000 mm 0,0 UV-I 0 W/m 2,4 C -6,0 C 29,0 km/h (5 Bft) 100,00 %
22.12.2017 00:33 3,1 C 3,9 C 95 % 1033,8 hPa 0,0 l/m 20,9 km/h (4 Bft) SW 225 0 min 0,000 mm 0,0 UV-I 0 W/m 2,4 C -6,0 C 32,2 km/h (5 Bft) 95,65 %
22.12.2017 00:34 3,1 C 3,9 C 96 % 1033,8 hPa 0,0 l/m 17,7 km/h (3 Bft) W-SW 247 0 min 0,000 mm 0,0 UV-I 0 W/m 2,5 C -4,6 C 24,1 km/h (4 Bft) 95,65 %
22.12.2017 00:35 3,1 C 3,9 C 95 % 1033,8 hPa 0,0 l/m 19,3 km/h (3 Bft) W-SW 247 0 min 0,000 mm 0,0 UV-I 0 W/m 2,4 C -5,3 C 25,7 km/h (4 Bft) 91,30 %
22.12.2017 00:36 3,1 C 3,9 C 95 % 1033,9 hPa 0,0 l/m 27,4 km/h (4 Bft) SW 225 0 min 0,000 mm 0,0 UV-I 0 W/m 2,4 C -8,3 C 32,2 km/h (5 Bft) 100,00 %
22.12.2017 00:37 3,1 C 3,9 C 95 % 1033,8 hPa 0,0 l/m 17,7 km/h (3 Bft) SW 225 0 min 0,000 mm 0,0 UV-I 0 W/m 2,4 C -4,6 C 27,4 km/h (4 Bft) 95,65 %
22.12.2017 00:38 3,1 C 3,9 C 95 % 1033,8 hPa 0,2 l/m 24,1 km/h (4 Bft) SW 225 0 min 0,000 mm 0,0 UV-I 0 W/m 2,4 C -7,2 C 32,2 km/h (5 Bft) 100,00 %
22.12.2017 00:39 3,1 C 3,9 C 96 % 1033,8 hPa 0,0 l/m 24,1 km/h (4 Bft) SW 225 0 min 0,000 mm 0,0 UV-I 0 W/m 2,5 C -7,2 C 32,2 km/h (5 Bft) 95,65 %
22.12.2017 00:40 3,1 C 3,9 C 96 % 1033,8 hPa 0,0 l/m 27,4 km/h (4 Bft) SW 225 0 min 0,000 mm 0,0 UV-I 0 W/m 2,5 C -8,3 C 35,4 km/h (5 Bft) 100,00 %
22.12.2017 00:41 3,2 C 3,9 C 95 % 1034,0 hPa 0,0 l/m 19,3 km/h (3 Bft) SW 225 0 min 0,000 mm 0,0 UV-I 0 W/m 2,5 C -5,2 C 32,2 km/h (5 Bft) 95,65 %
22.12.2017 00:42 3,2 C 3,9 C 95 % 1033,8 hPa 0,0 l/m 17,7 km/h (3 Bft) SW 225 0 min 0,000 mm 0,0 UV-I 0 W/m 2,5 C -4,5 C 35,4 km/h (5 Bft) 95,65 %
22.12.2017 00:43 3,2 C 3,9 C 95 % 1033,8 hPa 0,0 l/m 25,7 km/h (4 Bft) SW 225 0 min 0,000 mm 0,0 UV-I 0 W/m 2,5 C -7,6 C 35,4 km/h (5 Bft) 95,65 %
22.12.2017 00:44 3,2 C 3,9 C 95 % 1033,8 hPa 0,0 l/m 22,5 km/h (4 Bft) SW 225 0 min 0,000 mm 0,0 UV-I 0 W/m 2,5 C -6,5 C 30,6 km/h (5 Bft) 100,00 %
22.12.2017 00:45 3,2 C 3,9 C 95 % 1033,7 hPa 0,0 l/m 20,9 km/h (4 Bft) W-SW 247 0 min 0,000 mm 0,0 UV-I 0 W/m 2,5 C -5,9 C 30,6 km/h (5 Bft) 95,65 %
22.12.2017 00:46 3,2 C 3,9 C 95 % 1033,8 hPa 0,0 l/m 19,3 km/h (3 Bft) W-SW 247 0 min 0,000 mm 0,0 UV-I 0 W/m 2,5 C -5,2 C 30,6 km/h (5 Bft) 95,65 %
22.12.2017 00:47 3,2 C 3,9 C 95 % 1033,7 hPa 0,0 l/m 20,9 km/h (4 Bft) SW 225 0 min 0,000 mm 0,0 UV-I 0 W/m 2,5 C -5,9 C 27,4 km/h (4 Bft) 100,00 %
22.12.2017 00:48 3,2 C 3,9 C 95 % 1033,7 hPa 0,0 l/m 20,9 km/h (4 Bft) SW 225 0 min 0,000 mm 0,0 UV-I 0 W/m 2,5 C -5,9 C 25,7 km/h (4 Bft) 100,00 %
22.12.2017 00:49 3,2 C 3,9 C 95 % 1033,7 hPa 0,0 l/m 19,3 km/h (3 Bft) SW 225 0 min 0,000 mm 0,0 UV-I 0 W/m 2,5 C -5,2 C 25,7 km/h (4 Bft) 91,30 %
22.12.2017 00:50 3,2 C 3,9 C 95 % 1033,7 hPa 0,2 l/m 24,1 km/h (4 Bft) SW 225 0 min 0,000 mm 0,0 UV-I 0 W/m 2,5 C -7,1 C 29,0 km/h (5 Bft) 95,65 %
22.12.2017 00:51 3,2 C 3,9 C 95 % 1033,7 hPa 0,0 l/m 24,1 km/h (4 Bft) SW 225 0 min 0,000 mm 0,0 UV-I 0 W/m 2,5 C -7,1 C 30,6 km/h (5 Bft) 100,00 %
22.12.2017 00:52 3,2 C 3,9 C 95 % 1033,8 hPa 0,0 l/m 20,9 km/h (4 Bft) SW 225 0 min 0,000 mm 0,0 UV-I 0 W/m 2,5 C -5,9 C 30,6 km/h (5 Bft) 100,00 %
22.12.2017 00:53 3,2 C 3,9 C 95 % 1033,7 hPa 0,0 l/m 20,9 km/h (4 Bft) SW 225 0 min 0,000 mm 0,0 UV-I 0 W/m 2,5 C -5,9 C 27,4 km/h (4 Bft) 95,65 %
22.12.2017 00:54 3,2 C 3,9 C 95 % 1033,7 hPa 0,0 l/m 16,1 km/h (3 Bft) SW 225 0 min 0,000 mm 0,0 UV-I 0 W/m 2,5 C -3,7 C 24,1 km/h (4 Bft) 100,00 %
22.12.2017 00:55 3,2 C 3,9 C 95 % 1033,7 hPa 0,0 l/m 17,7 km/h (3 Bft) W-SW 247 0 min 0,000 mm 0,0 UV-I 0 W/m 2,5 C -4,5 C 24,1 km/h (4 Bft) 100,00 %
22.12.2017 00:56 3,2 C 3,9 C 95 % 1033,6 hPa 0,0 l/m 22,5 km/h (4 Bft) SW 225 0 min 0,000 mm 0,0 UV-I 0 W/m 2,5 C -6,5 C 32,2 km/h (5 Bft) 95,65 %
22.12.2017 00:57 3,2 C 3,9 C 95 % 1033,6 hPa 0,0 l/m 22,5 km/h (4 Bft) SW 225 0 min 0,000 mm 0,0 UV-I 0 W/m 2,5 C -6,5 C 32,2 km/h (5 Bft) 100,00 %
22.12.2017 00:58 3,2 C 3,9 C 95 % 1033,6 hPa 0,0 l/m 16,1 km/h (3 Bft) SW 225 0 min 0,000 mm 0,0 UV-I 0 W/m 2,5 C -3,7 C 24,1 km/h (4 Bft) 95,65 %
22.12.2017 00:59 3,3 C 3,9 C 95 % 1033,6 hPa 0,0 l/m 20,9 km/h (4 Bft) SW 225 0 min 0,000 mm 0,0 UV-I 0 W/m 2,6 C -5,7 C 29,0 km/h (5 Bft) 100,00 %
22.12.2017 01:00 3,3 C 3,9 C 95 % 1033,6 hPa 0,0 l/m 24,1 km/h (4 Bft) SW 225 0 min 0,000 mm 0,0 UV-I 0 W/m 2,6 C -6,9 C 32,2 km/h (5 Bft) 100,00 %
22.12.2017 01:01 3,3 C 3,9 C 95 % 1033,6 hPa 0,0 l/m 24,1 km/h (4 Bft) SW 225 0 min 0,000 mm 0,0 UV-I 0 W/m 2,6 C -6,9 C 33,8 km/h (5 Bft) 100,00 %
22.12.2017 01:02 3,3 C 3,9 C 95 % 1033,5 hPa 0,0 l/m 22,5 km/h (4 Bft) SW 225 0 min 0,000 mm 0,0 UV-I 0 W/m 2,6 C -6,4 C 32,2 km/h (5 Bft) 100,00 %
22.12.2017 01:03 3,3 C 3,9 C 95 % 1033,5 hPa 0,0 l/m 22,5 km/h (4 Bft) SW 225 0 min 0,000 mm 0,0 UV-I 0 W/m 2,6 C -6,4 C 29,0 km/h (5 Bft) 95,65 %
22.12.2017 01:04 3,3 C 3,9 C 95 % 1033,5 hPa 0,0 l/m 20,9 km/h (4 Bft) SW 225 0 min 0,000 mm 0,0 UV-I 0 W/m 2,6 C -5,7 C 29,0 km/h (5 Bft) 100,00 %
22.12.2017 01:05 3,3 C 3,9 C 95 % 1033,5 hPa 0,0 l/m 20,9 km/h (4 Bft) SW 225 0 min 0,000 mm 0,0 UV-I 0 W/m 2,6 C -5,7 C 27,4 km/h (4 Bft) 100,00 %
22.12.2017 01:06 3,3 C 3,9 C 95 % 1033,5 hPa 0,0 l/m 19,3 km/h (3 Bft) W-SW 247 0 min 0,000 mm 0,0 UV-I 0 W/m 2,6 C -5,1 C 29,0 km/h (5 Bft) 100,00 %
22.12.2017 01:07 3,3 C 3,9 C 95 % 1033,4 hPa 0,0 l/m 17,7 km/h (3 Bft) SW 225 0 min 0,000 mm 0,0 UV-I 0 W/m 2,6 C -4,3 C 24,1 km/h (4 Bft) 100,00 %
22.12.2017 01:08 3,3 C 3,9 C 95 % 1033,5 hPa 0,0 l/m 14,5 km/h (3 Bft) SW 225 0 min 0,000 mm 0,0 UV-I 0 W/m 2,6 C -2,7 C 20,9 km/h (4 Bft) 100,00 %
22.12.2017 01:09 3,3 C 3,9 C 95 % 1033,5 hPa 0,0 l/m 20,9 km/h (4 Bft) W-SW 247 0 min 0,000 mm 0,0 UV-I 0 W/m 2,6 C -5,7 C 32,2 km/h (5 Bft) 95,65 %
22.12.2017 01:10 3,3 C 3,9 C 95 % 1033,5 hPa 0,0 l/m 20,9 km/h (4 Bft) SW 225 0 min 0,000 mm 0,0 UV-I 0 W/m 2,6 C -5,7 C 29,0 km/h (5 Bft) 95,65 %
22.12.2017 01:11 3,3 C 3,9 C 95 % 1033,5 hPa 0,0 l/m 24,1 km/h (4 Bft) SW 225 0 min 0,000 mm 0,0 UV-I 0 W/m 2,6 C -6,9 C 33,8 km/h (5 Bft) 100,00 %
22.12.2017 01:12 3,3 C 3,9 C 95 % 1033,4 hPa 0,0 l/m 20,9 km/h (4 Bft) SW 225 0 min 0,000 mm 0,0 UV-I 0 W/m 2,6 C -5,7 C 29,0 km/h (5 Bft) 100,00 %
22.12.2017 01:13 3,3 C 3,9 C 95 % 1033,4 hPa 0,0 l/m 17,7 km/h (3 Bft) SW 225 0 min 0,000 mm 0,0 UV-I 0 W/m 2,6 C -4,3 C 24,1 km/h (4 Bft) 100,00 %
22.12.2017 01:14 3,3 C 3,9 C 95 % 1033,4 hPa 0,0 l/m 17,7 km/h (3 Bft) SW 225 0 min 0,000 mm 0,0 UV-I 0 W/m 2,6 C -4,3 C 22,5 km/h (4 Bft) 100,00 %
22.12.2017 01:15 3,3 C 3,9 C 95 % 1033,4 hPa 0,0 l/m 16,1 km/h (3 Bft) SW 225 0 min 0,000 mm 0,0 UV-I 0 W/m 2,6 C -3,6 C 22,5 km/h (4 Bft) 100,00 %
22.12.2017 01:16 3,3 C 3,9 C 95 % 1033,4 hPa 0,0 l/m 14,5 km/h (3 Bft) SW 225 0 min 0,000 mm 0,0 UV-I 0 W/m 2,6 C -2,7 C 19,3 km/h (3 Bft) 100,00 %
22.12.2017 01:17 3,3 C 3,9 C 95 % 1033,4 hPa 0,0 l/m 17,7 km/h (3 Bft) W-SW 247 0 min 0,000 mm 0,0 UV-I 0 W/m 2,6 C -4,3 C 22,5 km/h (4 Bft) 95,65 %
22.12.2017 01:18 3,3 C 3,9 C 95 % 1033,4 hPa 0,0 l/m 16,1 km/h (3 Bft) SW 225 0 min 0,000 mm 0,0 UV-I 0 W/m 2,6 C -3,6 C 22,5 km/h (4 Bft) 95,65 %
22.12.2017 01:19 3,3 C 3,9 C 95 % 1033,5 hPa 0,0 l/m 19,3 km/h (3 Bft) SW 225 0 min 0,000 mm 0,0 UV-I 0 W/m 2,6 C -5,1 C 27,4 km/h (4 Bft) 100,00 %
22.12.2017 01:20 3,4 C 3,9 C 95 % 1033,5 hPa 0,0 l/m 19,3 km/h (3 Bft) SW 225 0 min 0,000 mm 0,0 UV-I 0 W/m 2,7 C -4,9 C 22,5 km/h (4 Bft) 95,65 %
22.12.2017 01:21 3,3 C 3,9 C 95 % 1033,5 hPa 0,0 l/m 14,5 km/h (3 Bft) SW 225 0 min 0,000 mm 0,0 UV-I 0 W/m 2,6 C -2,7 C 20,9 km/h (4 Bft) 100,00 %
22.12.2017 01:22 3,4 C 3,9 C 95 % 1033,5 hPa 0,0 l/m 19,3 km/h (3 Bft) SW 225 0 min 0,000 mm 0,0 UV-I 0 W/m 2,7 C -4,9 C 27,4 km/h (4 Bft) 100,00 %
22.12.2017 01:23 3,4 C 3,9 C 95 % 1033,5 hPa 0,0 l/m 19,3 km/h (3 Bft) W-SW 247 0 min 0,000 mm 0,0 UV-I 0 W/m 2,7 C -4,9 C 25,7 km/h (4 Bft) 95,65 %
22.12.2017 01:24 3,4 C 3,9 C 95 % 1033,5 hPa 0,0 l/m 19,3 km/h (3 Bft) W-SW 247 0 min 0,000 mm 0,0 UV-I 0 W/m 2,7 C -4,9 C 27,4 km/h (4 Bft) 95,65 %
22.12.2017 01:25 3,4 C 3,9 C 95 % 1033,5 hPa 0,0 l/m 19,3 km/h (3 Bft) W-SW 247 0 min 0,000 mm 0,0 UV-I 0 W/m 2,7 C -4,9 C 27,4 km/h (4 Bft) 100,00 %
22.12.2017 01:26 3,4 C 3,9 C 95 % 1033,5 hPa 0,0 l/m 22,5 km/h (4 Bft) W-SW 247 0 min 0,000 mm 0,0 UV-I 0 W/m 2,7 C -6,2 C 30,6 km/h (5 Bft) 100,00 %
22.12.2017 01:27 3,4 C 3,9 C 95 % 1033,6 hPa 0,0 l/m 16,1 km/h (3 Bft) W-SW 247 0 min 0,000 mm 0,0 UV-I 0 W/m 2,7 C -3,4 C 20,9 km/h (4 Bft) 95,65 %
22.12.2017 01:28 3,4 C 3,9 C 95 % 1033,6 hPa 0,0 l/m 17,7 km/h (3 Bft) W-SW 247 0 min 0,000 mm 0,0 UV-I 0 W/m 2,7 C -4,2 C 25,7 km/h (4 Bft) 95,65 %
22.12.2017 01:29 3,4 C 3,9 C 95 % 1033,6 hPa 0,0 l/m 19,3 km/h (3 Bft) W-SW 247 0 min 0,000 mm 0,0 UV-I 0 W/m 2,7 C -4,9 C 24,1 km/h (4 Bft) 95,65 %
22.12.2017 01:30 3,4 C 3,9 C 95 % 1033,6 hPa 0,0 l/m 16,1 km/h (3 Bft) W-SW 247 0 min 0,000 mm 0,0 UV-I 0 W/m 2,7 C -3,4 C 25,7 km/h (4 Bft) 91,30 %
22.12.2017 01:31 3,4 C 3,9 C 95 % 1033,6 hPa 0,0 l/m 16,1 km/h (3 Bft) W 270 0 min 0,000 mm 0,0 UV-I 0 W/m 2,7 C -3,4 C 25,7 km/h (4 Bft) 91,30 %
22.12.2017 01:32 3,4 C 3,9 C 95 % 1033,6 hPa 0,0 l/m 19,3 km/h (3 Bft) W-SW 247 0 min 0,000 mm 0,0 UV-I 0 W/m 2,7 C -4,9 C 25,7 km/h (4 Bft) 91,30 %
22.12.2017 01:33 3,4 C 3,9 C 95 % 1033,6 hPa 0,0 l/m 22,5 km/h (4 Bft) SW 225 0 min 0,000 mm 0,0 UV-I 0 W/m 2,7 C -6,2 C 29,0 km/h (5 Bft) 100,00 %
22.12.2017 01:34 3,4 C 3,9 C 95 % 1033,6 hPa 0,0 l/m 19,3 km/h (3 Bft) W-SW 247 0 min 0,000 mm 0,0 UV-I 0 W/m 2,7 C -4,9 C 30,6 km/h (5 Bft) 95,65 %
22.12.2017 01:35 3,4 C 3,9 C 95 % 1033,6 hPa 0,0 l/m 17,7 km/h (3 Bft) W-SW 247 0 min 0,000 mm 0,0 UV-I 0 W/m 2,7 C -4,2 C 25,7 km/h (4 Bft) 100,00 %
22.12.2017 01:36 3,4 C 3,9 C 95 % 1033,6 hPa 0,0 l/m 19,3 km/h (3 Bft) W-SW 247 0 min 0,000 mm 0,0 UV-I 0 W/m 2,7 C -4,9 C 27,4 km/h (4 Bft) 95,65 %
22.12.2017 01:37 3,4 C 3,9 C 95 % 1033,6 hPa 0,0 l/m 17,7 km/h (3 Bft) SW 225 0 min 0,000 mm 0,0 UV-I 0 W/m 2,7 C -4,2 C 27,4 km/h (4 Bft) 100,00 %
22.12.2017 01:38 3,5 C 3,9 C 95 % 1033,6 hPa 0,0 l/m 17,7 km/h (3 Bft) SW 225 0 min 0,000 mm 0,0 UV-I 0 W/m 2,8 C -4,1 C 22,5 km/h (4 Bft) 91,30 %
22.12.2017 01:39 3,5 C 3,9 C 95 % 1033,6 hPa 0,0 l/m 22,5 km/h (4 Bft) W-SW 247 0 min 0,000 mm 0,0 UV-I 0 W/m 2,8 C -6,1 C 30,6 km/h (5 Bft) 100,00 %
22.12.2017 01:40 3,5 C 3,9 C 95 % 1033,6 hPa 0,0 l/m 19,3 km/h (3 Bft) W-SW 247 0 min 0,000 mm 0,0 UV-I 0 W/m 2,8 C -4,8 C 27,4 km/h (4 Bft) 91,30 %
22.12.2017 01:41 3,5 C 3,9 C 95 % 1033,6 hPa 0,0 l/m 19,3 km/h (3 Bft) W-SW 247 0 min 0,000 mm 0,0 UV-I 0 W/m 2,8 C -4,8 C 24,1 km/h (4 Bft) 95,65 %
22.12.2017 01:42 3,5 C 3,9 C 95 % 1033,6 hPa 0,0 l/m 20,9 km/h (4 Bft) W-SW 247 0 min 0,000 mm 0,0 UV-I 0 W/m 2,8 C -5,5 C 32,2 km/h (5 Bft) 100,00 %
22.12.2017 01:43 3,5 C 3,9 C 95 % 1033,6 hPa 0,0 l/m 17,7 km/h (3 Bft) W-SW 247 0 min 0,000 mm 0,0 UV-I 0 W/m 2,8 C -4,1 C 25,7 km/h (4 Bft) 95,65 %
22.12.2017 01:44 3,5 C 3,9 C 95 % 1033,6 hPa 0,0 l/m 19,3 km/h (3 Bft) W-SW 247 0 min 0,000 mm 0,0 UV-I 0 W/m 2,8 C -4,8 C 25,7 km/h (4 Bft) 100,00 %
22.12.2017 01:45 3,5 C 3,9 C 95 % 1033,6 hPa 0,0 l/m 16,1 km/h (3 Bft) W-SW 247 0 min 0,000 mm 0,0 UV-I 0 W/m 2,8 C -3,3 C 17,7 km/h (3 Bft) 91,30 %
22.12.2017 01:46 3,5 C 3,9 C 95 % 1033,7 hPa 0,0 l/m 20,9 km/h (4 Bft) SW 225 0 min 0,000 mm 0,0 UV-I 0 W/m 2,8 C -5,5 C 25,7 km/h (4 Bft) 100,00 %
22.12.2017 01:47 3,5 C 3,9 C 95 % 1033,6 hPa 0,0 l/m 22,5 km/h (4 Bft) SW 225 0 min 0,000 mm 0,0 UV-I 0 W/m 2,8 C -6,1 C 29,0 km/h (5 Bft) 95,65 %
22.12.2017 01:48 3,6 C 3,9 C 95 % 1033,6 hPa 0,0 l/m 17,7 km/h (3 Bft) W-SW 247 0 min 0,000 mm 0,0 UV-I 0 W/m 2,9 C -4,0 C 24,1 km/h (4 Bft) 100,00 %
22.12.2017 01:49 3,6 C 3,9 C 95 % 1033,6 hPa 0,0 l/m 17,7 km/h (3 Bft) W-SW 247 0 min 0,000 mm 0,0 UV-I 0 W/m 2,9 C -4,0 C 30,6 km/h (5 Bft) 95,65 %
22.12.2017 01:50 3,6 C 3,9 C 95 % 1033,6 hPa 0,0 l/m 22,5 km/h (4 Bft) W-SW 247 0 min 0,000 mm 0,0 UV-I 0 W/m 2,9 C -6,0 C 29,0 km/h (5 Bft) 91,30 %
22.12.2017 01:51 3,6 C 3,9 C 95 % 1033,6 hPa 0,0 l/m 17,7 km/h (3 Bft) W-SW 247 0 min 0,000 mm 0,0 UV-I 0 W/m 2,9 C -4,0 C 25,7 km/h (4 Bft) 100,00 %
22.12.2017 01:52 3,6 C 3,9 C 95 % 1033,6 hPa 0,0 l/m 17,7 km/h (3 Bft) SW 225 0 min 0,000 mm 0,0 UV-I 0 W/m 2,9 C -4,0 C 22,5 km/h (4 Bft) 86,96 %
22.12.2017 01:53 3,6 C 3,9 C 95 % 1033,7 hPa 0,0 l/m 16,1 km/h (3 Bft) W-SW 247 0 min 0,000 mm 0,0 UV-I 0 W/m 2,9 C -3,2 C 20,9 km/h (4 Bft) 100,00 %
22.12.2017 01:54 3,6 C 3,9 C 95 % 1033,6 hPa 0,0 l/m 11,3 km/h (2 Bft) W-SW 247 0 min 0,000 mm 0,0 UV-I 0 W/m 2,9 C -0,4 C 14,5 km/h (3 Bft) 91,30 %
22.12.2017 01:55 3,6 C 3,9 C 95 % 1033,6 hPa 0,0 l/m 14,5 km/h (3 Bft) W-SW 247 0 min 0,000 mm 0,0 UV-I 0 W/m 2,9 C -2,3 C 19,3 km/h (3 Bft) 100,00 %
22.12.2017 01:56 3,6 C 3,9 C 95 % 1033,7 hPa 0,0 l/m 16,1 km/h (3 Bft) SW 225 0 min 0,000 mm 0,0 UV-I 0 W/m 2,9 C -3,2 C 25,7 km/h (4 Bft) 91,30 %
22.12.2017 01:57 3,6 C 3,9 C 95 % 1033,7 hPa 0,0 l/m 14,5 km/h (3 Bft) SW 225 0 min 0,000 mm 0,0 UV-I 0 W/m 2,9 C -2,3 C 24,1 km/h (4 Bft) 100,00 %
22.12.2017 01:58 3,6 C 3,9 C 95 % 1033,7 hPa 0,0 l/m 14,5 km/h (3 Bft) W-SW 247 0 min 0,000 mm 0,0 UV-I 0 W/m 2,9 C -2,3 C 17,7 km/h (3 Bft) 86,96 %
22.12.2017 01:59 3,6 C 3,9 C 95 % 1033,6 hPa 0,0 l/m 16,1 km/h (3 Bft) W-SW 247 0 min 0,000 mm 0,0 UV-I 0 W/m 2,9 C -3,2 C 19,3 km/h (3 Bft) 86,96 %
22.12.2017 02:00 3,6 C 3,9 C 95 % 1033,7 hPa 0,0 l/m 16,1 km/h (3 Bft) W-SW 247 0 min 0,000 mm 0,0 UV-I 0 W/m 2,9 C -3,2 C 24,1 km/h (4 Bft) 95,65 %
22.12.2017 02:01 3,6 C 3,9 C 95 % 1033,6 hPa 0,0 l/m 16,1 km/h (3 Bft) W-SW 247 0 min 0,000 mm 0,0 UV-I 0 W/m 2,9 C -3,2 C 22,5 km/h (4 Bft) 91,30 %
22.12.2017 02:02 3,6 C 3,9 C 95 % 1033,7 hPa 0,0 l/m 16,1 km/h (3 Bft) W-SW 247 0 min 0,000 mm 0,0 UV-I 0 W/m 2,9 C -3,2 C 20,9 km/h (4 Bft) 95,65 %
22.12.2017 02:03 3,6 C 3,9 C 95 % 1033,7 hPa 0,0 l/m 16,1 km/h (3 Bft) W-SW 247 0 min 0,000 mm 0,0 UV-I 0 W/m 2,9 C -3,2 C 20,9 km/h (4 Bft) 95,65 %
22.12.2017 02:04 3,6 C 3,9 C 95 % 1033,7 hPa 0,0 l/m 16,1 km/h (3 Bft) W-SW 247 0 min 0,000 mm 0,0 UV-I 0 W/m 2,9 C -3,2 C 19,3 km/h (3 Bft) 91,30 %
22.12.2017 02:05 3,6 C 3,9 C 95 % 1033,7 hPa 0,0 l/m 16,1 km/h (3 Bft) W-SW 247 0 min 0,000 mm 0,0 UV-I 0 W/m 2,9 C -3,2 C 24,1 km/h (4 Bft) 91,30 %
22.12.2017 02:06 3,6 C 3,9 C 95 % 1033,7 hPa 0,0 l/m 16,1 km/h (3 Bft) W-SW 247 0 min 0,000 mm 0,0 UV-I 0 W/m 2,9 C -3,2 C 20,9 km/h (4 Bft) 91,30 %
22.12.2017 02:07 3,6 C 3,9 C 95 % 1033,6 hPa 0,0 l/m 16,1 km/h (3 Bft) W-SW 247 0 min 0,000 mm 0,0 UV-I 0 W/m 2,9 C -3,2 C 20,9 km/h (4 Bft) 95,65 %
22.12.2017 02:08 3,6 C 3,9 C 95 % 1033,7 hPa 0,0 l/m 19,3 km/h (3 Bft) SW 225 0 min 0,000 mm 0,0 UV-I 0 W/m 2,9 C -4,7 C 24,1 km/h (4 Bft) 100,00 %
22.12.2017 02:09 3,6 C 3,9 C 95 % 1033,7 hPa 0,0 l/m 17,7 km/h (3 Bft) SW 225 0 min 0,000 mm 0,0 UV-I 0 W/m 2,9 C -4,0 C 30,6 km/h (5 Bft) 95,65 %
22.12.2017 02:10 3,6 C 3,9 C 95 % 1033,7 hPa 0,0 l/m 16,1 km/h (3 Bft) SW 225 0 min 0,000 mm 0,0 UV-I 0 W/m 2,9 C -3,2 C 24,1 km/h (4 Bft) 95,65 %
22.12.2017 02:11 3,6 C 3,9 C 95 % 1033,6 hPa 0,0 l/m 17,7 km/h (3 Bft) W-SW 247 0 min 0,000 mm 0,0 UV-I 0 W/m 2,9 C -4,0 C 27,4 km/h (4 Bft) 95,65 %
22.12.2017 02:12 3,6 C 3,9 C 95 % 1033,6 hPa 0,0 l/m 17,7 km/h (3 Bft) W-SW 247 0 min 0,000 mm 0,0 UV-I 0 W/m 2,9 C -4,0 C 27,4 km/h (4 Bft) 100,00 %
22.12.2017 02:13 3,6 C 3,9 C 95 % 1033,6 hPa 0,0 l/m 17,7 km/h (3 Bft) SW 225 0 min 0,000 mm 0,0 UV-I 0 W/m 2,9 C -4,0 C 24,1 km/h (4 Bft) 91,30 %
22.12.2017 02:14 3,6 C 3,9 C 95 % 1033,6 hPa 0,0 l/m 12,9 km/h (3 Bft) SW 225 0 min 0,000 mm 0,0 UV-I 0 W/m 2,9 C -1,4 C 19,3 km/h (3 Bft) 100,00 %
22.12.2017 02:15 3,6 C 3,9 C 95 % 1033,6 hPa 0,2 l/m 19,3 km/h (3 Bft) W-SW 247 0 min 0,000 mm 0,0 UV-I 0 W/m 2,9 C -4,7 C 24,1 km/h (4 Bft) 100,00 %
22.12.2017 02:16 3,6 C 3,9 C 95 % 1033,6 hPa 0,0 l/m 17,7 km/h (3 Bft) W-SW 247 0 min 0,000 mm 0,0 UV-I 0 W/m 2,9 C -4,0 C 27,4 km/h (4 Bft) 95,65 %
22.12.2017 02:17 3,6 C 3,9 C 95 % 1033,5 hPa 0,0 l/m 17,7 km/h (3 Bft) W-SW 247 0 min 0,000 mm 0,0 UV-I 0 W/m 2,9 C -4,0 C 27,4 km/h (4 Bft) 100,00 %
22.12.2017 02:18 3,6 C 3,9 C 95 % 1033,6 hPa 0,0 l/m 16,1 km/h (3 Bft) SW 225 0 min 0,000 mm 0,0 UV-I 0 W/m 2,9 C -3,2 C 22,5 km/h (4 Bft) 95,65 %
22.12.2017 02:19 3,6 C 3,9 C 95 % 1033,5 hPa 0,0 l/m 19,3 km/h (3 Bft) SW 225 0 min 0,000 mm 0,0 UV-I 0 W/m 2,9 C -4,7 C 24,1 km/h (4 Bft) 100,00 %
22.12.2017 02:20 3,6 C 3,9 C 95 % 1033,5 hPa 0,0 l/m 19,3 km/h (3 Bft) W-SW 247 0 min 0,000 mm 0,0 UV-I 0 W/m 2,9 C -4,7 C 24,1 km/h (4 Bft) 95,65 %
22.12.2017 02:21 3,6 C 3,9 C 95 % 1033,5 hPa 0,0 l/m 20,9 km/h (4 Bft) W-SW 247 0 min 0,000 mm 0,0 UV-I 0 W/m 2,9 C -5,3 C 25,7 km/h (4 Bft) 100,00 %
22.12.2017 02:22 3,6 C 3,9 C 95 % 1033,5 hPa 0,0 l/m 17,7 km/h (3 Bft) W-SW 247 0 min 0,000 mm 0,0 UV-I 0 W/m 2,9 C -4,0 C 20,9 km/h (4 Bft) 100,00 %
22.12.2017 02:23 3,6 C 3,9 C 96 % 1033,5 hPa 0,0 l/m 17,7 km/h (3 Bft) W-SW 247 0 min 0,000 mm 0,0 UV-I 0 W/m 3,0 C -4,0 C 25,7 km/h (4 Bft) 100,00 %
22.12.2017 02:24 3,6 C 3,9 C 95 % 1033,5 hPa 0,0 l/m 20,9 km/h (4 Bft) SW 225 0 min 0,000 mm 0,0 UV-I 0 W/m 2,9 C -5,3 C 25,7 km/h (4 Bft) 100,00 %
22.12.2017 02:25 3,6 C 3,9 C 95 % 1033,5 hPa 0,0 l/m 17,7 km/h (3 Bft) SW 225 0 min 0,000 mm 0,0 UV-I 0 W/m 2,9 C -4,0 C 30,6 km/h (5 Bft) 100,00 %
22.12.2017 02:26 3,6 C 3,9 C 95 % 1033,5 hPa 0,0 l/m 16,1 km/h (3 Bft) SW 225 0 min 0,000 mm 0,0 UV-I 0 W/m 2,9 C -3,2 C 20,9 km/h (4 Bft) 100,00 %
22.12.2017 02:27 3,6 C 3,9 C 95 % 1033,5 hPa 0,0 l/m 20,9 km/h (4 Bft) SW 225 0 min 0,000 mm 0,0 UV-I 0 W/m 2,9 C -5,3 C 24,1 km/h (4 Bft) 95,65 %
22.12.2017 02:28 3,6 C 3,9 C 95 % 1033,5 hPa 0,0 l/m 17,7 km/h (3 Bft) W-SW 247 0 min 0,000 mm 0,0 UV-I 0 W/m 2,9 C -4,0 C 25,7 km/h (4 Bft) 100,00 %
22.12.2017 02:29 3,6 C 3,9 C 95 % 1033,5 hPa 0,0 l/m 17,7 km/h (3 Bft) W-SW 247 0 min 0,000 mm 0,0 UV-I 0 W/m 2,9 C -4,0 C 25,7 km/h (4 Bft) 95,65 %
22.12.2017 02:30 3,7 C 3,9 C 96 % 1033,5 hPa 0,0 l/m 16,1 km/h (3 Bft) SW 225 0 min 0,000 mm 0,0 UV-I 0 W/m 3,1 C -3,1 C 22,5 km/h (4 Bft) 100,00 %
22.12.2017 02:31 3,7 C 3,9 C 96 % 1033,5 hPa 0,0 l/m 14,5 km/h (3 Bft) SW 225 0 min 0,000 mm 0,0 UV-I 0 W/m 3,1 C -2,2 C 20,9 km/h (4 Bft) 100,00 %
22.12.2017 02:32 3,7 C 3,9 C 96 % 1033,5 hPa 0,0 l/m 14,5 km/h (3 Bft) W-SW 247 0 min 0,000 mm 0,0 UV-I 0 W/m 3,1 C -2,2 C 20,9 km/h (4 Bft) 100,00 %
22.12.2017 02:33 3,7 C 3,9 C 96 % 1033,5 hPa 0,0 l/m 14,5 km/h (3 Bft) SW 225 0 min 0,000 mm 0,0 UV-I 0 W/m 3,1 C -2,2 C 20,9 km/h (4 Bft) 100,00 %
22.12.2017 02:34 3,7 C 3,9 C 96 % 1033,5 hPa 0,0 l/m 14,5 km/h (3 Bft) SW 225 0 min 0,000 mm 0,0 UV-I 0 W/m 3,1 C -2,2 C 22,5 km/h (4 Bft) 95,65 %
22.12.2017 02:35 3,7 C 3,9 C 96 % 1033,5 hPa 0,0 l/m 14,5 km/h (3 Bft) SW 225 0 min 0,000 mm 0,0 UV-I 0 W/m 3,1 C -2,2 C 20,9 km/h (4 Bft) 95,65 %
22.12.2017 02:36 3,6 C 3,9 C 96 % 1033,5 hPa 0,0 l/m 14,5 km/h (3 Bft) SW 225 0 min 0,000 mm 0,0 UV-I 0 W/m 3,0 C -2,3 C 20,9 km/h (4 Bft) 100,00 %
22.12.2017 02:37 3,7 C 3,9 C 96 % 1033,5 hPa 0,0 l/m 12,9 km/h (3 Bft) SW 225 0 min 0,000 mm 0,0 UV-I 0 W/m 3,1 C -1,3 C 20,9 km/h (4 Bft) 100,00 %
22.12.2017 02:38 3,6 C 3,9 C 96 % 1033,5 hPa 0,0 l/m 19,3 km/h (3 Bft) SW 225 0 min 0,000 mm 0,0 UV-I 0 W/m 3,0 C -4,7 C 25,7 km/h (4 Bft) 100,00 %
22.12.2017 02:39 3,7 C 3,9 C 96 % 1033,4 hPa 0,0 l/m 17,7 km/h (3 Bft) SW 225 0 min 0,000 mm 0,0 UV-I 0 W/m 3,1 C -3,8 C 22,5 km/h (4 Bft) 100,00 %
22.12.2017 02:40 3,7 C 3,9 C 96 % 1033,4 hPa 0,0 l/m 14,5 km/h (3 Bft) SW 225 0 min 0,000 mm 0,0 UV-I 0 W/m 3,1 C -2,2 C 20,9 km/h (4 Bft) 100,00 %
22.12.2017 02:41 3,7 C 3,9 C 96 % 1033,4 hPa 0,0 l/m 16,1 km/h (3 Bft) SW 225 0 min 0,000 mm 0,0 UV-I 0 W/m 3,1 C -3,1 C 25,7 km/h (4 Bft) 91,30 %
22.12.2017 02:42 3,7 C 3,9 C 96 % 1033,4 hPa 0,0 l/m 16,1 km/h (3 Bft) SW 225 0 min 0,000 mm 0,0 UV-I 0 W/m 3,1 C -3,1 C 22,5 km/h (4 Bft) 100,00 %
22.12.2017 02:43 3,7 C 3,9 C 96 % 1033,5 hPa 0,0 l/m 14,5 km/h (3 Bft) W-SW 247 0 min 0,000 mm 0,0 UV-I 0 W/m 3,1 C -2,2 C 22,5 km/h (4 Bft) 95,65 %
22.12.2017 02:44 3,7 C 3,9 C 96 % 1033,4 hPa 0,0 l/m 17,7 km/h (3 Bft) SW 225 0 min 0,000 mm 0,0 UV-I 0 W/m 3,1 C -3,8 C 22,5 km/h (4 Bft) 100,00 %
22.12.2017 02:45 3,7 C 3,9 C 96 % 1033,4 hPa 0,0 l/m 19,3 km/h (3 Bft) SW 225 0 min 0,000 mm 0,0 UV-I 0 W/m 3,1 C -4,6 C 24,1 km/h (4 Bft) 95,65 %
22.12.2017 02:46 3,7 C 3,9 C 96 % 1033,4 hPa 0,0 l/m 19,3 km/h (3 Bft) SW 225 0 min 0,000 mm 0,0 UV-I 0 W/m 3,1 C -4,6 C 25,7 km/h (4 Bft) 100,00 %
22.12.2017 02:47 3,7 C 3,9 C 96 % 1033,4 hPa 0,0 l/m 17,7 km/h (3 Bft) W-SW 247 0 min 0,000 mm 0,0 UV-I 0 W/m 3,1 C -3,8 C 25,7 km/h (4 Bft) 95,65 %
22.12.2017 02:48 3,7 C 3,9 C 96 % 1033,5 hPa 0,0 l/m 16,1 km/h (3 Bft) SW 225 0 min 0,000 mm 0,0 UV-I 0 W/m 3,1 C -3,1 C 22,5 km/h (4 Bft) 95,65 %
22.12.2017 02:49 3,7 C 3,9 C 96 % 1033,5 hPa 0,0 l/m 14,5 km/h (3 Bft) SW 225 0 min 0,000 mm 0,0 UV-I 0 W/m 3,1 C -2,2 C 19,3 km/h (3 Bft) 100,00 %
22.12.2017 02:50 3,7 C 3,9 C 96 % 1033,5 hPa 0,0 l/m 14,5 km/h (3 Bft) SW 225 0 min 0,000 mm 0,0 UV-I 0 W/m 3,1 C -2,2 C 17,7 km/h (3 Bft) 95,65 %
22.12.2017 02:51 3,7 C 3,9 C 96 % 1033,5 hPa 0,0 l/m 11,3 km/h (2 Bft) W-SW 247 0 min 0,000 mm 0,0 UV-I 0 W/m 3,1 C -0,3 C 17,7 km/h (3 Bft) 100,00 %
22.12.2017 02:52 3,7 C 3,9 C 96 % 1033,5 hPa 0,0 l/m 16,1 km/h (3 Bft) W-SW 247 0 min 0,000 mm 0,0 UV-I 0 W/m 3,1 C -3,1 C 20,9 km/h (4 Bft) 100,00 %
22.12.2017 02:53 3,7 C 3,9 C 96 % 1033,5 hPa 0,0 l/m 14,5 km/h (3 Bft) SW 225 0 min 0,000 mm 0,0 UV-I 0 W/m 3,1 C -2,2 C 22,5 km/h (4 Bft) 100,00 %
22.12.2017 02:54 3,7 C 3,9 C 96 % 1033,5 hPa 0,0 l/m 12,9 km/h (3 Bft) SW 225 0 min 0,000 mm 0,0 UV-I 0 W/m 3,1 C -1,3 C 19,3 km/h (3 Bft) 100,00 %
22.12.2017 02:55 3,8 C 3,9 C 96 % 1033,4 hPa 0,0 l/m 16,1 km/h (3 Bft) W-SW 247 0 min 0,000 mm 0,0 UV-I 0 W/m 3,2 C -2,9 C 20,9 km/h (4 Bft) 95,65 %
22.12.2017 02:56 3,8 C 3,9 C 96 % 1033,5 hPa 0,0 l/m 12,9 km/h (3 Bft) SW 225 0 min 0,000 mm 0,0 UV-I 0 W/m 3,2 C -1,2 C 19,3 km/h (3 Bft) 100,00 %
22.12.2017 02:57 3,8 C 3,9 C 96 % 1033,4 hPa 0,0 l/m 12,9 km/h (3 Bft) SW 225 0 min 0,000 mm 0,0 UV-I 0 W/m 3,2 C -1,2 C 20,9 km/h (4 Bft) 100,00 %
22.12.2017 02:58 3,8 C 3,9 C 96 % 1033,5 hPa 0,0 l/m 12,9 km/h (3 Bft) SW 225 0 min 0,000 mm 0,0 UV-I 0 W/m 3,2 C -1,2 C 20,9 km/h (4 Bft) 100,00 %
22.12.2017 02:59 3,8 C 3,9 C 96 % 1033,4 hPa 0,0 l/m 19,3 km/h (3 Bft) SW 225 0 min 0,000 mm 0,0 UV-I 0 W/m 3,2 C -4,4 C 25,7 km/h (4 Bft) 100,00 %
22.12.2017 03:00 3,8 C 3,9 C 96 % 1033,4 hPa 0,0 l/m 16,1 km/h (3 Bft) SW 225 0 min 0,000 mm 0,0 UV-I 0 W/m 3,2 C -2,9 C 19,3 km/h (3 Bft) 100,00 %
22.12.2017 03:01 3,8 C 3,9 C 96 % 1033,5 hPa 0,0 l/m 16,1 km/h (3 Bft) SW 225 0 min 0,000 mm 0,0 UV-I 0 W/m 3,2 C -2,9 C 22,5 km/h (4 Bft) 100,00 %
22.12.2017 03:02 3,8 C 3,9 C 96 % 1033,4 hPa 0,0 l/m 12,9 km/h (3 Bft) W-SW 247 0 min 0,000 mm 0,0 UV-I 0 W/m 3,2 C -1,2 C 19,3 km/h (3 Bft) 91,30 %
22.12.2017 03:03 3,8 C 3,9 C 96 % 1033,4 hPa 0,0 l/m 17,7 km/h (3 Bft) SW 225 0 min 0,000 mm 0,0 UV-I 0 W/m 3,2 C -3,7 C 20,9 km/h (4 Bft) 100,00 %
22.12.2017 03:04 3,8 C 3,9 C 96 % 1033,5 hPa 0,0 l/m 16,1 km/h (3 Bft) SW 225 0 min 0,000 mm 0,0 UV-I 0 W/m 3,2 C -2,9 C 20,9 km/h (4 Bft) 100,00 %
22.12.2017 03:05 3,8 C 3,9 C 96 % 1033,4 hPa 0,0 l/m 16,1 km/h (3 Bft) SW 225 0 min 0,000 mm 0,0 UV-I 0 W/m 3,2 C -2,9 C 25,7 km/h (4 Bft) 100,00 %
22.12.2017 03:06 3,8 C 3,9 C 96 % 1033,5 hPa 0,0 l/m 12,9 km/h (3 Bft) SW 225 0 min 0,000 mm 0,0 UV-I 0 W/m 3,2 C -1,2 C 24,1 km/h (4 Bft) 100,00 %
22.12.2017 03:07 3,8 C 3,9 C 96 % 1033,4 hPa 0,0 l/m 16,1 km/h (3 Bft) SW 225 0 min 0,000 mm 0,0 UV-I 0 W/m 3,2 C -2,9 C 20,9 km/h (4 Bft) 91,30 %
22.12.2017 03:08 3,8 C 3,9 C 96 % 1033,4 hPa 0,0 l/m 20,9 km/h (4 Bft) SW 225 0 min 0,000 mm 0,0 UV-I 0 W/m 3,2 C -5,1 C 25,7 km/h (4 Bft) 100,00 %
22.12.2017 03:09 3,8 C 3,9 C 96 % 1033,4 hPa 0,0 l/m 16,1 km/h (3 Bft) SW 225 0 min 0,000 mm 0,0 UV-I 0 W/m 3,2 C -2,9 C 22,5 km/h (4 Bft) 95,65 %
22.12.2017 03:10 3,9 C 3,9 C 96 % 1033,5 hPa 0,0 l/m 19,3 km/h (3 Bft) SW 225 0 min 0,000 mm 0,0 UV-I 0 W/m 3,3 C -4,3 C 27,4 km/h (4 Bft) 100,00 %
22.12.2017 03:11 3,9 C 3,9 C 96 % 1033,5 hPa 0,0 l/m 12,9 km/h (3 Bft) SW 225 0 min 0,000 mm 0,0 UV-I 0 W/m 3,3 C -1,1 C 17,7 km/h (3 Bft) 95,65 %
22.12.2017 03:12 3,9 C 3,9 C 96 % 1033,5 hPa 0,0 l/m 11,3 km/h (2 Bft) SW 225 0 min 0,000 mm 0,0 UV-I 0 W/m 3,3 C -0,1 C 19,3 km/h (3 Bft) 95,65 %
22.12.2017 03:13 3,9 C 3,9 C 96 % 1033,5 hPa 0,0 l/m 14,5 km/h (3 Bft) W-SW 247 0 min 0,000 mm 0,0 UV-I 0 W/m 3,3 C -2,0 C 17,7 km/h (3 Bft) 100,00 %
22.12.2017 03:14 3,9 C 3,9 C 96 % 1033,5 hPa 0,0 l/m 11,3 km/h (2 Bft) W-SW 247 0 min 0,000 mm 0,0 UV-I 0 W/m 3,3 C -0,1 C 17,7 km/h (3 Bft) 100,00 %
22.12.2017 03:15 3,9 C 3,9 C 96 % 1033,5 hPa 0,0 l/m 14,5 km/h (3 Bft) W-SW 247 0 min 0,000 mm 0,0 UV-I 0 W/m 3,3 C -2,0 C 19,3 km/h (3 Bft) 91,30 %
22.12.2017 03:16 3,9 C 3,9 C 96 % 1033,5 hPa 0,0 l/m 12,9 km/h (3 Bft) W-SW 247 0 min 0,000 mm 0,0 UV-I 0 W/m 3,3 C -1,1 C 20,9 km/h (4 Bft) 95,65 %
22.12.2017 03:17 3,9 C 3,9 C 96 % 1033,5 hPa 0,0 l/m 11,3 km/h (2 Bft) W-SW 247 0 min 0,000 mm 0,0 UV-I 0 W/m 3,3 C -0,1 C 14,5 km/h (3 Bft) 95,65 %
22.12.2017 03:18 3,9 C 3,9 C 96 % 1033,5 hPa 0,0 l/m 12,9 km/h (3 Bft) W-SW 247 0 min 0,000 mm 0,0 UV-I 0 W/m 3,3 C -1,1 C 17,7 km/h (3 Bft) 100,00 %
22.12.2017 03:19 3,9 C 3,9 C 96 % 1033,6 hPa 0,0 l/m 16,1 km/h (3 Bft) W-SW 247 0 min 0,000 mm 0,0 UV-I 0 W/m 3,3 C -2,8 C 22,5 km/h (4 Bft) 95,65 %
22.12.2017 03:20 3,9 C 3,9 C 96 % 1033,5 hPa 0,0 l/m 14,5 km/h (3 Bft) W-SW 247 0 min 0,000 mm 0,0 UV-I 0 W/m 3,3 C -2,0 C 19,3 km/h (3 Bft) 95,65 %
22.12.2017 03:21 3,9 C 3,9 C 96 % 1033,5 hPa 0,0 l/m 14,5 km/h (3 Bft) W-SW 247 0 min 0,000 mm 0,0 UV-I 0 W/m 3,3 C -2,0 C 17,7 km/h (3 Bft) 95,65 %
22.12.2017 03:22 3,9 C 3,9 C 96 % 1033,5 hPa 0,0 l/m 9,7 km/h (2 Bft) W-SW 247 0 min 0,000 mm 0,0 UV-I 0 W/m 3,3 C 1,1 C 16,1 km/h (3 Bft) 95,65 %
22.12.2017 03:23 3,9 C 3,9 C 96 % 1033,5 hPa 0,0 l/m 16,1 km/h (3 Bft) SW 225 0 min 0,000 mm 0,0 UV-I 0 W/m 3,3 C -2,8 C 24,1 km/h (4 Bft) 91,30 %
22.12.2017 03:24 3,9 C 3,9 C 96 % 1033,5 hPa 0,0 l/m 14,5 km/h (3 Bft) SW 225 0 min 0,000 mm 0,0 UV-I 0 W/m 3,3 C -2,0 C 19,3 km/h (3 Bft) 95,65 %
22.12.2017 03:25 3,9 C 3,9 C 96 % 1033,6 hPa 0,0 l/m 14,5 km/h (3 Bft) W-SW 247 0 min 0,000 mm 0,0 UV-I 0 W/m 3,3 C -2,0 C 19,3 km/h (3 Bft) 95,65 %
22.12.2017 03:26 3,9 C 3,9 C 96 % 1033,5 hPa 0,0 l/m 12,9 km/h (3 Bft) W-SW 247 0 min 0,000 mm 0,0 UV-I 0 W/m 3,3 C -1,1 C 17,7 km/h (3 Bft) 95,65 %
22.12.2017 03:27 3,9 C 3,9 C 96 % 1033,6 hPa 0,0 l/m 12,9 km/h (3 Bft) W-SW 247 0 min 0,000 mm 0,0 UV-I 0 W/m 3,3 C -1,1 C 16,1 km/h (3 Bft) 100,00 %
22.12.2017 03:28 3,9 C 3,9 C 96 % 1033,5 hPa 0,0 l/m 12,9 km/h (3 Bft) SW 225 0 min 0,000 mm 0,0 UV-I 0 W/m 3,3 C -1,1 C 20,9 km/h (4 Bft) 95,65 %
22.12.2017 03:29 3,9 C 3,9 C 96 % 1033,5 hPa 0,0 l/m 17,7 km/h (3 Bft) W-SW 247 0 min 0,000 mm 0,0 UV-I 0 W/m 3,3 C -3,6 C 24,1 km/h (4 Bft) 100,00 %
22.12.2017 03:30 3,9 C 3,9 C 96 % 1033,5 hPa 0,0 l/m 12,9 km/h (3 Bft) W-SW 247 0 min 0,000 mm 0,0 UV-I 0 W/m 3,3 C -1,1 C 17,7 km/h (3 Bft) 91,30 %
22.12.2017 03:31 3,9 C 3,9 C 96 % 1033,5 hPa 0,0 l/m 14,5 km/h (3 Bft) W-SW 247 0 min 0,000 mm 0,0 UV-I 0 W/m 3,3 C -2,0 C 17,7 km/h (3 Bft) 100,00 %
22.12.2017 03:32 3,9 C 3,9 C 96 % 1033,6 hPa 0,0 l/m 14,5 km/h (3 Bft) SW 225 0 min 0,000 mm 0,0 UV-I 0 W/m 3,3 C -2,0 C 19,3 km/h (3 Bft) 95,65 %
22.12.2017 03:33 3,9 C 3,9 C 96 % 1033,6 hPa 0,0 l/m 17,7 km/h (3 Bft) W-SW 247 0 min 0,000 mm 0,0 UV-I 0 W/m 3,3 C -3,6 C 22,5 km/h (4 Bft) 95,65 %
22.12.2017 03:34 3,9 C 3,9 C 96 % 1033,6 hPa 0,0 l/m 12,9 km/h (3 Bft) SW 225 0 min 0,000 mm 0,0 UV-I 0 W/m 3,3 C -1,1 C 19,3 km/h (3 Bft) 91,30 %
22.12.2017 03:35 3,9 C 3,9 C 96 % 1033,6 hPa 0,0 l/m 11,3 km/h (2 Bft) SW 225 0 min 0,000 mm 0,0 UV-I 0 W/m 3,3 C -0,1 C 16,1 km/h (3 Bft) 100,00 %
22.12.2017 03:36 3,9 C 3,9 C 96 % 1033,5 hPa 0,0 l/m 12,9 km/h (3 Bft) SW 225 0 min 0,000 mm 0,0 UV-I 0 W/m 3,3 C -1,1 C 16,1 km/h (3 Bft) 91,30 %
22.12.2017 03:37 3,9 C 3,9 C 96 % 1033,5 hPa 0,0 l/m 14,5 km/h (3 Bft) W-SW 247 0 min 0,000 mm 0,0 UV-I 0 W/m 3,3 C -2,0 C 16,1 km/h (3 Bft) 95,65 %
22.12.2017 03:38 3,9 C 3,9 C 96 % 1033,5 hPa 0,0 l/m 17,7 km/h (3 Bft) W-SW 247 0 min 0,000 mm 0,0 UV-I 0 W/m 3,3 C -3,6 C 29,0 km/h (5 Bft) 91,30 %
22.12.2017 03:39 3,9 C 3,9 C 96 % 1033,5 hPa 0,0 l/m 14,5 km/h (3 Bft) W-SW 247 0 min 0,000 mm 0,0 UV-I 0 W/m 3,3 C -2,0 C 22,5 km/h (4 Bft) 100,00 %
22.12.2017 03:40 3,9 C 3,9 C 96 % 1033,5 hPa 0,0 l/m 12,9 km/h (3 Bft) W-SW 247 0 min 0,000 mm 0,0 UV-I 0 W/m 3,3 C -1,1 C 20,9 km/h (4 Bft) 95,65 %
22.12.2017 03:41 3,9 C 3,9 C 96 % 1033,6 hPa 0,0 l/m 9,7 km/h (2 Bft) W-SW 247 0 min 0,000 mm 0,0 UV-I 0 W/m 3,3 C 1,1 C 20,9 km/h (4 Bft) 100,00 %
22.12.2017 03:42 3,9 C 3,9 C 96 % 1033,6 hPa 0,0 l/m 16,1 km/h (3 Bft) SW 225 0 min 0,000 mm 0,0 UV-I 0 W/m 3,3 C -2,8 C 24,1 km/h (4 Bft) 95,65 %
22.12.2017 03:43 3,9 C 3,9 C 96 % 1033,5 hPa 0,0 l/m 14,5 km/h (3 Bft) W-SW 247 0 min 0,000 mm 0,0 UV-I 0 W/m 3,3 C -2,0 C 17,7 km/h (3 Bft) 91,30 %
22.12.2017 03:44 3,9 C 3,9 C 96 % 1033,5 hPa 0,0 l/m 16,1 km/h (3 Bft) SW 225 0 min 0,000 mm 0,0 UV-I 0 W/m 3,3 C -2,8 C 24,1 km/h (4 Bft) 95,65 %
22.12.2017 03:45 3,9 C 3,9 C 96 % 1033,5 hPa 0,0 l/m 14,5 km/h (3 Bft) W-SW 247 0 min 0,000 mm 0,0 UV-I 0 W/m 3,3 C -2,0 C 19,3 km/h (3 Bft) 95,65 %
22.12.2017 03:46 3,9 C 3,9 C 96 % 1033,6 hPa 0,0 l/m 14,5 km/h (3 Bft) W-SW 247 0 min 0,000 mm 0,0 UV-I 0 W/m 3,3 C -2,0 C 22,5 km/h (4 Bft) 100,00 %
22.12.2017 03:47 3,9 C 3,9 C 96 % 1033,5 hPa 0,0 l/m 16,1 km/h (3 Bft) SW 225 0 min 0,000 mm 0,0 UV-I 0 W/m 3,3 C -2,8 C 20,9 km/h (4 Bft) 91,30 %
22.12.2017 03:48 3,9 C 3,9 C 96 % 1033,5 hPa 0,0 l/m 12,9 km/h (3 Bft) W-SW 247 0 min 0,000 mm 0,0 UV-I 0 W/m 3,3 C -1,1 C 16,1 km/h (3 Bft) 100,00 %
22.12.2017 03:49 3,9 C 3,9 C 96 % 1033,5 hPa 0,0 l/m 14,5 km/h (3 Bft) W-SW 247 0 min 0,000 mm 0,0 UV-I 0 W/m 3,3 C -2,0 C 19,3 km/h (3 Bft) 95,65 %
22.12.2017 03:50 3,9 C 3,9 C 96 % 1033,5 hPa 0,0 l/m 14,5 km/h (3 Bft) SW 225 0 min 0,000 mm 0,0 UV-I 0 W/m 3,3 C -2,0 C 19,3 km/h (3 Bft) 95,65 %
22.12.2017 03:51 3,9 C 3,9 C 96 % 1033,5 hPa 0,0 l/m 14,5 km/h (3 Bft) SW 225 0 min 0,000 mm 0,0 UV-I 0 W/m 3,3 C -2,0 C 20,9 km/h (4 Bft) 95,65 %
22.12.2017 03:52 3,9 C 3,9 C 96 % 1033,5 hPa 0,0 l/m 16,1 km/h (3 Bft) SW 225 0 min 0,000 mm 0,0 UV-I 0 W/m 3,3 C -2,8 C 22,5 km/h (4 Bft) 95,65 %
22.12.2017 03:53 3,9 C 3,9 C 96 % 1033,5 hPa 0,0 l/m 14,5 km/h (3 Bft) S 180 0 min 0,000 mm 0,0 UV-I 0 W/m 3,3 C -2,0 C 16,1 km/h (3 Bft) 13,04 %
22.12.2017 03:54 3,9 C 3,9 C 96 % 1033,5 hPa 0,0 l/m 14,5 km/h (3 Bft) SW 225 0 min 0,000 mm 0,0 UV-I 0 W/m 3,3 C -2,0 C 17,7 km/h (3 Bft) 60,87 %
22.12.2017 03:55 3,9 C 3,9 C 96 % 1033,5 hPa 0,0 l/m 17,7 km/h (3 Bft) SW 225 0 min 0,000 mm 0,0 UV-I 0 W/m 3,3 C -3,6 C 24,1 km/h (4 Bft) 100,00 %
22.12.2017 03:56 3,9 C 3,9 C 96 % 1033,5 hPa 0,0 l/m 16,1 km/h (3 Bft) SW 225 0 min 0,000 mm 0,0 UV-I 0 W/m 3,3 C -2,8 C 22,5 km/h (4 Bft) 95,65 %
22.12.2017 03:57 3,9 C 3,9 C 96 % 1033,5 hPa 0,0 l/m 11,3 km/h (2 Bft) SW 225 0 min 0,000 mm 0,0 UV-I 0 W/m 3,3 C -0,1 C 19,3 km/h (3 Bft) 100,00 %
22.12.2017 03:58 3,9 C 3,9 C 96 % 1033,4 hPa 0,0 l/m 11,3 km/h (2 Bft) SW 225 0 min 0,000 mm 0,0 UV-I 0 W/m 3,3 C -0,1 C 14,5 km/h (3 Bft) 91,30 %
22.12.2017 03:59 3,9 C 3,9 C 96 % 1033,5 hPa 0,0 l/m 12,9 km/h (3 Bft) W-SW 247 0 min 0,000 mm 0,0 UV-I 0 W/m 3,3 C -1,1 C 16,1 km/h (3 Bft) 95,65 %
22.12.2017 04:00 3,9 C 3,9 C 96 % 1033,5 hPa 0,0 l/m 14,5 km/h (3 Bft) W-SW 247 0 min 0,000 mm 0,0 UV-I 0 W/m 3,3 C -2,0 C 19,3 km/h (3 Bft) 100,00 %
22.12.2017 04:01 3,9 C 3,9 C 96 % 1033,5 hPa 0,0 l/m 12,9 km/h (3 Bft) SW 225 0 min 0,000 mm 0,0 UV-I 0 W/m 3,3 C -1,1 C 19,3 km/h (3 Bft) 95,65 %
22.12.2017 04:02 3,9 C 3,9 C 96 % 1033,4 hPa 0,0 l/m 12,9 km/h (3 Bft) SW 225 0 min 0,000 mm 0,0 UV-I 0 W/m 3,3 C -1,1 C 20,9 km/h (4 Bft) 100,00 %
22.12.2017 04:03 3,9 C 3,9 C 96 % 1033,5 hPa 0,0 l/m 14,5 km/h (3 Bft) SW 225 0 min 0,000 mm 0,0 UV-I 0 W/m 3,3 C -2,0 C 24,1 km/h (4 Bft) 95,65 %
22.12.2017 04:04 3,9 C 3,9 C 96 % 1033,5 hPa 0,0 l/m 11,3 km/h (2 Bft) SW 225 0 min 0,000 mm 0,0 UV-I 0 W/m 3,3 C -0,1 C 16,1 km/h (3 Bft) 100,00 %
22.12.2017 04:05 3,9 C 3,9 C 96 % 1033,5 hPa 0,0 l/m 16,1 km/h (3 Bft) SW 225 0 min 0,000 mm 0,0 UV-I 0 W/m 3,3 C -2,8 C 19,3 km/h (3 Bft) 91,30 %
22.12.2017 04:06 3,9 C 3,9 C 96 % 1033,5 hPa 0,0 l/m 16,1 km/h (3 Bft) W-SW 247 0 min 0,000 mm 0,0 UV-I 0 W/m 3,3 C -2,8 C 20,9 km/h (4 Bft) 100,00 %
22.12.2017 04:07 3,9 C 3,9 C 96 % 1033,5 hPa 0,0 l/m 14,5 km/h (3 Bft) W-SW 247 0 min 0,000 mm 0,0 UV-I 0 W/m 3,3 C -2,0 C 22,5 km/h (4 Bft) 95,65 %
22.12.2017 04:08 3,9 C 3,9 C 96 % 1033,5 hPa 0,0 l/m 12,9 km/h (3 Bft) W-SW 247 0 min 0,000 mm 0,0 UV-I 0 W/m 3,3 C -1,1 C 17,7 km/h (3 Bft) 95,65 %
22.12.2017 04:09 3,9 C 3,9 C 96 % 1033,5 hPa 0,0 l/m 12,9 km/h (3 Bft) SW 225 0 min 0,000 mm 0,0 UV-I 0 W/m 3,3 C -1,1 C 20,9 km/h (4 Bft) 95,65 %
22.12.2017 04:10 3,9 C 3,9 C 97 % 1033,5 hPa 0,0 l/m 17,7 km/h (3 Bft) SW 225 0 min 0,000 mm 0,0 UV-I 0 W/m 3,5 C -3,6 C 22,5 km/h (4 Bft) 95,65 %
22.12.2017 04:11 3,9 C 3,9 C 97 % 1033,5 hPa 0,0 l/m 9,7 km/h (2 Bft) SW 225 0 min 0,000 mm 0,0 UV-I 0 W/m 3,5 C 1,1 C 14,5 km/h (3 Bft) 100,00 %
22.12.2017 04:12 3,9 C 3,9 C 97 % 1033,5 hPa 0,0 l/m 17,7 km/h (3 Bft) SW 225 0 min 0,000 mm 0,0 UV-I 0 W/m 3,5 C -3,6 C 24,1 km/h (4 Bft) 95,65 %
22.12.2017 04:13 3,9 C 3,9 C 97 % 1033,5 hPa 0,0 l/m 14,5 km/h (3 Bft) SW 225 0 min 0,000 mm 0,0 UV-I 0 W/m 3,5 C -2,0 C 20,9 km/h (4 Bft) 95,65 %
22.12.2017 04:14 3,9 C 3,9 C 97 % 1033,5 hPa 0,0 l/m 16,1 km/h (3 Bft) SW 225 0 min 0,000 mm 0,0 UV-I 0 W/m 3,5 C -2,8 C 22,5 km/h (4 Bft) 100,00 %
22.12.2017 04:15 3,9 C 3,9 C 97 % 1033,5 hPa 0,0 l/m 11,3 km/h (2 Bft) SW 225 0 min 0,000 mm 0,0 UV-I 0 W/m 3,5 C -0,1 C 19,3 km/h (3 Bft) 100,00 %
22.12.2017 04:16 3,9 C 3,9 C 97 % 1033,5 hPa 0,0 l/m 14,5 km/h (3 Bft) W-SW 247 0 min 0,000 mm 0,0 UV-I 0 W/m 3,5 C -2,0 C 17,7 km/h (3 Bft) 100,00 %
22.12.2017 04:17 3,9 C 3,9 C 97 % 1033,5 hPa 0,0 l/m 12,9 km/h (3 Bft) W-SW 247 0 min 0,000 mm 0,0 UV-I 0 W/m 3,5 C -1,1 C 19,3 km/h (3 Bft) 100,00 %
22.12.2017 04:18 3,9 C 3,9 C 97 % 1033,5 hPa 0,0 l/m 12,9 km/h (3 Bft) W-SW 247 0 min 0,000 mm 0,0 UV-I 0 W/m 3,5 C -1,1 C 16,1 km/h (3 Bft) 100,00 %
22.12.2017 04:19 4,0 C 3,9 C 97 % 1033,4 hPa 0,0 l/m 11,3 km/h (2 Bft) W-SW 247 0 min 0,000 mm 0,0 UV-I 0 W/m 3,6 C 0,1 C 14,5 km/h (3 Bft) 95,65 %
22.12.2017 04:20 4,0 C 3,9 C 97 % 1033,5 hPa 0,0 l/m 14,5 km/h (3 Bft) SW 225 0 min 0,000 mm 0,0 UV-I 0 W/m 3,6 C -1,9 C 19,3 km/h (3 Bft) 100,00 %
22.12.2017 04:21 4,0 C 3,9 C 97 % 1033,4 hPa 0,0 l/m 9,7 km/h (2 Bft) SW 225 0 min 0,000 mm 0,0 UV-I 0 W/m 3,6 C 1,2 C 14,5 km/h (3 Bft) 100,00 %
22.12.2017 04:22 4,0 C 3,9 C 97 % 1033,4 hPa 0,0 l/m 11,3 km/h (2 Bft) SW 225 0 min 0,000 mm 0,0 UV-I 0 W/m 3,6 C 0,1 C 16,1 km/h (3 Bft) 95,65 %
22.12.2017 04:23 3,9 C 3,9 C 97 % 1033,4 hPa 0,0 l/m 12,9 km/h (3 Bft) W-SW 247 0 min 0,000 mm 0,0 UV-I 0 W/m 3,5 C -1,1 C 16,1 km/h (3 Bft) 100,00 %
22.12.2017 04:24 3,9 C 3,9 C 97 % 1033,4 hPa 0,0 l/m 12,9 km/h (3 Bft) W-SW 247 0 min 0,000 mm 0,0 UV-I 0 W/m 3,5 C -1,1 C 16,1 km/h (3 Bft) 100,00 %
22.12.2017 04:25 3,9 C 3,9 C 97 % 1033,4 hPa 0,0 l/m 12,9 km/h (3 Bft) W-SW 247 0 min 0,000 mm 0,0 UV-I 0 W/m 3,5 C -1,1 C 17,7 km/h (3 Bft) 100,00 %
22.12.2017 04:26 4,0 C 3,9 C 97 % 1033,4 hPa 0,0 l/m 9,7 km/h (2 Bft) W-SW 247 0 min 0,000 mm 0,0 UV-I 0 W/m 3,6 C 1,2 C 19,3 km/h (3 Bft) 95,65 %
22.12.2017 04:27 4,0 C 3,9 C 97 % 1033,4 hPa 0,0 l/m 12,9 km/h (3 Bft) SW 225 0 min 0,000 mm 0,0 UV-I 0 W/m 3,6 C -1,0 C 20,9 km/h (4 Bft) 95,65 %
22.12.2017 04:28 4,0 C 3,9 C 97 % 1033,4 hPa 0,0 l/m 14,5 km/h (3 Bft) W-SW 247 0 min 0,000 mm 0,0 UV-I 0 W/m 3,6 C -1,9 C 19,3 km/h (3 Bft) 100,00 %
22.12.2017 04:29 4,0 C 3,9 C 97 % 1033,4 hPa 0,0 l/m 11,3 km/h (2 Bft) SW 225 0 min 0,000 mm 0,0 UV-I 0 W/m 3,6 C 0,1 C 16,1 km/h (3 Bft) 100,00 %
22.12.2017 04:30 4,0 C 3,9 C 97 % 1033,4 hPa 0,0 l/m 16,1 km/h (3 Bft) W-SW 247 0 min 0,000 mm 0,0 UV-I 0 W/m 3,6 C -2,7 C 20,9 km/h (4 Bft) 100,00 %
22.12.2017 04:31 4,0 C 3,9 C 97 % 1033,4 hPa 0,0 l/m 12,9 km/h (3 Bft) SW 225 0 min 0,000 mm 0,0 UV-I 0 W/m 3,6 C -1,0 C 20,9 km/h (4 Bft) 100,00 %
22.12.2017 04:32 4,1 C 3,9 C 97 % 1033,4 hPa 0,0 l/m 11,3 km/h (2 Bft) W-SW 247 0 min 0,000 mm 0,0 UV-I 0 W/m 3,7 C 0,2 C 19,3 km/h (3 Bft) 100,00 %
22.12.2017 04:33 4,0 C 3,9 C 97 % 1033,4 hPa 0,0 l/m 14,5 km/h (3 Bft) W-SW 247 0 min 0,000 mm 0,0 UV-I 0 W/m 3,6 C -1,9 C 17,7 km/h (3 Bft) 95,65 %
22.12.2017 04:34 4,1 C 3,9 C 97 % 1033,4 hPa 0,0 l/m 14,5 km/h (3 Bft) SW 225 0 min 0,000 mm 0,0 UV-I 0 W/m 3,7 C -1,7 C 24,1 km/h (4 Bft) 100,00 %
22.12.2017 04:35 4,1 C 3,9 C 97 % 1033,4 hPa 0,0 l/m 12,9 km/h (3 Bft) W-SW 247 0 min 0,000 mm 0,0 UV-I 0 W/m 3,7 C -0,8 C 20,9 km/h (4 Bft) 100,00 %
22.12.2017 04:36 4,1 C 3,9 C 97 % 1033,5 hPa 0,0 l/m 11,3 km/h (2 Bft) W-SW 247 0 min 0,000 mm 0,0 UV-I 0 W/m 3,7 C 0,2 C 17,7 km/h (3 Bft) 95,65 %
22.12.2017 04:37 4,1 C 3,9 C 97 % 1033,4 hPa 0,0 l/m 9,7 km/h (2 Bft) W-SW 247 0 min 0,000 mm 0,0 UV-I 0 W/m 3,7 C 1,3 C 14,5 km/h (3 Bft) 100,00 %
22.12.2017 04:38 4,1 C 3,9 C 97 % 1033,4 hPa 0,0 l/m 14,5 km/h (3 Bft) SW 225 0 min 0,000 mm 0,0 UV-I 0 W/m 3,7 C -1,7 C 20,9 km/h (4 Bft) 100,00 %
22.12.2017 04:39 4,1 C 3,9 C 97 % 1033,4 hPa 0,0 l/m 12,9 km/h (3 Bft) SW 225 0 min 0,000 mm 0,0 UV-I 0 W/m 3,7 C -0,8 C 16,1 km/h (3 Bft) 100,00 %
22.12.2017 04:40 4,1 C 3,9 C 97 % 1033,4 hPa 0,0 l/m 12,9 km/h (3 Bft) W-SW 247 0 min 0,000 mm 0,0 UV-I 0 W/m 3,7 C -0,8 C 19,3 km/h (3 Bft) 95,65 %
22.12.2017 04:41 4,1 C 3,9 C 97 % 1033,4 hPa 0,0 l/m 9,7 km/h (2 Bft) W-SW 247 0 min 0,000 mm 0,0 UV-I 0 W/m 3,7 C 1,3 C 16,1 km/h (3 Bft) 100,00 %
22.12.2017 04:42 4,1 C 3,9 C 97 % 1033,4 hPa 0,0 l/m 11,3 km/h (2 Bft) W-SW 247 0 min 0,000 mm 0,0 UV-I 0 W/m 3,7 C 0,2 C 14,5 km/h (3 Bft) 95,65 %
22.12.2017 04:43 4,1 C 3,9 C 97 % 1033,4 hPa 0,0 l/m 9,7 km/h (2 Bft) W-SW 247 0 min 0,000 mm 0,0 UV-I 0 W/m 3,7 C 1,3 C 12,9 km/h (3 Bft) 95,65 %
22.12.2017 04:44 4,1 C 3,9 C 97 % 1033,4 hPa 0,0 l/m 12,9 km/h (3 Bft) W 270 0 min 0,000 mm 0,0 UV-I 0 W/m 3,7 C -0,8 C 17,7 km/h (3 Bft) 95,65 %
22.12.2017 04:45 4,1 C 3,9 C 97 % 1033,4 hPa 0,0 l/m 9,7 km/h (2 Bft) W-SW 247 0 min 0,000 mm 0,0 UV-I 0 W/m 3,7 C 1,3 C 16,1 km/h (3 Bft) 95,65 %
22.12.2017 04:46 4,1 C 3,9 C 97 % 1033,4 hPa 0,0 l/m 9,7 km/h (2 Bft) SW 225 0 min 0,000 mm 0,0 UV-I 0 W/m 3,7 C 1,3 C 12,9 km/h (3 Bft) 100,00 %
22.12.2017 04:47 4,1 C 3,9 C 97 % 1033,4 hPa 0,0 l/m 9,7 km/h (2 Bft) W-SW 247 0 min 0,000 mm 0,0 UV-I 0 W/m 3,7 C 1,3 C 12,9 km/h (3 Bft) 91,30 %
22.12.2017 04:48 4,1 C 3,9 C 97 % 1033,4 hPa 0,0 l/m 8,0 km/h (2 Bft) W-SW 247 0 min 0,000 mm 0,0 UV-I 0 W/m 3,7 C 2,7 C 14,5 km/h (3 Bft) 100,00 %
22.12.2017 04:49 4,1 C 3,9 C 97 % 1033,3 hPa 0,0 l/m 9,7 km/h (2 Bft) SW 225 0 min 0,000 mm 0,0 UV-I 0 W/m 3,7 C 1,3 C 12,9 km/h (3 Bft) 95,65 %
22.12.2017 04:50 4,1 C 3,9 C 97 % 1033,3 hPa 0,0 l/m 12,9 km/h (3 Bft) SW 225 0 min 0,000 mm 0,0 UV-I 0 W/m 3,7 C -0,8 C 19,3 km/h (3 Bft) 100,00 %
22.12.2017 04:51 4,1 C 3,9 C 97 % 1033,3 hPa 0,0 l/m 12,9 km/h (3 Bft) SW 225 0 min 0,000 mm 0,0 UV-I 0 W/m 3,7 C -0,8 C 16,1 km/h (3 Bft) 95,65 %
22.12.2017 04:52 4,1 C 3,9 C 97 % 1033,3 hPa 0,0 l/m 12,9 km/h (3 Bft) SW 225 0 min 0,000 mm 0,0 UV-I 0 W/m 3,7 C -0,8 C 22,5 km/h (4 Bft) 100,00 %
22.12.2017 04:53 4,1 C 3,9 C 97 % 1033,3 hPa 0,0 l/m 12,9 km/h (3 Bft) W-SW 247 0 min 0,000 mm 0,0 UV-I 0 W/m 3,7 C -0,8 C 17,7 km/h (3 Bft) 95,65 %
22.12.2017 04:54 4,1 C 3,9 C 97 % 1033,3 hPa 0,0 l/m 11,3 km/h (2 Bft) SW 225 0 min 0,000 mm 0,0 UV-I 0 W/m 3,7 C 0,2 C 16,1 km/h (3 Bft) 95,65 %
22.12.2017 04:55 4,1 C 3,9 C 97 % 1033,3 hPa 0,0 l/m 11,3 km/h (2 Bft) SW 225 0 min 0,000 mm 0,0 UV-I 0 W/m 3,7 C 0,2 C 16,1 km/h (3 Bft) 95,65 %
22.12.2017 04:56 4,1 C 3,9 C 97 % 1033,3 hPa 0,0 l/m 9,7 km/h (2 Bft) W-SW 247 0 min 0,000 mm 0,0 UV-I 0 W/m 3,7 C 1,3 C 14,5 km/h (3 Bft) 100,00 %
22.12.2017 04:57 4,1 C 3,9 C 97 % 1033,3 hPa 0,0 l/m 11,3 km/h (2 Bft) SW 225 0 min 0,000 mm 0,0 UV-I 0 W/m 3,7 C 0,2 C 14,5 km/h (3 Bft) 95,65 %
22.12.2017 04:58 4,1 C 3,9 C 97 % 1033,2 hPa 0,0 l/m 9,7 km/h (2 Bft) W-SW 247 0 min 0,000 mm 0,0 UV-I 0 W/m 3,7 C 1,3 C 16,1 km/h (3 Bft) 100,00 %
22.12.2017 04:59 4,1 C 3,9 C 97 % 1033,2 hPa 0,0 l/m 8,0 km/h (2 Bft) SW 225 0 min 0,000 mm 0,0 UV-I 0 W/m 3,7 C 2,7 C 12,9 km/h (3 Bft) 95,65 %
22.12.2017 05:00 4,1 C 3,9 C 97 % 1033,2 hPa 0,0 l/m 11,3 km/h (2 Bft) W-SW 247 0 min 0,000 mm 0,0 UV-I 0 W/m 3,7 C 0,2 C 19,3 km/h (3 Bft) 100,00 %
22.12.2017 05:01 4,1 C 3,9 C 97 % 1033,2 hPa 0,0 l/m 9,7 km/h (2 Bft) W-SW 247 0 min 0,000 mm 0,0 UV-I 0 W/m 3,7 C 1,3 C 16,1 km/h (3 Bft) 86,96 %
22.12.2017 05:02 4,1 C 3,9 C 97 % 1033,2 hPa 0,0 l/m 9,7 km/h (2 Bft) W-SW 247 0 min 0,000 mm 0,0 UV-I 0 W/m 3,7 C 1,3 C 14,5 km/h (3 Bft) 91,30 %
22.12.2017 05:03 4,1 C 3,9 C 97 % 1033,2 hPa 0,0 l/m 12,9 km/h (3 Bft) W-SW 247 0 min 0,000 mm 0,0 UV-I 0 W/m 3,7 C -0,8 C 16,1 km/h (3 Bft) 100,00 %
22.12.2017 05:04 4,1 C 3,9 C 97 % 1033,2 hPa 0,0 l/m 11,3 km/h (2 Bft) W-SW 247 0 min 0,000 mm 0,0 UV-I 0 W/m 3,7 C 0,2 C 12,9 km/h (3 Bft) 95,65 %
22.12.2017 05:05 4,1 C 3,9 C 97 % 1033,1 hPa 0,0 l/m 9,7 km/h (2 Bft) W-SW 247 0 min 0,000 mm 0,0 UV-I 0 W/m 3,7 C 1,3 C 14,5 km/h (3 Bft) 100,00 %
22.12.2017 05:06 4,1 C 3,9 C 97 % 1033,2 hPa 0,0 l/m 11,3 km/h (2 Bft) W-SW 247 0 min 0,000 mm 0,0 UV-I 0 W/m 3,7 C 0,2 C 14,5 km/h (3 Bft) 100,00 %
22.12.2017 05:07 4,1 C 3,9 C 97 % 1033,1 hPa 0,0 l/m 11,3 km/h (2 Bft) W-SW 247 0 min 0,000 mm 0,0 UV-I 0 W/m 3,7 C 0,2 C 16,1 km/h (3 Bft) 95,65 %
22.12.2017 05:08 4,1 C 3,9 C 97 % 1033,2 hPa 0,0 l/m 14,5 km/h (3 Bft) W-SW 247 0 min 0,000 mm 0,0 UV-I 0 W/m 3,7 C -1,7 C 17,7 km/h (3 Bft) 95,65 %
22.12.2017 05:09 4,1 C 3,9 C 97 % 1033,1 hPa 0,0 l/m 11,3 km/h (2 Bft) SW 225 0 min 0,000 mm 0,0 UV-I 0 W/m 3,7 C 0,2 C 14,5 km/h (3 Bft) 100,00 %
22.12.2017 05:10 4,1 C 3,9 C 97 % 1033,1 hPa 0,0 l/m 8,0 km/h (2 Bft) W-SW 247 0 min 0,000 mm 0,0 UV-I 0 W/m 3,7 C 2,7 C 11,3 km/h (2 Bft) 100,00 %
22.12.2017 05:11 4,1 C 3,9 C 97 % 1033,1 hPa 0,0 l/m 9,7 km/h (2 Bft) W-SW 247 0 min 0,000 mm 0,0 UV-I 0 W/m 3,7 C 1,3 C 16,1 km/h (3 Bft) 95,65 %
22.12.2017 05:12 4,1 C 3,9 C 97 % 1033,1 hPa 0,0 l/m 9,7 km/h (2 Bft) SW 225 0 min 0,000 mm 0,0 UV-I 0 W/m 3,7 C 1,3 C 11,3 km/h (2 Bft) 95,65 %
22.12.2017 05:13 4,1 C 3,9 C 97 % 1033,1 hPa 0,0 l/m 9,7 km/h (2 Bft) SW 225 0 min 0,000 mm 0,0 UV-I 0 W/m 3,7 C 1,3 C 14,5 km/h (3 Bft) 100,00 %
22.12.2017 05:14 4,1 C 3,9 C 97 % 1033,1 hPa 0,0 l/m 8,0 km/h (2 Bft) W-SW 247 0 min 0,000 mm 0,0 UV-I 0 W/m 3,7 C 2,7 C 12,9 km/h (3 Bft) 100,00 %
22.12.2017 05:15 4,1 C 3,9 C 97 % 1033,1 hPa 0,0 l/m 11,3 km/h (2 Bft) W-SW 247 0 min 0,000 mm 0,0 UV-I 0 W/m 3,7 C 0,2 C 14,5 km/h (3 Bft) 95,65 %
22.12.2017 05:16 4,1 C 3,9 C 97 % 1033,1 hPa 0,0 l/m 11,3 km/h (2 Bft) W-SW 247 0 min 0,000 mm 0,0 UV-I 0 W/m 3,7 C 0,2 C 16,1 km/h (3 Bft) 95,65 %
22.12.2017 05:17 4,1 C 3,9 C 97 % 1033,1 hPa 0,0 l/m 8,0 km/h (2 Bft) W-SW 247 0 min 0,000 mm 0,0 UV-I 0 W/m 3,7 C 2,7 C 12,9 km/h (3 Bft) 100,00 %
22.12.2017 05:18 4,1 C 3,9 C 97 % 1033,1 hPa 0,0 l/m 8,0 km/h (2 Bft) W-SW 247 0 min 0,000 mm 0,0 UV-I 0 W/m 3,7 C 2,7 C 12,9 km/h (3 Bft) 100,00 %
22.12.2017 05:19 4,1 C 3,9 C 97 % 1033,1 hPa 0,0 l/m 11,3 km/h (2 Bft) W-SW 247 0 min 0,000 mm 0,0 UV-I 0 W/m 3,7 C 0,2 C 16,1 km/h (3 Bft) 95,65 %
22.12.2017 05:20 4,1 C 3,9 C 97 % 1033,1 hPa 0,0 l/m 9,7 km/h (2 Bft) W-SW 247 0 min 0,000 mm 0,0 UV-I 0 W/m 3,7 C 1,3 C 14,5 km/h (3 Bft) 100,00 %
22.12.2017 05:21 4,1 C 3,9 C 97 % 1033,1 hPa 0,0 l/m 9,7 km/h (2 Bft) SW 225 0 min 0,000 mm 0,0 UV-I 0 W/m 3,7 C 1,3 C 14,5 km/h (3 Bft) 91,30 %
22.12.2017 05:22 4,1 C 3,9 C 97 % 1033,1 hPa 0,0 l/m 12,9 km/h (3 Bft) SW 225 0 min 0,000 mm 0,0 UV-I 0 W/m 3,7 C -0,8 C 22,5 km/h (4 Bft) 100,00 %
22.12.2017 05:23 4,1 C 3,9 C 97 % 1033,1 hPa 0,0 l/m 12,9 km/h (3 Bft) SW 225 0 min 0,000 mm 0,0 UV-I 0 W/m 3,7 C -0,8 C 17,7 km/h (3 Bft) 95,65 %
22.12.2017 05:24 4,1 C 3,9 C 97 % 1033,1 hPa 0,0 l/m 12,9 km/h (3 Bft) SW 225 0 min 0,000 mm 0,0 UV-I 0 W/m 3,7 C -0,8 C 17,7 km/h (3 Bft) 100,00 %
22.12.2017 05:25 4,1 C 3,9 C 97 % 1033,1 hPa 0,0 l/m 11,3 km/h (2 Bft) SW 225 0 min 0,000 mm 0,0 UV-I 0 W/m 3,7 C 0,2 C 16,1 km/h (3 Bft) 100,00 %
22.12.2017 05:26 4,2 C 3,9 C 97 % 1033,1 hPa 0,0 l/m 12,9 km/h (3 Bft) SW 225 0 min 0,000 mm 0,0 UV-I 0 W/m 3,8 C -0,7 C 22,5 km/h (4 Bft) 100,00 %
22.12.2017 05:27 4,1 C 3,9 C 97 % 1033,1 hPa 0,0 l/m 11,3 km/h (2 Bft) W-SW 247 0 min 0,000 mm 0,0 UV-I 0 W/m 3,7 C 0,2 C 19,3 km/h (3 Bft) 100,00 %
22.12.2017 05:28 4,1 C 3,9 C 97 % 1033,1 hPa 0,0 l/m 8,0 km/h (2 Bft) SW 225 0 min 0,000 mm 0,0 UV-I 0 W/m 3,7 C 2,7 C 11,3 km/h (2 Bft) 100,00 %
22.12.2017 05:29 4,2 C 3,9 C 97 % 1033,1 hPa 0,0 l/m 12,9 km/h (3 Bft) W-SW 247 0 min 0,000 mm 0,0 UV-I 0 W/m 3,8 C -0,7 C 20,9 km/h (4 Bft) 91,30 %
22.12.2017 05:30 4,1 C 3,9 C 97 % 1033,1 hPa 0,0 l/m 9,7 km/h (2 Bft) SW 225 0 min 0,000 mm 0,0 UV-I 0 W/m 3,7 C 1,3 C 16,1 km/h (3 Bft) 95,65 %
22.12.2017 05:31 4,2 C 3,9 C 97 % 1033,1 hPa 0,0 l/m 12,9 km/h (3 Bft) W-SW 247 0 min 0,000 mm 0,0 UV-I 0 W/m 3,8 C -0,7 C 17,7 km/h (3 Bft) 100,00 %
22.12.2017 05:32 4,1 C 3,9 C 97 % 1033,1 hPa 0,0 l/m 14,5 km/h (3 Bft) W-SW 247 0 min 0,000 mm 0,0 UV-I 0 W/m 3,7 C -1,7 C 20,9 km/h (4 Bft) 100,00 %
22.12.2017 05:33 4,2 C 3,9 C 97 % 1033,1 hPa 0,0 l/m 14,5 km/h (3 Bft) SW 225 0 min 0,000 mm 0,0 UV-I 0 W/m 3,8 C -1,6 C 20,9 km/h (4 Bft) 95,65 %
22.12.2017 05:34 4,2 C 3,9 C 97 % 1033,1 hPa 0,0 l/m 11,3 km/h (2 Bft) W-SW 247 0 min 0,000 mm 0,0 UV-I 0 W/m 3,8 C 0,3 C 14,5 km/h (3 Bft) 100,00 %
22.12.2017 05:35 4,2 C 3,9 C 97 % 1033,1 hPa 0,0 l/m 9,7 km/h (2 Bft) SW 225 0 min 0,000 mm 0,0 UV-I 0 W/m 3,8 C 1,4 C 12,9 km/h (3 Bft) 100,00 %
22.12.2017 05:36 4,2 C 3,9 C 97 % 1033,1 hPa 0,0 l/m 12,9 km/h (3 Bft) SW 225 0 min 0,000 mm 0,0 UV-I 0 W/m 3,8 C -0,7 C 16,1 km/h (3 Bft) 95,65 %
22.12.2017 05:37 4,2 C 3,9 C 97 % 1033,1 hPa 0,0 l/m 14,5 km/h (3 Bft) SW 225 0 min 0,000 mm 0,0 UV-I 0 W/m 3,8 C -1,6 C 17,7 km/h (3 Bft) 95,65 %
22.12.2017 05:38 4,2 C 3,9 C 97 % 1033,1 hPa 0,0 l/m 9,7 km/h (2 Bft) SW 225 0 min 0,000 mm 0,0 UV-I 0 W/m 3,8 C 1,4 C 12,9 km/h (3 Bft) 91,30 %
22.12.2017 05:39 4,1 C 3,9 C 97 % 1033,1 hPa 0,0 l/m 12,9 km/h (3 Bft) SW 225 0 min 0,000 mm 0,0 UV-I 0 W/m 3,7 C -0,8 C 20,9 km/h (4 Bft) 100,00 %
22.12.2017 05:40 4,2 C 3,9 C 97 % 1033,1 hPa 0,0 l/m 11,3 km/h (2 Bft) SW 225 0 min 0,000 mm 0,0 UV-I 0 W/m 3,8 C 0,3 C 16,1 km/h (3 Bft) 100,00 %
22.12.2017 05:41 4,2 C 3,9 C 97 % 1033,0 hPa 0,0 l/m 14,5 km/h (3 Bft) W-SW 247 0 min 0,000 mm 0,0 UV-I 0 W/m 3,8 C -1,6 C 19,3 km/h (3 Bft) 100,00 %
22.12.2017 05:42 4,2 C 3,9 C 97 % 1033,0 hPa 0,0 l/m 9,7 km/h (2 Bft) SW 225 0 min 0,000 mm 0,0 UV-I 0 W/m 3,8 C 1,4 C 17,7 km/h (3 Bft) 95,65 %
22.12.2017 05:43 4,2 C 3,9 C 97 % 1033,0 hPa 0,0 l/m 11,3 km/h (2 Bft) SW 225 0 min 0,000 mm 0,0 UV-I 0 W/m 3,8 C 0,3 C 14,5 km/h (3 Bft) 95,65 %
22.12.2017 05:44 4,1 C 3,9 C 97 % 1033,0 hPa 0,0 l/m 11,3 km/h (2 Bft) W-SW 247 0 min 0,000 mm 0,0 UV-I 0 W/m 3,7 C 0,2 C 16,1 km/h (3 Bft) 95,65 %
22.12.2017 05:45 4,2 C 3,9 C 97 % 1033,0 hPa 0,0 l/m 14,5 km/h (3 Bft) SW 225 0 min 0,000 mm 0,0 UV-I 0 W/m 3,8 C -1,6 C 19,3 km/h (3 Bft) 91,30 %
22.12.2017 05:46 4,2 C 3,9 C 97 % 1033,0 hPa 0,0 l/m 12,9 km/h (3 Bft) SW 225 0 min 0,000 mm 0,0 UV-I 0 W/m 3,8 C -0,7 C 19,3 km/h (3 Bft) 100,00 %
22.12.2017 05:47 4,1 C 3,9 C 97 % 1033,0 hPa 0,0 l/m 12,9 km/h (3 Bft) SW 225 0 min 0,000 mm 0,0 UV-I 0 W/m 3,7 C -0,8 C 17,7 km/h (3 Bft) 95,65 %
22.12.2017 05:48 4,1 C 3,9 C 97 % 1033,0 hPa 0,0 l/m 11,3 km/h (2 Bft) SW 225 0 min 0,000 mm 0,0 UV-I 0 W/m 3,7 C 0,2 C 14,5 km/h (3 Bft) 95,65 %
22.12.2017 05:49 4,1 C 3,9 C 97 % 1033,0 hPa 0,0 l/m 11,3 km/h (2 Bft) W-SW 247 0 min 0,000 mm 0,0 UV-I 0 W/m 3,7 C 0,2 C 14,5 km/h (3 Bft) 95,65 %
22.12.2017 05:50 4,1 C 3,9 C 97 % 1033,0 hPa 0,0 l/m 16,1 km/h (3 Bft) W-SW 247 0 min 0,000 mm 0,0 UV-I 0 W/m 3,7 C -2,6 C 19,3 km/h (3 Bft) 100,00 %
22.12.2017 05:51 4,1 C 3,9 C 97 % 1033,0 hPa 0,0 l/m 12,9 km/h (3 Bft) W-SW 247 0 min 0,000 mm 0,0 UV-I 0 W/m 3,7 C -0,8 C 17,7 km/h (3 Bft) 91,30 %
22.12.2017 05:52 4,1 C 3,9 C 97 % 1032,9 hPa 0,0 l/m 12,9 km/h (3 Bft) SW 225 0 min 0,000 mm 0,0 UV-I 0 W/m 3,7 C -0,8 C 17,7 km/h (3 Bft) 95,65 %
22.12.2017 05:53 4,1 C 3,9 C 97 % 1033,0 hPa 0,0 l/m 9,7 km/h (2 Bft) W-SW 247 0 min 0,000 mm 0,0 UV-I 0 W/m 3,7 C 1,3 C 12,9 km/h (3 Bft) 100,00 %
22.12.2017 05:54 4,1 C 3,9 C 97 % 1033,1 hPa 0,0 l/m 11,3 km/h (2 Bft) W-SW 247 0 min 0,000 mm 0,0 UV-I 0 W/m 3,7 C 0,2 C 16,1 km/h (3 Bft) 95,65 %
22.12.2017 05:55 4,1 C 3,9 C 97 % 1033,0 hPa 0,0 l/m 14,5 km/h (3 Bft) SW 225 0 min 0,000 mm 0,0 UV-I 0 W/m 3,7 C -1,7 C 19,3 km/h (3 Bft) 91,30 %
22.12.2017 05:56 4,1 C 3,9 C 97 % 1033,0 hPa 0,0 l/m 11,3 km/h (2 Bft) SW 225 0 min 0,000 mm 0,0 UV-I 0 W/m 3,7 C 0,2 C 17,7 km/h (3 Bft) 95,65 %
22.12.2017 05:57 4,1 C 3,9 C 97 % 1033,0 hPa 0,0 l/m 12,9 km/h (3 Bft) SW 225 0 min 0,000 mm 0,0 UV-I 0 W/m 3,7 C -0,8 C 17,7 km/h (3 Bft) 100,00 %
22.12.2017 05:58 4,1 C 3,9 C 97 % 1033,0 hPa 0,0 l/m 11,3 km/h (2 Bft) W-SW 247 0 min 0,000 mm 0,0 UV-I 0 W/m 3,7 C 0,2 C 12,9 km/h (3 Bft) 86,96 %
22.12.2017 05:59 4,1 C 3,9 C 97 % 1033,0 hPa 0,0 l/m 14,5 km/h (3 Bft) SW 225 0 min 0,000 mm 0,0 UV-I 0 W/m 3,7 C -1,7 C 19,3 km/h (3 Bft) 100,00 %
22.12.2017 06:00 4,1 C 3,9 C 97 % 1033,0 hPa 0,0 l/m 12,9 km/h (3 Bft) SW 225 0 min 0,000 mm 0,0 UV-I 0 W/m 3,7 C -0,8 C 17,7 km/h (3 Bft) 95,65 %
22.12.2017 06:01 4,1 C 3,9 C 97 % 1033,0 hPa 0,0 l/m 9,7 km/h (2 Bft) SW 225 0 min 0,000 mm 0,0 UV-I 0 W/m 3,7 C 1,3 C 14,5 km/h (3 Bft) 95,65 %
22.12.2017 06:02 4,1 C 3,9 C 97 % 1032,9 hPa 0,0 l/m 11,3 km/h (2 Bft) SW 225 0 min 0,000 mm 0,0 UV-I 0 W/m 3,7 C 0,2 C 16,1 km/h (3 Bft) 100,00 %
22.12.2017 06:03 4,1 C 3,9 C 97 % 1033,0 hPa 0,0 l/m 11,3 km/h (2 Bft) SW 225 0 min 0,000 mm 0,0 UV-I 0 W/m 3,7 C 0,2 C 14,5 km/h (3 Bft) 95,65 %
22.12.2017 06:04 4,1 C 3,9 C 97 % 1033,0 hPa 0,0 l/m 11,3 km/h (2 Bft) SW 225 0 min 0,000 mm 0,0 UV-I 0 W/m 3,7 C 0,2 C 14,5 km/h (3 Bft) 100,00 %
22.12.2017 06:05 4,1 C 3,9 C 97 % 1033,0 hPa 0,0 l/m 12,9 km/h (3 Bft) W-SW 247 0 min 0,000 mm 0,0 UV-I 0 W/m 3,7 C -0,8 C 19,3 km/h (3 Bft) 91,30 %
22.12.2017 06:06 4,1 C 3,9 C 97 % 1032,9 hPa 0,0 l/m 11,3 km/h (2 Bft) SW 225 0 min 0,000 mm 0,0 UV-I 0 W/m 3,7 C 0,2 C 16,1 km/h (3 Bft) 95,65 %
22.12.2017 06:07 4,1 C 3,9 C 97 % 1033,0 hPa 0,0 l/m 12,9 km/h (3 Bft) SW 225 0 min 0,000 mm 0,0 UV-I 0 W/m 3,7 C -0,8 C 17,7 km/h (3 Bft) 95,65 %
22.12.2017 06:08 4,1 C 3,9 C 97 % 1032,9 hPa 0,0 l/m 11,3 km/h (2 Bft) SW 225 0 min 0,000 mm 0,0 UV-I 0 W/m 3,7 C 0,2 C 14,5 km/h (3 Bft) 95,65 %
22.12.2017 06:09 4,1 C 3,9 C 97 % 1032,9 hPa 0,0 l/m 9,7 km/h (2 Bft) SW 225 0 min 0,000 mm 0,0 UV-I 0 W/m 3,7 C 1,3 C 14,5 km/h (3 Bft) 95,65 %
22.12.2017 06:10 4,1 C 3,9 C 97 % 1032,9 hPa 0,0 l/m 9,7 km/h (2 Bft) SW 225 0 min 0,000 mm 0,0 UV-I 0 W/m 3,7 C 1,3 C 14,5 km/h (3 Bft) 91,30 %
22.12.2017 06:11 4,1 C 3,9 C 97 % 1032,9 hPa 0,0 l/m 11,3 km/h (2 Bft) SW 225 0 min 0,000 mm 0,0 UV-I 0 W/m 3,7 C 0,2 C 17,7 km/h (3 Bft) 95,65 %
22.12.2017 06:12 4,1 C 3,9 C 97 % 1032,9 hPa 0,2 l/m 12,9 km/h (3 Bft) SW 225 0 min 0,000 mm 0,0 UV-I 0 W/m 3,7 C -0,8 C 19,3 km/h (3 Bft) 86,96 %
22.12.2017 06:13 4,1 C 3,9 C 97 % 1032,9 hPa 0,0 l/m 9,7 km/h (2 Bft) SW 225 0 min 0,000 mm 0,0 UV-I 0 W/m 3,7 C 1,3 C 14,5 km/h (3 Bft) 100,00 %
22.12.2017 06:14 4,1 C 3,9 C 97 % 1032,9 hPa 0,0 l/m 9,7 km/h (2 Bft) W-SW 247 0 min 0,000 mm 0,0 UV-I 0 W/m 3,7 C 1,3 C 14,5 km/h (3 Bft) 95,65 %
22.12.2017 06:15 4,1 C 3,9 C 97 % 1032,9 hPa 0,0 l/m 12,9 km/h (3 Bft) W-SW 247 0 min 0,000 mm 0,0 UV-I 0 W/m 3,7 C -0,8 C 20,9 km/h (4 Bft) 100,00 %
22.12.2017 06:16 4,1 C 3,9 C 97 % 1032,9 hPa 0,0 l/m 12,9 km/h (3 Bft) SW 225 0 min 0,000 mm 0,0 UV-I 0 W/m 3,7 C -0,8 C 17,7 km/h (3 Bft) 91,30 %
22.12.2017 06:17 4,1 C 3,9 C 97 % 1032,9 hPa 0,0 l/m 14,5 km/h (3 Bft) SW 225 0 min 0,000 mm 0,0 UV-I 0 W/m 3,7 C -1,7 C 20,9 km/h (4 Bft) 100,00 %
22.12.2017 06:18 4,1 C 3,9 C 97 % 1032,9 hPa 0,0 l/m 14,5 km/h (3 Bft) SW 225 0 min 0,000 mm 0,0 UV-I 0 W/m 3,7 C -1,7 C 19,3 km/h (3 Bft) 91,30 %
22.12.2017 06:19 4,1 C 3,9 C 97 % 1032,9 hPa 0,0 l/m 12,9 km/h (3 Bft) SW 225 0 min 0,000 mm 0,0 UV-I 0 W/m 3,7 C -0,8 C 19,3 km/h (3 Bft) 95,65 %
22.12.2017 06:20 4,2 C 3,9 C 97 % 1032,8 hPa 0,0 l/m 12,9 km/h (3 Bft) SW 225 0 min 0,000 mm 0,0 UV-I 0 W/m 3,8 C -0,7 C 17,7 km/h (3 Bft) 91,30 %
22.12.2017 06:21 4,2 C 3,9 C 97 % 1032,8 hPa 0,0 l/m 12,9 km/h (3 Bft) SW 225 0 min 0,000 mm 0,0 UV-I 0 W/m 3,8 C -0,7 C 19,3 km/h (3 Bft) 95,65 %
22.12.2017 06:22 4,2 C 3,9 C 97 % 1032,8 hPa 0,0 l/m 12,9 km/h (3 Bft) W-SW 247 0 min 0,000 mm 0,0 UV-I 0 W/m 3,8 C -0,7 C 16,1 km/h (3 Bft) 100,00 %
22.12.2017 06:23 4,2 C 3,9 C 97 % 1032,8 hPa 0,0 l/m 9,7 km/h (2 Bft) SW 225 0 min 0,000 mm 0,0 UV-I 0 W/m 3,8 C 1,4 C 12,9 km/h (3 Bft) 91,30 %
22.12.2017 06:24 4,2 C 3,9 C 97 % 1032,8 hPa 0,0 l/m 14,5 km/h (3 Bft) SW 225 0 min 0,000 mm 0,0 UV-I 0 W/m 3,8 C -1,6 C 22,5 km/h (4 Bft) 100,00 %
22.12.2017 06:25 4,2 C 3,9 C 97 % 1032,8 hPa 0,0 l/m 14,5 km/h (3 Bft) SW 225 0 min 0,000 mm 0,0 UV-I 0 W/m 3,8 C -1,6 C 19,3 km/h (3 Bft) 91,30 %
22.12.2017 06:26 4,2 C 3,9 C 97 % 1032,8 hPa 0,0 l/m 14,5 km/h (3 Bft) SW 225 0 min 0,000 mm 0,0 UV-I 0 W/m 3,8 C -1,6 C 19,3 km/h (3 Bft) 95,65 %
22.12.2017 06:27 4,2 C 3,9 C 97 % 1032,8 hPa 0,0 l/m 14,5 km/h (3 Bft) SW 225 0 min 0,000 mm 0,0 UV-I 0 W/m 3,8 C -1,6 C 16,1 km/h (3 Bft) 95,65 %
22.12.2017 06:28 4,2 C 3,9 C 97 % 1032,8 hPa 0,0 l/m 12,9 km/h (3 Bft) SW 225 0 min 0,000 mm 0,0 UV-I 0 W/m 3,8 C -0,7 C 19,3 km/h (3 Bft) 95,65 %
22.12.2017 06:29 4,2 C 3,9 C 97 % 1032,8 hPa 0,0 l/m 14,5 km/h (3 Bft) SW 225 0 min 0,000 mm 0,0 UV-I 0 W/m 3,8 C -1,6 C 19,3 km/h (3 Bft) 95,65 %
22.12.2017 06:30 4,2 C 3,9 C 97 % 1032,7 hPa 0,0 l/m 14,5 km/h (3 Bft) SW 225 0 min 0,000 mm 0,0 UV-I 0 W/m 3,8 C -1,6 C 19,3 km/h (3 Bft) 100,00 %
22.12.2017 06:31 4,2 C 3,9 C 97 % 1032,8 hPa 0,0 l/m 12,9 km/h (3 Bft) W-SW 247 0 min 0,000 mm 0,0 UV-I 0 W/m 3,8 C -0,7 C 17,7 km/h (3 Bft) 100,00 %
22.12.2017 06:32 4,2 C 3,9 C 97 % 1032,7 hPa 0,0 l/m 12,9 km/h (3 Bft) SW 225 0 min 0,000 mm 0,0 UV-I 0 W/m 3,8 C -0,7 C 17,7 km/h (3 Bft) 100,00 %
22.12.2017 06:33 4,2 C 3,9 C 97 % 1032,7 hPa 0,0 l/m 12,9 km/h (3 Bft) SW 225 0 min 0,000 mm 0,0 UV-I 0 W/m 3,8 C -0,7 C 19,3 km/h (3 Bft) 95,65 %
22.12.2017 06:34 4,2 C 3,9 C 97 % 1032,7 hPa 0,0 l/m 12,9 km/h (3 Bft) W-SW 247 0 min 0,000 mm 0,0 UV-I 0 W/m 3,8 C -0,7 C 17,7 km/h (3 Bft) 100,00 %
22.12.2017 06:35 4,2 C 3,9 C 97 % 1032,7 hPa 0,0 l/m 12,9 km/h (3 Bft) SW 225 0 min 0,000 mm 0,0 UV-I 0 W/m 3,8 C -0,7 C 20,9 km/h (4 Bft) 95,65 %
22.12.2017 06:36 4,2 C 3,9 C 97 % 1032,7 hPa 0,0 l/m 14,5 km/h (3 Bft) W-SW 247 0 min 0,000 mm 0,0 UV-I 0 W/m 3,8 C -1,6 C 17,7 km/h (3 Bft) 100,00 %
22.12.2017 06:37 4,3 C 3,9 C 97 % 1032,7 hPa 0,0 l/m 12,9 km/h (3 Bft) W-SW 247 0 min 0,000 mm 0,0 UV-I 0 W/m 3,9 C -0,6 C 19,3 km/h (3 Bft) 100,00 %
22.12.2017 06:38 4,3 C 3,9 C 97 % 1032,7 hPa 0,0 l/m 12,9 km/h (3 Bft) W-SW 247 0 min 0,000 mm 0,0 UV-I 0 W/m 3,9 C -0,6 C 19,3 km/h (3 Bft) 100,00 %
22.12.2017 06:39 4,3 C 3,9 C 97 % 1032,7 hPa 0,0 l/m 9,7 km/h (2 Bft) SW 225 0 min 0,000 mm 0,0 UV-I 0 W/m 3,9 C 1,5 C 16,1 km/h (3 Bft) 100,00 %
22.12.2017 06:40 4,3 C 3,9 C 97 % 1032,7 hPa 0,0 l/m 12,9 km/h (3 Bft) SW 225 0 min 0,000 mm 0,0 UV-I 0 W/m 3,9 C -0,6 C 16,1 km/h (3 Bft) 95,65 %
22.12.2017 06:41 4,3 C 3,9 C 97 % 1032,8 hPa 0,0 l/m 11,3 km/h (2 Bft) SW 225 0 min 0,000 mm 0,0 UV-I 0 W/m 3,9 C 0,4 C 17,7 km/h (3 Bft) 100,00 %
22.12.2017 06:42 4,3 C 3,9 C 97 % 1032,8 hPa 0,0 l/m 11,3 km/h (2 Bft) SW 225 0 min 0,000 mm 0,0 UV-I 0 W/m 3,9 C 0,4 C 16,1 km/h (3 Bft) 100,00 %
22.12.2017 06:43 4,3 C 3,9 C 97 % 1032,7 hPa 0,0 l/m 9,7 km/h (2 Bft) SW 225 0 min 0,000 mm 0,0 UV-I 0 W/m 3,9 C 1,5 C 14,5 km/h (3 Bft) 95,65 %
22.12.2017 06:44 4,3 C 3,9 C 97 % 1032,7 hPa 0,0 l/m 11,3 km/h (2 Bft) SW 225 0 min 0,000 mm 0,0 UV-I 0 W/m 3,9 C 0,4 C 17,7 km/h (3 Bft) 100,00 %
22.12.2017 06:45 4,3 C 3,9 C 97 % 1032,8 hPa 0,0 l/m 8,0 km/h (2 Bft) W-SW 247 0 min 0,000 mm 0,0 UV-I 0 W/m 3,9 C 2,9 C 11,3 km/h (2 Bft) 100,00 %
22.12.2017 06:46 4,3 C 3,9 C 97 % 1032,7 hPa 0,0 l/m 11,3 km/h (2 Bft) W-SW 247 0 min 0,000 mm 0,0 UV-I 0 W/m 3,9 C 0,4 C 16,1 km/h (3 Bft) 100,00 %
22.12.2017 06:47 4,3 C 3,9 C 97 % 1032,7 hPa 0,0 l/m 11,3 km/h (2 Bft) SW 225 0 min 0,000 mm 0,0 UV-I 0 W/m 3,9 C 0,4 C 16,1 km/h (3 Bft) 95,65 %
22.12.2017 06:48 4,3 C 3,9 C 97 % 1032,8 hPa 0,0 l/m 12,9 km/h (3 Bft) SW 225 0 min 0,000 mm 0,0 UV-I 0 W/m 3,9 C -0,6 C 17,7 km/h (3 Bft) 100,00 %
22.12.2017 06:49 4,3 C 3,9 C 97 % 1032,7 hPa 0,0 l/m 12,9 km/h (3 Bft) SW 225 0 min 0,000 mm 0,0 UV-I 0 W/m 3,9 C -0,6 C 16,1 km/h (3 Bft) 100,00 %
22.12.2017 06:50 4,3 C 3,9 C 97 % 1032,8 hPa 0,0 l/m 14,5 km/h (3 Bft) SW 225 0 min 0,000 mm 0,0 UV-I 0 W/m 3,9 C -1,5 C 17,7 km/h (3 Bft) 100,00 %
22.12.2017 06:51 4,3 C 3,9 C 97 % 1032,8 hPa 0,0 l/m 12,9 km/h (3 Bft) SW 225 0 min 0,000 mm 0,0 UV-I 0 W/m 3,9 C -0,6 C 17,7 km/h (3 Bft) 100,00 %
22.12.2017 06:52 4,3 C 3,9 C 97 % 1032,8 hPa 0,0 l/m 11,3 km/h (2 Bft) SW 225 0 min 0,000 mm 0,0 UV-I 0 W/m 3,9 C 0,4 C 20,9 km/h (4 Bft) 100,00 %
22.12.2017 06:53 4,3 C 3,9 C 97 % 1032,7 hPa 0,0 l/m 16,1 km/h (3 Bft) SW 225 0 min 0,000 mm 0,0 UV-I 0 W/m 3,9 C -2,3 C 22,5 km/h (4 Bft) 100,00 %
22.12.2017 06:54 4,3 C 3,9 C 97 % 1032,8 hPa 0,0 l/m 12,9 km/h (3 Bft) SW 225 0 min 0,000 mm 0,0 UV-I 0 W/m 3,9 C -0,6 C 16,1 km/h (3 Bft) 95,65 %
22.12.2017 06:55 4,3 C 3,9 C 96 % 1032,8 hPa 0,0 l/m 12,9 km/h (3 Bft) SW 225 0 min 0,000 mm 0,0 UV-I 0 W/m 3,7 C -0,6 C 17,7 km/h (3 Bft) 100,00 %
22.12.2017 06:56 4,3 C 3,9 C 96 % 1032,8 hPa 0,0 l/m 9,7 km/h (2 Bft) SW 225 0 min 0,000 mm 0,0 UV-I 0 W/m 3,7 C 1,5 C 14,5 km/h (3 Bft) 100,00 %
22.12.2017 06:57 4,3 C 3,9 C 96 % 1032,8 hPa 0,0 l/m 6,4 km/h (2 Bft) W-SW 247 0 min 0,000 mm 0,0 UV-I 0 W/m 3,7 C 4,3 C 11,3 km/h (2 Bft) 100,00 %
22.12.2017 06:58 4,3 C 3,9 C 96 % 1032,8 hPa 0,0 l/m 9,7 km/h (2 Bft) SW 225 0 min 0,000 mm 0,0 UV-I 0 W/m 3,7 C 1,5 C 14,5 km/h (3 Bft) 100,00 %
22.12.2017 06:59 4,3 C 3,9 C 97 % 1032,8 hPa 0,0 l/m 9,7 km/h (2 Bft) SW 225 0 min 0,000 mm 0,0 UV-I 0 W/m 3,9 C 1,5 C 12,9 km/h (3 Bft) 95,65 %
22.12.2017 07:00 4,3 C 3,9 C 97 % 1032,8 hPa 0,0 l/m 9,7 km/h (2 Bft) SW 225 0 min 0,000 mm 0,0 UV-I 0 W/m 3,9 C 1,5 C 17,7 km/h (3 Bft) 100,00 %
22.12.2017 07:01 4,3 C 3,9 C 96 % 1032,8 hPa 0,0 l/m 9,7 km/h (2 Bft) SW 225 0 min 0,000 mm 0,0 UV-I 0 W/m 3,7 C 1,5 C 14,5 km/h (3 Bft) 95,65 %
22.12.2017 07:02 4,3 C 3,9 C 96 % 1032,9 hPa 0,0 l/m 11,3 km/h (2 Bft) SW 225 0 min 0,000 mm 0,0 UV-I 0 W/m 3,7 C 0,4 C 16,1 km/h (3 Bft) 95,65 %
22.12.2017 07:03 4,3 C 3,9 C 96 % 1032,9 hPa 0,0 l/m 11,3 km/h (2 Bft) W 270 0 min 0,000 mm 0,0 UV-I 0 W/m 3,7 C 0,4 C 16,1 km/h (3 Bft) 100,00 %
22.12.2017 07:04 4,3 C 3,9 C 96 % 1032,9 hPa 0,0 l/m 11,3 km/h (2 Bft) W-SW 247 0 min 0,000 mm 0,0 UV-I 0 W/m 3,7 C 0,4 C 14,5 km/h (3 Bft) 100,00 %
22.12.2017 07:05 4,3 C 3,9 C 96 % 1032,9 hPa 0,0 l/m 9,7 km/h (2 Bft) SW 225 0 min 0,000 mm 0,0 UV-I 0 W/m 3,7 C 1,5 C 11,3 km/h (2 Bft) 100,00 %
22.12.2017 07:06 4,3 C 3,9 C 96 % 1032,9 hPa 0,0 l/m 9,7 km/h (2 Bft) W-SW 247 0 min 0,000 mm 0,0 UV-I 0 W/m 3,7 C 1,5 C 16,1 km/h (3 Bft) 100,00 %
22.12.2017 07:07 4,3 C 3,9 C 96 % 1032,9 hPa 0,0 l/m 16,1 km/h (3 Bft) W-SW 247 0 min 0,000 mm 0,0 UV-I 0 W/m 3,7 C -2,3 C 22,5 km/h (4 Bft) 100,00 %
22.12.2017 07:08 4,3 C 3,9 C 96 % 1032,9 hPa 0,0 l/m 12,9 km/h (3 Bft) W-SW 247 0 min 0,000 mm 0,0 UV-I 0 W/m 3,7 C -0,6 C 16,1 km/h (3 Bft) 95,65 %
22.12.2017 07:09 4,4 C 3,9 C 96 % 1032,9 hPa 0,0 l/m 11,3 km/h (2 Bft) W-SW 247 0 min 0,000 mm 0,0 UV-I 0 W/m 3,8 C 0,5 C 14,5 km/h (3 Bft) 100,00 %
22.12.2017 07:10 4,4 C 3,9 C 96 % 1032,8 hPa 0,0 l/m 11,3 km/h (2 Bft) W-SW 247 0 min 0,000 mm 0,0 UV-I 0 W/m 3,8 C 0,5 C 17,7 km/h (3 Bft) 100,00 %
22.12.2017 07:11 4,4 C 3,9 C 96 % 1032,8 hPa 0,0 l/m 8,0 km/h (2 Bft) SW 225 0 min 0,000 mm 0,0 UV-I 0 W/m 3,8 C 3,0 C 11,3 km/h (2 Bft) 100,00 %
22.12.2017 07:12 4,4 C 3,9 C 96 % 1032,9 hPa 0,0 l/m 12,9 km/h (3 Bft) W-SW 247 0 min 0,000 mm 0,0 UV-I 0 W/m 3,8 C -0,5 C 22,5 km/h (4 Bft) 95,65 %
22.12.2017 07:13 4,4 C 3,9 C 96 % 1032,9 hPa 0,0 l/m 12,9 km/h (3 Bft) SW 225 0 min 0,000 mm 0,0 UV-I 0 W/m 3,8 C -0,5 C 16,1 km/h (3 Bft) 100,00 %
22.12.2017 07:14 4,4 C 3,9 C 96 % 1032,9 hPa 0,0 l/m 11,3 km/h (2 Bft) W-SW 247 0 min 0,000 mm 0,0 UV-I 0 W/m 3,8 C 0,5 C 17,7 km/h (3 Bft) 100,00 %
22.12.2017 07:15 4,4 C 3,9 C 96 % 1032,9 hPa 0,0 l/m 11,3 km/h (2 Bft) SW 225 0 min 0,000 mm 0,0 UV-I 0 W/m 3,8 C 0,5 C 16,1 km/h (3 Bft) 95,65 %
22.12.2017 07:16 4,4 C 3,9 C 96 % 1033,0 hPa 0,0 l/m 9,7 km/h (2 Bft) SW 225 0 min 0,000 mm 0,0 UV-I 0 W/m 3,8 C 1,6 C 14,5 km/h (3 Bft) 95,65 %
22.12.2017 07:17 4,4 C 3,9 C 96 % 1033,0 hPa 0,0 l/m 12,9 km/h (3 Bft) W-SW 247 0 min 0,000 mm 0,0 UV-I 0 W/m 3,8 C -0,5 C 17,7 km/h (3 Bft) 95,65 %
22.12.2017 07:18 4,4 C 3,9 C 96 % 1033,0 hPa 0,0 l/m 11,3 km/h (2 Bft) W-SW 247 0 min 0,000 mm 0,0 UV-I 0 W/m 3,8 C 0,5 C 17,7 km/h (3 Bft) 100,00 %
22.12.2017 07:19 4,4 C 3,9 C 96 % 1033,0 hPa 0,0 l/m 12,9 km/h (3 Bft) W-SW 247 0 min 0,000 mm 0,0 UV-I 0 W/m 3,8 C -0,5 C 17,7 km/h (3 Bft) 100,00 %
22.12.2017 07:20 4,4 C 3,9 C 96 % 1032,9 hPa 0,0 l/m 9,7 km/h (2 Bft) W-SW 247 0 min 0,000 mm 0,0 UV-I 0 W/m 3,8 C 1,6 C 12,9 km/h (3 Bft) 100,00 %
22.12.2017 07:21 4,4 C 3,9 C 96 % 1032,9 hPa 0,0 l/m 11,3 km/h (2 Bft) W-SW 247 0 min 0,000 mm 0,0 UV-I 0 W/m 3,8 C 0,5 C 19,3 km/h (3 Bft) 100,00 %
22.12.2017 07:22 4,4 C 3,9 C 96 % 1032,9 hPa 0,0 l/m 11,3 km/h (2 Bft) W-SW 247 0 min 0,000 mm 0,0 UV-I 0 W/m 3,8 C 0,5 C 16,1 km/h (3 Bft) 95,65 %
22.12.2017 07:23 4,4 C 3,9 C 96 % 1032,9 hPa 0,0 l/m 9,7 km/h (2 Bft) W-SW 247 0 min 0,000 mm 0,0 UV-I 0 W/m 3,8 C 1,6 C 17,7 km/h (3 Bft) 95,65 %
22.12.2017 07:24 4,4 C 3,9 C 96 % 1032,9 hPa 0,0 l/m 12,9 km/h (3 Bft) W-SW 247 0 min 0,000 mm 0,0 UV-I 0 W/m 3,8 C -0,5 C 17,7 km/h (3 Bft) 100,00 %
22.12.2017 07:25 4,4 C 3,9 C 96 % 1033,0 hPa 0,0 l/m 11,3 km/h (2 Bft) SW 225 0 min 0,000 mm 0,0 UV-I 0 W/m 3,8 C 0,5 C 14,5 km/h (3 Bft) 95,65 %
22.12.2017 07:26 4,4 C 3,9 C 96 % 1033,0 hPa 0,0 l/m 12,9 km/h (3 Bft) W-SW 247 0 min 0,000 mm 0,0 UV-I 0 W/m 3,8 C -0,5 C 17,7 km/h (3 Bft) 100,00 %
22.12.2017 07:27 4,4 C 3,9 C 96 % 1032,9 hPa 0,0 l/m 11,3 km/h (2 Bft) W-SW 247 0 min 0,000 mm 0,0 UV-I 0 W/m 3,8 C 0,5 C 17,7 km/h (3 Bft) 100,00 %
22.12.2017 07:28 4,4 C 3,9 C 96 % 1032,9 hPa 0,0 l/m 11,3 km/h (2 Bft) SW 225 0 min 0,000 mm 0,0 UV-I 0 W/m 3,8 C 0,5 C 16,1 km/h (3 Bft) 95,65 %
22.12.2017 07:29 4,4 C 3,9 C 96 % 1032,9 hPa 0,0 l/m 14,5 km/h (3 Bft) W-SW 247 0 min 0,000 mm 0,0 UV-I 0 W/m 3,8 C -1,4 C 17,7 km/h (3 Bft) 95,65 %
22.12.2017 07:30 4,4 C 3,9 C 96 % 1032,9 hPa 0,0 l/m 9,7 km/h (2 Bft) SW 225 0 min 0,000 mm 0,0 UV-I 0 W/m 3,8 C 1,6 C 12,9 km/h (3 Bft) 100,00 %
22.12.2017 07:31 4,4 C 3,9 C 96 % 1032,9 hPa 0,0 l/m 11,3 km/h (2 Bft) SW 225 0 min 0,000 mm 0,0 UV-I 0 W/m 3,8 C 0,5 C 16,1 km/h (3 Bft) 91,30 %
22.12.2017 07:32 4,4 C 3,9 C 96 % 1032,9 hPa 0,0 l/m 9,7 km/h (2 Bft) SW 225 0 min 0,000 mm 0,0 UV-I 0 W/m 3,8 C 1,6 C 12,9 km/h (3 Bft) 100,00 %
22.12.2017 07:33 4,4 C 3,9 C 96 % 1032,9 hPa 0,0 l/m 8,0 km/h (2 Bft) SW 225 0 min 0,000 mm 0,0 UV-I 0 W/m 3,8 C 3,0 C 12,9 km/h (3 Bft) 95,65 %
22.12.2017 07:34 4,4 C 3,9 C 96 % 1032,9 hPa 0,0 l/m 8,0 km/h (2 Bft) SW 225 0 min 0,000 mm 0,0 UV-I 0 W/m 3,8 C 3,0 C 11,3 km/h (2 Bft) 100,00 %
22.12.2017 07:35 4,4 C 3,9 C 96 % 1032,9 hPa 0,0 l/m 8,0 km/h (2 Bft) SW 225 0 min 0,000 mm 0,0 UV-I 0 W/m 3,8 C 3,0 C 14,5 km/h (3 Bft) 91,30 %
22.12.2017 07:36 4,4 C 3,9 C 96 % 1032,9 hPa 0,0 l/m 6,4 km/h (2 Bft) W-SW 247 0 min 0,000 mm 0,0 UV-I 0 W/m 3,8 C 4,4 C 11,3 km/h (2 Bft) 95,65 %
22.12.2017 07:37 4,4 C 3,9 C 96 % 1032,9 hPa 0,0 l/m 11,3 km/h (2 Bft) SW 225 0 min 0,000 mm 0,0 UV-I 0 W/m 3,8 C 0,5 C 19,3 km/h (3 Bft) 95,65 %
22.12.2017 07:38 4,4 C 3,9 C 96 % 1032,8 hPa 0,0 l/m 9,7 km/h (2 Bft) SW 225 0 min 0,000 mm 0,0 UV-I 0 W/m 3,8 C 1,6 C 16,1 km/h (3 Bft) 100,00 %
22.12.2017 07:39 4,4 C 3,9 C 96 % 1032,8 hPa 0,0 l/m 8,0 km/h (2 Bft) SW 225 0 min 0,000 mm 0,0 UV-I 0 W/m 3,8 C 3,0 C 11,3 km/h (2 Bft) 91,30 %
22.12.2017 07:40 4,4 C 3,9 C 96 % 1032,9 hPa 0,0 l/m 8,0 km/h (2 Bft) SW 225 0 min 0,000 mm 0,0 UV-I 0 W/m 3,8 C 3,0 C 11,3 km/h (2 Bft) 100,00 %
22.12.2017 07:41 4,4 C 3,9 C 96 % 1032,8 hPa 0,0 l/m 9,7 km/h (2 Bft) SW 225 0 min 0,000 mm 0,0 UV-I 0 W/m 3,8 C 1,6 C 11,3 km/h (2 Bft) 86,96 %
22.12.2017 07:42 4,4 C 3,9 C 96 % 1032,8 hPa 0,0 l/m 9,7 km/h (2 Bft) SW 225 0 min 0,000 mm 0,0 UV-I 0 W/m 3,8 C 1,6 C 14,5 km/h (3 Bft) 95,65 %
22.12.2017 07:43 4,4 C 3,9 C 96 % 1032,8 hPa 0,0 l/m 9,7 km/h (2 Bft) SW 225 0 min 0,000 mm 0,0 UV-I 0 W/m 3,8 C 1,6 C 16,1 km/h (3 Bft) 95,65 %
22.12.2017 07:44 4,4 C 3,9 C 96 % 1032,8 hPa 0,0 l/m 8,0 km/h (2 Bft) SW 225 0 min 0,000 mm 0,0 UV-I 5 W/m 3,8 C 3,0 C 11,3 km/h (2 Bft) 91,30 %
22.12.2017 07:45 4,4 C 3,9 C 96 % 1032,9 hPa 0,0 l/m 8,0 km/h (2 Bft) W-SW 247 0 min 0,000 mm 0,0 UV-I 0 W/m 3,8 C 3,0 C 9,7 km/h (2 Bft) 100,00 %
22.12.2017 07:46 4,4 C 3,9 C 96 % 1032,9 hPa 0,0 l/m 9,7 km/h (2 Bft) SW 225 0 min 0,000 mm 0,0 UV-I 0 W/m 3,8 C 1,6 C 11,3 km/h (2 Bft) 95,65 %
22.12.2017 07:47 4,4 C 3,9 C 96 % 1032,9 hPa 0,0 l/m 9,7 km/h (2 Bft) SW 225 0 min 0,000 mm 0,0 UV-I 5 W/m 3,8 C 1,6 C 12,9 km/h (3 Bft) 100,00 %
22.12.2017 07:48 4,4 C 3,9 C 96 % 1032,8 hPa 0,0 l/m 9,7 km/h (2 Bft) SW 225 0 min 0,000 mm 0,0 UV-I 5 W/m 3,8 C 1,6 C 14,5 km/h (3 Bft) 91,30 %
22.12.2017 07:49 4,4 C 3,9 C 96 % 1032,8 hPa 0,0 l/m 9,7 km/h (2 Bft) SW 225 0 min 0,000 mm 0,0 UV-I 5 W/m 3,8 C 1,6 C 16,1 km/h (3 Bft) 91,30 %
22.12.2017 07:50 4,4 C 3,9 C 96 % 1032,8 hPa 0,0 l/m 6,4 km/h (2 Bft) W-SW 247 0 min 0,000 mm 0,0 UV-I 5 W/m 3,8 C 4,4 C 11,3 km/h (2 Bft) 91,30 %
22.12.2017 07:51 4,4 C 3,9 C 96 % 1032,8 hPa 0,0 l/m 8,0 km/h (2 Bft) SW 225 0 min 0,000 mm 0,0 UV-I 5 W/m 3,8 C 3,0 C 9,7 km/h (2 Bft) 95,65 %
22.12.2017 07:52 4,4 C 3,9 C 96 % 1032,8 hPa 0,0 l/m 4,8 km/h (1 Bft) SW 225 0 min 0,000 mm 0,0 UV-I 5 W/m 3,8 C 4,4 C 8,0 km/h (2 Bft) 95,65 %
22.12.2017 07:53 4,4 C 3,9 C 96 % 1032,9 hPa 0,0 l/m 8,0 km/h (2 Bft) W-SW 247 0 min 0,000 mm 0,0 UV-I 5 W/m 3,8 C 3,0 C 11,3 km/h (2 Bft) 95,65 %
22.12.2017 07:54 4,4 C 3,9 C 96 % 1032,9 hPa 0,0 l/m 6,4 km/h (2 Bft) W-SW 247 0 min 0,000 mm 0,0 UV-I 5 W/m 3,8 C 4,4 C 8,0 km/h (2 Bft) 95,65 %
22.12.2017 07:55 4,4 C 3,9 C 96 % 1032,9 hPa 0,0 l/m 6,4 km/h (2 Bft) W-SW 247 0 min 0,000 mm 0,0 UV-I 5 W/m 3,8 C 4,4 C 11,3 km/h (2 Bft) 100,00 %
22.12.2017 07:56 4,4 C 3,9 C 96 % 1032,9 hPa 0,0 l/m 4,8 km/h (1 Bft) W-SW 247 0 min 0,000 mm 0,0 UV-I 5 W/m 3,8 C 4,4 C 8,0 km/h (2 Bft) 95,65 %
22.12.2017 07:57 4,4 C 3,9 C 96 % 1032,9 hPa 0,0 l/m 6,4 km/h (2 Bft) W-SW 247 0 min 0,000 mm 0,0 UV-I 5 W/m 3,8 C 4,4 C 8,0 km/h (2 Bft) 95,65 %
22.12.2017 07:58 4,4 C 3,9 C 96 % 1032,9 hPa 0,0 l/m 8,0 km/h (2 Bft) SW 225 0 min 0,000 mm 0,0 UV-I 5 W/m 3,8 C 3,0 C 14,5 km/h (3 Bft) 95,65 %
22.12.2017 07:59 4,4 C 3,9 C 96 % 1033,0 hPa 0,0 l/m 9,7 km/h (2 Bft) W-SW 247 0 min 0,000 mm 0,0 UV-I 5 W/m 3,8 C 1,6 C 14,5 km/h (3 Bft) 100,00 %
22.12.2017 08:00 4,4 C 3,9 C 96 % 1033,0 hPa 0,0 l/m 9,7 km/h (2 Bft) W-SW 247 0 min 0,000 mm 0,0 UV-I 5 W/m 3,8 C 1,6 C 14,5 km/h (3 Bft) 95,65 %
22.12.2017 08:01 4,4 C 3,9 C 96 % 1033,0 hPa 0,0 l/m 8,0 km/h (2 Bft) W-SW 247 0 min 0,000 mm 0,0 UV-I 5 W/m 3,8 C 3,0 C 12,9 km/h (3 Bft) 100,00 %
22.12.2017 08:02 4,4 C 3,9 C 96 % 1033,0 hPa 0,0 l/m 6,4 km/h (2 Bft) W-SW 247 0 min 0,000 mm 0,0 UV-I 6 W/m 3,8 C 4,4 C 8,0 km/h (2 Bft) 95,65 %
22.12.2017 08:03 4,4 C 3,9 C 96 % 1033,0 hPa 0,0 l/m 6,4 km/h (2 Bft) W-SW 247 0 min 0,000 mm 0,0 UV-I 7 W/m 3,8 C 4,4 C 9,7 km/h (2 Bft) 95,65 %
22.12.2017 08:04 4,4 C 3,9 C 96 % 1032,9 hPa 0,0 l/m 11,3 km/h (2 Bft) W-SW 247 0 min 0,000 mm 0,0 UV-I 7 W/m 3,8 C 0,5 C 14,5 km/h (3 Bft) 95,65 %
22.12.2017 08:05 4,5 C 3,9 C 96 % 1032,9 hPa 0,0 l/m 9,7 km/h (2 Bft) W-SW 247 0 min 0,000 mm 0,0 UV-I 7 W/m 3,9 C 1,7 C 14,5 km/h (3 Bft) 91,30 %
22.12.2017 08:06 4,4 C 3,9 C 96 % 1033,1 hPa 0,0 l/m 8,0 km/h (2 Bft) W-SW 247 0 min 0,000 mm 0,0 UV-I 7 W/m 3,8 C 3,0 C 12,9 km/h (3 Bft) 100,00 %
22.12.2017 08:07 4,5 C 3,9 C 96 % 1033,0 hPa 0,0 l/m 8,0 km/h (2 Bft) W-SW 247 0 min 0,000 mm 0,0 UV-I 7 W/m 3,9 C 3,1 C 14,5 km/h (3 Bft) 95,65 %
22.12.2017 08:08 4,5 C 3,9 C 96 % 1032,9 hPa 0,0 l/m 8,0 km/h (2 Bft) W-SW 247 0 min 0,000 mm 0,0 UV-I 7 W/m 3,9 C 3,1 C 12,9 km/h (3 Bft) 100,00 %
22.12.2017 08:09 4,5 C 3,9 C 96 % 1032,9 hPa 0,0 l/m 6,4 km/h (2 Bft) W-SW 247 0 min 0,000 mm 0,0 UV-I 9 W/m 3,9 C 4,5 C 8,0 km/h (2 Bft) 95,65 %
22.12.2017 08:10 4,5 C 3,9 C 96 % 1032,9 hPa 0,0 l/m 11,3 km/h (2 Bft) SW 225 0 min 0,000 mm 0,0 UV-I 9 W/m 3,9 C 0,6 C 16,1 km/h (3 Bft) 95,65 %
22.12.2017 08:11 4,5 C 3,9 C 96 % 1032,9 hPa 0,0 l/m 9,7 km/h (2 Bft) W-SW 247 0 min 0,000 mm 0,0 UV-I 9 W/m 3,9 C 1,7 C 12,9 km/h (3 Bft) 95,65 %
22.12.2017 08:12 4,5 C 3,9 C 96 % 1032,9 hPa 0,0 l/m 8,0 km/h (2 Bft) W-SW 247 0 min 0,000 mm 0,0 UV-I 9 W/m 3,9 C 3,1 C 11,3 km/h (2 Bft) 95,65 %
22.12.2017 08:13 4,5 C 3,9 C 96 % 1032,9 hPa 0,0 l/m 12,9 km/h (3 Bft) W-SW 247 0 min 0,000 mm 0,0 UV-I 9 W/m 3,9 C -0,4 C 16,1 km/h (3 Bft) 100,00 %
22.12.2017 08:14 4,5 C 3,9 C 96 % 1032,9 hPa 0,0 l/m 6,4 km/h (2 Bft) W 270 0 min 0,000 mm 0,0 UV-I 9 W/m 3,9 C 4,5 C 8,0 km/h (2 Bft) 95,65 %
22.12.2017 08:15 4,6 C 3,9 C 96 % 1033,0 hPa 0,0 l/m 8,0 km/h (2 Bft) W-SW 247 0 min 0,000 mm 0,0 UV-I 9 W/m 4,0 C 3,2 C 9,7 km/h (2 Bft) 95,65 %
22.12.2017 08:16 4,6 C 3,9 C 96 % 1033,0 hPa 0,0 l/m 4,8 km/h (1 Bft) W-SW 247 0 min 0,000 mm 0,0 UV-I 11 W/m 4,0 C 4,6 C 6,4 km/h (2 Bft) 95,65 %
22.12.2017 08:17 4,6 C 3,9 C 96 % 1033,0 hPa 0,0 l/m 9,7 km/h (2 Bft) W-SW 247 0 min 0,000 mm 0,0 UV-I 11 W/m 4,0 C 1,8 C 14,5 km/h (3 Bft) 100,00 %
22.12.2017 08:18 4,6 C 3,9 C 96 % 1033,0 hPa 0,0 l/m 6,4 km/h (2 Bft) W-SW 247 0 min 0,000 mm 0,0 UV-I 11 W/m 4,0 C 4,6 C 11,3 km/h (2 Bft) 91,30 %
22.12.2017 08:19 4,6 C 3,9 C 96 % 1033,0 hPa 0,0 l/m 8,0 km/h (2 Bft) SW 225 0 min 0,000 mm 0,0 UV-I 11 W/m 4,0 C 3,2 C 12,9 km/h (3 Bft) 95,65 %
22.12.2017 08:20 4,6 C 3,9 C 96 % 1033,0 hPa 0,0 l/m 9,7 km/h (2 Bft) W-SW 247 0 min 0,000 mm 0,0 UV-I 11 W/m 4,0 C 1,8 C 12,9 km/h (3 Bft) 100,00 %
22.12.2017 08:21 4,6 C 3,9 C 96 % 1033,0 hPa 0,0 l/m 8,0 km/h (2 Bft) SW 225 0 min 0,000 mm 0,0 UV-I 11 W/m 4,0 C 3,2 C 9,7 km/h (2 Bft) 95,65 %
22.12.2017 08:22 4,6 C 3,9 C 96 % 1033,0 hPa 0,0 l/m 9,7 km/h (2 Bft) SW 225 0 min 0,000 mm 0,0 UV-I 11 W/m 4,0 C 1,8 C 17,7 km/h (3 Bft) 100,00 %
22.12.2017 08:23 4,6 C 3,9 C 96 % 1033,0 hPa 0,0 l/m 14,5 km/h (3 Bft) SW 225 0 min 0,000 mm 0,0 UV-I 11 W/m 4,0 C -1,1 C 19,3 km/h (3 Bft) 95,65 %
22.12.2017 08:24 4,6 C 3,9 C 96 % 1033,0 hPa 0,0 l/m 8,0 km/h (2 Bft) W-SW 247 0 min 0,000 mm 0,0 UV-I 11 W/m 4,0 C 3,2 C 12,9 km/h (3 Bft) 100,00 %
22.12.2017 08:25 4,7 C 3,9 C 96 % 1033,0 hPa 0,0 l/m 11,3 km/h (2 Bft) SW 225 0 min 0,000 mm 0,0 UV-I 11 W/m 4,1 C 0,9 C 14,5 km/h (3 Bft) 95,65 %
22.12.2017 08:26 4,7 C 3,9 C 96 % 1033,0 hPa 0,0 l/m 6,4 km/h (2 Bft) SW 225 0 min 0,000 mm 0,0 UV-I 11 W/m 4,1 C 4,7 C 11,3 km/h (2 Bft) 95,65 %
22.12.2017 08:27 4,7 C 3,9 C 95 % 1033,0 hPa 0,0 l/m 6,4 km/h (2 Bft) W-SW 247 0 min 0,000 mm 0,0 UV-I 12 W/m 4,0 C 4,7 C 11,3 km/h (2 Bft) 100,00 %
22.12.2017 08:28 4,7 C 3,9 C 95 % 1033,0 hPa 0,0 l/m 4,8 km/h (1 Bft) W-SW 247 0 min 0,000 mm 0,0 UV-I 12 W/m 4,0 C 4,7 C 8,0 km/h (2 Bft) 100,00 %
22.12.2017 08:29 4,7 C 3,9 C 95 % 1033,0 hPa 0,0 l/m 6,4 km/h (2 Bft) W-SW 247 0 min 0,000 mm 0,0 UV-I 12 W/m 4,0 C 4,7 C 8,0 km/h (2 Bft) 100,00 %
22.12.2017 08:30 4,6 C 3,9 C 95 % 1033,0 hPa 0,0 l/m 8,0 km/h (2 Bft) SW 225 0 min 0,000 mm 0,0 UV-I 12 W/m 3,9 C 3,2 C 12,9 km/h (3 Bft) 100,00 %
22.12.2017 08:31 4,6 C 3,9 C 95 % 1033,0 hPa 0,0 l/m 9,7 km/h (2 Bft) W-SW 247 0 min 0,000 mm 0,0 UV-I 12 W/m 3,9 C 1,8 C 12,9 km/h (3 Bft) 95,65 %
22.12.2017 08:32 4,6 C 3,9 C 95 % 1033,1 hPa 0,0 l/m 8,0 km/h (2 Bft) W-SW 247 0 min 0,000 mm 0,0 UV-I 14 W/m 3,9 C 3,2 C 12,9 km/h (3 Bft) 95,65 %
22.12.2017 08:33 4,6 C 3,9 C 95 % 1033,1 hPa 0,0 l/m 9,7 km/h (2 Bft) SW 225 0 min 0,000 mm 0,0 UV-I 14 W/m 3,9 C 1,8 C 14,5 km/h (3 Bft) 100,00 %
22.12.2017 08:34 4,6 C 3,9 C 95 % 1033,1 hPa 0,0 l/m 9,7 km/h (2 Bft) SW 225 0 min 0,000 mm 0,0 UV-I 14 W/m 3,9 C 1,8 C 14,5 km/h (3 Bft) 100,00 %
22.12.2017 08:35 4,6 C 3,9 C 95 % 1033,1 hPa 0,0 l/m 6,4 km/h (2 Bft) SW 225 0 min 0,000 mm 0,0 UV-I 16 W/m 3,9 C 4,6 C 9,7 km/h (2 Bft) 95,65 %
22.12.2017 08:36 4,6 C 3,9 C 95 % 1033,1 hPa 0,0 l/m 8,0 km/h (2 Bft) SW 225 0 min 0,000 mm 0,0 UV-I 16 W/m 3,9 C 3,2 C 9,7 km/h (2 Bft) 95,65 %
22.12.2017 08:37 4,6 C 3,9 C 95 % 1033,1 hPa 0,0 l/m 6,4 km/h (2 Bft) W-SW 247 0 min 0,000 mm 0,0 UV-I 17 W/m 3,9 C 4,6 C 8,0 km/h (2 Bft) 95,65 %
22.12.2017 08:38 4,6 C 3,9 C 95 % 1033,1 hPa 0,0 l/m 8,0 km/h (2 Bft) SW 225 0 min 0,000 mm 0,0 UV-I 18 W/m 3,9 C 3,2 C 11,3 km/h (2 Bft) 100,00 %
22.12.2017 08:39 4,6 C 3,9 C 95 % 1033,1 hPa 0,0 l/m 9,7 km/h (2 Bft) W-SW 247 0 min 0,000 mm 0,0 UV-I 16 W/m 3,9 C 1,8 C 12,9 km/h (3 Bft) 95,65 %
22.12.2017 08:40 4,7 C 3,9 C 95 % 1033,1 hPa 0,0 l/m 11,3 km/h (2 Bft) SW 225 0 min 0,000 mm 0,0 UV-I 16 W/m 4,0 C 0,9 C 14,5 km/h (3 Bft) 100,00 %
22.12.2017 08:41 4,7 C 3,9 C 96 % 1033,1 hPa 0,0 l/m 9,7 km/h (2 Bft) W-SW 247 0 min 0,000 mm 0,0 UV-I 14 W/m 4,1 C 2,0 C 14,5 km/h (3 Bft) 100,00 %
22.12.2017 08:42 4,7 C 3,9 C 96 % 1033,1 hPa 0,0 l/m 8,0 km/h (2 Bft) SW 225 0 min 0,000 mm 0,0 UV-I 14 W/m 4,1 C 3,3 C 9,7 km/h (2 Bft) 100,00 %
22.12.2017 08:43 4,7 C 3,9 C 96 % 1033,1 hPa 0,0 l/m 8,0 km/h (2 Bft) SW 225 0 min 0,000 mm 0,0 UV-I 14 W/m 4,1 C 3,3 C 9,7 km/h (2 Bft) 100,00 %
22.12.2017 08:44 4,7 C 3,9 C 96 % 1033,1 hPa 0,0 l/m 11,3 km/h (2 Bft) SW 225 0 min 0,000 mm 0,0 UV-I 14 W/m 4,1 C 0,9 C 14,5 km/h (3 Bft) 100,00 %
22.12.2017 08:45 4,7 C 3,9 C 96 % 1033,2 hPa 0,0 l/m 8,0 km/h (2 Bft) SW 225 0 min 0,000 mm 0,0 UV-I 14 W/m 4,1 C 3,3 C 11,3 km/h (2 Bft) 100,00 %
22.12.2017 08:46 4,7 C 3,9 C 96 % 1033,1 hPa 0,0 l/m 9,7 km/h (2 Bft) SW 225 0 min 0,000 mm 0,0 UV-I 14 W/m 4,1 C 2,0 C 12,9 km/h (3 Bft) 91,30 %
22.12.2017 08:47 4,7 C 3,9 C 96 % 1033,2 hPa 0,0 l/m 8,0 km/h (2 Bft) SW 225 0 min 0,000 mm 0,0 UV-I 14 W/m 4,1 C 3,3 C 11,3 km/h (2 Bft) 100,00 %
22.12.2017 08:48 4,7 C 3,9 C 96 % 1033,1 hPa 0,0 l/m 8,0 km/h (2 Bft) SW 225 0 min 0,000 mm 0,0 UV-I 14 W/m 4,1 C 3,3 C 11,3 km/h (2 Bft) 100,00 %
22.12.2017 08:49 4,7 C 3,9 C 96 % 1033,1 hPa 0,0 l/m 4,8 km/h (1 Bft) SW 225 0 min 0,000 mm 0,0 UV-I 14 W/m 4,1 C 4,7 C 6,4 km/h (2 Bft) 95,65 %
22.12.2017 08:50 4,7 C 3,9 C 96 % 1033,1 hPa 0,0 l/m 6,4 km/h (2 Bft) SW 225 0 min 0,000 mm 0,0 UV-I 14 W/m 4,1 C 4,7 C 8,0 km/h (2 Bft) 100,00 %
22.12.2017 08:51 4,7 C 3,9 C 96 % 1033,2 hPa 0,0 l/m 9,7 km/h (2 Bft) W-SW 247 0 min 0,000 mm 0,0 UV-I 14 W/m 4,1 C 2,0 C 14,5 km/h (3 Bft) 95,65 %
22.12.2017 08:52 4,7 C 3,9 C 96 % 1033,1 hPa 0,0 l/m 6,4 km/h (2 Bft) SW 225 0 min 0,000 mm 0,0 UV-I 16 W/m 4,1 C 4,7 C 8,0 km/h (2 Bft) 100,00 %
22.12.2017 08:53 4,7 C 3,9 C 96 % 1033,2 hPa 0,0 l/m 6,4 km/h (2 Bft) S-SW 202 0 min 0,000 mm 0,0 UV-I 16 W/m 4,1 C 4,7 C 11,3 km/h (2 Bft) 95,65 %
22.12.2017 08:54 4,7 C 3,9 C 96 % 1033,1 hPa 0,0 l/m 8,0 km/h (2 Bft) SW 225 0 min 0,000 mm 0,0 UV-I 16 W/m 4,1 C 3,3 C 11,3 km/h (2 Bft) 100,00 %
22.12.2017 08:55 4,7 C 3,9 C 96 % 1033,2 hPa 0,0 l/m 6,4 km/h (2 Bft) SW 225 0 min 0,000 mm 0,0 UV-I 16 W/m 4,1 C 4,7 C 8,0 km/h (2 Bft) 100,00 %
22.12.2017 08:56 4,7 C 3,9 C 96 % 1033,1 hPa 0,0 l/m 6,4 km/h (2 Bft) SW 225 0 min 0,000 mm 0,0 UV-I 16 W/m 4,1 C 4,7 C 8,0 km/h (2 Bft) 91,30 %
22.12.2017 08:57 4,7 C 3,9 C 96 % 1033,1 hPa 0,0 l/m 6,4 km/h (2 Bft) S-SW 202 0 min 0,000 mm 0,0 UV-I 16 W/m 4,1 C 4,7 C 8,0 km/h (2 Bft) 100,00 %
22.12.2017 08:58 4,7 C 3,9 C 96 % 1033,1 hPa 0,0 l/m 8,0 km/h (2 Bft) W-SW 247 0 min 0,000 mm 0,0 UV-I 16 W/m 4,1 C 3,3 C 12,9 km/h (3 Bft) 95,65 %
22.12.2017 08:59 4,7 C 3,9 C 96 % 1033,1 hPa 0,0 l/m 6,4 km/h (2 Bft) W-SW 247 0 min 0,000 mm 0,0 UV-I 16 W/m 4,1 C 4,7 C 11,3 km/h (2 Bft) 100,00 %
22.12.2017 09:00 4,7 C 3,9 C 96 % 1033,1 hPa 0,0 l/m 6,4 km/h (2 Bft) S-SW 202 0 min 0,000 mm 0,0 UV-I 18 W/m 4,1 C 4,7 C 9,7 km/h (2 Bft) 91,30 %
22.12.2017 09:01 4,7 C 3,9 C 96 % 1033,1 hPa 0,0 l/m 8,0 km/h (2 Bft) SW 225 0 min 0,000 mm 0,0 UV-I 17 W/m 4,1 C 3,3 C 9,7 km/h (2 Bft) 91,30 %
22.12.2017 09:02 4,7 C 3,9 C 96 % 1033,1 hPa 0,0 l/m 8,0 km/h (2 Bft) SW 225 0 min 0,000 mm 0,0 UV-I 16 W/m 4,1 C 3,3 C 9,7 km/h (2 Bft) 95,65 %
22.12.2017 09:03 4,7 C 3,9 C 96 % 1033,1 hPa 0,0 l/m 8,0 km/h (2 Bft) S-SW 202 0 min 0,000 mm 0,0 UV-I 16 W/m 4,1 C 3,3 C 9,7 km/h (2 Bft) 95,65 %
22.12.2017 09:04 4,7 C 3,9 C 96 % 1033,1 hPa 0,0 l/m 9,7 km/h (2 Bft) S-SW 202 0 min 0,000 mm 0,0 UV-I 18 W/m 4,1 C 2,0 C 12,9 km/h (3 Bft) 100,00 %
22.12.2017 09:05 4,7 C 3,9 C 96 % 1033,1 hPa 0,0 l/m 8,0 km/h (2 Bft) S-SW 202 0 min 0,000 mm 0,0 UV-I 18 W/m 4,1 C 3,3 C 11,3 km/h (2 Bft) 95,65 %
22.12.2017 09:06 4,7 C 3,9 C 96 % 1033,1 hPa 0,0 l/m 8,0 km/h (2 Bft) SW 225 0 min 0,000 mm 0,0 UV-I 18 W/m 4,1 C 3,3 C 11,3 km/h (2 Bft) 100,00 %
22.12.2017 09:07 4,7 C 3,9 C 96 % 1033,1 hPa 0,0 l/m 8,0 km/h (2 Bft) SW 225 0 min 0,000 mm 0,0 UV-I 18 W/m 4,1 C 3,3 C 11,3 km/h (2 Bft) 91,30 %
22.12.2017 09:08 4,7 C 3,9 C 96 % 1033,1 hPa 0,0 l/m 8,0 km/h (2 Bft) S-SW 202 0 min 0,000 mm 0,0 UV-I 18 W/m 4,1 C 3,3 C 12,9 km/h (3 Bft) 95,65 %
22.12.2017 09:09 4,7 C 3,9 C 96 % 1033,1 hPa 0,0 l/m 8,0 km/h (2 Bft) S-SW 202 0 min 0,000 mm 0,0 UV-I 18 W/m 4,1 C 3,3 C 9,7 km/h (2 Bft) 91,30 %
22.12.2017 09:10 4,7 C 3,9 C 96 % 1033,1 hPa 0,0 l/m 6,4 km/h (2 Bft) SW 225 0 min 0,000 mm 0,0 UV-I 18 W/m 4,1 C 4,7 C 9,7 km/h (2 Bft) 100,00 %
22.12.2017 09:11 4,7 C 3,9 C 96 % 1033,1 hPa 0,0 l/m 8,0 km/h (2 Bft) S-SW 202 0 min 0,000 mm 0,0 UV-I 18 W/m 4,1 C 3,3 C 12,9 km/h (3 Bft) 95,65 %
22.12.2017 09:12 4,7 C 3,9 C 96 % 1033,1 hPa 0,0 l/m 8,0 km/h (2 Bft) S-SW 202 0 min 0,000 mm 0,0 UV-I 19 W/m 4,1 C 3,3 C 11,3 km/h (2 Bft) 100,00 %
22.12.2017 09:13 4,7 C 3,9 C 96 % 1033,1 hPa 0,0 l/m 6,4 km/h (2 Bft) SW 225 0 min 0,000 mm 0,0 UV-I 19 W/m 4,1 C 4,7 C 9,7 km/h (2 Bft) 95,65 %
22.12.2017 09:14 4,7 C 3,9 C 96 % 1033,1 hPa 0,0 l/m 8,0 km/h (2 Bft) S-SW 202 0 min 0,000 mm 0,0 UV-I 21 W/m 4,1 C 3,3 C 11,3 km/h (2 Bft) 91,30 %
22.12.2017 09:15 4,7 C 3,9 C 96 % 1033,1 hPa 0,0 l/m 9,7 km/h (2 Bft) S-SW 202 0 min 0,000 mm 0,0 UV-I 21 W/m 4,1 C 2,0 C 14,5 km/h (3 Bft) 91,30 %
22.12.2017 09:16 4,7 C 3,9 C 96 % 1033,1 hPa 0,0 l/m 8,0 km/h (2 Bft) S-SW 202 0 min 0,000 mm 0,0 UV-I 21 W/m 4,1 C 3,3 C 11,3 km/h (2 Bft) 100,00 %
22.12.2017 09:17 4,7 C 3,9 C 96 % 1033,1 hPa 0,0 l/m 9,7 km/h (2 Bft) SW 225 0 min 0,000 mm 0,0 UV-I 21 W/m 4,1 C 2,0 C 14,5 km/h (3 Bft) 95,65 %
22.12.2017 09:18 4,7 C 3,9 C 96 % 1033,1 hPa 0,0 l/m 8,0 km/h (2 Bft) SW 225 0 min 0,000 mm 0,0 UV-I 20 W/m 4,1 C 3,3 C 11,3 km/h (2 Bft) 95,65 %
22.12.2017 09:19 4,7 C 3,9 C 96 % 1033,1 hPa 0,0 l/m 9,7 km/h (2 Bft) S-SW 202 0 min 0,000 mm 0,0 UV-I 21 W/m 4,1 C 2,0 C 12,9 km/h (3 Bft) 100,00 %
22.12.2017 09:20 4,7 C 3,9 C 96 % 1033,1 hPa 0,0 l/m 11,3 km/h (2 Bft) S-SW 202 0 min 0,000 mm 0,0 UV-I 21 W/m 4,1 C 0,9 C 14,5 km/h (3 Bft) 95,65 %
22.12.2017 09:21 4,7 C 3,9 C 96 % 1033,1 hPa 0,0 l/m 8,0 km/h (2 Bft) SW 225 0 min 0,000 mm 0,0 UV-I 21 W/m 4,1 C 3,3 C 12,9 km/h (3 Bft) 86,96 %
22.12.2017 09:22 4,7 C 3,9 C 96 % 1033,1 hPa 0,0 l/m 9,7 km/h (2 Bft) S-SW 202 0 min 0,000 mm 0,0 UV-I 23 W/m 4,1 C 2,0 C 12,9 km/h (3 Bft) 95,65 %
22.12.2017 09:23 4,7 C 3,9 C 96 % 1033,1 hPa 0,0 l/m 8,0 km/h (2 Bft) SW 225 0 min 0,000 mm 0,0 UV-I 25 W/m 4,1 C 3,3 C 12,9 km/h (3 Bft) 100,00 %
22.12.2017 09:24 4,7 C 3,9 C 96 % 1033,1 hPa 0,0 l/m 8,0 km/h (2 Bft) S-SW 202 0 min 0,000 mm 0,0 UV-I 24 W/m 4,1 C 3,3 C 12,9 km/h (3 Bft) 100,00 %
22.12.2017 09:25 4,7 C 3,9 C 96 % 1033,1 hPa 0,0 l/m 12,9 km/h (3 Bft) SW 225 0 min 0,000 mm 0,0 UV-I 26 W/m 4,1 C -0,1 C 14,5 km/h (3 Bft) 95,65 %
22.12.2017 09:26 4,7 C 3,9 C 96 % 1033,1 hPa 0,0 l/m 8,0 km/h (2 Bft) S-SW 202 0 min 0,000 mm 0,0 UV-I 26 W/m 4,1 C 3,3 C 11,3 km/h (2 Bft) 95,65 %
22.12.2017 09:27 4,7 C 3,9 C 96 % 1033,1 hPa 0,0 l/m 9,7 km/h (2 Bft) SW 225 0 min 0,000 mm 0,0 UV-I 25 W/m 4,1 C 2,0 C 14,5 km/h (3 Bft) 95,65 %
22.12.2017 09:28 4,7 C 3,9 C 96 % 1033,1 hPa 0,0 l/m 11,3 km/h (2 Bft) SW 225 0 min 0,000 mm 0,0 UV-I 25 W/m 4,1 C 0,9 C 14,5 km/h (3 Bft) 95,65 %
22.12.2017 09:29 4,8 C 3,9 C 96 % 1033,1 hPa 0,0 l/m 11,3 km/h (2 Bft) SW 225 0 min 0,000 mm 0,0 UV-I 26 W/m 4,2 C 1,0 C 16,1 km/h (3 Bft) 95,65 %
22.12.2017 09:30 4,8 C 3,9 C 96 % 1033,0 hPa 0,0 l/m 11,3 km/h (2 Bft) S-SW 202 0 min 0,000 mm 0,0 UV-I 27 W/m 4,2 C 1,0 C 14,5 km/h (3 Bft) 100,00 %
22.12.2017 09:31 4,8 C 3,9 C 96 % 1033,1 hPa 0,0 l/m 11,3 km/h (2 Bft) S-SW 202 0 min 0,000 mm 0,0 UV-I 25 W/m 4,2 C 1,0 C 17,7 km/h (3 Bft) 100,00 %
22.12.2017 09:32 4,8 C 3,9 C 96 % 1033,1 hPa 0,0 l/m 9,7 km/h (2 Bft) W-SW 247 0 min 0,000 mm 0,0 UV-I 25 W/m 4,2 C 2,1 C 12,9 km/h (3 Bft) 100,00 %
22.12.2017 09:33 4,8 C 3,9 C 96 % 1033,1 hPa 0,0 l/m 9,7 km/h (2 Bft) W-SW 247 0 min 0,000 mm 0,0 UV-I 25 W/m 4,2 C 2,1 C 14,5 km/h (3 Bft) 100,00 %
22.12.2017 09:34 4,8 C 3,9 C 96 % 1033,1 hPa 0,0 l/m 8,0 km/h (2 Bft) SW 225 0 min 0,000 mm 0,0 UV-I 23 W/m 4,2 C 3,4 C 11,3 km/h (2 Bft) 100,00 %
22.12.2017 09:35 4,8 C 3,9 C 96 % 1033,1 hPa 0,0 l/m 9,7 km/h (2 Bft) SW 225 0 min 0,000 mm 0,0 UV-I 23 W/m 4,2 C 2,1 C 16,1 km/h (3 Bft) 95,65 %
22.12.2017 09:36 4,8 C 3,9 C 96 % 1033,1 hPa 0,0 l/m 8,0 km/h (2 Bft) SW 225 0 min 0,000 mm 0,0 UV-I 27 W/m 4,2 C 3,4 C 12,9 km/h (3 Bft) 100,00 %
22.12.2017 09:37 4,8 C 3,9 C 96 % 1033,1 hPa 0,0 l/m 9,7 km/h (2 Bft) SW 225 0 min 0,000 mm 0,0 UV-I 30 W/m 4,2 C 2,1 C 14,5 km/h (3 Bft) 100,00 %
22.12.2017 09:38 4,8 C 3,9 C 96 % 1033,1 hPa 0,0 l/m 11,3 km/h (2 Bft) SW 225 0 min 0,000 mm 0,0 UV-I 32 W/m 4,2 C 1,0 C 16,1 km/h (3 Bft) 95,65 %
22.12.2017 09:39 4,8 C 3,9 C 96 % 1033,1 hPa 0,0 l/m 8,0 km/h (2 Bft) S-SW 202 0 min 0,000 mm 0,0 UV-I 30 W/m 4,2 C 3,4 C 12,9 km/h (3 Bft) 95,65 %
22.12.2017 09:40 4,8 C 3,9 C 96 % 1033,1 hPa 0,0 l/m 8,0 km/h (2 Bft) SW 225 0 min 0,000 mm 0,0 UV-I 30 W/m 4,2 C 3,4 C 12,9 km/h (3 Bft) 100,00 %
22.12.2017 09:41 4,8 C 3,9 C 96 % 1033,1 hPa 0,0 l/m 6,4 km/h (2 Bft) W-SW 247 0 min 0,000 mm 0,0 UV-I 30 W/m 4,2 C 4,8 C 9,7 km/h (2 Bft) 100,00 %
22.12.2017 09:42 4,8 C 3,9 C 96 % 1033,2 hPa 0,0 l/m 6,4 km/h (2 Bft) SW 225 0 min 0,000 mm 0,0 UV-I 29 W/m 4,2 C 4,8 C 9,7 km/h (2 Bft) 95,65 %
22.12.2017 09:43 4,8 C 3,9 C 96 % 1033,1 hPa 0,0 l/m 9,7 km/h (2 Bft) SW 225 0 min 0,000 mm 0,0 UV-I 28 W/m 4,2 C 2,1 C 12,9 km/h (3 Bft) 100,00 %
22.12.2017 09:44 4,8 C 3,9 C 96 % 1033,1 hPa 0,0 l/m 8,0 km/h (2 Bft) W-SW 247 0 min 0,000 mm 0,0 UV-I 26 W/m 4,2 C 3,4 C 12,9 km/h (3 Bft) 100,00 %
22.12.2017 09:45 4,8 C 3,9 C 96 % 1033,2 hPa 0,0 l/m 9,7 km/h (2 Bft) SW 225 0 min 0,000 mm 0,0 UV-I 26 W/m 4,2 C 2,1 C 14,5 km/h (3 Bft) 100,00 %
22.12.2017 09:46 4,8 C 3,9 C 96 % 1033,2 hPa 0,0 l/m 9,7 km/h (2 Bft) SW 225 0 min 0,000 mm 0,0 UV-I 26 W/m 4,2 C 2,1 C 12,9 km/h (3 Bft) 91,30 %
22.12.2017 09:47 4,8 C 3,9 C 96 % 1033,1 hPa 0,0 l/m 11,3 km/h (2 Bft) W-SW 247 0 min 0,000 mm 0,0 UV-I 26 W/m 4,2 C 1,0 C 16,1 km/h (3 Bft) 95,65 %
22.12.2017 09:48 4,8 C 3,9 C 96 % 1033,2 hPa 0,0 l/m 9,7 km/h (2 Bft) SW 225 0 min 0,000 mm 0,0 UV-I 25 W/m 4,2 C 2,1 C 14,5 km/h (3 Bft) 95,65 %
22.12.2017 09:49 4,8 C 3,9 C 96 % 1033,1 hPa 0,0 l/m 9,7 km/h (2 Bft) W-SW 247 0 min 0,000 mm 0,0 UV-I 23 W/m 4,2 C 2,1 C 14,5 km/h (3 Bft) 91,30 %
22.12.2017 09:50 4,8 C 3,9 C 96 % 1033,2 hPa 0,0 l/m 8,0 km/h (2 Bft) SW 225 0 min 0,000 mm 0,0 UV-I 23 W/m 4,2 C 3,4 C 9,7 km/h (2 Bft) 100,00 %
22.12.2017 09:51 4,8 C 3,9 C 96 % 1033,1 hPa 0,0 l/m 6,4 km/h (2 Bft) SW 225 0 min 0,000 mm 0,0 UV-I 23 W/m 4,2 C 4,8 C 8,0 km/h (2 Bft) 100,00 %
22.12.2017 09:52 4,8 C 3,9 C 96 % 1033,2 hPa 0,0 l/m 6,4 km/h (2 Bft) W-SW 247 0 min 0,000 mm 0,0 UV-I 23 W/m 4,2 C 4,8 C 9,7 km/h (2 Bft) 91,30 %
22.12.2017 09:53 4,8 C 3,9 C 96 % 1033,1 hPa 0,0 l/m 9,7 km/h (2 Bft) SW 225 0 min 0,000 mm 0,0 UV-I 23 W/m 4,2 C 2,1 C 14,5 km/h (3 Bft) 100,00 %
22.12.2017 09:54 4,8 C 3,9 C 96 % 1033,1 hPa 0,0 l/m 8,0 km/h (2 Bft) W-SW 247 0 min 0,000 mm 0,0 UV-I 22 W/m 4,2 C 3,4 C 12,9 km/h (3 Bft) 95,65 %
22.12.2017 09:55 4,9 C 3,9 C 96 % 1033,1 hPa 0,0 l/m 9,7 km/h (2 Bft) SW 225 0 min 0,000 mm 0,0 UV-I 25 W/m 4,3 C 2,2 C 11,3 km/h (2 Bft) 100,00 %
22.12.2017 09:56 4,8 C 3,9 C 96 % 1033,1 hPa 0,0 l/m 8,0 km/h (2 Bft) W-SW 247 0 min 0,000 mm 0,0 UV-I 26 W/m 4,2 C 3,4 C 12,9 km/h (3 Bft) 91,30 %
22.12.2017 09:57 4,8 C 3,9 C 96 % 1033,1 hPa 0,0 l/m 9,7 km/h (2 Bft) SW 225 0 min 0,000 mm 0,0 UV-I 26 W/m 4,2 C 2,1 C 16,1 km/h (3 Bft) 95,65 %
22.12.2017 09:58 4,9 C 3,9 C 96 % 1033,1 hPa 0,0 l/m 6,4 km/h (2 Bft) SW 225 0 min 0,000 mm 0,0 UV-I 28 W/m 4,3 C 4,9 C 9,7 km/h (2 Bft) 95,65 %
22.12.2017 09:59 4,9 C 3,9 C 96 % 1033,1 hPa 0,0 l/m 4,8 km/h (1 Bft) SW 225 0 min 0,000 mm 0,0 UV-I 29 W/m 4,3 C 4,9 C 8,0 km/h (2 Bft) 100,00 %
22.12.2017 10:00 4,9 C 3,9 C 96 % 1033,2 hPa 0,0 l/m 6,4 km/h (2 Bft) W-SW 247 0 min 0,000 mm 0,0 UV-I 28 W/m 4,3 C 4,9 C 11,3 km/h (2 Bft) 95,65 %
22.12.2017 10:01 4,9 C 3,9 C 96 % 1033,2 hPa 0,0 l/m 8,0 km/h (2 Bft) SW 225 0 min 0,000 mm 0,0 UV-I 33 W/m 4,3 C 3,5 C 11,3 km/h (2 Bft) 100,00 %
22.12.2017 10:02 4,9 C 3,9 C 96 % 1033,2 hPa 0,0 l/m 8,0 km/h (2 Bft) SW 225 0 min 0,000 mm 0,0 UV-I 33 W/m 4,3 C 3,5 C 11,3 km/h (2 Bft) 95,65 %
22.12.2017 10:03 4,9 C 3,9 C 96 % 1033,1 hPa 0,0 l/m 4,8 km/h (1 Bft) SW 225 0 min 0,000 mm 0,0 UV-I 30 W/m 4,3 C 4,9 C 6,4 km/h (2 Bft) 91,30 %
22.12.2017 10:04 4,9 C 3,9 C 96 % 1033,2 hPa 0,0 l/m 8,0 km/h (2 Bft) SW 225 0 min 0,000 mm 0,0 UV-I 28 W/m 4,3 C 3,5 C 8,0 km/h (2 Bft) 100,00 %
22.12.2017 10:05 4,9 C 3,9 C 96 % 1033,2 hPa 0,0 l/m 6,4 km/h (2 Bft) SW 225 0 min 0,000 mm 0,0 UV-I 26 W/m 4,3 C 4,9 C 11,3 km/h (2 Bft) 95,65 %
22.12.2017 10:06 4,9 C 3,9 C 96 % 1033,2 hPa 0,0 l/m 4,8 km/h (1 Bft) W-SW 247 0 min 0,000 mm 0,0 UV-I 26 W/m 4,3 C 4,9 C 6,4 km/h (2 Bft) 100,00 %
22.12.2017 10:07 4,9 C 3,9 C 95 % 1033,2 hPa 0,0 l/m 6,4 km/h (2 Bft) W-SW 247 0 min 0,000 mm 0,0 UV-I 30 W/m 4,2 C 4,9 C 11,3 km/h (2 Bft) 95,65 %
22.12.2017 10:08 4,9 C 3,9 C 96 % 1033,2 hPa 0,0 l/m 4,8 km/h (1 Bft) SW 225 0 min 0,000 mm 0,0 UV-I 26 W/m 4,3 C 4,9 C 6,4 km/h (2 Bft) 100,00 %
22.12.2017 10:09 4,9 C 3,9 C 96 % 1033,2 hPa 0,0 l/m 4,8 km/h (1 Bft) SW 225 0 min 0,000 mm 0,0 UV-I 30 W/m 4,3 C 4,9 C 8,0 km/h (2 Bft) 95,65 %
22.12.2017 10:10 4,9 C 3,9 C 95 % 1033,2 hPa 0,0 l/m 4,8 km/h (1 Bft) W-SW 247 0 min 0,000 mm 0,0 UV-I 30 W/m 4,2 C 4,9 C 6,4 km/h (2 Bft) 95,65 %
22.12.2017 10:11 4,9 C 3,9 C 95 % 1033,1 hPa 0,0 l/m 4,8 km/h (1 Bft) W-SW 247 0 min 0,000 mm 0,0 UV-I 32 W/m 4,2 C 4,9 C 4,8 km/h (1 Bft) 91,30 %
22.12.2017 10:12 4,9 C 3,9 C 95 % 1033,1 hPa 0,0 l/m 4,8 km/h (1 Bft) W-SW 247 0 min 0,000 mm 0,0 UV-I 33 W/m 4,2 C 4,9 C 6,4 km/h (2 Bft) 95,65 %
22.12.2017 10:13 4,9 C 3,9 C 95 % 1033,1 hPa 0,0 l/m 6,4 km/h (2 Bft) SW 225 0 min 0,000 mm 0,0 UV-I 32 W/m 4,2 C 4,9 C 9,7 km/h (2 Bft) 100,00 %
22.12.2017 10:14 4,9 C 3,9 C 95 % 1033,1 hPa 0,0 l/m 6,4 km/h (2 Bft) SW 225 0 min 0,000 mm 0,0 UV-I 32 W/m 4,2 C 4,9 C 11,3 km/h (2 Bft) 95,65 %
22.12.2017 10:15 4,9 C 3,9 C 95 % 1033,1 hPa 0,0 l/m 6,4 km/h (2 Bft) SW 225 0 min 0,000 mm 0,0 UV-I 30 W/m 4,2 C 4,9 C 8,0 km/h (2 Bft) 100,00 %
22.12.2017 10:16 4,9 C 3,9 C 96 % 1033,1 hPa 0,0 l/m 8,0 km/h (2 Bft) SW 225 0 min 0,000 mm 0,0 UV-I 30 W/m 4,3 C 3,5 C 9,7 km/h (2 Bft) 95,65 %
22.12.2017 10:17 4,9 C 3,9 C 96 % 1033,1 hPa 0,0 l/m 4,8 km/h (1 Bft) SW 225 0 min 0,000 mm 0,0 UV-I 32 W/m 4,3 C 4,9 C 6,4 km/h (2 Bft) 95,65 %
22.12.2017 10:18 5,0 C 3,9 C 95 % 1033,0 hPa 0,0 l/m 6,4 km/h (2 Bft) W-SW 247 0 min 0,000 mm 0,0 UV-I 32 W/m 4,3 C 5,0 C 8,0 km/h (2 Bft) 95,65 %
22.12.2017 10:19 5,0 C 3,9 C 95 % 1033,0 hPa 0,0 l/m 6,4 km/h (2 Bft) W-SW 247 0 min 0,000 mm 0,0 UV-I 30 W/m 4,3 C 5,0 C 9,7 km/h (2 Bft) 100,00 %
22.12.2017 10:20 5,0 C 3,9 C 95 % 1033,0 hPa 0,0 l/m 4,8 km/h (1 Bft) S-SW 202 0 min 0,000 mm 0,0 UV-I 30 W/m 4,3 C 5,0 C 9,7 km/h (2 Bft) 95,65 %
22.12.2017 10:21 5,0 C 3,9 C 95 % 1033,0 hPa 0,0 l/m 6,4 km/h (2 Bft) W-SW 247 0 min 0,000 mm 0,0 UV-I 28 W/m 4,3 C 5,0 C 8,0 km/h (2 Bft) 91,30 %
22.12.2017 10:22 5,0 C 3,9 C 95 % 1033,0 hPa 0,0 l/m 6,4 km/h (2 Bft) S-SW 202 0 min 0,000 mm 0,0 UV-I 28 W/m 4,3 C 5,0 C 8,0 km/h (2 Bft) 95,65 %
22.12.2017 10:23 5,0 C 3,9 C 95 % 1033,0 hPa 0,0 l/m 6,4 km/h (2 Bft) SW 225 0 min 0,000 mm 0,0 UV-I 30 W/m 4,3 C 5,0 C 8,0 km/h (2 Bft) 95,65 %
22.12.2017 10:24 5,0 C 3,9 C 95 % 1033,0 hPa 0,0 l/m 4,8 km/h (1 Bft) W-SW 247 0 min 0,000 mm 0,0 UV-I 30 W/m 4,3 C 5,0 C 6,4 km/h (2 Bft) 91,30 %
22.12.2017 10:25 5,0 C 3,9 C 95 % 1033,0 hPa 0,0 l/m 6,4 km/h (2 Bft) SW 225 0 min 0,000 mm 0,0 UV-I 30 W/m 4,3 C 5,0 C 9,7 km/h (2 Bft) 91,30 %
22.12.2017 10:26 5,0 C 3,9 C 95 % 1033,0 hPa 0,0 l/m 6,4 km/h (2 Bft) SW 225 0 min 0,000 mm 0,0 UV-I 30 W/m 4,3 C 5,0 C 8,0 km/h (2 Bft) 95,65 %
22.12.2017 10:27 5,0 C 3,9 C 95 % 1033,0 hPa 0,0 l/m 8,0 km/h (2 Bft) SW 225 0 min 0,000 mm 0,0 UV-I 30 W/m 4,3 C 3,6 C 16,1 km/h (3 Bft) 95,65 %
22.12.2017 10:28 5,1 C 3,9 C 95 % 1033,0 hPa 0,0 l/m 9,7 km/h (2 Bft) SW 225 0 min 0,000 mm 0,0 UV-I 30 W/m 4,4 C 2,4 C 14,5 km/h (3 Bft) 95,65 %
22.12.2017 10:29 5,1 C 3,9 C 95 % 1033,0 hPa 0,0 l/m 8,0 km/h (2 Bft) SW 225 0 min 0,000 mm 0,0 UV-I 34 W/m 4,4 C 3,7 C 12,9 km/h (3 Bft) 95,65 %
22.12.2017 10:30 5,1 C 3,9 C 95 % 1033,0 hPa 0,0 l/m 8,0 km/h (2 Bft) SW 225 0 min 0,000 mm 0,0 UV-I 35 W/m 4,4 C 3,7 C 11,3 km/h (2 Bft) 91,30 %
22.12.2017 10:31 5,1 C 3,9 C 95 % 1032,9 hPa 0,0 l/m 9,7 km/h (2 Bft) SW 225 0 min 0,000 mm 0,0 UV-I 37 W/m 4,4 C 2,4 C 11,3 km/h (2 Bft) 95,65 %
22.12.2017 10:32 5,1 C 3,9 C 95 % 1032,9 hPa 0,0 l/m 9,7 km/h (2 Bft) SW 225 0 min 0,000 mm 0,0 UV-I 37 W/m 4,4 C 2,4 C 12,9 km/h (3 Bft) 95,65 %
22.12.2017 10:33 5,1 C 3,9 C 95 % 1033,0 hPa 0,0 l/m 6,4 km/h (2 Bft) SW 225 0 min 0,000 mm 0,0 UV-I 40 W/m 4,4 C 5,1 C 12,9 km/h (3 Bft) 100,00 %
22.12.2017 10:34 5,1 C 3,9 C 95 % 1032,9 hPa 0,0 l/m 6,4 km/h (2 Bft) W-SW 247 0 min 0,000 mm 0,0 UV-I 39 W/m 4,4 C 5,1 C 11,3 km/h (2 Bft) 95,65 %
22.12.2017 10:35 5,1 C 3,9 C 96 % 1032,9 hPa 0,0 l/m 8,0 km/h (2 Bft) SW 225 0 min 0,000 mm 0,0 UV-I 36 W/m 4,5 C 3,7 C 11,3 km/h (2 Bft) 100,00 %
22.12.2017 10:36 5,1 C 3,9 C 95 % 1032,9 hPa 0,0 l/m 6,4 km/h (2 Bft) SW 225 0 min 0,000 mm 0,0 UV-I 30 W/m 4,4 C 5,1 C 9,7 km/h (2 Bft) 95,65 %
22.12.2017 10:37 5,1 C 3,9 C 95 % 1032,9 hPa 0,0 l/m 6,4 km/h (2 Bft) SW 225 0 min 0,000 mm 0,0 UV-I 30 W/m 4,4 C 5,1 C 12,9 km/h (3 Bft) 95,65 %
22.12.2017 10:38 5,1 C 3,9 C 96 % 1032,9 hPa 0,0 l/m 11,3 km/h (2 Bft) SW 225 0 min 0,000 mm 0,0 UV-I 30 W/m 4,5 C 1,3 C 12,9 km/h (3 Bft) 91,30 %
22.12.2017 10:39 5,1 C 3,9 C 95 % 1032,9 hPa 0,0 l/m 8,0 km/h (2 Bft) SW 225 0 min 0,000 mm 0,0 UV-I 32 W/m 4,4 C 3,7 C 11,3 km/h (2 Bft) 95,65 %
22.12.2017 10:40 5,1 C 3,9 C 96 % 1032,8 hPa 0,0 l/m 8,0 km/h (2 Bft) SW 225 0 min 0,000 mm 0,0 UV-I 31 W/m 4,5 C 3,7 C 12,9 km/h (3 Bft) 100,00 %
22.12.2017 10:41 5,1 C 3,9 C 96 % 1032,9 hPa 0,0 l/m 8,0 km/h (2 Bft) SW 225 0 min 0,000 mm 0,0 UV-I 32 W/m 4,5 C 3,7 C 12,9 km/h (3 Bft) 95,65 %
22.12.2017 10:42 5,1 C 3,9 C 96 % 1032,8 hPa 0,0 l/m 6,4 km/h (2 Bft) SW 225 0 min 0,000 mm 0,0 UV-I 32 W/m 4,5 C 5,1 C 9,7 km/h (2 Bft) 100,00 %
22.12.2017 10:43 5,1 C 3,9 C 96 % 1032,9 hPa 0,0 l/m 9,7 km/h (2 Bft) SW 225 0 min 0,000 mm 0,0 UV-I 33 W/m 4,5 C 2,4 C 12,9 km/h (3 Bft) 95,65 %
22.12.2017 10:44 5,1 C 3,9 C 96 % 1032,8 hPa 0,0 l/m 6,4 km/h (2 Bft) SW 225 0 min 0,000 mm 0,0 UV-I 32 W/m 4,5 C 5,1 C 14,5 km/h (3 Bft) 100,00 %
22.12.2017 10:45 5,1 C 3,9 C 96 % 1032,8 hPa 0,0 l/m 6,4 km/h (2 Bft) S-SW 202 0 min 0,000 mm 0,0 UV-I 33 W/m 4,5 C 5,1 C 8,0 km/h (2 Bft) 95,65 %
22.12.2017 10:46 5,1 C 3,9 C 96 % 1032,8 hPa 0,0 l/m 6,4 km/h (2 Bft) SW 225 0 min 0,000 mm 0,0 UV-I 35 W/m 4,5 C 5,1 C 11,3 km/h (2 Bft) 100,00 %
22.12.2017 10:47 5,1 C 3,9 C 96 % 1032,8 hPa 0,0 l/m 6,4 km/h (2 Bft) SW 225 0 min 0,000 mm 0,0 UV-I 33 W/m 4,5 C 5,1 C 9,7 km/h (2 Bft) 95,65 %
22.12.2017 10:48 5,2 C 3,9 C 96 % 1032,8 hPa 0,0 l/m 6,4 km/h (2 Bft) SW 225 0 min 0,000 mm 0,0 UV-I 30 W/m 4,6 C 5,2 C 9,7 km/h (2 Bft) 100,00 %
22.12.2017 10:49 5,2 C 3,9 C 96 % 1032,8 hPa 0,0 l/m 4,8 km/h (1 Bft) SW 225 0 min 0,000 mm 0,0 UV-I 30 W/m 4,6 C 5,2 C 9,7 km/h (2 Bft) 91,30 %
22.12.2017 10:50 5,2 C 3,9 C 95 % 1032,8 hPa 0,0 l/m 8,0 km/h (2 Bft) SW 225 0 min 0,000 mm 0,0 UV-I 30 W/m 4,5 C 3,8 C 12,9 km/h (3 Bft) 100,00 %
22.12.2017 10:51 5,2 C 3,9 C 95 % 1032,8 hPa 0,0 l/m 6,4 km/h (2 Bft) SW 225 0 min 0,000 mm 0,0 UV-I 30 W/m 4,5 C 5,2 C 11,3 km/h (2 Bft) 100,00 %
22.12.2017 10:52 5,2 C 3,9 C 95 % 1032,7 hPa 0,0 l/m 4,8 km/h (1 Bft) SW 225 0 min 0,000 mm 0,0 UV-I 31 W/m 4,5 C 5,2 C 6,4 km/h (2 Bft) 95,65 %
22.12.2017 10:53 5,2 C 3,9 C 95 % 1032,7 hPa 0,0 l/m 6,4 km/h (2 Bft) SW 225 0 min 0,000 mm 0,0 UV-I 32 W/m 4,5 C 5,2 C 11,3 km/h (2 Bft) 100,00 %
22.12.2017 10:54 5,2 C 3,9 C 95 % 1032,7 hPa 0,0 l/m 6,4 km/h (2 Bft) W-SW 247 0 min 0,000 mm 0,0 UV-I 30 W/m 4,5 C 5,2 C 11,3 km/h (2 Bft) 100,00 %
22.12.2017 10:55 5,2 C 3,9 C 95 % 1032,6 hPa 0,0 l/m 9,7 km/h (2 Bft) W-SW 247 0 min 0,000 mm 0,0 UV-I 30 W/m 4,5 C 2,5 C 12,9 km/h (3 Bft) 100,00 %
22.12.2017 10:56 5,2 C 3,9 C 95 % 1032,6 hPa 0,0 l/m 6,4 km/h (2 Bft) S-SW 202 0 min 0,000 mm 0,0 UV-I 32 W/m 4,5 C 5,2 C 8,0 km/h (2 Bft) 100,00 %
22.12.2017 10:57 5,2 C 3,9 C 95 % 1032,6 hPa 0,0 l/m 4,8 km/h (1 Bft) SW 225 0 min 0,000 mm 0,0 UV-I 32 W/m 4,5 C 5,2 C 6,4 km/h (2 Bft) 100,00 %
22.12.2017 10:58 5,2 C 3,9 C 95 % 1032,6 hPa 0,0 l/m 6,4 km/h (2 Bft) W-SW 247 0 min 0,000 mm 0,0 UV-I 30 W/m 4,5 C 5,2 C 8,0 km/h (2 Bft) 100,00 %
22.12.2017 10:59 5,2 C 3,9 C 95 % 1032,6 hPa 0,0 l/m 4,8 km/h (1 Bft) W-SW 247 0 min 0,000 mm 0,0 UV-I 33 W/m 4,5 C 5,2 C 6,4 km/h (2 Bft) 95,65 %
22.12.2017 11:00 5,2 C 3,9 C 95 % 1032,5 hPa 0,0 l/m 4,8 km/h (1 Bft) SW 225 0 min 0,025 mm 0,0 UV-I 33 W/m 4,5 C 5,2 C 8,0 km/h (2 Bft) 100,00 %
22.12.2017 11:01 5,2 C 3,9 C 95 % 1032,6 hPa 0,0 l/m 6,4 km/h (2 Bft) W-SW 247 0 min 0,000 mm 0,0 UV-I 33 W/m 4,5 C 5,2 C 8,0 km/h (2 Bft) 95,65 %
22.12.2017 11:02 5,2 C 3,9 C 95 % 1032,6 hPa 0,0 l/m 4,8 km/h (1 Bft) SW 225 0 min 0,000 mm 0,0 UV-I 32 W/m 4,5 C 5,2 C 8,0 km/h (2 Bft) 100,00 %
22.12.2017 11:03 5,2 C 3,9 C 95 % 1032,6 hPa 0,0 l/m 6,4 km/h (2 Bft) SW 225 0 min 0,000 mm 0,0 UV-I 32 W/m 4,5 C 5,2 C 9,7 km/h (2 Bft) 95,65 %
22.12.2017 11:04 5,2 C 3,9 C 95 % 1032,5 hPa 0,0 l/m 6,4 km/h (2 Bft) SW 225 0 min 0,000 mm 0,0 UV-I 32 W/m 4,5 C 5,2 C 11,3 km/h (2 Bft) 95,65 %
22.12.2017 11:05 5,2 C 3,9 C 95 % 1032,5 hPa 0,0 l/m 8,0 km/h (2 Bft) W-SW 247 0 min 0,000 mm 0,0 UV-I 33 W/m 4,5 C 3,8 C 12,9 km/h (3 Bft) 100,00 %
22.12.2017 11:06 5,2 C 3,9 C 95 % 1032,5 hPa 0,0 l/m 8,0 km/h (2 Bft) W-SW 247 0 min 0,000 mm 0,0 UV-I 33 W/m 4,5 C 3,8 C 12,9 km/h (3 Bft) 95,65 %
22.12.2017 11:07 5,2 C 3,9 C 95 % 1032,5 hPa 0,0 l/m 12,9 km/h (3 Bft) SW 225 0 min 0,000 mm 0,0 UV-I 33 W/m 4,5 C 0,5 C 17,7 km/h (3 Bft) 95,65 %
22.12.2017 11:08 5,2 C 3,9 C 95 % 1032,4 hPa 0,0 l/m 9,7 km/h (2 Bft) W-SW 247 0 min 0,000 mm 0,0 UV-I 32 W/m 4,5 C 2,5 C 16,1 km/h (3 Bft) 100,00 %
22.12.2017 11:09 5,2 C 3,9 C 95 % 1032,4 hPa 0,0 l/m 6,4 km/h (2 Bft) SW 225 0 min 0,000 mm 0,0 UV-I 32 W/m 4,5 C 5,2 C 9,7 km/h (2 Bft) 95,65 %
22.12.2017 11:10 5,3 C 3,9 C 95 % 1032,4 hPa 0,0 l/m 4,8 km/h (1 Bft) SW 225 0 min 0,000 mm 0,0 UV-I 30 W/m 4,6 C 5,3 C 6,4 km/h (2 Bft) 95,65 %
22.12.2017 11:11 5,3 C 3,9 C 95 % 1032,4 hPa 0,0 l/m 8,0 km/h (2 Bft) W-SW 247 0 min 0,000 mm 0,0 UV-I 28 W/m 4,6 C 3,9 C 9,7 km/h (2 Bft) 100,00 %
22.12.2017 11:12 5,3 C 3,9 C 95 % 1032,4 hPa 0,0 l/m 8,0 km/h (2 Bft) SW 225 0 min 0,000 mm 0,0 UV-I 28 W/m 4,6 C 3,9 C 11,3 km/h (2 Bft) 100,00 %
22.12.2017 11:13 5,3 C 3,9 C 95 % 1032,4 hPa 0,0 l/m 4,8 km/h (1 Bft) SW 225 0 min 0,000 mm 0,0 UV-I 30 W/m 4,6 C 5,3 C 6,4 km/h (2 Bft) 91,30 %
22.12.2017 11:14 5,3 C 3,9 C 95 % 1032,4 hPa 0,0 l/m 8,0 km/h (2 Bft) SW 225 0 min 0,000 mm 0,0 UV-I 32 W/m 4,6 C 3,9 C 11,3 km/h (2 Bft) 100,00 %
22.12.2017 11:15 5,3 C 3,9 C 95 % 1032,4 hPa 0,0 l/m 6,4 km/h (2 Bft) W-SW 247 0 min 0,000 mm 0,0 UV-I 32 W/m 4,6 C 5,3 C 11,3 km/h (2 Bft) 100,00 %
22.12.2017 11:16 5,3 C 3,9 C 95 % 1032,3 hPa 0,0 l/m 4,8 km/h (1 Bft) W-SW 247 0 min 0,000 mm 0,0 UV-I 33 W/m 4,6 C 5,3 C 8,0 km/h (2 Bft) 100,00 %
22.12.2017 11:17 5,3 C 3,9 C 95 % 1032,3 hPa 0,0 l/m 6,4 km/h (2 Bft) S-SW 202 0 min 0,000 mm 0,0 UV-I 32 W/m 4,6 C 5,3 C 8,0 km/h (2 Bft) 100,00 %
22.12.2017 11:18 5,3 C 3,9 C 95 % 1032,3 hPa 0,0 l/m 11,3 km/h (2 Bft) SW 225 0 min 0,000 mm 0,0 UV-I 30 W/m 4,6 C 1,5 C 16,1 km/h (3 Bft) 100,00 %
22.12.2017 11:19 5,3 C 3,9 C 95 % 1032,3 hPa 0,0 l/m 8,0 km/h (2 Bft) SW 225 0 min 0,000 mm 0,0 UV-I 30 W/m 4,6 C 3,9 C 9,7 km/h (2 Bft) 100,00 %
22.12.2017 11:20 5,3 C 3,9 C 95 % 1032,2 hPa 0,0 l/m 8,0 km/h (2 Bft) S-SW 202 0 min 0,000 mm 0,0 UV-I 28 W/m 4,6 C 3,9 C 11,3 km/h (2 Bft) 95,65 %
22.12.2017 11:21 5,3 C 3,9 C 95 % 1032,2 hPa 0,0 l/m 9,7 km/h (2 Bft) SW 225 0 min 0,000 mm 0,0 UV-I 27 W/m 4,6 C 2,6 C 14,5 km/h (3 Bft) 100,00 %
22.12.2017 11:22 5,3 C 3,9 C 95 % 1032,3 hPa 0,0 l/m 8,0 km/h (2 Bft) SW 225 0 min 0,000 mm 0,0 UV-I 30 W/m 4,6 C 3,9 C 12,9 km/h (3 Bft) 95,65 %
22.12.2017 11:23 5,3 C 3,9 C 95 % 1032,2 hPa 0,0 l/m 8,0 km/h (2 Bft) SW 225 0 min 0,000 mm 0,0 UV-I 32 W/m 4,6 C 3,9 C 14,5 km/h (3 Bft) 100,00 %
22.12.2017 11:24 5,3 C 3,9 C 95 % 1032,2 hPa 0,0 l/m 9,7 km/h (2 Bft) SW 225 0 min 0,000 mm 0,0 UV-I 30 W/m 4,6 C 2,6 C 11,3 km/h (2 Bft) 100,00 %
22.12.2017 11:25 5,3 C 3,9 C 95 % 1032,2 hPa 0,0 l/m 8,0 km/h (2 Bft) SW 225 0 min 0,000 mm 0,0 UV-I 28 W/m 4,6 C 3,9 C 9,7 km/h (2 Bft) 100,00 %
22.12.2017 11:26 5,3 C 3,9 C 95 % 1032,2 hPa 0,0 l/m 8,0 km/h (2 Bft) SW 225 0 min 0,000 mm 0,0 UV-I 26 W/m 4,6 C 3,9 C 12,9 km/h (3 Bft) 100,00 %
22.12.2017 11:27 5,3 C 3,9 C 95 % 1032,2 hPa 0,0 l/m 9,7 km/h (2 Bft) SW 225 0 min 0,000 mm 0,0 UV-I 27 W/m 4,6 C 2,6 C 11,3 km/h (2 Bft) 95,65 %
22.12.2017 11:28 5,3 C 3,9 C 95 % 1032,2 hPa 0,0 l/m 9,7 km/h (2 Bft) SW 225 0 min 0,000 mm 0,0 UV-I 28 W/m 4,6 C 2,6 C 16,1 km/h (3 Bft) 100,00 %
22.12.2017 11:29 5,3 C 3,9 C 95 % 1032,2 hPa 0,0 l/m 9,7 km/h (2 Bft) SW 225 0 min 0,000 mm 0,0 UV-I 26 W/m 4,6 C 2,6 C 16,1 km/h (3 Bft) 95,65 %
22.12.2017 11:30 5,3 C 3,9 C 95 % 1032,2 hPa 0,0 l/m 9,7 km/h (2 Bft) W-SW 247 0 min 0,000 mm 0,0 UV-I 28 W/m 4,6 C 2,6 C 12,9 km/h (3 Bft) 100,00 %
22.12.2017 11:31 5,3 C 3,9 C 95 % 1032,2 hPa 0,0 l/m 11,3 km/h (2 Bft) SW 225 0 min 0,000 mm 0,0 UV-I 28 W/m 4,6 C 1,5 C 16,1 km/h (3 Bft) 100,00 %
22.12.2017 11:32 5,3 C 3,9 C 95 % 1032,2 hPa 0,0 l/m 9,7 km/h (2 Bft) SW 225 0 min 0,000 mm 0,0 UV-I 28 W/m 4,6 C 2,6 C 12,9 km/h (3 Bft) 100,00 %
22.12.2017 11:33 5,3 C 3,9 C 95 % 1032,2 hPa 0,0 l/m 6,4 km/h (2 Bft) SW 225 0 min 0,000 mm 0,0 UV-I 32 W/m 4,6 C 5,3 C 9,7 km/h (2 Bft) 100,00 %
22.12.2017 11:34 5,3 C 3,9 C 95 % 1032,2 hPa 0,0 l/m 8,0 km/h (2 Bft) SW 225 0 min 0,000 mm 0,0 UV-I 32 W/m 4,6 C 3,9 C 12,9 km/h (3 Bft) 95,65 %
22.12.2017 11:35 5,3 C 3,9 C 95 % 1032,1 hPa 0,0 l/m 8,0 km/h (2 Bft) SW 225 0 min 0,000 mm 0,0 UV-I 30 W/m 4,6 C 3,9 C 12,9 km/h (3 Bft) 100,00 %
22.12.2017 11:36 5,3 C 3,9 C 95 % 1032,2 hPa 0,0 l/m 6,4 km/h (2 Bft) SW 225 0 min 0,000 mm 0,0 UV-I 30 W/m 4,6 C 5,3 C 9,7 km/h (2 Bft) 95,65 %
22.12.2017 11:37 5,3 C 3,9 C 95 % 1032,1 hPa 0,0 l/m 6,4 km/h (2 Bft) W-SW 247 0 min 0,000 mm 0,0 UV-I 30 W/m 4,6 C 5,3 C 11,3 km/h (2 Bft) 100,00 %
22.12.2017 11:38 5,3 C 3,9 C 95 % 1032,1 hPa 0,0 l/m 6,4 km/h (2 Bft) W-SW 247 0 min 0,000 mm 0,0 UV-I 30 W/m 4,6 C 5,3 C 12,9 km/h (3 Bft) 95,65 %
22.12.2017 11:39 5,3 C 3,9 C 95 % 1032,1 hPa 0,0 l/m 9,7 km/h (2 Bft) SW 225 0 min 0,000 mm 0,0 UV-I 33 W/m 4,6 C 2,6 C 14,5 km/h (3 Bft) 100,00 %
22.12.2017 11:40 5,3 C 3,9 C 95 % 1032,1 hPa 0,0 l/m 9,7 km/h (2 Bft) SW 225 0 min 0,000 mm 0,0 UV-I 33 W/m 4,6 C 2,6 C 14,5 km/h (3 Bft) 100,00 %
22.12.2017 11:41 5,3 C 3,9 C 95 % 1032,2 hPa 0,0 l/m 8,0 km/h (2 Bft) W-SW 247 0 min 0,000 mm 0,0 UV-I 33 W/m 4,6 C 3,9 C 11,3 km/h (2 Bft) 95,65 %
22.12.2017 11:42 5,4 C 3,9 C 95 % 1032,1 hPa 0,0 l/m 8,0 km/h (2 Bft) W-SW 247 0 min 0,000 mm 0,0 UV-I 35 W/m 4,7 C 4,0 C 11,3 km/h (2 Bft) 100,00 %
22.12.2017 11:43 5,4 C 3,9 C 95 % 1032,1 hPa 0,0 l/m 6,4 km/h (2 Bft) W-SW 247 0 min 0,000 mm 0,0 UV-I 39 W/m 4,7 C 5,4 C 11,3 km/h (2 Bft) 100,00 %
22.12.2017 11:44 5,4 C 3,9 C 95 % 1032,1 hPa 0,0 l/m 8,0 km/h (2 Bft) SW 225 0 min 0,000 mm 0,0 UV-I 35 W/m 4,7 C 4,0 C 11,3 km/h (2 Bft) 100,00 %
22.12.2017 11:45 5,4 C 3,9 C 95 % 1032,1 hPa 0,0 l/m 8,0 km/h (2 Bft) SW 225 0 min 0,000 mm 0,0 UV-I 35 W/m 4,7 C 4,0 C 11,3 km/h (2 Bft) 95,65 %
22.12.2017 11:46 5,4 C 3,9 C 95 % 1032,1 hPa 0,0 l/m 6,4 km/h (2 Bft) W-SW 247 0 min 0,000 mm 0,0 UV-I 37 W/m 4,7 C 5,4 C 9,7 km/h (2 Bft) 100,00 %
22.12.2017 11:47 5,4 C 3,9 C 95 % 1032,1 hPa 0,0 l/m 6,4 km/h (2 Bft) W-SW 247 0 min 0,000 mm 0,0 UV-I 37 W/m 4,7 C 5,4 C 9,7 km/h (2 Bft) 95,65 %
22.12.2017 11:48 5,4 C 3,9 C 95 % 1032,1 hPa 0,0 l/m 8,0 km/h (2 Bft) W-SW 247 0 min 0,000 mm 0,0 UV-I 39 W/m 4,7 C 4,0 C 14,5 km/h (3 Bft) 100,00 %
22.12.2017 11:49 5,4 C 3,9 C 95 % 1032,2 hPa 0,0 l/m 8,0 km/h (2 Bft) W-SW 247 0 min 0,000 mm 0,0 UV-I 35 W/m 4,7 C 4,0 C 12,9 km/h (3 Bft) 91,30 %
22.12.2017 11:50 5,4 C 3,9 C 95 % 1032,2 hPa 0,0 l/m 6,4 km/h (2 Bft) W-SW 247 0 min 0,000 mm 0,0 UV-I 33 W/m 4,7 C 5,4 C 11,3 km/h (2 Bft) 100,00 %
22.12.2017 11:51 5,4 C 3,9 C 95 % 1032,1 hPa 0,0 l/m 6,4 km/h (2 Bft) W 270 0 min 0,000 mm 0,0 UV-I 29 W/m 4,7 C 5,4 C 9,7 km/h (2 Bft) 95,65 %
22.12.2017 11:52 5,4 C 3,9 C 95 % 1032,2 hPa 0,0 l/m 8,0 km/h (2 Bft) W-SW 247 0 min 0,000 mm 0,0 UV-I 30 W/m 4,7 C 4,0 C 11,3 km/h (2 Bft) 100,00 %
22.12.2017 11:53 5,4 C 3,9 C 95 % 1032,2 hPa 0,0 l/m 4,8 km/h (1 Bft) W-NW 292 0 min 0,000 mm 0,0 UV-I 32 W/m 4,7 C 5,4 C 9,7 km/h (2 Bft) 95,65 %
22.12.2017 11:54 5,4 C 3,9 C 95 % 1032,1 hPa 0,0 l/m 6,4 km/h (2 Bft) W-SW 247 0 min 0,000 mm 0,0 UV-I 32 W/m 4,7 C 5,4 C 8,0 km/h (2 Bft) 100,00 %
22.12.2017 11:55 5,4 C 3,9 C 95 % 1032,2 hPa 0,0 l/m 8,0 km/h (2 Bft) W-SW 247 0 min 0,000 mm 0,0 UV-I 32 W/m 4,7 C 4,0 C 8,0 km/h (2 Bft) 95,65 %
22.12.2017 11:56 5,4 C 3,9 C 95 % 1032,2 hPa 0,0 l/m 4,8 km/h (1 Bft) W-SW 247 0 min 0,000 mm 0,0 UV-I 32 W/m 4,7 C 5,4 C 6,4 km/h (2 Bft) 95,65 %
22.12.2017 11:57 5,4 C 3,9 C 95 % 1032,1 hPa 0,0 l/m 6,4 km/h (2 Bft) W 270 0 min 0,000 mm 0,0 UV-I 30 W/m 4,7 C 5,4 C 9,7 km/h (2 Bft) 95,65 %
22.12.2017 11:58 5,4 C 3,9 C 95 % 1032,1 hPa 0,0 l/m 6,4 km/h (2 Bft) W-SW 247 0 min 0,000 mm 0,0 UV-I 30 W/m 4,7 C 5,4 C 9,7 km/h (2 Bft) 95,65 %
22.12.2017 11:59 5,4 C 3,9 C 95 % 1032,1 hPa 0,0 l/m 3,2 km/h (1 Bft) W-SW 247 0 min 0,000 mm 0,0 UV-I 30 W/m 4,7 C 5,4 C 4,8 km/h (1 Bft) 100,00 %
22.12.2017 12:00 5,4 C 3,9 C 95 % 1032,1 hPa 0,0 l/m 6,4 km/h (2 Bft) W-SW 247 0 min 0,025 mm 0,0 UV-I 32 W/m 4,7 C 5,4 C 8,0 km/h (2 Bft) 91,30 %
22.12.2017 12:01 5,4 C 3,9 C 95 % 1032,1 hPa 0,0 l/m 6,4 km/h (2 Bft) W-SW 247 0 min 0,000 mm 0,0 UV-I 32 W/m 4,7 C 5,4 C 8,0 km/h (2 Bft) 100,00 %
22.12.2017 12:02 5,4 C 3,9 C 95 % 1032,1 hPa 0,0 l/m 4,8 km/h (1 Bft) W-SW 247 0 min 0,000 mm 0,0 UV-I 32 W/m 4,7 C 5,4 C 6,4 km/h (2 Bft) 91,30 %
22.12.2017 12:03 5,4 C 3,9 C 95 % 1032,1 hPa 0,0 l/m 6,4 km/h (2 Bft) W-SW 247 0 min 0,000 mm 0,0 UV-I 33 W/m 4,7 C 5,4 C 9,7 km/h (2 Bft) 95,65 %
22.12.2017 12:04 5,4 C 3,9 C 95 % 1032,1 hPa 0,0 l/m 8,0 km/h (2 Bft) SW 225 0 min 0,000 mm 0,0 UV-I 42 W/m 4,7 C 4,0 C 12,9 km/h (3 Bft) 91,30 %
22.12.2017 12:05 5,4 C 3,9 C 95 % 1032,0 hPa 0,0 l/m 8,0 km/h (2 Bft) SW 225 0 min 0,000 mm 0,0 UV-I 51 W/m 4,7 C 4,0 C 9,7 km/h (2 Bft) 95,65 %
22.12.2017 12:06 5,4 C 3,9 C 95 % 1032,1 hPa 0,0 l/m 6,4 km/h (2 Bft) W-SW 247 0 min 0,000 mm 0,0 UV-I 47 W/m 4,7 C 5,4 C 6,4 km/h (2 Bft) 95,65 %
22.12.2017 12:07 5,5 C 3,9 C 95 % 1032,0 hPa 0,0 l/m 6,4 km/h (2 Bft) W-SW 247 0 min 0,000 mm 0,0 UV-I 42 W/m 4,8 C 5,5 C 9,7 km/h (2 Bft) 95,65 %
22.12.2017 12:08 5,5 C 3,9 C 95 % 1032,0 hPa 0,0 l/m 6,4 km/h (2 Bft) W-SW 247 0 min 0,000 mm 0,0 UV-I 43 W/m 4,8 C 5,5 C 9,7 km/h (2 Bft) 95,65 %
22.12.2017 12:09 5,5 C 3,9 C 95 % 1032,0 hPa 0,0 l/m 8,0 km/h (2 Bft) W-SW 247 0 min 0,000 mm 0,0 UV-I 44 W/m 4,8 C 4,1 C 9,7 km/h (2 Bft) 95,65 %
22.12.2017 12:10 5,5 C 3,9 C 95 % 1031,9 hPa 0,0 l/m 9,7 km/h (2 Bft) SW 225 0 min 0,000 mm 0,0 UV-I 47 W/m 4,8 C 2,8 C 12,9 km/h (3 Bft) 95,65 %
22.12.2017 12:11 5,5 C 3,9 C 95 % 1032,0 hPa 0,0 l/m 9,7 km/h (2 Bft) W-SW 247 0 min 0,000 mm 0,0 UV-I 47 W/m 4,8 C 2,8 C 12,9 km/h (3 Bft) 95,65 %
22.12.2017 12:12 5,5 C 3,9 C 95 % 1031,9 hPa 0,0 l/m 8,0 km/h (2 Bft) W-SW 247 0 min 0,000 mm 0,0 UV-I 46 W/m 4,8 C 4,1 C 11,3 km/h (2 Bft) 100,00 %
22.12.2017 12:13 5,5 C 3,9 C 95 % 1031,9 hPa 0,0 l/m 9,7 km/h (2 Bft) W-SW 247 0 min 0,000 mm 0,0 UV-I 49 W/m 4,8 C 2,8 C 12,9 km/h (3 Bft) 95,65 %
22.12.2017 12:14 5,6 C 3,9 C 95 % 1031,8 hPa 0,0 l/m 6,4 km/h (2 Bft) W-SW 247 0 min 0,000 mm 0,0 UV-I 58 W/m 4,9 C 5,6 C 8,0 km/h (2 Bft) 95,65 %
22.12.2017 12:15 5,6 C 3,9 C 95 % 1031,8 hPa 0,0 l/m 8,0 km/h (2 Bft) SW 225 0 min 0,000 mm 0,0 UV-I 60 W/m 4,9 C 4,2 C 14,5 km/h (3 Bft) 100,00 %
22.12.2017 12:16 5,6 C 3,9 C 95 % 1031,8 hPa 0,0 l/m 8,0 km/h (2 Bft) SW 225 0 min 0,000 mm 0,0 UV-I 54 W/m 4,9 C 4,2 C 11,3 km/h (2 Bft) 95,65 %
22.12.2017 12:17 5,6 C 3,9 C 95 % 1031,8 hPa 0,0 l/m 6,4 km/h (2 Bft) W-SW 247 0 min 0,000 mm 0,0 UV-I 53 W/m 4,9 C 5,6 C 11,3 km/h (2 Bft) 95,65 %
22.12.2017 12:18 5,6 C 3,9 C 95 % 1031,8 hPa 0,0 l/m 6,4 km/h (2 Bft) W-SW 247 0 min 0,000 mm 0,0 UV-I 51 W/m 4,9 C 5,6 C 9,7 km/h (2 Bft) 95,65 %
22.12.2017 12:19 5,6 C 3,9 C 95 % 1031,7 hPa 0,0 l/m 6,4 km/h (2 Bft) W-SW 247 0 min 0,000 mm 0,0 UV-I 49 W/m 4,9 C 5,6 C 11,3 km/h (2 Bft) 95,65 %
22.12.2017 12:20 5,6 C 3,9 C 95 % 1031,7 hPa 0,0 l/m 9,7 km/h (2 Bft) SW 225 0 min 0,000 mm 0,0 UV-I 47 W/m 4,9 C 2,9 C 14,5 km/h (3 Bft) 95,65 %
22.12.2017 12:21 5,6 C 3,9 C 95 % 1031,7 hPa 0,0 l/m 14,5 km/h (3 Bft) W-SW 247 0 min 0,000 mm 0,0 UV-I 49 W/m 4,9 C 0,1 C 16,1 km/h (3 Bft) 100,00 %
22.12.2017 12:22 5,6 C 3,9 C 95 % 1031,7 hPa 0,0 l/m 9,7 km/h (2 Bft) SW 225 0 min 0,000 mm 0,0 UV-I 49 W/m 4,9 C 2,9 C 12,9 km/h (3 Bft) 95,65 %
22.12.2017 12:23 5,6 C 3,9 C 95 % 1031,7 hPa 0,0 l/m 11,3 km/h (2 Bft) W-SW 247 0 min 0,000 mm 0,0 UV-I 53 W/m 4,9 C 1,9 C 16,1 km/h (3 Bft) 95,65 %
22.12.2017 12:24 5,6 C 3,9 C 95 % 1031,7 hPa 0,0 l/m 11,3 km/h (2 Bft) W-SW 247 0 min 0,000 mm 0,0 UV-I 58 W/m 4,9 C 1,9 C 14,5 km/h (3 Bft) 95,65 %
22.12.2017 12:25 5,6 C 3,9 C 95 % 1031,7 hPa 0,0 l/m 11,3 km/h (2 Bft) W-SW 247 0 min 0,000 mm 0,0 UV-I 58 W/m 4,9 C 1,9 C 16,1 km/h (3 Bft) 95,65 %
22.12.2017 12:26 5,7 C 3,9 C 95 % 1031,7 hPa 0,0 l/m 8,0 km/h (2 Bft) W-SW 247 0 min 0,000 mm 0,0 UV-I 57 W/m 5,0 C 4,3 C 11,3 km/h (2 Bft) 100,00 %
22.12.2017 12:27 5,7 C 3,9 C 95 % 1031,7 hPa 0,0 l/m 14,5 km/h (3 Bft) W 270 0 min 0,000 mm 0,0 UV-I 58 W/m 5,0 C 0,2 C 17,7 km/h (3 Bft) 95,65 %
22.12.2017 12:28 5,7 C 3,9 C 94 % 1031,6 hPa 0,0 l/m 11,3 km/h (2 Bft) W-SW 247 0 min 0,000 mm 0,0 UV-I 54 W/m 4,8 C 2,0 C 14,5 km/h (3 Bft) 95,65 %
22.12.2017 12:29 5,7 C 3,9 C 94 % 1031,6 hPa 0,0 l/m 11,3 km/h (2 Bft) W-SW 247 0 min 0,000 mm 0,0 UV-I 56 W/m 4,8 C 2,0 C 16,1 km/h (3 Bft) 95,65 %
22.12.2017 12:30 5,7 C 3,9 C 94 % 1031,6 hPa 0,0 l/m 14,5 km/h (3 Bft) SW 225 0 min 0,000 mm 0,0 UV-I 60 W/m 4,8 C 0,2 C 20,9 km/h (4 Bft) 95,65 %
22.12.2017 12:31 5,7 C 3,9 C 94 % 1031,6 hPa 0,0 l/m 11,3 km/h (2 Bft) W-SW 247 0 min 0,000 mm 0,0 UV-I 62 W/m 4,8 C 2,0 C 14,5 km/h (3 Bft) 95,65 %
22.12.2017 12:32 5,8 C 3,9 C 94 % 1031,6 hPa 0,0 l/m 9,7 km/h (2 Bft) W-SW 247 0 min 0,000 mm 0,0 UV-I 63 W/m 4,9 C 3,2 C 14,5 km/h (3 Bft) 91,30 %
22.12.2017 12:33 5,8 C 3,9 C 94 % 1031,6 hPa 0,0 l/m 9,7 km/h (2 Bft) W-SW 247 0 min 0,000 mm 0,0 UV-I 63 W/m 4,9 C 3,2 C 11,3 km/h (2 Bft) 100,00 %
22.12.2017 12:34 5,8 C 3,9 C 94 % 1031,6 hPa 0,0 l/m 11,3 km/h (2 Bft) SW 225 0 min 0,000 mm 0,0 UV-I 63 W/m 4,9 C 2,1 C 14,5 km/h (3 Bft) 91,30 %
22.12.2017 12:35 5,8 C 3,9 C 94 % 1031,6 hPa 0,0 l/m 11,3 km/h (2 Bft) SW 225 0 min 0,000 mm 0,0 UV-I 63 W/m 4,9 C 2,1 C 16,1 km/h (3 Bft) 100,00 %
22.12.2017 12:36 5,8 C 3,9 C 94 % 1031,6 hPa 0,0 l/m 11,3 km/h (2 Bft) W-SW 247 0 min 0,000 mm 0,0 UV-I 65 W/m 4,9 C 2,1 C 16,1 km/h (3 Bft) 100,00 %
22.12.2017 12:37 5,8 C 3,9 C 94 % 1031,5 hPa 0,0 l/m 9,7 km/h (2 Bft) W-SW 247 0 min 0,000 mm 0,0 UV-I 63 W/m 4,9 C 3,2 C 12,9 km/h (3 Bft) 91,30 %
22.12.2017 12:38 5,8 C 3,9 C 94 % 1031,6 hPa 0,0 l/m 11,3 km/h (2 Bft) W-SW 247 0 min 0,000 mm 0,0 UV-I 60 W/m 4,9 C 2,1 C 16,1 km/h (3 Bft) 95,65 %
22.12.2017 12:39 5,8 C 3,9 C 94 % 1031,5 hPa 0,0 l/m 9,7 km/h (2 Bft) W-SW 247 0 min 0,000 mm 0,0 UV-I 56 W/m 4,9 C 3,2 C 14,5 km/h (3 Bft) 100,00 %
22.12.2017 12:40 5,8 C 3,9 C 94 % 1031,5 hPa 0,0 l/m 11,3 km/h (2 Bft) W-SW 247 0 min 0,000 mm 0,0 UV-I 54 W/m 4,9 C 2,1 C 19,3 km/h (3 Bft) 95,65 %
22.12.2017 12:41 5,8 C 3,9 C 94 % 1031,6 hPa 0,0 l/m 11,3 km/h (2 Bft) W 270 0 min 0,000 mm 0,0 UV-I 49 W/m 4,9 C 2,1 C 14,5 km/h (3 Bft) 100,00 %
22.12.2017 12:42 5,8 C 3,9 C 94 % 1031,6 hPa 0,0 l/m 9,7 km/h (2 Bft) W-SW 247 0 min 0,000 mm 0,0 UV-I 46 W/m 4,9 C 3,2 C 12,9 km/h (3 Bft) 95,65 %
22.12.2017 12:43 5,8 C 3,9 C 94 % 1031,6 hPa 0,0 l/m 8,0 km/h (2 Bft) W-SW 247 0 min 0,000 mm 0,0 UV-I 45 W/m 4,9 C 4,4 C 11,3 km/h (2 Bft) 100,00 %
22.12.2017 12:44 5,8 C 3,9 C 94 % 1031,5 hPa 0,0 l/m 8,0 km/h (2 Bft) W-SW 247 0 min 0,000 mm 0,0 UV-I 46 W/m 4,9 C 4,4 C 11,3 km/h (2 Bft) 95,65 %
22.12.2017 12:45 5,7 C 3,9 C 94 % 1031,6 hPa 0,0 l/m 6,4 km/h (2 Bft) SW 225 0 min 0,000 mm 0,0 UV-I 47 W/m 4,8 C 5,7 C 11,3 km/h (2 Bft) 95,65 %
22.12.2017 12:46 5,7 C 3,9 C 94 % 1031,5 hPa 0,0 l/m 8,0 km/h (2 Bft) SW 225 0 min 0,000 mm 0,0 UV-I 49 W/m 4,8 C 4,3 C 12,9 km/h (3 Bft) 100,00 %
22.12.2017 12:47 5,7 C 3,9 C 94 % 1031,5 hPa 0,0 l/m 9,7 km/h (2 Bft) SW 225 0 min 0,000 mm 0,0 UV-I 53 W/m 4,8 C 3,1 C 14,5 km/h (3 Bft) 95,65 %
22.12.2017 12:48 5,8 C 3,9 C 94 % 1031,5 hPa 0,0 l/m 9,7 km/h (2 Bft) SW 225 0 min 0,000 mm 0,0 UV-I 53 W/m 4,9 C 3,2 C 14,5 km/h (3 Bft) 100,00 %
22.12.2017 12:49 5,8 C 3,9 C 94 % 1031,5 hPa 0,0 l/m 9,7 km/h (2 Bft) W-SW 247 0 min 0,000 mm 0,0 UV-I 52 W/m 4,9 C 3,2 C 11,3 km/h (2 Bft) 100,00 %
22.12.2017 12:50 5,8 C 3,9 C 94 % 1031,6 hPa 0,0 l/m 4,8 km/h (1 Bft) W-SW 247 0 min 0,000 mm 0,0 UV-I 51 W/m 4,9 C 5,8 C 8,0 km/h (2 Bft) 100,00 %
22.12.2017 12:51 5,8 C 3,9 C 94 % 1031,6 hPa 0,0 l/m 4,8 km/h (1 Bft) W-SW 247 0 min 0,000 mm 0,0 UV-I 56 W/m 4,9 C 5,8 C 8,0 km/h (2 Bft) 100,00 %
22.12.2017 12:52 5,8 C 3,9 C 94 % 1031,5 hPa 0,0 l/m 6,4 km/h (2 Bft) SW 225 0 min 0,000 mm 0,0 UV-I 63 W/m 4,9 C 5,8 C 11,3 km/h (2 Bft) 91,30 %
22.12.2017 12:53 5,8 C 3,9 C 94 % 1031,5 hPa 0,0 l/m 8,0 km/h (2 Bft) SW 225 0 min 0,000 mm 0,0 UV-I 60 W/m 4,9 C 4,4 C 11,3 km/h (2 Bft) 100,00 %
22.12.2017 12:54 5,8 C 3,9 C 94 % 1031,5 hPa 0,0 l/m 4,8 km/h (1 Bft) SW 225 0 min 0,000 mm 0,0 UV-I 60 W/m 4,9 C 5,8 C 9,7 km/h (2 Bft) 100,00 %
22.12.2017 12:55 5,8 C 3,9 C 94 % 1031,5 hPa 0,0 l/m 8,0 km/h (2 Bft) W-SW 247 0 min 0,000 mm 0,0 UV-I 58 W/m 4,9 C 4,4 C 12,9 km/h (3 Bft) 100,00 %
22.12.2017 12:56 5,8 C 3,9 C 94 % 1031,4 hPa 0,0 l/m 6,4 km/h (2 Bft) S-SW 202 0 min 0,000 mm 0,0 UV-I 63 W/m 4,9 C 5,8 C 9,7 km/h (2 Bft) 100,00 %
22.12.2017 12:57 5,8 C 3,9 C 94 % 1031,5 hPa 0,0 l/m 8,0 km/h (2 Bft) SW 225 0 min 0,000 mm 0,0 UV-I 76 W/m 4,9 C 4,4 C 9,7 km/h (2 Bft) 95,65 %
22.12.2017 12:58 5,8 C 3,9 C 94 % 1031,5 hPa 0,0 l/m 6,4 km/h (2 Bft) S-SW 202 0 min 0,000 mm 0,0 UV-I 76 W/m 4,9 C 5,8 C 11,3 km/h (2 Bft) 100,00 %
22.12.2017 12:59 5,8 C 3,9 C 94 % 1031,5 hPa 0,0 l/m 8,0 km/h (2 Bft) S-SW 202 0 min 0,000 mm 0,0 UV-I 79 W/m 4,9 C 4,4 C 11,3 km/h (2 Bft) 95,65 %
22.12.2017 13:00 5,8 C 3,9 C 94 % 1031,4 hPa 0,0 l/m 9,7 km/h (2 Bft) S-SW 202 0 min 0,025 mm 0,0 UV-I 86 W/m 4,9 C 3,2 C 12,9 km/h (3 Bft) 100,00 %
22.12.2017 13:01 5,8 C 3,9 C 94 % 1031,5 hPa 0,0 l/m 9,7 km/h (2 Bft) SW 225 0 min 0,000 mm 0,0 UV-I 89 W/m 4,9 C 3,2 C 14,5 km/h (3 Bft) 100,00 %
22.12.2017 13:02 5,8 C 3,9 C 94 % 1031,5 hPa 0,0 l/m 9,7 km/h (2 Bft) S-SW 202 0 min 0,000 mm 0,0 UV-I 104 W/m 4,9 C 3,2 C 14,5 km/h (3 Bft) 95,65 %
22.12.2017 13:03 5,8 C 3,9 C 94 % 1031,4 hPa 0,0 l/m 9,7 km/h (2 Bft) W-SW 247 0 min 0,000 mm 0,0 UV-I 105 W/m 4,9 C 3,2 C 17,7 km/h (3 Bft) 95,65 %
22.12.2017 13:04 5,8 C 3,9 C 94 % 1031,5 hPa 0,0 l/m 8,0 km/h (2 Bft) SW 225 0 min 0,000 mm 0,0 UV-I 107 W/m 4,9 C 4,4 C 12,9 km/h (3 Bft) 100,00 %
22.12.2017 13:05 5,9 C 3,9 C 94 % 1031,5 hPa 0,0 l/m 8,0 km/h (2 Bft) SW 225 0 min 0,000 mm 0,0 UV-I 102 W/m 5,0 C 4,5 C 14,5 km/h (3 Bft) 100,00 %
22.12.2017 13:06 5,9 C 3,9 C 94 % 1031,5 hPa 0,0 l/m 8,0 km/h (2 Bft) W-SW 247 0 min 0,000 mm 0,0 UV-I 91 W/m 5,0 C 4,5 C 11,3 km/h (2 Bft) 95,65 %
22.12.2017 13:07 5,9 C 3,9 C 94 % 1031,5 hPa 0,0 l/m 6,4 km/h (2 Bft) W-SW 247 0 min 0,000 mm 0,0 UV-I 74 W/m 5,0 C 5,9 C 9,7 km/h (2 Bft) 100,00 %
22.12.2017 13:08 5,9 C 3,9 C 94 % 1031,5 hPa 0,0 l/m 8,0 km/h (2 Bft) W-SW 247 0 min 0,000 mm 0,0 UV-I 69 W/m 5,0 C 4,5 C 11,3 km/h (2 Bft) 100,00 %
22.12.2017 13:09 5,9 C 3,9 C 94 % 1031,5 hPa 0,0 l/m 9,7 km/h (2 Bft) W-SW 247 0 min 0,000 mm 0,0 UV-I 72 W/m 5,0 C 3,3 C 12,9 km/h (3 Bft) 100,00 %
22.12.2017 13:10 5,9 C 3,9 C 94 % 1031,5 hPa 0,0 l/m 6,4 km/h (2 Bft) W-SW 247 0 min 0,000 mm 0,0 UV-I 70 W/m 5,0 C 5,9 C 8,0 km/h (2 Bft) 95,65 %
22.12.2017 13:11 5,9 C 3,9 C 94 % 1031,5 hPa 0,0 l/m 4,8 km/h (1 Bft) W-SW 247 0 min 0,000 mm 0,0 UV-I 67 W/m 5,0 C 5,9 C 8,0 km/h (2 Bft) 100,00 %
22.12.2017 13:12 5,9 C 3,9 C 94 % 1031,5 hPa 0,0 l/m 6,4 km/h (2 Bft) SW 225 0 min 0,000 mm 0,0 UV-I 70 W/m 5,0 C 5,9 C 9,7 km/h (2 Bft) 95,65 %
22.12.2017 13:13 5,9 C 3,9 C 94 % 1031,5 hPa 0,0 l/m 9,7 km/h (2 Bft) W-SW 247 0 min 0,000 mm 0,0 UV-I 73 W/m 5,0 C 3,3 C 14,5 km/h (3 Bft) 95,65 %
22.12.2017 13:14 5,9 C 3,9 C 94 % 1031,5 hPa 0,0 l/m 11,3 km/h (2 Bft) SW 225 0 min 0,000 mm 0,0 UV-I 67 W/m 5,0 C 2,2 C 16,1 km/h (3 Bft) 95,65 %
22.12.2017 13:15 5,9 C 3,9 C 94 % 1031,4 hPa 0,0 l/m 11,3 km/h (2 Bft) SW 225 0 min 0,000 mm 0,0 UV-I 63 W/m 5,0 C 2,2 C 14,5 km/h (3 Bft) 100,00 %
22.12.2017 13:16 5,9 C 3,9 C 94 % 1031,4 hPa 0,0 l/m 11,3 km/h (2 Bft) SW 225 0 min 0,000 mm 0,0 UV-I 60 W/m 5,0 C 2,2 C 14,5 km/h (3 Bft) 95,65 %
22.12.2017 13:17 5,9 C 3,9 C 94 % 1031,5 hPa 0,0 l/m 11,3 km/h (2 Bft) SW 225 0 min 0,000 mm 0,0 UV-I 60 W/m 5,0 C 2,2 C 17,7 km/h (3 Bft) 95,65 %
22.12.2017 13:18 5,9 C 3,9 C 94 % 1031,4 hPa 0,0 l/m 11,3 km/h (2 Bft) SW 225 0 min 0,000 mm 0,0 UV-I 58 W/m 5,0 C 2,2 C 17,7 km/h (3 Bft) 95,65 %
22.12.2017 13:19 5,9 C 3,9 C 94 % 1031,4 hPa 0,0 l/m 9,7 km/h (2 Bft) SW 225 0 min 0,000 mm 0,0 UV-I 55 W/m 5,0 C 3,3 C 14,5 km/h (3 Bft) 95,65 %
22.12.2017 13:20 5,9 C 3,9 C 94 % 1031,4 hPa 0,0 l/m 8,0 km/h (2 Bft) SW 225 0 min 0,000 mm 0,0 UV-I 60 W/m 5,0 C 4,5 C 12,9 km/h (3 Bft) 95,65 %
22.12.2017 13:21 5,9 C 3,9 C 94 % 1031,4 hPa 0,0 l/m 8,0 km/h (2 Bft) SW 225 0 min 0,000 mm 0,0 UV-I 62 W/m 5,0 C 4,5 C 12,9 km/h (3 Bft) 95,65 %
22.12.2017 13:22 5,9 C 3,9 C 94 % 1031,4 hPa 0,0 l/m 9,7 km/h (2 Bft) SW 225 0 min 0,000 mm 0,0 UV-I 63 W/m 5,0 C 3,3 C 14,5 km/h (3 Bft) 100,00 %
22.12.2017 13:23 5,9 C 3,9 C 94 % 1031,3 hPa 0,0 l/m 9,7 km/h (2 Bft) W-SW 247 0 min 0,000 mm 0,0 UV-I 63 W/m 5,0 C 3,3 C 12,9 km/h (3 Bft) 95,65 %
22.12.2017 13:24 5,9 C 3,9 C 94 % 1031,3 hPa 0,0 l/m 8,0 km/h (2 Bft) W-SW 247 0 min 0,000 mm 0,0 UV-I 59 W/m 5,0 C 4,5 C 11,3 km/h (2 Bft) 100,00 %
22.12.2017 13:25 5,9 C 3,9 C 94 % 1031,3 hPa 0,0 l/m 8,0 km/h (2 Bft) W-SW 247 0 min 0,000 mm 0,0 UV-I 60 W/m 5,0 C 4,5 C 14,5 km/h (3 Bft) 95,65 %
22.12.2017 13:26 5,9 C 3,9 C 94 % 1031,3 hPa 0,0 l/m 9,7 km/h (2 Bft) SW 225 0 min 0,000 mm 0,0 UV-I 62 W/m 5,0 C 3,3 C 16,1 km/h (3 Bft) 100,00 %
22.12.2017 13:27 5,9 C 3,9 C 94 % 1031,3 hPa 0,0 l/m 8,0 km/h (2 Bft) W-SW 247 0 min 0,000 mm 0,0 UV-I 65 W/m 5,0 C 4,5 C 12,9 km/h (3 Bft) 91,30 %
22.12.2017 13:28 5,9 C 3,9 C 94 % 1031,3 hPa 0,0 l/m 9,7 km/h (2 Bft) W-SW 247 0 min 0,000 mm 0,0 UV-I 69 W/m 5,0 C 3,3 C 17,7 km/h (3 Bft) 100,00 %
22.12.2017 13:29 5,9 C 3,9 C 94 % 1031,2 hPa 0,0 l/m 11,3 km/h (2 Bft) W-SW 247 0 min 0,000 mm 0,0 UV-I 67 W/m 5,0 C 2,2 C 14,5 km/h (3 Bft) 95,65 %
22.12.2017 13:30 5,9 C 3,9 C 94 % 1031,2 hPa 0,0 l/m 11,3 km/h (2 Bft) SW 225 0 min 0,000 mm 0,0 UV-I 60 W/m 5,0 C 2,2 C 16,1 km/h (3 Bft) 95,65 %
22.12.2017 13:31 5,9 C 3,9 C 94 % 1031,2 hPa 0,0 l/m 12,9 km/h (3 Bft) SW 225 0 min 0,000 mm 0,0 UV-I 56 W/m 5,0 C 1,3 C 17,7 km/h (3 Bft) 95,65 %
22.12.2017 13:32 5,9 C 3,9 C 94 % 1031,2 hPa 0,0 l/m 11,3 km/h (2 Bft) W-SW 247 0 min 0,000 mm 0,0 UV-I 56 W/m 5,0 C 2,2 C 16,1 km/h (3 Bft) 95,65 %
22.12.2017 13:33 5,9 C 3,9 C 94 % 1031,2 hPa 0,0 l/m 8,0 km/h (2 Bft) SW 225 0 min 0,000 mm 0,0 UV-I 53 W/m 5,0 C 4,5 C 11,3 km/h (2 Bft) 100,00 %
22.12.2017 13:34 5,9 C 3,9 C 94 % 1031,2 hPa 0,0 l/m 11,3 km/h (2 Bft) SW 225 0 min 0,000 mm 0,0 UV-I 51 W/m 5,0 C 2,2 C 16,1 km/h (3 Bft) 95,65 %
22.12.2017 13:35 5,9 C 3,9 C 94 % 1031,2 hPa 0,0 l/m 14,5 km/h (3 Bft) SW 225 0 min 0,000 mm 0,0 UV-I 54 W/m 5,0 C 0,4 C 17,7 km/h (3 Bft) 100,00 %
22.12.2017 13:36 5,9 C 3,9 C 94 % 1031,2 hPa 0,0 l/m 16,1 km/h (3 Bft) SW 225 0 min 0,000 mm 0,0 UV-I 52 W/m 5,0 C -0,4 C 17,7 km/h (3 Bft) 100,00 %
22.12.2017 13:37 5,9 C 3,9 C 94 % 1031,2 hPa 0,0 l/m 11,3 km/h (2 Bft) W-SW 247 0 min 0,000 mm 0,0 UV-I 42 W/m 5,0 C 2,2 C 14,5 km/h (3 Bft) 100,00 %
22.12.2017 13:38 5,9 C 3,9 C 94 % 1031,1 hPa 0,0 l/m 12,9 km/h (3 Bft) SW 225 0 min 0,000 mm 0,0 UV-I 39 W/m 5,0 C 1,3 C 16,1 km/h (3 Bft) 100,00 %
22.12.2017 13:39 5,9 C 3,9 C 94 % 1031,2 hPa 0,0 l/m 12,9 km/h (3 Bft) W-SW 247 0 min 0,000 mm 0,0 UV-I 39 W/m 5,0 C 1,3 C 19,3 km/h (3 Bft) 91,30 %
22.12.2017 13:40 5,9 C 3,9 C 94 % 1031,1 hPa 0,0 l/m 12,9 km/h (3 Bft) SW 225 0 min 0,000 mm 0,0 UV-I 37 W/m 5,0 C 1,3 C 17,7 km/h (3 Bft) 100,00 %
22.12.2017 13:41 5,9 C 3,9 C 94 % 1031,2 hPa 0,0 l/m 12,9 km/h (3 Bft) W-SW 247 0 min 0,000 mm 0,0 UV-I 33 W/m 5,0 C 1,3 C 19,3 km/h (3 Bft) 91,30 %
22.12.2017 13:42 5,9 C 3,9 C 94 % 1031,1 hPa 0,0 l/m 11,3 km/h (2 Bft) W-SW 247 0 min 0,000 mm 0,0 UV-I 32 W/m 5,0 C 2,2 C 16,1 km/h (3 Bft) 95,65 %
22.12.2017 13:43 5,9 C 3,9 C 94 % 1031,1 hPa 0,0 l/m 11,3 km/h (2 Bft) SW 225 0 min 0,000 mm 0,0 UV-I 32 W/m 5,0 C 2,2 C 17,7 km/h (3 Bft) 100,00 %
22.12.2017 13:44 5,8 C 3,9 C 94 % 1031,1 hPa 0,0 l/m 11,3 km/h (2 Bft) W-SW 247 0 min 0,000 mm 0,0 UV-I 30 W/m 4,9 C 2,1 C 14,5 km/h (3 Bft) 100,00 %
22.12.2017 13:45 5,9 C 3,9 C 94 % 1031,1 hPa 0,0 l/m 9,7 km/h (2 Bft) W-SW 247 0 min 0,000 mm 0,0 UV-I 28 W/m 5,0 C 3,3 C 16,1 km/h (3 Bft) 100,00 %
22.12.2017 13:46 5,8 C 3,9 C 94 % 1031,1 hPa 0,0 l/m 9,7 km/h (2 Bft) SW 225 0 min 0,000 mm 0,0 UV-I 30 W/m 4,9 C 3,2 C 14,5 km/h (3 Bft) 100,00 %
22.12.2017 13:47 5,8 C 3,9 C 94 % 1031,1 hPa 0,0 l/m 11,3 km/h (2 Bft) W-SW 247 0 min 0,000 mm 0,0 UV-I 28 W/m 4,9 C 2,1 C 14,5 km/h (3 Bft) 100,00 %
22.12.2017 13:48 5,8 C 3,9 C 94 % 1031,1 hPa 0,0 l/m 11,3 km/h (2 Bft) W-SW 247 0 min 0,000 mm 0,0 UV-I 27 W/m 4,9 C 2,1 C 17,7 km/h (3 Bft) 95,65 %
22.12.2017 13:49 5,8 C 3,9 C 94 % 1031,1 hPa 0,0 l/m 14,5 km/h (3 Bft) W-SW 247 0 min 0,000 mm 0,0 UV-I 25 W/m 4,9 C 0,3 C 17,7 km/h (3 Bft) 100,00 %
22.12.2017 13:50 5,8 C 3,9 C 94 % 1031,1 hPa 0,0 l/m 9,7 km/h (2 Bft) W-SW 247 0 min 0,000 mm 0,0 UV-I 26 W/m 4,9 C 3,2 C 16,1 km/h (3 Bft) 100,00 %
22.12.2017 13:51 5,8 C 3,9 C 94 % 1031,1 hPa 0,0 l/m 9,7 km/h (2 Bft) SW 225 0 min 0,000 mm 0,0 UV-I 26 W/m 4,9 C 3,2 C 12,9 km/h (3 Bft) 100,00 %
22.12.2017 13:52 5,8 C 3,9 C 94 % 1031,1 hPa 0,0 l/m 9,7 km/h (2 Bft) W-SW 247 0 min 0,000 mm 0,0 UV-I 28 W/m 4,9 C 3,2 C 12,9 km/h (3 Bft) 95,65 %
22.12.2017 13:53 5,8 C 3,9 C 94 % 1031,1 hPa 0,0 l/m 6,4 km/h (2 Bft) SW 225 0 min 0,000 mm 0,0 UV-I 28 W/m 4,9 C 5,8 C 11,3 km/h (2 Bft) 100,00 %
22.12.2017 13:54 5,8 C 3,9 C 94 % 1031,1 hPa 0,0 l/m 9,7 km/h (2 Bft) W-SW 247 0 min 0,000 mm 0,0 UV-I 27 W/m 4,9 C 3,2 C 14,5 km/h (3 Bft) 100,00 %
22.12.2017 13:55 5,8 C 3,9 C 94 % 1031,1 hPa 0,0 l/m 9,7 km/h (2 Bft) W-SW 247 0 min 0,000 mm 0,0 UV-I 28 W/m 4,9 C 3,2 C 12,9 km/h (3 Bft) 95,65 %
22.12.2017 13:56 5,8 C 3,9 C 94 % 1031,1 hPa 0,0 l/m 9,7 km/h (2 Bft) W-SW 247 0 min 0,000 mm 0,0 UV-I 28 W/m 4,9 C 3,2 C 14,5 km/h (3 Bft) 100,00 %
22.12.2017 13:57 5,8 C 3,9 C 94 % 1031,1 hPa 0,0 l/m 6,4 km/h (2 Bft) SW 225 0 min 0,000 mm 0,0 UV-I 28 W/m 4,9 C 5,8 C 11,3 km/h (2 Bft) 100,00 %
22.12.2017 13:58 5,8 C 3,9 C 94 % 1031,1 hPa 0,0 l/m 9,7 km/h (2 Bft) W-SW 247 0 min 0,000 mm 0,0 UV-I 33 W/m 4,9 C 3,2 C 12,9 km/h (3 Bft) 95,65 %
22.12.2017 13:59 5,8 C 3,9 C 94 % 1031,1 hPa 0,0 l/m 8,0 km/h (2 Bft) W-SW 247 0 min 0,000 mm 0,0 UV-I 35 W/m 4,9 C 4,4 C 11,3 km/h (2 Bft) 100,00 %
22.12.2017 14:00 5,8 C 3,9 C 94 % 1031,1 hPa 0,0 l/m 8,0 km/h (2 Bft) W-SW 247 0 min 0,025 mm 0,0 UV-I 31 W/m 4,9 C 4,4 C 11,3 km/h (2 Bft) 91,30 %
22.12.2017 14:01 5,8 C 3,9 C 94 % 1031,1 hPa 0,0 l/m 9,7 km/h (2 Bft) W-SW 247 0 min 0,000 mm 0,0 UV-I 33 W/m 4,9 C 3,2 C 14,5 km/h (3 Bft) 100,00 %
22.12.2017 14:02 5,8 C 3,9 C 94 % 1031,1 hPa 0,0 l/m 8,0 km/h (2 Bft) W-SW 247 0 min 0,000 mm 0,0 UV-I 33 W/m 4,9 C 4,4 C 11,3 km/h (2 Bft) 86,96 %
22.12.2017 14:03 5,8 C 3,9 C 94 % 1031,1 hPa 0,0 l/m 6,4 km/h (2 Bft) W 270 0 min 0,000 mm 0,0 UV-I 35 W/m 4,9 C 5,8 C 11,3 km/h (2 Bft) 100,00 %
22.12.2017 14:04 5,8 C 3,9 C 94 % 1031,1 hPa 0,0 l/m 11,3 km/h (2 Bft) W-SW 247 0 min 0,000 mm 0,0 UV-I 35 W/m 4,9 C 2,1 C 14,5 km/h (3 Bft) 95,65 %
22.12.2017 14:05 5,8 C 3,9 C 94 % 1031,1 hPa 0,0 l/m 11,3 km/h (2 Bft) W-SW 247 0 min 0,000 mm 0,0 UV-I 34 W/m 4,9 C 2,1 C 17,7 km/h (3 Bft) 100,00 %
22.12.2017 14:06 5,8 C 3,9 C 94 % 1031,1 hPa 0,0 l/m 8,0 km/h (2 Bft) W-SW 247 0 min 0,000 mm 0,0 UV-I 35 W/m 4,9 C 4,4 C 12,9 km/h (3 Bft) 95,65 %
22.12.2017 14:07 5,8 C 3,9 C 94 % 1031,1 hPa 0,0 l/m 11,3 km/h (2 Bft) W 270 0 min 0,000 mm 0,0 UV-I 35 W/m 4,9 C 2,1 C 17,7 km/h (3 Bft) 95,65 %
22.12.2017 14:08 5,8 C 3,9 C 94 % 1031,1 hPa 0,0 l/m 9,7 km/h (2 Bft) SW 225 0 min 0,000 mm 0,0 UV-I 40 W/m 4,9 C 3,2 C 12,9 km/h (3 Bft) 95,65 %
22.12.2017 14:09 5,8 C 3,9 C 94 % 1031,1 hPa 0,0 l/m 9,7 km/h (2 Bft) W-SW 247 0 min 0,000 mm 0,0 UV-I 35 W/m 4,9 C 3,2 C 12,9 km/h (3 Bft) 91,30 %
22.12.2017 14:10 5,8 C 3,9 C 94 % 1031,1 hPa 0,0 l/m 11,3 km/h (2 Bft) W-SW 247 0 min 0,000 mm 0,0 UV-I 30 W/m 4,9 C 2,1 C 16,1 km/h (3 Bft) 100,00 %
22.12.2017 14:11 5,8 C 3,9 C 94 % 1031,1 hPa 0,0 l/m 14,5 km/h (3 Bft) W-SW 247 0 min 0,000 mm 0,0 UV-I 29 W/m 4,9 C 0,3 C 17,7 km/h (3 Bft) 95,65 %
22.12.2017 14:12 5,8 C 3,9 C 94 % 1031,1 hPa 0,0 l/m 11,3 km/h (2 Bft) W 270 0 min 0,000 mm 0,0 UV-I 30 W/m 4,9 C 2,1 C 12,9 km/h (3 Bft) 100,00 %
22.12.2017 14:13 5,8 C 3,9 C 94 % 1031,1 hPa 0,0 l/m 11,3 km/h (2 Bft) W-SW 247 0 min 0,000 mm 0,0 UV-I 30 W/m 4,9 C 2,1 C 14,5 km/h (3 Bft) 95,65 %
22.12.2017 14:14 5,8 C 3,9 C 94 % 1031,1 hPa 0,0 l/m 11,3 km/h (2 Bft) W 270 0 min 0,000 mm 0,0 UV-I 26 W/m 4,9 C 2,1 C 16,1 km/h (3 Bft) 95,65 %
22.12.2017 14:15 5,8 C 3,9 C 94 % 1031,1 hPa 0,0 l/m 14,5 km/h (3 Bft) W-SW 247 0 min 0,000 mm 0,0 UV-I 26 W/m 4,9 C 0,3 C 16,1 km/h (3 Bft) 100,00 %
22.12.2017 14:16 5,8 C 3,9 C 94 % 1031,1 hPa 0,0 l/m 6,4 km/h (2 Bft) W-SW 247 0 min 0,000 mm 0,0 UV-I 26 W/m 4,9 C 5,8 C 11,3 km/h (2 Bft) 91,30 %
22.12.2017 14:17 5,8 C 3,9 C 94 % 1031,1 hPa 0,0 l/m 12,9 km/h (3 Bft) W-SW 247 0 min 0,000 mm 0,0 UV-I 27 W/m 4,9 C 1,2 C 17,7 km/h (3 Bft) 100,00 %
22.12.2017 14:18 5,8 C 3,9 C 93 % 1031,1 hPa 0,0 l/m 8,0 km/h (2 Bft) W-SW 247 0 min 0,000 mm 0,0 UV-I 28 W/m 4,8 C 4,4 C 12,9 km/h (3 Bft) 95,65 %
22.12.2017 14:19 5,8 C 3,9 C 93 % 1031,1 hPa 0,0 l/m 9,7 km/h (2 Bft) W 270 0 min 0,000 mm 0,0 UV-I 26 W/m 4,8 C 3,2 C 16,1 km/h (3 Bft) 100,00 %
22.12.2017 14:20 5,8 C 3,9 C 93 % 1031,1 hPa 0,0 l/m 8,0 km/h (2 Bft) W 270 0 min 0,000 mm 0,0 UV-I 23 W/m 4,8 C 4,4 C 12,9 km/h (3 Bft) 95,65 %
22.12.2017 14:21 5,8 C 3,9 C 93 % 1031,1 hPa 0,0 l/m 8,0 km/h (2 Bft) W-SW 247 0 min 0,000 mm 0,0 UV-I 23 W/m 4,8 C 4,4 C 11,3 km/h (2 Bft) 100,00 %
22.12.2017 14:22 5,8 C 3,9 C 94 % 1031,2 hPa 0,0 l/m 9,7 km/h (2 Bft) SW 225 0 min 0,000 mm 0,0 UV-I 21 W/m 4,9 C 3,2 C 14,5 km/h (3 Bft) 95,65 %
22.12.2017 14:23 5,8 C 3,9 C 94 % 1031,1 hPa 0,0 l/m 8,0 km/h (2 Bft) W-SW 247 0 min 0,000 mm 0,0 UV-I 21 W/m 4,9 C 4,4 C 11,3 km/h (2 Bft) 91,30 %
22.12.2017 14:24 5,8 C 3,9 C 94 % 1031,0 hPa 0,0 l/m 11,3 km/h (2 Bft) W-SW 247 0 min 0,000 mm 0,0 UV-I 21 W/m 4,9 C 2,1 C 14,5 km/h (3 Bft) 100,00 %
22.12.2017 14:25 5,8 C 3,9 C 94 % 1031,0 hPa 0,0 l/m 6,4 km/h (2 Bft) W-SW 247 0 min 0,000 mm 0,0 UV-I 23 W/m 4,9 C 5,8 C 11,3 km/h (2 Bft) 95,65 %
22.12.2017 14:26 5,8 C 3,9 C 94 % 1031,0 hPa 0,0 l/m 9,7 km/h (2 Bft) W-SW 247 0 min 0,000 mm 0,0 UV-I 23 W/m 4,9 C 3,2 C 16,1 km/h (3 Bft) 100,00 %
22.12.2017 14:27 5,8 C 3,9 C 94 % 1031,0 hPa 0,0 l/m 9,7 km/h (2 Bft) W-SW 247 0 min 0,000 mm 0,0 UV-I 23 W/m 4,9 C 3,2 C 14,5 km/h (3 Bft) 95,65 %
22.12.2017 14:28 5,8 C 3,9 C 94 % 1031,0 hPa 0,0 l/m 6,4 km/h (2 Bft) W-SW 247 0 min 0,000 mm 0,0 UV-I 25 W/m 4,9 C 5,8 C 8,0 km/h (2 Bft) 100,00 %
22.12.2017 14:29 5,8 C 3,9 C 94 % 1031,1 hPa 0,0 l/m 9,7 km/h (2 Bft) W-SW 247 0 min 0,000 mm 0,0 UV-I 26 W/m 4,9 C 3,2 C 12,9 km/h (3 Bft) 95,65 %
22.12.2017 14:30 5,8 C 3,9 C 94 % 1031,2 hPa 0,0 l/m 6,4 km/h (2 Bft) W 270 0 min 0,000 mm 0,0 UV-I 25 W/m 4,9 C 5,8 C 8,0 km/h (2 Bft) 95,65 %
22.12.2017 14:31 5,8 C 3,9 C 94 % 1031,1 hPa 0,0 l/m 11,3 km/h (2 Bft) W-SW 247 0 min 0,000 mm 0,0 UV-I 25 W/m 4,9 C 2,1 C 17,7 km/h (3 Bft) 95,65 %
22.12.2017 14:32 5,8 C 3,9 C 94 % 1031,2 hPa 0,0 l/m 12,9 km/h (3 Bft) W 270 0 min 0,000 mm 0,0 UV-I 28 W/m 4,9 C 1,2 C 19,3 km/h (3 Bft) 95,65 %
22.12.2017 14:33 5,8 C 3,9 C 94 % 1031,2 hPa 0,0 l/m 8,0 km/h (2 Bft) W-SW 247 0 min 0,000 mm 0,0 UV-I 28 W/m 4,9 C 4,4 C 11,3 km/h (2 Bft) 95,65 %
22.12.2017 14:34 5,8 C 3,9 C 94 % 1031,2 hPa 0,0 l/m 6,4 km/h (2 Bft) W-SW 247 0 min 0,000 mm 0,0 UV-I 30 W/m 4,9 C 5,8 C 14,5 km/h (3 Bft) 95,65 %
22.12.2017 14:35 5,8 C 3,9 C 94 % 1031,2 hPa 0,0 l/m 14,5 km/h (3 Bft) W-SW 247 0 min 0,000 mm 0,0 UV-I 28 W/m 4,9 C 0,3 C 16,1 km/h (3 Bft) 91,30 %
22.12.2017 14:36 5,8 C 3,9 C 94 % 1031,2 hPa 0,0 l/m 12,9 km/h (3 Bft) W-SW 247 0 min 0,000 mm 0,0 UV-I 25 W/m 4,9 C 1,2 C 14,5 km/h (3 Bft) 91,30 %
22.12.2017 14:37 5,8 C 3,9 C 94 % 1031,2 hPa 0,0 l/m 11,3 km/h (2 Bft) W 270 0 min 0,000 mm 0,0 UV-I 25 W/m 4,9 C 2,1 C 14,5 km/h (3 Bft) 95,65 %
22.12.2017 14:38 5,8 C 3,9 C 94 % 1031,2 hPa 0,0 l/m 8,0 km/h (2 Bft) W-SW 247 0 min 0,000 mm 0,0 UV-I 23 W/m 4,9 C 4,4 C 12,9 km/h (3 Bft) 91,30 %
22.12.2017 14:39 5,8 C 3,9 C 94 % 1031,2 hPa 0,0 l/m 11,3 km/h (2 Bft) W 270 0 min 0,000 mm 0,0 UV-I 21 W/m 4,9 C 2,1 C 14,5 km/h (3 Bft) 100,00 %
22.12.2017 14:40 5,8 C 3,9 C 94 % 1031,2 hPa 0,0 l/m 6,4 km/h (2 Bft) W-SW 247 0 min 0,000 mm 0,0 UV-I 21 W/m 4,9 C 5,8 C 9,7 km/h (2 Bft) 91,30 %
22.12.2017 14:41 5,8 C 3,9 C 94 % 1031,2 hPa 0,0 l/m 6,4 km/h (2 Bft) W 270 0 min 0,000 mm 0,0 UV-I 23 W/m 4,9 C 5,8 C 11,3 km/h (2 Bft) 100,00 %
22.12.2017 14:42 5,8 C 3,9 C 94 % 1031,2 hPa 0,0 l/m 8,0 km/h (2 Bft) W-SW 247 0 min 0,000 mm 0,0 UV-I 25 W/m 4,9 C 4,4 C 11,3 km/h (2 Bft) 95,65 %
22.12.2017 14:43 5,8 C 3,9 C 94 % 1031,2 hPa 0,0 l/m 8,0 km/h (2 Bft) W-SW 247 0 min 0,000 mm 0,0 UV-I 25 W/m 4,9 C 4,4 C 11,3 km/h (2 Bft) 100,00 %
22.12.2017 14:44 5,8 C 3,9 C 94 % 1031,2 hPa 0,0 l/m 8,0 km/h (2 Bft) W-SW 247 0 min 0,000 mm 0,0 UV-I 23 W/m 4,9 C 4,4 C 12,9 km/h (3 Bft) 91,30 %
22.12.2017 14:45 5,8 C 3,9 C 94 % 1031,2 hPa 0,0 l/m 9,7 km/h (2 Bft) W 270 0 min 0,000 mm 0,0 UV-I 23 W/m 4,9 C 3,2 C 11,3 km/h (2 Bft) 100,00 %
22.12.2017 14:46 5,8 C 3,9 C 94 % 1031,2 hPa 0,0 l/m 11,3 km/h (2 Bft) W 270 0 min 0,000 mm 0,0 UV-I 22 W/m 4,9 C 2,1 C 14,5 km/h (3 Bft) 95,65 %
22.12.2017 14:47 5,8 C 3,9 C 94 % 1031,2 hPa 0,0 l/m 8,0 km/h (2 Bft) W 270 0 min 0,000 mm 0,0 UV-I 21 W/m 4,9 C 4,4 C 11,3 km/h (2 Bft) 100,00 %
22.12.2017 14:48 5,8 C 3,9 C 94 % 1031,3 hPa 0,0 l/m 8,0 km/h (2 Bft) W-SW 247 0 min 0,000 mm 0,0 UV-I 21 W/m 4,9 C 4,4 C 11,3 km/h (2 Bft) 95,65 %
22.12.2017 14:49 5,8 C 3,9 C 94 % 1031,3 hPa 0,0 l/m 6,4 km/h (2 Bft) W 270 0 min 0,000 mm 0,0 UV-I 21 W/m 4,9 C 5,8 C 9,7 km/h (2 Bft) 100,00 %
22.12.2017 14:50 5,8 C 3,9 C 94 % 1031,3 hPa 0,0 l/m 8,0 km/h (2 Bft) W-SW 247 0 min 0,000 mm 0,0 UV-I 21 W/m 4,9 C 4,4 C 11,3 km/h (2 Bft) 95,65 %
22.12.2017 14:51 5,8 C 3,9 C 94 % 1031,3 hPa 0,0 l/m 6,4 km/h (2 Bft) W-SW 247 0 min 0,000 mm 0,0 UV-I 21 W/m 4,9 C 5,8 C 9,7 km/h (2 Bft) 95,65 %
22.12.2017 14:52 5,8 C 3,9 C 94 % 1031,3 hPa 0,0 l/m 6,4 km/h (2 Bft) W-SW 247 0 min 0,000 mm 0,0 UV-I 20 W/m 4,9 C 5,8 C 9,7 km/h (2 Bft) 95,65 %
22.12.2017 14:53 5,8 C 3,9 C 94 % 1031,3 hPa 0,0 l/m 6,4 km/h (2 Bft) W-SW 247 0 min 0,000 mm 0,0 UV-I 21 W/m 4,9 C 5,8 C 8,0 km/h (2 Bft) 95,65 %
22.12.2017 14:54 5,8 C 3,9 C 94 % 1031,3 hPa 0,0 l/m 6,4 km/h (2 Bft) W 270 0 min 0,000 mm 0,0 UV-I 23 W/m 4,9 C 5,8 C 9,7 km/h (2 Bft) 100,00 %
22.12.2017 14:55 5,8 C 3,9 C 94 % 1031,3 hPa 0,0 l/m 6,4 km/h (2 Bft) W 270 0 min 0,000 mm 0,0 UV-I 19 W/m 4,9 C 5,8 C 9,7 km/h (2 Bft) 95,65 %
22.12.2017 14:56 5,8 C 3,9 C 94 % 1031,3 hPa 0,0 l/m 6,4 km/h (2 Bft) W 270 0 min 0,000 mm 0,0 UV-I 19 W/m 4,9 C 5,8 C 9,7 km/h (2 Bft) 100,00 %
22.12.2017 14:57 5,8 C 3,9 C 94 % 1031,3 hPa 0,0 l/m 8,0 km/h (2 Bft) W-SW 247 0 min 0,000 mm 0,0 UV-I 19 W/m 4,9 C 4,4 C 14,5 km/h (3 Bft) 95,65 %
22.12.2017 14:58 5,8 C 3,9 C 94 % 1031,3 hPa 0,0 l/m 9,7 km/h (2 Bft) W-SW 247 0 min 0,000 mm 0,0 UV-I 19 W/m 4,9 C 3,2 C 12,9 km/h (3 Bft) 95,65 %
22.12.2017 14:59 5,8 C 3,9 C 94 % 1031,3 hPa 0,0 l/m 9,7 km/h (2 Bft) W-SW 247 0 min 0,000 mm 0,0 UV-I 19 W/m 4,9 C 3,2 C 12,9 km/h (3 Bft) 95,65 %
22.12.2017 15:00 5,8 C 3,9 C 94 % 1031,3 hPa 0,0 l/m 4,8 km/h (1 Bft) W 270 0 min 0,025 mm 0,0 UV-I 19 W/m 4,9 C 5,8 C 6,4 km/h (2 Bft) 100,00 %
22.12.2017 15:01 5,8 C 3,9 C 94 % 1031,3 hPa 0,0 l/m 6,4 km/h (2 Bft) W 270 0 min 0,000 mm 0,0 UV-I 19 W/m 4,9 C 5,8 C 9,7 km/h (2 Bft) 100,00 %
22.12.2017 15:02 5,8 C 3,9 C 94 % 1031,3 hPa 0,0 l/m 8,0 km/h (2 Bft) W-SW 247 0 min 0,000 mm 0,0 UV-I 18 W/m 4,9 C 4,4 C 11,3 km/h (2 Bft) 100,00 %
22.12.2017 15:03 5,8 C 3,9 C 94 % 1031,3 hPa 0,0 l/m 8,0 km/h (2 Bft) W-SW 247 0 min 0,000 mm 0,0 UV-I 19 W/m 4,9 C 4,4 C 11,3 km/h (2 Bft) 100,00 %
22.12.2017 15:04 5,8 C 3,9 C 94 % 1031,3 hPa 0,0 l/m 6,4 km/h (2 Bft) W-SW 247 0 min 0,000 mm 0,0 UV-I 19 W/m 4,9 C 5,8 C 11,3 km/h (2 Bft) 95,65 %
22.12.2017 15:05 5,8 C 3,9 C 94 % 1031,3 hPa 0,0 l/m 6,4 km/h (2 Bft) W 270 0 min 0,000 mm 0,0 UV-I 18 W/m 4,9 C 5,8 C 11,3 km/h (2 Bft) 95,65 %
22.12.2017 15:06 5,8 C 3,9 C 94 % 1031,2 hPa 0,0 l/m 8,0 km/h (2 Bft) W-SW 247 0 min 0,000 mm 0,0 UV-I 19 W/m 4,9 C 4,4 C 12,9 km/h (3 Bft) 95,65 %
22.12.2017 15:07 5,8 C 3,9 C 94 % 1031,2 hPa 0,0 l/m 8,0 km/h (2 Bft) W-SW 247 0 min 0,000 mm 0,0 UV-I 19 W/m 4,9 C 4,4 C 11,3 km/h (2 Bft) 100,00 %
22.12.2017 15:08 5,8 C 3,9 C 94 % 1031,2 hPa 0,0 l/m 8,0 km/h (2 Bft) W-SW 247 0 min 0,000 mm 0,0 UV-I 18 W/m 4,9 C 4,4 C 12,9 km/h (3 Bft) 100,00 %
22.12.2017 15:09 5,8 C 3,9 C 94 % 1031,2 hPa 0,0 l/m 6,4 km/h (2 Bft) W-SW 247 0 min 0,000 mm 0,0 UV-I 16 W/m 4,9 C 5,8 C 9,7 km/h (2 Bft) 100,00 %
22.12.2017 15:10 5,8 C 3,9 C 94 % 1031,2 hPa 0,0 l/m 8,0 km/h (2 Bft) W 270 0 min 0,000 mm 0,0 UV-I 16 W/m 4,9 C 4,4 C 11,3 km/h (2 Bft) 100,00 %
22.12.2017 15:11 5,8 C 3,9 C 94 % 1031,2 hPa 0,0 l/m 11,3 km/h (2 Bft) W-SW 247 0 min 0,000 mm 0,0 UV-I 16 W/m 4,9 C 2,1 C 12,9 km/h (3 Bft) 100,00 %
22.12.2017 15:12 5,8 C 3,9 C 94 % 1031,2 hPa 0,0 l/m 6,4 km/h (2 Bft) W-SW 247 0 min 0,000 mm 0,0 UV-I 14 W/m 4,9 C 5,8 C 11,3 km/h (2 Bft) 95,65 %
22.12.2017 15:13 5,8 C 3,9 C 94 % 1031,2 hPa 0,0 l/m 6,4 km/h (2 Bft) W-SW 247 0 min 0,000 mm 0,0 UV-I 14 W/m 4,9 C 5,8 C 11,3 km/h (2 Bft) 95,65 %
22.12.2017 15:14 5,8 C 3,9 C 94 % 1031,2 hPa 0,0 l/m 4,8 km/h (1 Bft) W-SW 247 0 min 0,000 mm 0,0 UV-I 16 W/m 4,9 C 5,8 C 6,4 km/h (2 Bft) 100,00 %
22.12.2017 15:15 5,8 C 3,9 C 94 % 1031,2 hPa 0,0 l/m 8,0 km/h (2 Bft) W-SW 247 0 min 0,000 mm 0,0 UV-I 16 W/m 4,9 C 4,4 C 12,9 km/h (3 Bft) 100,00 %
22.12.2017 15:16 5,8 C 3,9 C 94 % 1031,2 hPa 0,0 l/m 8,0 km/h (2 Bft) W-SW 247 0 min 0,000 mm 0,0 UV-I 14 W/m 4,9 C 4,4 C 11,3 km/h (2 Bft) 100,00 %
22.12.2017 15:17 5,8 C 3,9 C 94 % 1031,2 hPa 0,0 l/m 6,4 km/h (2 Bft) W-SW 247 0 min 0,000 mm 0,0 UV-I 16 W/m 4,9 C 5,8 C 9,7 km/h (2 Bft) 100,00 %
22.12.2017 15:18 5,8 C 3,9 C 94 % 1031,2 hPa 0,0 l/m 4,8 km/h (1 Bft) W 270 0 min 0,000 mm 0,0 UV-I 14 W/m 4,9 C 5,8 C 6,4 km/h (2 Bft) 100,00 %
22.12.2017 15:19 5,8 C 3,9 C 94 % 1031,2 hPa 0,0 l/m 6,4 km/h (2 Bft) W-SW 247 0 min 0,000 mm 0,0 UV-I 16 W/m 4,9 C 5,8 C 11,3 km/h (2 Bft) 91,30 %
22.12.2017 15:20 5,8 C 3,9 C 94 % 1031,2 hPa 0,0 l/m 6,4 km/h (2 Bft) W-SW 247 0 min 0,000 mm 0,0 UV-I 16 W/m 4,9 C 5,8 C 9,7 km/h (2 Bft) 100,00 %
22.12.2017 15:21 5,8 C 3,9 C 94 % 1031,1 hPa 0,0 l/m 6,4 km/h (2 Bft) SW 225 0 min 0,000 mm 0,0 UV-I 16 W/m 4,9 C 5,8 C 8,0 km/h (2 Bft) 100,00 %
22.12.2017 15:22 5,7 C 3,9 C 94 % 1031,1 hPa 0,0 l/m 8,0 km/h (2 Bft) W-SW 247 0 min 0,000 mm 0,0 UV-I 19 W/m 4,8 C 4,3 C 11,3 km/h (2 Bft) 100,00 %
22.12.2017 15:23 5,8 C 3,9 C 94 % 1031,2 hPa 0,0 l/m 6,4 km/h (2 Bft) W-SW 247 0 min 0,000 mm 0,0 UV-I 18 W/m 4,9 C 5,8 C 9,7 km/h (2 Bft) 91,30 %
22.12.2017 15:24 5,7 C 3,9 C 94 % 1031,1 hPa 0,0 l/m 4,8 km/h (1 Bft) SW 225 0 min 0,000 mm 0,0 UV-I 18 W/m 4,8 C 5,7 C 8,0 km/h (2 Bft) 100,00 %
22.12.2017 15:25 5,8 C 3,9 C 94 % 1031,1 hPa 0,0 l/m 8,0 km/h (2 Bft) W-SW 247 0 min 0,000 mm 0,0 UV-I 16 W/m 4,9 C 4,4 C 11,3 km/h (2 Bft) 100,00 %
22.12.2017 15:26 5,7 C 3,9 C 94 % 1031,1 hPa 0,0 l/m 8,0 km/h (2 Bft) W-SW 247 0 min 0,000 mm 0,0 UV-I 16 W/m 4,8 C 4,3 C 12,9 km/h (3 Bft) 95,65 %
22.12.2017 15:27 5,8 C 3,9 C 94 % 1031,1 hPa 0,0 l/m 9,7 km/h (2 Bft) W-SW 247 0 min 0,000 mm 0,0 UV-I 14 W/m 4,9 C 3,2 C 12,9 km/h (3 Bft) 100,00 %
22.12.2017 15:28 5,7 C 3,9 C 94 % 1031,1 hPa 0,0 l/m 8,0 km/h (2 Bft) W-SW 247 0 min 0,000 mm 0,0 UV-I 12 W/m 4,8 C 4,3 C 11,3 km/h (2 Bft) 100,00 %
22.12.2017 15:29 5,7 C 3,9 C 94 % 1031,1 hPa 0,0 l/m 8,0 km/h (2 Bft) W-SW 247 0 min 0,000 mm 0,0 UV-I 12 W/m 4,8 C 4,3 C 11,3 km/h (2 Bft) 100,00 %
22.12.2017 15:30 5,7 C 3,9 C 94 % 1031,1 hPa 0,0 l/m 6,4 km/h (2 Bft) W-SW 247 0 min 0,000 mm 0,0 UV-I 12 W/m 4,8 C 5,7 C 9,7 km/h (2 Bft) 95,65 %
22.12.2017 15:31 5,7 C 3,9 C 94 % 1031,1 hPa 0,0 l/m 8,0 km/h (2 Bft) W-SW 247 0 min 0,000 mm 0,0 UV-I 11 W/m 4,8 C 4,3 C 12,9 km/h (3 Bft) 100,00 %
22.12.2017 15:32 5,7 C 3,9 C 94 % 1031,1 hPa 0,0 l/m 6,4 km/h (2 Bft) W-SW 247 0 min 0,000 mm 0,0 UV-I 11 W/m 4,8 C 5,7 C 12,9 km/h (3 Bft) 100,00 %
22.12.2017 15:33 5,7 C 3,9 C 94 % 1031,2 hPa 0,0 l/m 8,0 km/h (2 Bft) W-SW 247 0 min 0,000 mm 0,0 UV-I 9 W/m 4,8 C 4,3 C 11,3 km/h (2 Bft) 95,65 %
22.12.2017 15:34 5,7 C 3,9 C 94 % 1031,2 hPa 0,0 l/m 8,0 km/h (2 Bft) W 270 0 min 0,000 mm 0,0 UV-I 9 W/m 4,8 C 4,3 C 12,9 km/h (3 Bft) 95,65 %
22.12.2017 15:35 5,7 C 3,9 C 94 % 1031,2 hPa 0,0 l/m 11,3 km/h (2 Bft) W-SW 247 0 min 0,000 mm 0,0 UV-I 9 W/m 4,8 C 2,0 C 14,5 km/h (3 Bft) 100,00 %
22.12.2017 15:36 5,7 C 3,9 C 94 % 1031,2 hPa 0,0 l/m 9,7 km/h (2 Bft) W-SW 247 0 min 0,000 mm 0,0 UV-I 9 W/m 4,8 C 3,1 C 12,9 km/h (3 Bft) 95,65 %
22.12.2017 15:37 5,7 C 3,9 C 94 % 1031,2 hPa 0,0 l/m 9,7 km/h (2 Bft) W-SW 247 0 min 0,000 mm 0,0 UV-I 9 W/m 4,8 C 3,1 C 14,5 km/h (3 Bft) 100,00 %
22.12.2017 15:38 5,7 C 3,9 C 94 % 1031,2 hPa 0,0 l/m 9,7 km/h (2 Bft) W-SW 247 0 min 0,000 mm 0,0 UV-I 9 W/m 4,8 C 3,1 C 17,7 km/h (3 Bft) 100,00 %
22.12.2017 15:39 5,7 C 3,9 C 94 % 1031,2 hPa 0,0 l/m 9,7 km/h (2 Bft) W-SW 247 0 min 0,000 mm 0,0 UV-I 9 W/m 4,8 C 3,1 C 12,9 km/h (3 Bft) 100,00 %
22.12.2017 15:40 5,8 C 3,9 C 94 % 1031,2 hPa 0,0 l/m 9,7 km/h (2 Bft) W-SW 247 0 min 0,000 mm 0,0 UV-I 9 W/m 4,9 C 3,2 C 12,9 km/h (3 Bft) 95,65 %
22.12.2017 15:41 5,8 C 3,9 C 94 % 1031,2 hPa 0,0 l/m 9,7 km/h (2 Bft) W 270 0 min 0,000 mm 0,0 UV-I 9 W/m 4,9 C 3,2 C 14,5 km/h (3 Bft) 91,30 %
22.12.2017 15:42 5,8 C 3,9 C 94 % 1031,2 hPa 0,0 l/m 6,4 km/h (2 Bft) W 270 0 min 0,000 mm 0,0 UV-I 9 W/m 4,9 C 5,8 C 9,7 km/h (2 Bft) 100,00 %
22.12.2017 15:43 5,8 C 3,9 C 94 % 1031,3 hPa 0,0 l/m 9,7 km/h (2 Bft) W-SW 247 0 min 0,000 mm 0,0 UV-I 7 W/m 4,9 C 3,2 C 12,9 km/h (3 Bft) 95,65 %
22.12.2017 15:44 5,8 C 3,9 C 94 % 1031,3 hPa 0,0 l/m 9,7 km/h (2 Bft) W-SW 247 0 min 0,000 mm 0,0 UV-I 9 W/m 4,9 C 3,2 C 12,9 km/h (3 Bft) 100,00 %
22.12.2017 15:45 5,8 C 3,9 C 94 % 1031,3 hPa 0,0 l/m 8,0 km/h (2 Bft) W 270 0 min 0,000 mm 0,0 UV-I 7 W/m 4,9 C 4,4 C 11,3 km/h (2 Bft) 100,00 %
22.12.2017 15:46 5,8 C 3,9 C 94 % 1031,3 hPa 0,0 l/m 8,0 km/h (2 Bft) W-SW 247 0 min 0,000 mm 0,0 UV-I 7 W/m 4,9 C 4,4 C 11,3 km/h (2 Bft) 100,00 %
22.12.2017 15:47 5,8 C 3,9 C 94 % 1031,3 hPa 0,0 l/m 9,7 km/h (2 Bft) W-SW 247 0 min 0,000 mm 0,0 UV-I 7 W/m 4,9 C 3,2 C 12,9 km/h (3 Bft) 95,65 %
22.12.2017 15:48 5,8 C 3,9 C 94 % 1031,3 hPa 0,0 l/m 6,4 km/h (2 Bft) W 270 0 min 0,000 mm 0,0 UV-I 7 W/m 4,9 C 5,8 C 11,3 km/h (2 Bft) 95,65 %
22.12.2017 15:49 5,7 C 3,9 C 94 % 1031,3 hPa 0,0 l/m 6,4 km/h (2 Bft) W-SW 247 0 min 0,000 mm 0,0 UV-I 7 W/m 4,8 C 5,7 C 9,7 km/h (2 Bft) 100,00 %
22.12.2017 15:50 5,7 C 3,9 C 94 % 1031,3 hPa 0,0 l/m 4,8 km/h (1 Bft) W-SW 247 0 min 0,000 mm 0,0 UV-I 7 W/m 4,8 C 5,7 C 8,0 km/h (2 Bft) 100,00 %
22.12.2017 15:51 5,7 C 3,9 C 94 % 1031,3 hPa 0,0 l/m 6,4 km/h (2 Bft) W 270 0 min 0,000 mm 0,0 UV-I 5 W/m 4,8 C 5,7 C 9,7 km/h (2 Bft) 100,00 %
22.12.2017 15:52 5,7 C 3,9 C 94 % 1031,3 hPa 0,0 l/m 3,2 km/h (1 Bft) W 270 0 min 0,000 mm 0,0 UV-I 5 W/m 4,8 C 5,7 C 6,4 km/h (2 Bft) 100,00 %
22.12.2017 15:53 5,7 C 3,9 C 94 % 1031,3 hPa 0,0 l/m 3,2 km/h (1 Bft) W 270 0 min 0,000 mm 0,0 UV-I 5 W/m 4,8 C 5,7 C 4,8 km/h (1 Bft) 95,65 %
22.12.2017 15:54 5,7 C 3,9 C 94 % 1031,2 hPa 0,0 l/m 4,8 km/h (1 Bft) W 270 0 min 0,000 mm 0,0 UV-I 5 W/m 4,8 C 5,7 C 6,4 km/h (2 Bft) 95,65 %
22.12.2017 15:55 5,7 C 3,9 C 94 % 1031,2 hPa 0,0 l/m 4,8 km/h (1 Bft) W 270 0 min 0,000 mm 0,0 UV-I 5 W/m 4,8 C 5,7 C 8,0 km/h (2 Bft) 95,65 %
22.12.2017 15:56 5,7 C 3,9 C 94 % 1031,2 hPa 0,0 l/m 6,4 km/h (2 Bft) W-SW 247 0 min 0,000 mm 0,0 UV-I 5 W/m 4,8 C 5,7 C 8,0 km/h (2 Bft) 100,00 %
22.12.2017 15:57 5,7 C 3,9 C 95 % 1031,2 hPa 0,0 l/m 4,8 km/h (1 Bft) W-SW 247 0 min 0,000 mm 0,0 UV-I 5 W/m 5,0 C 5,7 C 6,4 km/h (2 Bft) 100,00 %
22.12.2017 15:58 5,7 C 3,9 C 95 % 1031,2 hPa 0,0 l/m 4,8 km/h (1 Bft) W-SW 247 0 min 0,000 mm 0,0 UV-I 5 W/m 5,0 C 5,7 C 6,4 km/h (2 Bft) 100,00 %
22.12.2017 15:59 5,7 C 3,9 C 95 % 1031,2 hPa 0,0 l/m 4,8 km/h (1 Bft) W-SW 247 0 min 0,000 mm 0,0 UV-I 5 W/m 5,0 C 5,7 C 6,4 km/h (2 Bft) 95,65 %
22.12.2017 16:00 5,7 C 3,9 C 95 % 1031,1 hPa 0,0 l/m 6,4 km/h (2 Bft) W-SW 247 0 min 0,000 mm 0,0 UV-I 5 W/m 5,0 C 5,7 C 8,0 km/h (2 Bft) 100,00 %
22.12.2017 16:01 5,7 C 3,9 C 95 % 1031,2 hPa 0,0 l/m 6,4 km/h (2 Bft) W 270 0 min 0,000 mm 0,0 UV-I 5 W/m 5,0 C 5,7 C 9,7 km/h (2 Bft) 95,65 %
22.12.2017 16:02 5,7 C 3,9 C 95 % 1031,2 hPa 0,0 l/m 6,4 km/h (2 Bft) W-SW 247 0 min 0,000 mm 0,0 UV-I 5 W/m 5,0 C 5,7 C 9,7 km/h (2 Bft) 91,30 %
22.12.2017 16:03 5,6 C 3,9 C 95 % 1031,2 hPa 0,0 l/m 6,4 km/h (2 Bft) W 270 0 min 0,000 mm 0,0 UV-I 5 W/m 4,9 C 5,6 C 8,0 km/h (2 Bft) 95,65 %
22.12.2017 16:04 5,6 C 3,9 C 95 % 1031,3 hPa 0,0 l/m 8,0 km/h (2 Bft) W-SW 247 0 min 0,000 mm 0,0 UV-I 5 W/m 4,9 C 4,2 C 12,9 km/h (3 Bft) 100,00 %
22.12.2017 16:05 5,7 C 3,9 C 95 % 1031,3 hPa 0,0 l/m 6,4 km/h (2 Bft) W 270 0 min 0,000 mm 0,0 UV-I 0 W/m 5,0 C 5,7 C 9,7 km/h (2 Bft) 95,65 %
22.12.2017 16:06 5,6 C 3,9 C 95 % 1031,3 hPa 0,0 l/m 4,8 km/h (1 Bft) W 270 0 min 0,000 mm 0,0 UV-I 0 W/m 4,9 C 5,6 C 6,4 km/h (2 Bft) 100,00 %
22.12.2017 16:07 5,6 C 3,9 C 95 % 1031,2 hPa 0,0 l/m 6,4 km/h (2 Bft) W-SW 247 0 min 0,000 mm 0,0 UV-I 0 W/m 4,9 C 5,6 C 8,0 km/h (2 Bft) 95,65 %
22.12.2017 16:08 5,6 C 3,9 C 95 % 1031,2 hPa 0,0 l/m 6,4 km/h (2 Bft) W-SW 247 0 min 0,000 mm 0,0 UV-I 3 W/m 4,9 C 5,6 C 8,0 km/h (2 Bft) 95,65 %
22.12.2017 16:09 5,6 C 3,9 C 95 % 1031,1 hPa 0,0 l/m 4,8 km/h (1 Bft) SW 225 0 min 0,000 mm 0,0 UV-I 0 W/m 4,9 C 5,6 C 6,4 km/h (2 Bft) 91,30 %
22.12.2017 16:10 5,6 C 3,9 C 95 % 1031,2 hPa 0,0 l/m 6,4 km/h (2 Bft) SW 225 0 min 0,000 mm 0,0 UV-I 0 W/m 4,9 C 5,6 C 9,7 km/h (2 Bft) 100,00 %
22.12.2017 16:11 5,6 C 3,9 C 95 % 1031,1 hPa 0,0 l/m 6,4 km/h (2 Bft) W-SW 247 0 min 0,000 mm 0,0 UV-I 0 W/m 4,9 C 5,6 C 8,0 km/h (2 Bft) 91,30 %
22.12.2017 16:12 5,6 C 3,9 C 95 % 1031,1 hPa 0,0 l/m 6,4 km/h (2 Bft) W-SW 247 0 min 0,000 mm 0,0 UV-I 0 W/m 4,9 C 5,6 C 11,3 km/h (2 Bft) 91,30 %
22.12.2017 16:13 5,6 C 3,9 C 95 % 1031,1 hPa 0,0 l/m 6,4 km/h (2 Bft) SW 225 0 min 0,000 mm 0,0 UV-I 0 W/m 4,9 C 5,6 C 8,0 km/h (2 Bft) 95,65 %
22.12.2017 16:14 5,6 C 3,9 C 95 % 1031,1 hPa 0,0 l/m 6,4 km/h (2 Bft) W-SW 247 0 min 0,000 mm 0,0 UV-I 0 W/m 4,9 C 5,6 C 12,9 km/h (3 Bft) 95,65 %
22.12.2017 16:15 5,6 C 3,9 C 95 % 1031,1 hPa 0,0 l/m 6,4 km/h (2 Bft) SW 225 0 min 0,000 mm 0,0 UV-I 0 W/m 4,9 C 5,6 C 8,0 km/h (2 Bft) 91,30 %
22.12.2017 16:16 5,7 C 3,9 C 95 % 1031,1 hPa 0,0 l/m 6,4 km/h (2 Bft) W-SW 247 0 min 0,000 mm 0,0 UV-I 0 W/m 5,0 C 5,7 C 8,0 km/h (2 Bft) 91,30 %
22.12.2017 16:17 5,7 C 3,9 C 95 % 1031,2 hPa 0,0 l/m 8,0 km/h (2 Bft) W-SW 247 0 min 0,000 mm 0,0 UV-I 0 W/m 5,0 C 4,3 C 9,7 km/h (2 Bft) 95,65 %
22.12.2017 16:18 5,7 C 3,9 C 95 % 1031,2 hPa 0,0 l/m 8,0 km/h (2 Bft) W-SW 247 0 min 0,000 mm 0,0 UV-I 0 W/m 5,0 C 4,3 C 11,3 km/h (2 Bft) 91,30 %
22.12.2017 16:19 5,6 C 3,9 C 95 % 1031,2 hPa 0,0 l/m 6,4 km/h (2 Bft) SW 225 0 min 0,000 mm 0,0 UV-I 0 W/m 4,9 C 5,6 C 8,0 km/h (2 Bft) 95,65 %
22.12.2017 16:20 5,6 C 3,9 C 95 % 1031,2 hPa 0,0 l/m 8,0 km/h (2 Bft) W-SW 247 0 min 0,000 mm 0,0 UV-I 0 W/m 4,9 C 4,2 C 9,7 km/h (2 Bft) 95,65 %
22.12.2017 16:21 5,6 C 3,9 C 95 % 1031,2 hPa 0,0 l/m 6,4 km/h (2 Bft) W-SW 247 0 min 0,000 mm 0,0 UV-I 0 W/m 4,9 C 5,6 C 8,0 km/h (2 Bft) 100,00 %
22.12.2017 16:22 5,7 C 3,9 C 95 % 1031,2 hPa 0,0 l/m 6,4 km/h (2 Bft) W-SW 247 0 min 0,000 mm 0,0 UV-I 0 W/m 5,0 C 5,7 C 9,7 km/h (2 Bft) 86,96 %
22.12.2017 16:23 5,6 C 3,9 C 95 % 1031,2 hPa 0,0 l/m 8,0 km/h (2 Bft) W-SW 247 0 min 0,000 mm 0,0 UV-I 0 W/m 4,9 C 4,2 C 11,3 km/h (2 Bft) 100,00 %
22.12.2017 16:24 5,7 C 3,9 C 95 % 1031,3 hPa 0,0 l/m 8,0 km/h (2 Bft) W-SW 247 0 min 0,000 mm 0,0 UV-I 0 W/m 5,0 C 4,3 C 11,3 km/h (2 Bft) 95,65 %
22.12.2017 16:25 5,7 C 3,9 C 95 % 1031,3 hPa 0,0 l/m 8,0 km/h (2 Bft) W-SW 247 0 min 0,000 mm 0,0 UV-I 0 W/m 5,0 C 4,3 C 11,3 km/h (2 Bft) 95,65 %
22.12.2017 16:26 5,7 C 3,9 C 95 % 1031,3 hPa 0,0 l/m 8,0 km/h (2 Bft) W-SW 247 0 min 0,000 mm 0,0 UV-I 0 W/m 5,0 C 4,3 C 11,3 km/h (2 Bft) 100,00 %
22.12.2017 16:27 5,7 C 3,9 C 95 % 1031,3 hPa 0,0 l/m 4,8 km/h (1 Bft) W 270 0 min 0,000 mm 0,0 UV-I 0 W/m 5,0 C 5,7 C 6,4 km/h (2 Bft) 95,65 %
22.12.2017 16:28 5,7 C 3,9 C 95 % 1031,3 hPa 0,0 l/m 4,8 km/h (1 Bft) W 270 0 min 0,000 mm 0,0 UV-I 0 W/m 5,0 C 5,7 C 6,4 km/h (2 Bft) 100,00 %
22.12.2017 16:29 5,7 C 3,9 C 95 % 1031,3 hPa 0,0 l/m 4,8 km/h (1 Bft) W 270 0 min 0,000 mm 0,0 UV-I 0 W/m 5,0 C 5,7 C 6,4 km/h (2 Bft) 91,30 %
22.12.2017 16:30 5,7 C 3,9 C 95 % 1031,3 hPa 0,0 l/m 4,8 km/h (1 Bft) W-SW 247 0 min 0,000 mm 0,0 UV-I 0 W/m 5,0 C 5,7 C 6,4 km/h (2 Bft) 100,00 %
22.12.2017 16:31 5,7 C 3,9 C 95 % 1031,3 hPa 0,0 l/m 3,2 km/h (1 Bft) W-SW 247 0 min 0,000 mm 0,0 UV-I 0 W/m 5,0 C 5,7 C 4,8 km/h (1 Bft) 91,30 %
22.12.2017 16:32 5,7 C 3,9 C 95 % 1031,3 hPa 0,0 l/m 6,4 km/h (2 Bft) W-SW 247 0 min 0,000 mm 0,0 UV-I 0 W/m 5,0 C 5,7 C 9,7 km/h (2 Bft) 100,00 %
22.12.2017 16:33 5,7 C 3,9 C 95 % 1031,3 hPa 0,0 l/m 6,4 km/h (2 Bft) W-SW 247 0 min 0,000 mm 0,0 UV-I 0 W/m 5,0 C 5,7 C 9,7 km/h (2 Bft) 95,65 %
22.12.2017 16:34 5,7 C 3,9 C 95 % 1031,3 hPa 0,0 l/m 6,4 km/h (2 Bft) W 270 0 min 0,000 mm 0,0 UV-I 0 W/m 5,0 C 5,7 C 9,7 km/h (2 Bft) 95,65 %
22.12.2017 16:35 5,7 C 3,9 C 95 % 1031,4 hPa 0,0 l/m 4,8 km/h (1 Bft) W 270 0 min 0,000 mm 0,0 UV-I 0 W/m 5,0 C 5,7 C 6,4 km/h (2 Bft) 100,00 %
22.12.2017 16:36 5,7 C 3,9 C 95 % 1031,4 hPa 0,0 l/m 4,8 km/h (1 Bft) W 270 0 min 0,000 mm 0,0 UV-I 0 W/m 5,0 C 5,7 C 6,4 km/h (2 Bft) 91,30 %
22.12.2017 16:37 5,7 C 3,9 C 95 % 1031,4 hPa 0,0 l/m 6,4 km/h (2 Bft) W 270 0 min 0,000 mm 0,0 UV-I 0 W/m 5,0 C 5,7 C 9,7 km/h (2 Bft) 100,00 %
22.12.2017 16:38 5,6 C 3,9 C 95 % 1031,3 hPa 0,0 l/m 4,8 km/h (1 Bft) W-SW 247 0 min 0,000 mm 0,0 UV-I 0 W/m 4,9 C 5,6 C 6,4 km/h (2 Bft) 95,65 %
22.12.2017 16:39 5,7 C 3,9 C 95 % 1031,4 hPa 0,0 l/m 6,4 km/h (2 Bft) W 270 0 min 0,000 mm 0,0 UV-I 0 W/m 5,0 C 5,7 C 6,4 km/h (2 Bft) 95,65 %
22.12.2017 16:40 5,7 C 3,9 C 95 % 1031,3 hPa 0,0 l/m 6,4 km/h (2 Bft) W-SW 247 0 min 0,000 mm 0,0 UV-I 0 W/m 5,0 C 5,7 C 11,3 km/h (2 Bft) 95,65 %
22.12.2017 16:41 5,7 C 3,9 C 95 % 1031,3 hPa 0,0 l/m 6,4 km/h (2 Bft) W-SW 247 0 min 0,000 mm 0,0 UV-I 0 W/m 5,0 C 5,7 C 11,3 km/h (2 Bft) 100,00 %
22.12.2017 16:42 5,7 C 3,9 C 95 % 1031,3 hPa 0,0 l/m 4,8 km/h (1 Bft) W-SW 247 0 min 0,000 mm 0,0 UV-I 0 W/m 5,0 C 5,7 C 6,4 km/h (2 Bft) 91,30 %
22.12.2017 16:43 5,7 C 3,9 C 95 % 1031,3 hPa 0,0 l/m 6,4 km/h (2 Bft) W-SW 247 0 min 0,000 mm 0,0 UV-I 0 W/m 5,0 C 5,7 C 8,0 km/h (2 Bft) 86,96 %
22.12.2017 16:44 5,7 C 3,9 C 95 % 1031,3 hPa 0,0 l/m 6,4 km/h (2 Bft) W 270 0 min 0,000 mm 0,0 UV-I 0 W/m 5,0 C 5,7 C 8,0 km/h (2 Bft) 100,00 %
22.12.2017 16:45 5,7 C 3,9 C 95 % 1031,3 hPa 0,0 l/m 6,4 km/h (2 Bft) W 270 0 min 0,000 mm 0,0 UV-I 0 W/m 5,0 C 5,7 C 9,7 km/h (2 Bft) 100,00 %
22.12.2017 16:46 5,7 C 3,9 C 95 % 1031,4 hPa 0,0 l/m 6,4 km/h (2 Bft) W 270 0 min 0,000 mm 0,0 UV-I 0 W/m 5,0 C 5,7 C 11,3 km/h (2 Bft) 100,00 %
22.12.2017 16:47 5,7 C 3,9 C 95 % 1031,4 hPa 0,0 l/m 8,0 km/h (2 Bft) W 270 0 min 0,000 mm 0,0 UV-I 0 W/m 5,0 C 4,3 C 11,3 km/h (2 Bft) 95,65 %
22.12.2017 16:48 5,7 C 3,9 C 95 % 1031,4 hPa 0,0 l/m 6,4 km/h (2 Bft) W-SW 247 0 min 0,000 mm 0,0 UV-I 0 W/m 5,0 C 5,7 C 9,7 km/h (2 Bft) 100,00 %
22.12.2017 16:49 5,7 C 3,9 C 95 % 1031,3 hPa 0,0 l/m 3,2 km/h (1 Bft) W-SW 247 0 min 0,000 mm 0,0 UV-I 0 W/m 5,0 C 5,7 C 6,4 km/h (2 Bft) 100,00 %
22.12.2017 16:50 5,7 C 3,9 C 95 % 1031,3 hPa 0,0 l/m 4,8 km/h (1 Bft) W 270 0 min 0,000 mm 0,0 UV-I 0 W/m 5,0 C 5,7 C 11,3 km/h (2 Bft) 95,65 %
22.12.2017 16:51 5,7 C 3,9 C 95 % 1031,3 hPa 0,0 l/m 6,4 km/h (2 Bft) W 270 0 min 0,000 mm 0,0 UV-I 0 W/m 5,0 C 5,7 C 9,7 km/h (2 Bft) 100,00 %
22.12.2017 16:52 5,7 C 3,9 C 95 % 1031,3 hPa 0,0 l/m 8,0 km/h (2 Bft) W 270 0 min 0,000 mm 0,0 UV-I 0 W/m 5,0 C 4,3 C 11,3 km/h (2 Bft) 95,65 %
22.12.2017 16:53 5,7 C 3,9 C 95 % 1031,4 hPa 0,0 l/m 8,0 km/h (2 Bft) W 270 0 min 0,000 mm 0,0 UV-I 0 W/m 5,0 C 4,3 C 11,3 km/h (2 Bft) 100,00 %
22.12.2017 16:54 5,7 C 3,9 C 95 % 1031,3 hPa 0,0 l/m 11,3 km/h (2 Bft) W 270 0 min 0,000 mm 0,0 UV-I 0 W/m 5,0 C 2,0 C 16,1 km/h (3 Bft) 100,00 %
22.12.2017 16:55 5,7 C 3,9 C 95 % 1031,3 hPa 0,0 l/m 6,4 km/h (2 Bft) W-SW 247 0 min 0,000 mm 0,0 UV-I 0 W/m 5,0 C 5,7 C 11,3 km/h (2 Bft) 100,00 %
22.12.2017 16:56 5,7 C 3,9 C 95 % 1031,3 hPa 0,0 l/m 12,9 km/h (3 Bft) W 270 0 min 0,000 mm 0,0 UV-I 0 W/m 5,0 C 1,0 C 17,7 km/h (3 Bft) 100,00 %
22.12.2017 16:57 5,7 C 3,9 C 95 % 1031,3 hPa 0,0 l/m 9,7 km/h (2 Bft) W 270 0 min 0,000 mm 0,0 UV-I 0 W/m 5,0 C 3,1 C 12,9 km/h (3 Bft) 95,65 %
22.12.2017 16:58 5,7 C 3,9 C 95 % 1031,3 hPa 0,0 l/m 6,4 km/h (2 Bft) W-SW 247 0 min 0,000 mm 0,0 UV-I 0 W/m 5,0 C 5,7 C 11,3 km/h (2 Bft) 100,00 %
22.12.2017 16:59 5,7 C 3,9 C 95 % 1031,3 hPa 0,0 l/m 9,7 km/h (2 Bft) W 270 0 min 0,000 mm 0,0 UV-I 0 W/m 5,0 C 3,1 C 12,9 km/h (3 Bft) 100,00 %
22.12.2017 17:00 5,8 C 3,9 C 95 % 1031,3 hPa 0,0 l/m 9,7 km/h (2 Bft) W 270 0 min 0,000 mm 0,0 UV-I 0 W/m 5,1 C 3,2 C 14,5 km/h (3 Bft) 100,00 %
22.12.2017 17:01 5,8 C 3,9 C 95 % 1031,3 hPa 0,0 l/m 6,4 km/h (2 Bft) W-SW 247 0 min 0,000 mm 0,0 UV-I 0 W/m 5,1 C 5,8 C 9,7 km/h (2 Bft) 100,00 %
22.12.2017 17:02 5,8 C 3,9 C 95 % 1031,3 hPa 0,0 l/m 6,4 km/h (2 Bft) W-SW 247 0 min 0,000 mm 0,0 UV-I 0 W/m 5,1 C 5,8 C 9,7 km/h (2 Bft) 95,65 %
22.12.2017 17:03 5,8 C 3,9 C 95 % 1031,3 hPa 0,0 l/m 9,7 km/h (2 Bft) W-SW 247 0 min 0,000 mm 0,0 UV-I 0 W/m 5,1 C 3,2 C 12,9 km/h (3 Bft) 100,00 %
22.12.2017 17:04 5,8 C 3,9 C 95 % 1031,3 hPa 0,0 l/m 8,0 km/h (2 Bft) W-SW 247 0 min 0,000 mm 0,0 UV-I 0 W/m 5,1 C 4,4 C 11,3 km/h (2 Bft) 95,65 %
22.12.2017 17:05 5,8 C 3,9 C 95 % 1031,3 hPa 0,0 l/m 11,3 km/h (2 Bft) W-SW 247 0 min 0,000 mm 0,0 UV-I 0 W/m 5,1 C 2,1 C 14,5 km/h (3 Bft) 100,00 %
22.12.2017 17:06 5,8 C 3,9 C 95 % 1031,3 hPa 0,0 l/m 9,7 km/h (2 Bft) W 270 0 min 0,000 mm 0,0 UV-I 0 W/m 5,1 C 3,2 C 12,9 km/h (3 Bft) 100,00 %
22.12.2017 17:07 5,8 C 3,9 C 95 % 1031,3 hPa 0,0 l/m 8,0 km/h (2 Bft) W-SW 247 0 min 0,000 mm 0,0 UV-I 0 W/m 5,1 C 4,4 C 11,3 km/h (2 Bft) 100,00 %
22.12.2017 17:08 5,8 C 3,9 C 95 % 1031,3 hPa 0,0 l/m 8,0 km/h (2 Bft) W-SW 247 0 min 0,000 mm 0,0 UV-I 0 W/m 5,1 C 4,4 C 11,3 km/h (2 Bft) 100,00 %
22.12.2017 17:09 5,8 C 3,9 C 95 % 1031,3 hPa 0,0 l/m 6,4 km/h (2 Bft) W-SW 247 0 min 0,000 mm 0,0 UV-I 0 W/m 5,1 C 5,8 C 11,3 km/h (2 Bft) 100,00 %
22.12.2017 17:10 5,8 C 3,9 C 95 % 1031,3 hPa 0,0 l/m 8,0 km/h (2 Bft) W-SW 247 0 min 0,000 mm 0,0 UV-I 0 W/m 5,1 C 4,4 C 12,9 km/h (3 Bft) 100,00 %
22.12.2017 17:11 5,7 C 3,9 C 95 % 1031,4 hPa 0,0 l/m 8,0 km/h (2 Bft) W-SW 247 0 min 0,000 mm 0,0 UV-I 0 W/m 5,0 C 4,3 C 11,3 km/h (2 Bft) 95,65 %
22.12.2017 17:12 5,7 C 3,9 C 95 % 1031,4 hPa 0,0 l/m 8,0 km/h (2 Bft) W-SW 247 0 min 0,000 mm 0,0 UV-I 0 W/m 5,0 C 4,3 C 11,3 km/h (2 Bft) 100,00 %
22.12.2017 17:13 5,7 C 3,9 C 95 % 1031,4 hPa 0,0 l/m 9,7 km/h (2 Bft) W 270 0 min 0,000 mm 0,0 UV-I 0 W/m 5,0 C 3,1 C 14,5 km/h (3 Bft) 100,00 %
22.12.2017 17:14 5,7 C 3,9 C 95 % 1031,4 hPa 0,0 l/m 9,7 km/h (2 Bft) W-SW 247 0 min 0,000 mm 0,0 UV-I 0 W/m 5,0 C 3,1 C 12,9 km/h (3 Bft) 100,00 %
22.12.2017 17:15 5,7 C 3,9 C 95 % 1031,4 hPa 0,0 l/m 9,7 km/h (2 Bft) W-SW 247 0 min 0,000 mm 0,0 UV-I 0 W/m 5,0 C 3,1 C 12,9 km/h (3 Bft) 100,00 %
22.12.2017 17:16 5,7 C 3,9 C 95 % 1031,4 hPa 0,0 l/m 8,0 km/h (2 Bft) W 270 0 min 0,000 mm 0,0 UV-I 0 W/m 5,0 C 4,3 C 12,9 km/h (3 Bft) 100,00 %
22.12.2017 17:17 5,7 C 3,9 C 95 % 1031,4 hPa 0,0 l/m 6,4 km/h (2 Bft) W-SW 247 0 min 0,000 mm 0,0 UV-I 0 W/m 5,0 C 5,7 C 8,0 km/h (2 Bft) 100,00 %
22.12.2017 17:18 5,7 C 3,9 C 95 % 1031,4 hPa 0,0 l/m 6,4 km/h (2 Bft) W-SW 247 0 min 0,000 mm 0,0 UV-I 0 W/m 5,0 C 5,7 C 8,0 km/h (2 Bft) 91,30 %
22.12.2017 17:19 5,6 C 3,9 C 95 % 1031,4 hPa 0,0 l/m 8,0 km/h (2 Bft) W-SW 247 0 min 0,000 mm 0,0 UV-I 0 W/m 4,9 C 4,2 C 11,3 km/h (2 Bft) 100,00 %
22.12.2017 17:20 5,6 C 3,9 C 95 % 1031,4 hPa 0,0 l/m 9,7 km/h (2 Bft) W-SW 247 0 min 0,000 mm 0,0 UV-I 0 W/m 4,9 C 2,9 C 14,5 km/h (3 Bft) 100,00 %
22.12.2017 17:21 5,7 C 3,9 C 95 % 1031,3 hPa 0,0 l/m 9,7 km/h (2 Bft) W-SW 247 0 min 0,000 mm 0,0 UV-I 0 W/m 5,0 C 3,1 C 12,9 km/h (3 Bft) 95,65 %
22.12.2017 17:22 5,7 C 3,9 C 95 % 1031,3 hPa 0,0 l/m 9,7 km/h (2 Bft) W-SW 247 0 min 0,000 mm 0,0 UV-I 0 W/m 5,0 C 3,1 C 16,1 km/h (3 Bft) 100,00 %
22.12.2017 17:23 5,7 C 3,9 C 95 % 1031,3 hPa 0,0 l/m 8,0 km/h (2 Bft) W-SW 247 0 min 0,000 mm 0,0 UV-I 0 W/m 5,0 C 4,3 C 11,3 km/h (2 Bft) 100,00 %
22.12.2017 17:24 5,7 C 3,9 C 95 % 1031,3 hPa 0,0 l/m 8,0 km/h (2 Bft) W-SW 247 0 min 0,000 mm 0,0 UV-I 0 W/m 5,0 C 4,3 C 12,9 km/h (3 Bft) 95,65 %
22.12.2017 17:25 5,7 C 3,9 C 95 % 1031,3 hPa 0,0 l/m 11,3 km/h (2 Bft) W-SW 247 0 min 0,000 mm 0,0 UV-I 0 W/m 5,0 C 2,0 C 14,5 km/h (3 Bft) 95,65 %
22.12.2017 17:26 5,7 C 3,9 C 95 % 1031,4 hPa 0,0 l/m 6,4 km/h (2 Bft) W-SW 247 0 min 0,000 mm 0,0 UV-I 0 W/m 5,0 C 5,7 C 11,3 km/h (2 Bft) 95,65 %
22.12.2017 17:27 5,7 C 3,9 C 95 % 1031,4 hPa 0,0 l/m 6,4 km/h (2 Bft) W-SW 247 0 min 0,000 mm 0,0 UV-I 0 W/m 5,0 C 5,7 C 9,7 km/h (2 Bft) 95,65 %
22.12.2017 17:28 5,7 C 3,9 C 95 % 1031,4 hPa 0,0 l/m 9,7 km/h (2 Bft) W-SW 247 0 min 0,000 mm 0,0 UV-I 0 W/m 5,0 C 3,1 C 14,5 km/h (3 Bft) 95,65 %
22.12.2017 17:29 5,7 C 3,9 C 95 % 1031,4 hPa 0,0 l/m 6,4 km/h (2 Bft) W-SW 247 0 min 0,000 mm 0,0 UV-I 0 W/m 5,0 C 5,7 C 11,3 km/h (2 Bft) 100,00 %
22.12.2017 17:30 5,7 C 3,9 C 95 % 1031,4 hPa 0,0 l/m 6,4 km/h (2 Bft) W-SW 247 0 min 0,000 mm 0,0 UV-I 0 W/m 5,0 C 5,7 C 9,7 km/h (2 Bft) 95,65 %
22.12.2017 17:31 5,7 C 3,9 C 95 % 1031,5 hPa 0,0 l/m 8,0 km/h (2 Bft) W-SW 247 0 min 0,000 mm 0,0 UV-I 0 W/m 5,0 C 4,3 C 12,9 km/h (3 Bft) 100,00 %
22.12.2017 17:32 5,7 C 3,9 C 95 % 1031,5 hPa 0,0 l/m 9,7 km/h (2 Bft) SW 225 0 min 0,000 mm 0,0 UV-I 0 W/m 5,0 C 3,1 C 12,9 km/h (3 Bft) 91,30 %
22.12.2017 17:33 5,6 C 3,9 C 95 % 1031,5 hPa 0,0 l/m 8,0 km/h (2 Bft) SW 225 0 min 0,000 mm 0,0 UV-I 0 W/m 4,9 C 4,2 C 12,9 km/h (3 Bft) 91,30 %
22.12.2017 17:34 5,6 C 3,9 C 95 % 1031,5 hPa 0,0 l/m 6,4 km/h (2 Bft) W-SW 247 0 min 0,000 mm 0,0 UV-I 0 W/m 4,9 C 5,6 C 8,0 km/h (2 Bft) 100,00 %
22.12.2017 17:35 5,6 C 3,9 C 95 % 1031,6 hPa 0,0 l/m 6,4 km/h (2 Bft) W-SW 247 0 min 0,000 mm 0,0 UV-I 0 W/m 4,9 C 5,6 C 12,9 km/h (3 Bft) 95,65 %
22.12.2017 17:36 5,6 C 3,9 C 95 % 1031,5 hPa 0,0 l/m 6,4 km/h (2 Bft) SW 225 0 min 0,000 mm 0,0 UV-I 0 W/m 4,9 C 5,6 C 12,9 km/h (3 Bft) 100,00 %
22.12.2017 17:37 5,6 C 3,9 C 95 % 1031,6 hPa 0,0 l/m 8,0 km/h (2 Bft) W-SW 247 0 min 0,000 mm 0,0 UV-I 0 W/m 4,9 C 4,2 C 9,7 km/h (2 Bft) 95,65 %
22.12.2017 17:38 5,6 C 3,9 C 95 % 1031,6 hPa 0,0 l/m 8,0 km/h (2 Bft) W-SW 247 0 min 0,000 mm 0,0 UV-I 0 W/m 4,9 C 4,2 C 9,7 km/h (2 Bft) 95,65 %
22.12.2017 17:39 5,6 C 3,9 C 95 % 1031,6 hPa 0,0 l/m 8,0 km/h (2 Bft) SW 225 0 min 0,000 mm 0,0 UV-I 0 W/m 4,9 C 4,2 C 12,9 km/h (3 Bft) 95,65 %
22.12.2017 17:40 5,6 C 3,9 C 95 % 1031,6 hPa 0,0 l/m 6,4 km/h (2 Bft) W-SW 247 0 min 0,000 mm 0,0 UV-I 0 W/m 4,9 C 5,6 C 8,0 km/h (2 Bft) 95,65 %
22.12.2017 17:41 5,6 C 3,9 C 95 % 1031,6 hPa 0,0 l/m 8,0 km/h (2 Bft) SW 225 0 min 0,000 mm 0,0 UV-I 0 W/m 4,9 C 4,2 C 11,3 km/h (2 Bft) 91,30 %
22.12.2017 17:42 5,6 C 3,9 C 95 % 1031,6 hPa 0,0 l/m 8,0 km/h (2 Bft) W-SW 247 0 min 0,000 mm 0,0 UV-I 0 W/m 4,9 C 4,2 C 12,9 km/h (3 Bft) 100,00 %
22.12.2017 17:43 5,6 C 3,9 C 95 % 1031,7 hPa 0,0 l/m 6,4 km/h (2 Bft) W-SW 247 0 min 0,000 mm 0,0 UV-I 0 W/m 4,9 C 5,6 C 12,9 km/h (3 Bft) 95,65 %
22.12.2017 17:44 5,6 C 3,9 C 95 % 1031,7 hPa 0,0 l/m 6,4 km/h (2 Bft) W-SW 247 0 min 0,000 mm 0,0 UV-I 0 W/m 4,9 C 5,6 C 8,0 km/h (2 Bft) 95,65 %
22.12.2017 17:45 5,5 C 3,9 C 95 % 1031,7 hPa 0,0 l/m 6,4 km/h (2 Bft) W-SW 247 0 min 0,000 mm 0,0 UV-I 0 W/m 4,8 C 5,5 C 9,7 km/h (2 Bft) 95,65 %
22.12.2017 17:46 5,5 C 3,9 C 95 % 1031,7 hPa 0,0 l/m 6,4 km/h (2 Bft) W-SW 247 0 min 0,000 mm 0,0 UV-I 0 W/m 4,8 C 5,5 C 9,7 km/h (2 Bft) 100,00 %
22.12.2017 17:47 5,5 C 3,9 C 95 % 1031,7 hPa 0,0 l/m 6,4 km/h (2 Bft) W-SW 247 0 min 0,000 mm 0,0 UV-I 0 W/m 4,8 C 5,5 C 9,7 km/h (2 Bft) 91,30 %
22.12.2017 17:48 5,5 C 3,9 C 95 % 1031,7 hPa 0,0 l/m 6,4 km/h (2 Bft) W-SW 247 0 min 0,000 mm 0,0 UV-I 0 W/m 4,8 C 5,5 C 8,0 km/h (2 Bft) 100,00 %
22.12.2017 17:49 5,5 C 3,9 C 95 % 1031,7 hPa 0,0 l/m 6,4 km/h (2 Bft) SW 225 0 min 0,000 mm 0,0 UV-I 0 W/m 4,8 C 5,5 C 8,0 km/h (2 Bft) 100,00 %
22.12.2017 17:50 5,4 C 3,9 C 95 % 1031,7 hPa 0,0 l/m 8,0 km/h (2 Bft) W-SW 247 0 min 0,000 mm 0,0 UV-I 0 W/m 4,7 C 4,0 C 11,3 km/h (2 Bft) 100,00 %
22.12.2017 17:51 5,4 C 3,9 C 95 % 1031,7 hPa 0,0 l/m 8,0 km/h (2 Bft) SW 225 0 min 0,000 mm 0,0 UV-I 0 W/m 4,7 C 4,0 C 11,3 km/h (2 Bft) 100,00 %
22.12.2017 17:52 5,4 C 3,9 C 95 % 1031,7 hPa 0,0 l/m 8,0 km/h (2 Bft) SW 225 0 min 0,000 mm 0,0 UV-I 0 W/m 4,7 C 4,0 C 9,7 km/h (2 Bft) 100,00 %
22.12.2017 17:53 5,4 C 3,9 C 96 % 1031,7 hPa 0,0 l/m 8,0 km/h (2 Bft) SW 225 0 min 0,000 mm 0,0 UV-I 0 W/m 4,8 C 4,0 C 11,3 km/h (2 Bft) 100,00 %
22.12.2017 17:54 5,4 C 3,9 C 96 % 1031,6 hPa 0,0 l/m 8,0 km/h (2 Bft) SW 225 0 min 0,000 mm 0,0 UV-I 0 W/m 4,8 C 4,0 C 11,3 km/h (2 Bft) 95,65 %
22.12.2017 17:55 5,4 C 3,9 C 96 % 1031,6 hPa 0,0 l/m 8,0 km/h (2 Bft) SW 225 0 min 0,000 mm 0,0 UV-I 0 W/m 4,8 C 4,0 C 11,3 km/h (2 Bft) 100,00 %
22.12.2017 17:56 5,4 C 3,9 C 95 % 1031,6 hPa 0,0 l/m 9,7 km/h (2 Bft) W-SW 247 0 min 0,000 mm 0,0 UV-I 0 W/m 4,7 C 2,7 C 14,5 km/h (3 Bft) 95,65 %
22.12.2017 17:57 5,4 C 3,9 C 95 % 1031,7 hPa 0,0 l/m 9,7 km/h (2 Bft) SW 225 0 min 0,000 mm 0,0 UV-I 0 W/m 4,7 C 2,7 C 12,9 km/h (3 Bft) 100,00 %
22.12.2017 17:58 5,4 C 3,9 C 96 % 1031,6 hPa 0,0 l/m 6,4 km/h (2 Bft) SW 225 0 min 0,000 mm 0,0 UV-I 0 W/m 4,8 C 5,4 C 9,7 km/h (2 Bft) 100,00 %
22.12.2017 17:59 5,4 C 3,9 C 96 % 1031,6 hPa 0,0 l/m 11,3 km/h (2 Bft) SW 225 0 min 0,000 mm 0,0 UV-I 0 W/m 4,8 C 1,7 C 16,1 km/h (3 Bft) 95,65 %
22.12.2017 18:00 5,4 C 3,9 C 96 % 1031,6 hPa 0,0 l/m 9,7 km/h (2 Bft) SW 225 0 min 0,000 mm 0,0 UV-I 0 W/m 4,8 C 2,7 C 11,3 km/h (2 Bft) 100,00 %
22.12.2017 18:01 5,4 C 3,9 C 96 % 1031,5 hPa 0,0 l/m 6,4 km/h (2 Bft) SW 225 0 min 0,000 mm 0,0 UV-I 0 W/m 4,8 C 5,4 C 9,7 km/h (2 Bft) 95,65 %
22.12.2017 18:02 5,4 C 3,9 C 96 % 1031,5 hPa 0,0 l/m 6,4 km/h (2 Bft) W-SW 247 0 min 0,000 mm 0,0 UV-I 0 W/m 4,8 C 5,4 C 12,9 km/h (3 Bft) 100,00 %
22.12.2017 18:03 5,4 C 3,9 C 96 % 1031,6 hPa 0,0 l/m 8,0 km/h (2 Bft) W-SW 247 0 min 0,000 mm 0,0 UV-I 0 W/m 4,8 C 4,0 C 11,3 km/h (2 Bft) 100,00 %
22.12.2017 18:04 5,4 C 3,9 C 96 % 1031,6 hPa 0,0 l/m 6,4 km/h (2 Bft) W-SW 247 0 min 0,000 mm 0,0 UV-I 0 W/m 4,8 C 5,4 C 11,3 km/h (2 Bft) 100,00 %
22.12.2017 18:05 5,4 C 3,9 C 96 % 1031,6 hPa 0,0 l/m 6,4 km/h (2 Bft) W 270 0 min 0,000 mm 0,0 UV-I 0 W/m 4,8 C 5,4 C 11,3 km/h (2 Bft) 95,65 %
22.12.2017 18:06 5,4 C 3,9 C 96 % 1031,6 hPa 0,0 l/m 8,0 km/h (2 Bft) W-SW 247 0 min 0,000 mm 0,0 UV-I 0 W/m 4,8 C 4,0 C 12,9 km/h (3 Bft) 100,00 %
22.12.2017 18:07 5,4 C 3,9 C 96 % 1031,7 hPa 0,0 l/m 9,7 km/h (2 Bft) W 270 0 min 0,000 mm 0,0 UV-I 0 W/m 4,8 C 2,7 C 12,9 km/h (3 Bft) 95,65 %
22.12.2017 18:08 5,4 C 3,9 C 96 % 1031,7 hPa 0,0 l/m 9,7 km/h (2 Bft) W-SW 247 0 min 0,000 mm 0,0 UV-I 0 W/m 4,8 C 2,7 C 12,9 km/h (3 Bft) 95,65 %
22.12.2017 18:09 5,4 C 3,9 C 96 % 1031,8 hPa 0,0 l/m 9,7 km/h (2 Bft) W-SW 247 0 min 0,000 mm 0,0 UV-I 0 W/m 4,8 C 2,7 C 12,9 km/h (3 Bft) 100,00 %
22.12.2017 18:10 5,4 C 3,9 C 96 % 1031,8 hPa 0,0 l/m 8,0 km/h (2 Bft) W-SW 247 0 min 0,000 mm 0,0 UV-I 0 W/m 4,8 C 4,0 C 11,3 km/h (2 Bft) 95,65 %
22.12.2017 18:11 5,4 C 3,9 C 96 % 1031,8 hPa 0,0 l/m 8,0 km/h (2 Bft) W-SW 247 0 min 0,000 mm 0,0 UV-I 0 W/m 4,8 C 4,0 C 9,7 km/h (2 Bft) 95,65 %
22.12.2017 18:12 5,4 C 3,9 C 96 % 1031,8 hPa 0,0 l/m 11,3 km/h (2 Bft) W-SW 247 0 min 0,000 mm 0,0 UV-I 0 W/m 4,8 C 1,7 C 16,1 km/h (3 Bft) 100,00 %
22.12.2017 18:13 5,4 C 3,9 C 96 % 1031,8 hPa 0,0 l/m 9,7 km/h (2 Bft) W 270 0 min 0,000 mm 0,0 UV-I 0 W/m 4,8 C 2,7 C 11,3 km/h (2 Bft) 100,00 %
22.12.2017 18:14 5,4 C 3,9 C 96 % 1031,8 hPa 0,0 l/m 6,4 km/h (2 Bft) W-SW 247 0 min 0,000 mm 0,0 UV-I 0 W/m 4,8 C 5,4 C 9,7 km/h (2 Bft) 95,65 %
22.12.2017 18:15 5,4 C 3,9 C 96 % 1031,7 hPa 0,0 l/m 9,7 km/h (2 Bft) W-SW 247 0 min 0,000 mm 0,0 UV-I 0 W/m 4,8 C 2,7 C 12,9 km/h (3 Bft) 95,65 %
22.12.2017 18:16 5,4 C 3,9 C 96 % 1031,7 hPa 0,0 l/m 8,0 km/h (2 Bft) W 270 0 min 0,000 mm 0,0 UV-I 0 W/m 4,8 C 4,0 C 12,9 km/h (3 Bft) 100,00 %
22.12.2017 18:17 5,4 C 3,9 C 96 % 1031,7 hPa 0,0 l/m 9,7 km/h (2 Bft) W-SW 247 0 min 0,000 mm 0,0 UV-I 0 W/m 4,8 C 2,7 C 12,9 km/h (3 Bft) 95,65 %
22.12.2017 18:18 5,4 C 3,9 C 96 % 1031,7 hPa 0,0 l/m 8,0 km/h (2 Bft) W-SW 247 0 min 0,000 mm 0,0 UV-I 0 W/m 4,8 C 4,0 C 11,3 km/h (2 Bft) 95,65 %
22.12.2017 18:19 5,4 C 3,9 C 96 % 1031,7 hPa 0,0 l/m 8,0 km/h (2 Bft) SW 225 0 min 0,000 mm 0,0 UV-I 0 W/m 4,8 C 4,0 C 11,3 km/h (2 Bft) 95,65 %
22.12.2017 18:20 5,4 C 3,9 C 96 % 1031,7 hPa 0,0 l/m 9,7 km/h (2 Bft) W-SW 247 0 min 0,000 mm 0,0 UV-I 0 W/m 4,8 C 2,7 C 12,9 km/h (3 Bft) 95,65 %
22.12.2017 18:21 5,4 C 3,9 C 96 % 1031,7 hPa 0,0 l/m 9,7 km/h (2 Bft) SW 225 0 min 0,000 mm 0,0 UV-I 0 W/m 4,8 C 2,7 C 12,9 km/h (3 Bft) 100,00 %
22.12.2017 18:22 5,4 C 3,9 C 96 % 1031,7 hPa 0,0 l/m 9,7 km/h (2 Bft) SW 225 0 min 0,000 mm 0,0 UV-I 0 W/m 4,8 C 2,7 C 12,9 km/h (3 Bft) 91,30 %
22.12.2017 18:23 5,4 C 3,9 C 96 % 1031,6 hPa 0,0 l/m 9,7 km/h (2 Bft) SW 225 0 min 0,000 mm 0,0 UV-I 0 W/m 4,8 C 2,7 C 16,1 km/h (3 Bft) 95,65 %
22.12.2017 18:24 5,4 C 3,9 C 96 % 1031,6 hPa 0,0 l/m 9,7 km/h (2 Bft) SW 225 0 min 0,000 mm 0,0 UV-I 0 W/m 4,8 C 2,7 C 16,1 km/h (3 Bft) 95,65 %
22.12.2017 18:25 5,4 C 3,9 C 96 % 1031,5 hPa 0,0 l/m 9,7 km/h (2 Bft) SW 225 0 min 0,000 mm 0,0 UV-I 0 W/m 4,8 C 2,7 C 17,7 km/h (3 Bft) 100,00 %
22.12.2017 18:26 5,4 C 3,9 C 96 % 1031,5 hPa 0,0 l/m 9,7 km/h (2 Bft) SW 225 0 min 0,000 mm 0,0 UV-I 0 W/m 4,8 C 2,7 C 16,1 km/h (3 Bft) 95,65 %
22.12.2017 18:27 5,4 C 3,9 C 96 % 1031,5 hPa 0,0 l/m 9,7 km/h (2 Bft) SW 225 0 min 0,000 mm 0,0 UV-I 0 W/m 4,8 C 2,7 C 16,1 km/h (3 Bft) 95,65 %
22.12.2017 18:28 5,4 C 3,9 C 96 % 1031,6 hPa 0,0 l/m 12,9 km/h (3 Bft) SW 225 0 min 0,000 mm 0,0 UV-I 0 W/m 4,8 C 0,7 C 17,7 km/h (3 Bft) 100,00 %
22.12.2017 18:29 5,4 C 3,9 C 96 % 1031,6 hPa 0,0 l/m 11,3 km/h (2 Bft) W-SW 247 0 min 0,000 mm 0,0 UV-I 0 W/m 4,8 C 1,7 C 16,1 km/h (3 Bft) 91,30 %
22.12.2017 18:30 5,4 C 3,9 C 96 % 1031,5 hPa 0,0 l/m 12,9 km/h (3 Bft) SW 225 0 min 0,000 mm 0,0 UV-I 0 W/m 4,8 C 0,7 C 17,7 km/h (3 Bft) 100,00 %
22.12.2017 18:31 5,4 C 3,9 C 96 % 1031,6 hPa 0,0 l/m 12,9 km/h (3 Bft) SW 225 0 min 0,000 mm 0,0 UV-I 0 W/m 4,8 C 0,7 C 17,7 km/h (3 Bft) 95,65 %
22.12.2017 18:32 5,4 C 3,9 C 96 % 1031,6 hPa 0,0 l/m 9,7 km/h (2 Bft) SW 225 0 min 0,000 mm 0,0 UV-I 0 W/m 4,8 C 2,7 C 14,5 km/h (3 Bft) 95,65 %
22.12.2017 18:33 5,3 C 3,9 C 96 % 1031,6 hPa 0,0 l/m 14,5 km/h (3 Bft) SW 225 0 min 0,000 mm 0,0 UV-I 0 W/m 4,7 C -0,3 C 17,7 km/h (3 Bft) 95,65 %
22.12.2017 18:34 5,4 C 3,9 C 96 % 1031,6 hPa 0,0 l/m 11,3 km/h (2 Bft) SW 225 0 min 0,000 mm 0,0 UV-I 0 W/m 4,8 C 1,7 C 16,1 km/h (3 Bft) 95,65 %
22.12.2017 18:35 5,4 C 3,9 C 96 % 1031,6 hPa 0,0 l/m 12,9 km/h (3 Bft) SW 225 0 min 0,000 mm 0,0 UV-I 0 W/m 4,8 C 0,7 C 19,3 km/h (3 Bft) 100,00 %
22.12.2017 18:36 5,4 C 3,9 C 96 % 1031,6 hPa 0,0 l/m 9,7 km/h (2 Bft) SW 225 0 min 0,000 mm 0,0 UV-I 0 W/m 4,8 C 2,7 C 14,5 km/h (3 Bft) 91,30 %
22.12.2017 18:37 5,4 C 3,9 C 96 % 1031,6 hPa 0,0 l/m 12,9 km/h (3 Bft) SW 225 0 min 0,000 mm 0,0 UV-I 0 W/m 4,8 C 0,7 C 17,7 km/h (3 Bft) 100,00 %
22.12.2017 18:38 5,3 C 3,9 C 96 % 1031,7 hPa 0,0 l/m 11,3 km/h (2 Bft) SW 225 0 min 0,000 mm 0,0 UV-I 0 W/m 4,7 C 1,5 C 17,7 km/h (3 Bft) 95,65 %
22.12.2017 18:39 5,4 C 3,9 C 96 % 1031,6 hPa 0,0 l/m 9,7 km/h (2 Bft) SW 225 0 min 0,000 mm 0,0 UV-I 0 W/m 4,8 C 2,7 C 12,9 km/h (3 Bft) 100,00 %
22.12.2017 18:40 5,4 C 3,9 C 96 % 1031,6 hPa 0,0 l/m 9,7 km/h (2 Bft) W-SW 247 0 min 0,000 mm 0,0 UV-I 0 W/m 4,8 C 2,7 C 14,5 km/h (3 Bft) 95,65 %
22.12.2017 18:41 5,4 C 3,9 C 96 % 1031,7 hPa 0,0 l/m 9,7 km/h (2 Bft) SW 225 0 min 0,000 mm 0,0 UV-I 0 W/m 4,8 C 2,7 C 12,9 km/h (3 Bft) 100,00 %
22.12.2017 18:42 5,4 C 3,9 C 96 % 1031,7 hPa 0,0 l/m 9,7 km/h (2 Bft) SW 225 0 min 0,000 mm 0,0 UV-I 0 W/m 4,8 C 2,7 C 16,1 km/h (3 Bft) 95,65 %
22.12.2017 18:43 5,3 C 3,9 C 96 % 1031,6 hPa 0,0 l/m 12,9 km/h (3 Bft) SW 225 0 min 0,000 mm 0,0 UV-I 0 W/m 4,7 C 0,6 C 19,3 km/h (3 Bft) 91,30 %
22.12.2017 18:44 5,4 C 3,9 C 96 % 1031,6 hPa 0,0 l/m 11,3 km/h (2 Bft) SW 225 0 min 0,000 mm 0,0 UV-I 0 W/m 4,8 C 1,7 C 14,5 km/h (3 Bft) 100,00 %
22.12.2017 18:45 5,4 C 3,9 C 96 % 1031,6 hPa 0,0 l/m 9,7 km/h (2 Bft) SW 225 0 min 0,000 mm 0,0 UV-I 0 W/m 4,8 C 2,7 C 14,5 km/h (3 Bft) 95,65 %
22.12.2017 18:46 5,3 C 3,9 C 96 % 1031,6 hPa 0,0 l/m 11,3 km/h (2 Bft) W-SW 247 0 min 0,000 mm 0,0 UV-I 0 W/m 4,7 C 1,5 C 14,5 km/h (3 Bft) 95,65 %
22.12.2017 18:47 5,4 C 3,9 C 96 % 1031,6 hPa 0,0 l/m 9,7 km/h (2 Bft) SW 225 0 min 0,000 mm 0,0 UV-I 0 W/m 4,8 C 2,7 C 12,9 km/h (3 Bft) 91,30 %
22.12.2017 18:48 5,4 C 3,9 C 96 % 1031,6 hPa 0,0 l/m 9,7 km/h (2 Bft) SW 225 0 min 0,000 mm 0,0 UV-I 0 W/m 4,8 C 2,7 C 14,5 km/h (3 Bft) 100,00 %
22.12.2017 18:49 5,4 C 3,9 C 96 % 1031,7 hPa 0,0 l/m 8,0 km/h (2 Bft) SW 225 0 min 0,000 mm 0,0 UV-I 0 W/m 4,8 C 4,0 C 11,3 km/h (2 Bft) 91,30 %
22.12.2017 18:50 5,3 C 3,9 C 96 % 1031,7 hPa 0,0 l/m 8,0 km/h (2 Bft) SW 225 0 min 0,000 mm 0,0 UV-I 0 W/m 4,7 C 3,9 C 12,9 km/h (3 Bft) 95,65 %
22.12.2017 18:51 5,4 C 3,9 C 96 % 1031,7 hPa 0,0 l/m 11,3 km/h (2 Bft) W-SW 247 0 min 0,000 mm 0,0 UV-I 0 W/m 4,8 C 1,7 C 16,1 km/h (3 Bft) 91,30 %
22.12.2017 18:52 5,4 C 3,9 C 96 % 1031,7 hPa 0,0 l/m 9,7 km/h (2 Bft) W-SW 247 0 min 0,000 mm 0,0 UV-I 0 W/m 4,8 C 2,7 C 12,9 km/h (3 Bft) 86,96 %
22.12.2017 18:53 5,4 C 3,9 C 96 % 1031,7 hPa 0,0 l/m 8,0 km/h (2 Bft) W-SW 247 0 min 0,000 mm 0,0 UV-I 0 W/m 4,8 C 4,0 C 11,3 km/h (2 Bft) 95,65 %
22.12.2017 18:54 5,4 C 3,9 C 96 % 1031,7 hPa 0,0 l/m 11,3 km/h (2 Bft) SW 225 0 min 0,000 mm 0,0 UV-I 0 W/m 4,8 C 1,7 C 16,1 km/h (3 Bft) 95,65 %
22.12.2017 18:55 5,4 C 3,9 C 96 % 1031,7 hPa 0,0 l/m 9,7 km/h (2 Bft) W-SW 247 0 min 0,000 mm 0,0 UV-I 0 W/m 4,8 C 2,7 C 14,5 km/h (3 Bft) 100,00 %
22.12.2017 18:56 5,4 C 3,9 C 96 % 1031,7 hPa 0,0 l/m 9,7 km/h (2 Bft) W-SW 247 0 min 0,000 mm 0,0 UV-I 0 W/m 4,8 C 2,7 C 14,5 km/h (3 Bft) 95,65 %
22.12.2017 18:57 5,4 C 3,9 C 96 % 1031,7 hPa 0,0 l/m 11,3 km/h (2 Bft) SW 225 0 min 0,000 mm 0,0 UV-I 0 W/m 4,8 C 1,7 C 16,1 km/h (3 Bft) 95,65 %
22.12.2017 18:58 5,4 C 3,9 C 96 % 1031,8 hPa 0,0 l/m 11,3 km/h (2 Bft) SW 225 0 min 0,000 mm 0,0 UV-I 0 W/m 4,8 C 1,7 C 12,9 km/h (3 Bft) 91,30 %
22.12.2017 18:59 5,4 C 3,9 C 96 % 1031,8 hPa 0,0 l/m 9,7 km/h (2 Bft) W-SW 247 0 min 0,000 mm 0,0 UV-I 0 W/m 4,8 C 2,7 C 12,9 km/h (3 Bft) 100,00 %
22.12.2017 19:00 5,4 C 3,9 C 96 % 1031,9 hPa 0,0 l/m 6,4 km/h (2 Bft) W-SW 247 0 min 0,000 mm 0,0 UV-I 0 W/m 4,8 C 5,4 C 9,7 km/h (2 Bft) 95,65 %
22.12.2017 19:01 5,4 C 3,9 C 96 % 1031,9 hPa 0,0 l/m 6,4 km/h (2 Bft) W-SW 247 0 min 0,000 mm 0,0 UV-I 0 W/m 4,8 C 5,4 C 11,3 km/h (2 Bft) 100,00 %
22.12.2017 19:02 5,4 C 3,9 C 96 % 1031,9 hPa 0,0 l/m 8,0 km/h (2 Bft) W-SW 247 0 min 0,000 mm 0,0 UV-I 0 W/m 4,8 C 4,0 C 11,3 km/h (2 Bft) 95,65 %
22.12.2017 19:03 5,4 C 3,9 C 96 % 1031,9 hPa 0,0 l/m 6,4 km/h (2 Bft) W 270 0 min 0,000 mm 0,0 UV-I 0 W/m 4,8 C 5,4 C 11,3 km/h (2 Bft) 95,65 %
22.12.2017 19:04 5,4 C 3,9 C 96 % 1032,0 hPa 0,0 l/m 4,8 km/h (1 Bft) W 270 0 min 0,000 mm 0,0 UV-I 0 W/m 4,8 C 5,4 C 9,7 km/h (2 Bft) 91,30 %
22.12.2017 19:05 5,4 C 3,9 C 96 % 1032,0 hPa 0,0 l/m 8,0 km/h (2 Bft) W 270 0 min 0,000 mm 0,0 UV-I 0 W/m 4,8 C 4,0 C 12,9 km/h (3 Bft) 95,65 %
22.12.2017 19:06 5,4 C 3,9 C 96 % 1032,0 hPa 0,0 l/m 8,0 km/h (2 Bft) W-SW 247 0 min 0,000 mm 0,0 UV-I 0 W/m 4,8 C 4,0 C 11,3 km/h (2 Bft) 91,30 %
22.12.2017 19:07 5,3 C 3,9 C 96 % 1031,9 hPa 0,0 l/m 6,4 km/h (2 Bft) W-SW 247 0 min 0,000 mm 0,0 UV-I 0 W/m 4,7 C 5,3 C 9,7 km/h (2 Bft) 100,00 %
22.12.2017 19:08 5,3 C 3,9 C 96 % 1031,9 hPa 0,0 l/m 4,8 km/h (1 Bft) W-SW 247 0 min 0,000 mm 0,0 UV-I 0 W/m 4,7 C 5,3 C 6,4 km/h (2 Bft) 91,30 %
22.12.2017 19:09 5,3 C 3,9 C 96 % 1031,9 hPa 0,0 l/m 4,8 km/h (1 Bft) W-SW 247 0 min 0,000 mm 0,0 UV-I 0 W/m 4,7 C 5,3 C 6,4 km/h (2 Bft) 91,30 %
22.12.2017 19:10 5,3 C 3,9 C 96 % 1031,9 hPa 0,0 l/m 8,0 km/h (2 Bft) W-SW 247 0 min 0,000 mm 0,0 UV-I 0 W/m 4,7 C 3,9 C 8,0 km/h (2 Bft) 100,00 %
22.12.2017 19:11 5,3 C 3,9 C 96 % 1031,9 hPa 0,0 l/m 6,4 km/h (2 Bft) W-SW 247 0 min 0,000 mm 0,0 UV-I 0 W/m 4,7 C 5,3 C 8,0 km/h (2 Bft) 91,30 %
22.12.2017 19:12 5,3 C 3,9 C 96 % 1031,9 hPa 0,0 l/m 6,4 km/h (2 Bft) W 270 0 min 0,000 mm 0,0 UV-I 0 W/m 4,7 C 5,3 C 9,7 km/h (2 Bft) 100,00 %
22.12.2017 19:13 5,3 C 3,9 C 96 % 1031,9 hPa 0,0 l/m 8,0 km/h (2 Bft) W-SW 247 0 min 0,000 mm 0,0 UV-I 0 W/m 4,7 C 3,9 C 11,3 km/h (2 Bft) 100,00 %
22.12.2017 19:14 5,3 C 3,9 C 96 % 1031,9 hPa 0,0 l/m 8,0 km/h (2 Bft) W-SW 247 0 min 0,000 mm 0,0 UV-I 0 W/m 4,7 C 3,9 C 12,9 km/h (3 Bft) 100,00 %
22.12.2017 19:15 5,3 C 3,9 C 96 % 1031,9 hPa 0,0 l/m 11,3 km/h (2 Bft) W-SW 247 0 min 0,000 mm 0,0 UV-I 0 W/m 4,7 C 1,5 C 14,5 km/h (3 Bft) 91,30 %
22.12.2017 19:16 5,4 C 3,9 C 96 % 1031,9 hPa 0,0 l/m 9,7 km/h (2 Bft) W-SW 247 0 min 0,000 mm 0,0 UV-I 0 W/m 4,8 C 2,7 C 14,5 km/h (3 Bft) 95,65 %
22.12.2017 19:17 5,4 C 3,9 C 96 % 1032,0 hPa 0,0 l/m 6,4 km/h (2 Bft) W-SW 247 0 min 0,000 mm 0,0 UV-I 0 W/m 4,8 C 5,4 C 11,3 km/h (2 Bft) 95,65 %
22.12.2017 19:18 5,4 C 3,9 C 96 % 1032,0 hPa 0,0 l/m 6,4 km/h (2 Bft) W-SW 247 0 min 0,000 mm 0,0 UV-I 0 W/m 4,8 C 5,4 C 11,3 km/h (2 Bft) 91,30 %
22.12.2017 19:19 5,4 C 3,9 C 96 % 1032,0 hPa 0,0 l/m 9,7 km/h (2 Bft) W 270 0 min 0,000 mm 0,0 UV-I 0 W/m 4,8 C 2,7 C 12,9 km/h (3 Bft) 100,00 %
22.12.2017 19:20 5,4 C 3,9 C 96 % 1032,0 hPa 0,0 l/m 8,0 km/h (2 Bft) W-SW 247 0 min 0,000 mm 0,0 UV-I 0 W/m 4,8 C 4,0 C 11,3 km/h (2 Bft) 100,00 %
22.12.2017 19:21 5,4 C 3,9 C 96 % 1032,0 hPa 0,0 l/m 8,0 km/h (2 Bft) W-SW 247 0 min 0,000 mm 0,0 UV-I 0 W/m 4,8 C 4,0 C 12,9 km/h (3 Bft) 100,00 %
22.12.2017 19:22 5,4 C 3,9 C 96 % 1032,0 hPa 0,0 l/m 8,0 km/h (2 Bft) W-SW 247 0 min 0,000 mm 0,0 UV-I 0 W/m 4,8 C 4,0 C 12,9 km/h (3 Bft) 100,00 %
22.12.2017 19:23 5,4 C 3,9 C 96 % 1032,0 hPa 0,0 l/m 9,7 km/h (2 Bft) W-SW 247 0 min 0,000 mm 0,0 UV-I 0 W/m 4,8 C 2,7 C 12,9 km/h (3 Bft) 100,00 %
22.12.2017 19:24 5,4 C 3,9 C 96 % 1032,0 hPa 0,0 l/m 9,7 km/h (2 Bft) W-SW 247 0 min 0,000 mm 0,0 UV-I 0 W/m 4,8 C 2,7 C 14,5 km/h (3 Bft) 100,00 %
22.12.2017 19:25 5,4 C 3,9 C 96 % 1031,9 hPa 0,0 l/m 6,4 km/h (2 Bft) W-SW 247 0 min 0,000 mm 0,0 UV-I 0 W/m 4,8 C 5,4 C 8,0 km/h (2 Bft) 95,65 %
22.12.2017 19:26 5,4 C 3,9 C 96 % 1031,9 hPa 0,0 l/m 8,0 km/h (2 Bft) SW 225 0 min 0,000 mm 0,0 UV-I 0 W/m 4,8 C 4,0 C 9,7 km/h (2 Bft) 95,65 %
22.12.2017 19:27 5,4 C 3,9 C 96 % 1031,8 hPa 0,0 l/m 8,0 km/h (2 Bft) W-SW 247 0 min 0,000 mm 0,0 UV-I 0 W/m 4,8 C 4,0 C 12,9 km/h (3 Bft) 100,00 %
22.12.2017 19:28 5,4 C 3,9 C 96 % 1031,9 hPa 0,0 l/m 8,0 km/h (2 Bft) SW 225 0 min 0,000 mm 0,0 UV-I 0 W/m 4,8 C 4,0 C 11,3 km/h (2 Bft) 100,00 %
22.12.2017 19:29 5,4 C 3,9 C 96 % 1031,9 hPa 0,0 l/m 6,4 km/h (2 Bft) W-SW 247 0 min 0,000 mm 0,0 UV-I 0 W/m 4,8 C 5,4 C 11,3 km/h (2 Bft) 100,00 %
22.12.2017 19:30 5,4 C 3,9 C 96 % 1031,9 hPa 0,0 l/m 9,7 km/h (2 Bft) W-SW 247 0 min 0,000 mm 0,0 UV-I 0 W/m 4,8 C 2,7 C 12,9 km/h (3 Bft) 100,00 %
22.12.2017 19:31 5,4 C 3,9 C 96 % 1031,9 hPa 0,0 l/m 8,0 km/h (2 Bft) W-SW 247 0 min 0,000 mm 0,0 UV-I 0 W/m 4,8 C 4,0 C 11,3 km/h (2 Bft) 95,65 %
22.12.2017 19:32 5,4 C 3,9 C 96 % 1032,0 hPa 0,0 l/m 6,4 km/h (2 Bft) SW 225 0 min 0,000 mm 0,0 UV-I 0 W/m 4,8 C 5,4 C 11,3 km/h (2 Bft) 95,65 %
22.12.2017 19:33 5,4 C 3,9 C 96 % 1032,0 hPa 0,0 l/m 6,4 km/h (2 Bft) SW 225 0 min 0,000 mm 0,0 UV-I 0 W/m 4,8 C 5,4 C 9,7 km/h (2 Bft) 95,65 %
22.12.2017 19:34 5,4 C 3,9 C 96 % 1032,1 hPa 0,0 l/m 9,7 km/h (2 Bft) SW 225 0 min 0,000 mm 0,0 UV-I 0 W/m 4,8 C 2,7 C 12,9 km/h (3 Bft) 100,00 %
22.12.2017 19:35 5,4 C 3,9 C 96 % 1032,1 hPa 0,0 l/m 9,7 km/h (2 Bft) W-SW 247 0 min 0,000 mm 0,0 UV-I 0 W/m 4,8 C 2,7 C 14,5 km/h (3 Bft) 95,65 %
22.12.2017 19:36 5,4 C 3,9 C 96 % 1032,1 hPa 0,0 l/m 6,4 km/h (2 Bft) SW 225 0 min 0,000 mm 0,0 UV-I 0 W/m 4,8 C 5,4 C 8,0 km/h (2 Bft) 100,00 %
22.12.2017 19:37 5,4 C 3,9 C 96 % 1032,1 hPa 0,0 l/m 6,4 km/h (2 Bft) W-SW 247 0 min 0,000 mm 0,0 UV-I 0 W/m 4,8 C 5,4 C 11,3 km/h (2 Bft) 100,00 %
22.12.2017 19:38 5,4 C 3,9 C 96 % 1032,1 hPa 0,0 l/m 8,0 km/h (2 Bft) SW 225 0 min 0,000 mm 0,0 UV-I 0 W/m 4,8 C 4,0 C 9,7 km/h (2 Bft) 95,65 %
22.12.2017 19:39 5,4 C 3,9 C 96 % 1032,1 hPa 0,0 l/m 8,0 km/h (2 Bft) SW 225 0 min 0,000 mm 0,0 UV-I 0 W/m 4,8 C 4,0 C 11,3 km/h (2 Bft) 95,65 %
22.12.2017 19:40 5,4 C 3,9 C 96 % 1032,1 hPa 0,0 l/m 8,0 km/h (2 Bft) SW 225 0 min 0,000 mm 0,0 UV-I 0 W/m 4,8 C 4,0 C 9,7 km/h (2 Bft) 100,00 %
22.12.2017 19:41 5,4 C 3,9 C 96 % 1032,2 hPa 0,0 l/m 8,0 km/h (2 Bft) W-SW 247 0 min 0,000 mm 0,0 UV-I 0 W/m 4,8 C 4,0 C 11,3 km/h (2 Bft) 100,00 %
22.12.2017 19:42 5,4 C 3,9 C 96 % 1032,2 hPa 0,0 l/m 8,0 km/h (2 Bft) SW 225 0 min 0,000 mm 0,0 UV-I 0 W/m 4,8 C 4,0 C 9,7 km/h (2 Bft) 95,65 %
22.12.2017 19:43 5,4 C 3,9 C 96 % 1032,2 hPa 0,0 l/m 8,0 km/h (2 Bft) SW 225 0 min 0,000 mm 0,0 UV-I 0 W/m 4,8 C 4,0 C 11,3 km/h (2 Bft) 100,00 %
22.12.2017 19:44 5,4 C 3,9 C 96 % 1032,2 hPa 0,0 l/m 8,0 km/h (2 Bft) SW 225 0 min 0,000 mm 0,0 UV-I 0 W/m 4,8 C 4,0 C 9,7 km/h (2 Bft) 100,00 %
22.12.2017 19:45 5,4 C 3,9 C 96 % 1032,2 hPa 0,0 l/m 6,4 km/h (2 Bft) W-SW 247 0 min 0,000 mm 0,0 UV-I 0 W/m 4,8 C 5,4 C 9,7 km/h (2 Bft) 95,65 %
22.12.2017 19:46 5,4 C 3,9 C 96 % 1032,2 hPa 0,0 l/m 6,4 km/h (2 Bft) SW 225 0 min 0,000 mm 0,0 UV-I 0 W/m 4,8 C 5,4 C 11,3 km/h (2 Bft) 95,65 %
22.12.2017 19:47 5,4 C 3,9 C 96 % 1032,2 hPa 0,0 l/m 6,4 km/h (2 Bft) SW 225 0 min 0,000 mm 0,0 UV-I 0 W/m 4,8 C 5,4 C 9,7 km/h (2 Bft) 100,00 %
22.12.2017 19:48 5,4 C 3,9 C 96 % 1032,2 hPa 0,0 l/m 6,4 km/h (2 Bft) SW 225 0 min 0,000 mm 0,0 UV-I 0 W/m 4,8 C 5,4 C 9,7 km/h (2 Bft) 86,96 %
22.12.2017 19:49 5,4 C 3,9 C 96 % 1032,2 hPa 0,0 l/m 6,4 km/h (2 Bft) SW 225 0 min 0,000 mm 0,0 UV-I 0 W/m 4,8 C 5,4 C 8,0 km/h (2 Bft) 100,00 %
22.12.2017 19:50 5,4 C 3,9 C 96 % 1032,2 hPa 0,0 l/m 6,4 km/h (2 Bft) SW 225 0 min 0,000 mm 0,0 UV-I 0 W/m 4,8 C 5,4 C 8,0 km/h (2 Bft) 100,00 %
22.12.2017 19:51 5,4 C 3,9 C 96 % 1032,2 hPa 0,0 l/m 6,4 km/h (2 Bft) SW 225 0 min 0,000 mm 0,0 UV-I 0 W/m 4,8 C 5,4 C 9,7 km/h (2 Bft) 95,65 %
22.12.2017 19:52 5,4 C 3,9 C 96 % 1032,2 hPa 0,0 l/m 6,4 km/h (2 Bft) S-SW 202 0 min 0,000 mm 0,0 UV-I 0 W/m 4,8 C 5,4 C 9,7 km/h (2 Bft) 100,00 %
22.12.2017 19:53 5,4 C 3,9 C 96 % 1032,2 hPa 0,0 l/m 8,0 km/h (2 Bft) SW 225 0 min 0,000 mm 0,0 UV-I 0 W/m 4,8 C 4,0 C 11,3 km/h (2 Bft) 95,65 %
22.12.2017 19:54 5,4 C 3,9 C 96 % 1032,2 hPa 0,0 l/m 6,4 km/h (2 Bft) W-SW 247 0 min 0,000 mm 0,0 UV-I 0 W/m 4,8 C 5,4 C 11,3 km/h (2 Bft) 100,00 %
22.12.2017 19:55 5,4 C 3,9 C 96 % 1032,1 hPa 0,0 l/m 8,0 km/h (2 Bft) SW 225 0 min 0,000 mm 0,0 UV-I 0 W/m 4,8 C 4,0 C 9,7 km/h (2 Bft) 100,00 %
22.12.2017 19:56 5,4 C 3,9 C 96 % 1032,2 hPa 0,0 l/m 6,4 km/h (2 Bft) S-SW 202 0 min 0,000 mm 0,0 UV-I 0 W/m 4,8 C 5,4 C 8,0 km/h (2 Bft) 95,65 %
22.12.2017 19:57 5,4 C 3,9 C 96 % 1032,2 hPa 0,0 l/m 8,0 km/h (2 Bft) S-SW 202 0 min 0,000 mm 0,0 UV-I 0 W/m 4,8 C 4,0 C 11,3 km/h (2 Bft) 100,00 %
22.12.2017 19:58 5,4 C 3,9 C 96 % 1032,2 hPa 0,0 l/m 8,0 km/h (2 Bft) S-SW 202 0 min 0,000 mm 0,0 UV-I 0 W/m 4,8 C 4,0 C 9,7 km/h (2 Bft) 100,00 %
22.12.2017 19:59 5,4 C 3,9 C 96 % 1032,2 hPa 0,0 l/m 6,4 km/h (2 Bft) SW 225 0 min 0,000 mm 0,0 UV-I 0 W/m 4,8 C 5,4 C 9,7 km/h (2 Bft) 100,00 %
22.12.2017 20:00 5,4 C 3,9 C 96 % 1032,2 hPa 0,0 l/m 6,4 km/h (2 Bft) S-SW 202 0 min 0,000 mm 0,0 UV-I 0 W/m 4,8 C 5,4 C 8,0 km/h (2 Bft) 95,65 %
22.12.2017 20:01 5,4 C 3,9 C 96 % 1032,2 hPa 0,0 l/m 4,8 km/h (1 Bft) W-SW 247 0 min 0,000 mm 0,0 UV-I 0 W/m 4,8 C 5,4 C 6,4 km/h (2 Bft) 95,65 %
22.12.2017 20:02 5,4 C 3,9 C 96 % 1032,3 hPa 0,0 l/m 4,8 km/h (1 Bft) S-SW 202 0 min 0,000 mm 0,0 UV-I 0 W/m 4,8 C 5,4 C 6,4 km/h (2 Bft) 100,00 %
22.12.2017 20:03 5,4 C 3,9 C 96 % 1032,3 hPa 0,0 l/m 6,4 km/h (2 Bft) S-SW 202 0 min 0,000 mm 0,0 UV-I 0 W/m 4,8 C 5,4 C 8,0 km/h (2 Bft) 100,00 %
22.12.2017 20:04 5,4 C 3,9 C 96 % 1032,4 hPa 0,0 l/m 6,4 km/h (2 Bft) SW 225 0 min 0,000 mm 0,0 UV-I 0 W/m 4,8 C 5,4 C 8,0 km/h (2 Bft) 100,00 %
22.12.2017 20:05 5,4 C 3,9 C 96 % 1032,4 hPa 0,0 l/m 4,8 km/h (1 Bft) SW 225 0 min 0,000 mm 0,0 UV-I 0 W/m 4,8 C 5,4 C 8,0 km/h (2 Bft) 100,00 %
22.12.2017 20:06 5,4 C 3,9 C 96 % 1032,4 hPa 0,0 l/m 6,4 km/h (2 Bft) SW 225 0 min 0,000 mm 0,0 UV-I 0 W/m 4,8 C 5,4 C 8,0 km/h (2 Bft) 100,00 %
22.12.2017 20:07 5,4 C 3,9 C 96 % 1032,4 hPa 0,0 l/m 6,4 km/h (2 Bft) SW 225 0 min 0,000 mm 0,0 UV-I 0 W/m 4,8 C 5,4 C 8,0 km/h (2 Bft) 95,65 %
22.12.2017 20:08 5,4 C 3,9 C 96 % 1032,4 hPa 0,0 l/m 3,2 km/h (1 Bft) SW 225 0 min 0,000 mm 0,0 UV-I 0 W/m 4,8 C 5,4 C 4,8 km/h (1 Bft) 95,65 %
22.12.2017 20:09 5,4 C 3,9 C 96 % 1032,4 hPa 0,0 l/m 4,8 km/h (1 Bft) SW 225 0 min 0,000 mm 0,0 UV-I 0 W/m 4,8 C 5,4 C 6,4 km/h (2 Bft) 100,00 %
22.12.2017 20:10 5,4 C 3,9 C 96 % 1032,4 hPa 0,0 l/m 4,8 km/h (1 Bft) SW 225 0 min 0,000 mm 0,0 UV-I 0 W/m 4,8 C 5,4 C 8,0 km/h (2 Bft) 100,00 %
22.12.2017 20:11 5,4 C 3,9 C 96 % 1032,4 hPa 0,0 l/m 4,8 km/h (1 Bft) S-SW 202 0 min 0,000 mm 0,0 UV-I 0 W/m 4,8 C 5,4 C 8,0 km/h (2 Bft) 95,65 %
22.12.2017 20:12 5,4 C 3,9 C 96 % 1032,4 hPa 0,0 l/m 3,2 km/h (1 Bft) S-SW 202 0 min 0,000 mm 0,0 UV-I 0 W/m 4,8 C 5,4 C 6,4 km/h (2 Bft) 100,00 %
22.12.2017 20:13 5,4 C 3,9 C 96 % 1032,4 hPa 0,0 l/m 4,8 km/h (1 Bft) S-SW 202 0 min 0,000 mm 0,0 UV-I 0 W/m 4,8 C 5,4 C 4,8 km/h (1 Bft) 95,65 %
22.12.2017 20:14 5,4 C 3,9 C 96 % 1032,4 hPa 0,0 l/m 3,2 km/h (1 Bft) S-SW 202 0 min 0,000 mm 0,0 UV-I 0 W/m 4,8 C 5,4 C 3,2 km/h (1 Bft) 95,65 %
22.12.2017 20:15 5,4 C 3,9 C 96 % 1032,4 hPa 0,0 l/m 3,2 km/h (1 Bft) S-SW 202 0 min 0,000 mm 0,0 UV-I 0 W/m 4,8 C 5,4 C 6,4 km/h (2 Bft) 95,65 %
22.12.2017 20:16 5,4 C 3,9 C 96 % 1032,5 hPa 0,0 l/m 3,2 km/h (1 Bft) S-SW 202 0 min 0,000 mm 0,0 UV-I 0 W/m 4,8 C 5,4 C 6,4 km/h (2 Bft) 95,65 %
22.12.2017 20:17 5,4 C 3,9 C 96 % 1032,5 hPa 0,0 l/m 4,8 km/h (1 Bft) S-SW 202 0 min 0,000 mm 0,0 UV-I 0 W/m 4,8 C 5,4 C 8,0 km/h (2 Bft) 91,30 %
22.12.2017 20:18 5,4 C 3,9 C 96 % 1032,5 hPa 0,0 l/m 4,8 km/h (1 Bft) S-SW 202 0 min 0,000 mm 0,0 UV-I 0 W/m 4,8 C 5,4 C 6,4 km/h (2 Bft) 100,00 %
22.12.2017 20:19 5,4 C 3,9 C 96 % 1032,5 hPa 0,0 l/m 4,8 km/h (1 Bft) S-SW 202 0 min 0,000 mm 0,0 UV-I 0 W/m 4,8 C 5,4 C 6,4 km/h (2 Bft) 95,65 %
22.12.2017 20:20 5,4 C 3,9 C 96 % 1032,5 hPa 0,0 l/m 4,8 km/h (1 Bft) S-SW 202 0 min 0,000 mm 0,0 UV-I 0 W/m 4,8 C 5,4 C 8,0 km/h (2 Bft) 100,00 %
22.12.2017 20:21 5,4 C 3,9 C 96 % 1032,5 hPa 0,0 l/m 6,4 km/h (2 Bft) S-SW 202 0 min 0,000 mm 0,0 UV-I 0 W/m 4,8 C 5,4 C 8,0 km/h (2 Bft) 86,96 %
22.12.2017 20:22 5,4 C 3,9 C 96 % 1032,5 hPa 0,0 l/m 6,4 km/h (2 Bft) SW 225 0 min 0,000 mm 0,0 UV-I 0 W/m 4,8 C 5,4 C 8,0 km/h (2 Bft) 95,65 %
22.12.2017 20:23 5,4 C 3,9 C 96 % 1032,4 hPa 0,0 l/m 4,8 km/h (1 Bft) SW 225 0 min 0,000 mm 0,0 UV-I 0 W/m 4,8 C 5,4 C 6,4 km/h (2 Bft) 95,65 %
22.12.2017 20:24 5,4 C 3,9 C 96 % 1032,5 hPa 0,0 l/m 6,4 km/h (2 Bft) SW 225 0 min 0,000 mm 0,0 UV-I 0 W/m 4,8 C 5,4 C 8,0 km/h (2 Bft) 95,65 %
22.12.2017 20:25 5,4 C 3,9 C 96 % 1032,5 hPa 0,0 l/m 4,8 km/h (1 Bft) SW 225 0 min 0,000 mm 0,0 UV-I 0 W/m 4,8 C 5,4 C 6,4 km/h (2 Bft) 95,65 %
22.12.2017 20:26 5,4 C 3,9 C 96 % 1032,5 hPa 0,0 l/m 3,2 km/h (1 Bft) SW 225 0 min 0,000 mm 0,0 UV-I 0 W/m 4,8 C 5,4 C 4,8 km/h (1 Bft) 91,30 %
22.12.2017 20:27 5,4 C 3,9 C 96 % 1032,5 hPa 0,0 l/m 4,8 km/h (1 Bft) W-SW 247 0 min 0,000 mm 0,0 UV-I 0 W/m 4,8 C 5,4 C 6,4 km/h (2 Bft) 91,30 %
22.12.2017 20:28 5,4 C 3,9 C 96 % 1032,5 hPa 0,0 l/m 4,8 km/h (1 Bft) W-SW 247 0 min 0,000 mm 0,0 UV-I 0 W/m 4,8 C 5,4 C 4,8 km/h (1 Bft) 86,96 %
22.12.2017 20:29 5,4 C 3,9 C 96 % 1032,6 hPa 0,0 l/m 6,4 km/h (2 Bft) SW 225 0 min 0,000 mm 0,0 UV-I 0 W/m 4,8 C 5,4 C 6,4 km/h (2 Bft) 95,65 %
22.12.2017 20:30 5,4 C 3,9 C 96 % 1032,6 hPa 0,0 l/m 4,8 km/h (1 Bft) SW 225 0 min 0,000 mm 0,0 UV-I 0 W/m 4,8 C 5,4 C 6,4 km/h (2 Bft) 95,65 %
22.12.2017 20:31 5,4 C 3,9 C 96 % 1032,6 hPa 0,0 l/m 4,8 km/h (1 Bft) SW 225 0 min 0,000 mm 0,0 UV-I 0 W/m 4,8 C 5,4 C 6,4 km/h (2 Bft) 91,30 %
22.12.2017 20:32 5,4 C 3,9 C 96 % 1032,6 hPa 0,0 l/m 4,8 km/h (1 Bft) W-SW 247 0 min 0,000 mm 0,0 UV-I 0 W/m 4,8 C 5,4 C 6,4 km/h (2 Bft) 95,65 %
22.12.2017 20:33 5,4 C 3,9 C 96 % 1032,7 hPa 0,0 l/m 6,4 km/h (2 Bft) W-SW 247 0 min 0,000 mm 0,0 UV-I 0 W/m 4,8 C 5,4 C 6,4 km/h (2 Bft) 95,65 %
22.12.2017 20:34 5,3 C 3,9 C 96 % 1032,7 hPa 0,0 l/m 4,8 km/h (1 Bft) W-SW 247 0 min 0,000 mm 0,0 UV-I 0 W/m 4,7 C 5,3 C 6,4 km/h (2 Bft) 95,65 %
22.12.2017 20:35 5,3 C 3,9 C 96 % 1032,7 hPa 0,0 l/m 4,8 km/h (1 Bft) W-SW 247 0 min 0,000 mm 0,0 UV-I 0 W/m 4,7 C 5,3 C 6,4 km/h (2 Bft) 86,96 %
22.12.2017 20:36 5,3 C 3,9 C 96 % 1032,7 hPa 0,0 l/m 4,8 km/h (1 Bft) W-SW 247 0 min 0,000 mm 0,0 UV-I 0 W/m 4,7 C 5,3 C 6,4 km/h (2 Bft) 91,30 %
22.12.2017 20:37 5,3 C 3,9 C 96 % 1032,7 hPa 0,0 l/m 4,8 km/h (1 Bft) W 270 0 min 0,000 mm 0,0 UV-I 0 W/m 4,7 C 5,3 C 9,7 km/h (2 Bft) 100,00 %
22.12.2017 20:38 5,4 C 3,9 C 96 % 1032,7 hPa 0,0 l/m 4,8 km/h (1 Bft) W-SW 247 0 min 0,000 mm 0,0 UV-I 0 W/m 4,8 C 5,4 C 9,7 km/h (2 Bft) 95,65 %
22.12.2017 20:39 5,3 C 3,9 C 96 % 1032,7 hPa 0,0 l/m 4,8 km/h (1 Bft) W-SW 247 0 min 0,000 mm 0,0 UV-I 0 W/m 4,7 C 5,3 C 6,4 km/h (2 Bft) 100,00 %
22.12.2017 20:40 5,4 C 3,9 C 97 % 1032,8 hPa 0,0 l/m 6,4 km/h (2 Bft) W-SW 247 0 min 0,000 mm 0,0 UV-I 0 W/m 5,0 C 5,4 C 9,7 km/h (2 Bft) 95,65 %
22.12.2017 20:41 5,4 C 3,9 C 97 % 1032,8 hPa 0,0 l/m 4,8 km/h (1 Bft) W 270 0 min 0,000 mm 0,0 UV-I 0 W/m 5,0 C 5,4 C 6,4 km/h (2 Bft) 100,00 %
22.12.2017 20:42 5,4 C 3,9 C 97 % 1032,7 hPa 0,0 l/m 3,2 km/h (1 Bft) W 270 0 min 0,000 mm 0,0 UV-I 0 W/m 5,0 C 5,4 C 4,8 km/h (1 Bft) 91,30 %
22.12.2017 20:43 5,4 C 3,9 C 97 % 1032,8 hPa 0,0 l/m 6,4 km/h (2 Bft) W 270 0 min 0,000 mm 0,0 UV-I 0 W/m 5,0 C 5,4 C 9,7 km/h (2 Bft) 95,65 %
22.12.2017 20:44 5,5 C 3,9 C 97 % 1032,9 hPa 0,0 l/m 4,8 km/h (1 Bft) W 270 0 min 0,000 mm 0,0 UV-I 0 W/m 5,1 C 5,5 C 9,7 km/h (2 Bft) 91,30 %
22.12.2017 20:45 5,5 C 3,9 C 97 % 1032,9 hPa 0,0 l/m 8,0 km/h (2 Bft) W-SW 247 0 min 0,000 mm 0,0 UV-I 0 W/m 5,1 C 4,1 C 12,9 km/h (3 Bft) 100,00 %
22.12.2017 20:46 5,5 C 3,9 C 96 % 1032,9 hPa 0,0 l/m 6,4 km/h (2 Bft) W 270 0 min 0,000 mm 0,0 UV-I 0 W/m 4,9 C 5,5 C 11,3 km/h (2 Bft) 100,00 %
22.12.2017 20:47 5,6 C 3,9 C 97 % 1032,9 hPa 0,0 l/m 6,4 km/h (2 Bft) W 270 0 min 0,000 mm 0,0 UV-I 0 W/m 5,2 C 5,6 C 9,7 km/h (2 Bft) 95,65 %
22.12.2017 20:48 5,6 C 3,9 C 96 % 1032,9 hPa 0,0 l/m 9,7 km/h (2 Bft) W 270 0 min 0,000 mm 0,0 UV-I 0 W/m 5,0 C 2,9 C 12,9 km/h (3 Bft) 100,00 %
22.12.2017 20:49 5,6 C 3,9 C 96 % 1032,9 hPa 0,0 l/m 6,4 km/h (2 Bft) W 270 0 min 0,000 mm 0,0 UV-I 0 W/m 5,0 C 5,6 C 9,7 km/h (2 Bft) 91,30 %
22.12.2017 20:50 5,6 C 3,9 C 96 % 1032,9 hPa 0,0 l/m 6,4 km/h (2 Bft) W-SW 247 0 min 0,000 mm 0,0 UV-I 0 W/m 5,0 C 5,6 C 8,0 km/h (2 Bft) 100,00 %
22.12.2017 20:51 5,6 C 3,9 C 96 % 1032,9 hPa 0,0 l/m 6,4 km/h (2 Bft) W 270 0 min 0,000 mm 0,0 UV-I 0 W/m 5,0 C 5,6 C 9,7 km/h (2 Bft) 95,65 %
22.12.2017 20:52 5,6 C 3,9 C 96 % 1032,9 hPa 0,0 l/m 6,4 km/h (2 Bft) W 270 0 min 0,000 mm 0,0 UV-I 0 W/m 5,0 C 5,6 C 11,3 km/h (2 Bft) 95,65 %
22.12.2017 20:53 5,6 C 3,9 C 96 % 1033,0 hPa 0,0 l/m 11,3 km/h (2 Bft) W 270 0 min 0,000 mm 0,0 UV-I 0 W/m 5,0 C 1,9 C 12,9 km/h (3 Bft) 91,30 %
22.12.2017 20:54 5,7 C 3,9 C 96 % 1032,9 hPa 0,0 l/m 8,0 km/h (2 Bft) W 270 0 min 0,000 mm 0,0 UV-I 0 W/m 5,1 C 4,3 C 12,9 km/h (3 Bft) 95,65 %
22.12.2017 20:55 5,7 C 3,9 C 96 % 1033,0 hPa 0,0 l/m 4,8 km/h (1 Bft) W 270 0 min 0,000 mm 0,0 UV-I 0 W/m 5,1 C 5,7 C 6,4 km/h (2 Bft) 100,00 %
22.12.2017 20:56 5,7 C 3,9 C 96 % 1033,0 hPa 0,0 l/m 4,8 km/h (1 Bft) W 270 0 min 0,000 mm 0,0 UV-I 0 W/m 5,1 C 5,7 C 6,4 km/h (2 Bft) 91,30 %
22.12.2017 20:57 5,7 C 3,9 C 96 % 1033,1 hPa 0,0 l/m 8,0 km/h (2 Bft) W 270 0 min 0,000 mm 0,0 UV-I 0 W/m 5,1 C 4,3 C 11,3 km/h (2 Bft) 100,00 %
22.12.2017 20:58 5,7 C 3,9 C 96 % 1033,0 hPa 0,0 l/m 4,8 km/h (1 Bft) W 270 0 min 0,000 mm 0,0 UV-I 0 W/m 5,1 C 5,7 C 9,7 km/h (2 Bft) 95,65 %
22.12.2017 20:59 5,7 C 3,9 C 96 % 1032,9 hPa 0,0 l/m 4,8 km/h (1 Bft) W 270 0 min 0,000 mm 0,0 UV-I 0 W/m 5,1 C 5,7 C 6,4 km/h (2 Bft) 100,00 %
22.12.2017 21:00 5,7 C 3,9 C 96 % 1032,9 hPa 0,0 l/m 8,0 km/h (2 Bft) W 270 0 min 0,000 mm 0,0 UV-I 0 W/m 5,1 C 4,3 C 16,1 km/h (3 Bft) 95,65 %
22.12.2017 21:01 5,7 C 3,9 C 96 % 1032,9 hPa 0,0 l/m 6,4 km/h (2 Bft) W-SW 247 0 min 0,000 mm 0,0 UV-I 0 W/m 5,1 C 5,7 C 8,0 km/h (2 Bft) 100,00 %
22.12.2017 21:02 5,7 C 3,9 C 96 % 1032,9 hPa 0,0 l/m 9,7 km/h (2 Bft) W 270 0 min 0,000 mm 0,0 UV-I 0 W/m 5,1 C 3,1 C 12,9 km/h (3 Bft) 95,65 %
22.12.2017 21:03 5,7 C 3,9 C 96 % 1032,9 hPa 0,0 l/m 6,4 km/h (2 Bft) W-NW 292 0 min 0,000 mm 0,0 UV-I 0 W/m 5,1 C 5,7 C 11,3 km/h (2 Bft) 95,65 %
22.12.2017 21:04 5,7 C 3,9 C 96 % 1033,0 hPa 0,0 l/m 8,0 km/h (2 Bft) W 270 0 min 0,000 mm 0,0 UV-I 0 W/m 5,1 C 4,3 C 11,3 km/h (2 Bft) 100,00 %
22.12.2017 21:05 5,7 C 3,9 C 96 % 1033,0 hPa 0,0 l/m 9,7 km/h (2 Bft) W-SW 247 0 min 0,000 mm 0,0 UV-I 0 W/m 5,1 C 3,1 C 12,9 km/h (3 Bft) 100,00 %
22.12.2017 21:06 5,7 C 3,9 C 96 % 1033,0 hPa 0,0 l/m 6,4 km/h (2 Bft) W-SW 247 0 min 0,000 mm 0,0 UV-I 0 W/m 5,1 C 5,7 C 11,3 km/h (2 Bft) 100,00 %
22.12.2017 21:07 5,7 C 3,9 C 96 % 1033,0 hPa 0,0 l/m 9,7 km/h (2 Bft) W 270 0 min 0,000 mm 0,0 UV-I 0 W/m 5,1 C 3,1 C 16,1 km/h (3 Bft) 100,00 %
22.12.2017 21:08 5,8 C 3,9 C 96 % 1033,0 hPa 0,0 l/m 6,4 km/h (2 Bft) W-SW 247 0 min 0,000 mm 0,0 UV-I 0 W/m 5,2 C 5,8 C 11,3 km/h (2 Bft) 100,00 %
22.12.2017 21:09 5,8 C 3,9 C 96 % 1033,0 hPa 0,0 l/m 11,3 km/h (2 Bft) W 270 0 min 0,000 mm 0,0 UV-I 0 W/m 5,2 C 2,1 C 16,1 km/h (3 Bft) 100,00 %
22.12.2017 21:10 5,8 C 3,9 C 95 % 1033,0 hPa 0,0 l/m 8,0 km/h (2 Bft) W 270 0 min 0,000 mm 0,0 UV-I 0 W/m 5,1 C 4,4 C 11,3 km/h (2 Bft) 95,65 %
22.12.2017 21:11 5,8 C 3,9 C 95 % 1033,0 hPa 0,0 l/m 4,8 km/h (1 Bft) W 270 0 min 0,000 mm 0,0 UV-I 0 W/m 5,1 C 5,8 C 6,4 km/h (2 Bft) 100,00 %
22.12.2017 21:12 5,8 C 3,9 C 95 % 1033,0 hPa 0,0 l/m 6,4 km/h (2 Bft) W-SW 247 0 min 0,000 mm 0,0 UV-I 0 W/m 5,1 C 5,8 C 11,3 km/h (2 Bft) 95,65 %
22.12.2017 21:13 5,8 C 3,9 C 95 % 1032,9 hPa 0,0 l/m 4,8 km/h (1 Bft) W 270 0 min 0,000 mm 0,0 UV-I 0 W/m 5,1 C 5,8 C 6,4 km/h (2 Bft) 100,00 %
22.12.2017 21:14 5,7 C 3,9 C 95 % 1033,1 hPa 0,0 l/m 9,7 km/h (2 Bft) W 270 0 min 0,000 mm 0,0 UV-I 0 W/m 5,0 C 3,1 C 14,5 km/h (3 Bft) 100,00 %
22.12.2017 21:15 5,8 C 3,9 C 95 % 1033,0 hPa 0,0 l/m 8,0 km/h (2 Bft) W 270 0 min 0,000 mm 0,0 UV-I 0 W/m 5,1 C 4,4 C 12,9 km/h (3 Bft) 100,00 %
22.12.2017 21:16 5,7 C 3,9 C 95 % 1033,0 hPa 0,0 l/m 8,0 km/h (2 Bft) W-SW 247 0 min 0,000 mm 0,0 UV-I 0 W/m 5,0 C 4,3 C 12,9 km/h (3 Bft) 100,00 %
22.12.2017 21:17 5,7 C 3,9 C 95 % 1033,1 hPa 0,0 l/m 8,0 km/h (2 Bft) W-SW 247 0 min 0,000 mm 0,0 UV-I 0 W/m 5,0 C 4,3 C 11,3 km/h (2 Bft) 95,65 %
22.12.2017 21:18 5,8 C 3,9 C 95 % 1033,0 hPa 0,0 l/m 8,0 km/h (2 Bft) W 270 0 min 0,000 mm 0,0 UV-I 0 W/m 5,1 C 4,4 C 11,3 km/h (2 Bft) 100,00 %
22.12.2017 21:19 5,8 C 3,9 C 95 % 1033,1 hPa 0,0 l/m 8,0 km/h (2 Bft) W 270 0 min 0,000 mm 0,0 UV-I 0 W/m 5,1 C 4,4 C 12,9 km/h (3 Bft) 100,00 %
22.12.2017 21:20 5,7 C 3,9 C 95 % 1033,0 hPa 0,0 l/m 11,3 km/h (2 Bft) W-SW 247 0 min 0,000 mm 0,0 UV-I 0 W/m 5,0 C 2,0 C 14,5 km/h (3 Bft) 100,00 %
22.12.2017 21:21 5,7 C 3,9 C 95 % 1033,1 hPa 0,0 l/m 9,7 km/h (2 Bft) W 270 0 min 0,000 mm 0,0 UV-I 0 W/m 5,0 C 3,1 C 12,9 km/h (3 Bft) 100,00 %
22.12.2017 21:22 5,7 C 3,9 C 95 % 1033,1 hPa 0,0 l/m 9,7 km/h (2 Bft) W-SW 247 0 min 0,000 mm 0,0 UV-I 0 W/m 5,0 C 3,1 C 12,9 km/h (3 Bft) 100,00 %
22.12.2017 21:23 5,7 C 3,9 C 95 % 1033,0 hPa 0,0 l/m 8,0 km/h (2 Bft) W-SW 247 0 min 0,000 mm 0,0 UV-I 0 W/m 5,0 C 4,3 C 12,9 km/h (3 Bft) 100,00 %
22.12.2017 21:24 5,7 C 3,9 C 95 % 1033,1 hPa 0,0 l/m 9,7 km/h (2 Bft) W 270 0 min 0,000 mm 0,0 UV-I 0 W/m 5,0 C 3,1 C 12,9 km/h (3 Bft) 95,65 %
22.12.2017 21:25 5,7 C 3,9 C 95 % 1033,1 hPa 0,0 l/m 9,7 km/h (2 Bft) W-SW 247 0 min 0,000 mm 0,0 UV-I 0 W/m 5,0 C 3,1 C 12,9 km/h (3 Bft) 100,00 %
22.12.2017 21:26 5,8 C 3,9 C 95 % 1033,1 hPa 0,0 l/m 9,7 km/h (2 Bft) W-SW 247 0 min 0,000 mm 0,0 UV-I 0 W/m 5,1 C 3,2 C 14,5 km/h (3 Bft) 100,00 %
22.12.2017 21:27 5,8 C 3,9 C 95 % 1033,0 hPa 0,0 l/m 9,7 km/h (2 Bft) W-SW 247 0 min 0,000 mm 0,0 UV-I 0 W/m 5,1 C 3,2 C 12,9 km/h (3 Bft) 100,00 %
22.12.2017 21:28 5,8 C 3,9 C 95 % 1033,0 hPa 0,0 l/m 8,0 km/h (2 Bft) W-SW 247 0 min 0,000 mm 0,0 UV-I 0 W/m 5,1 C 4,4 C 11,3 km/h (2 Bft) 100,00 %
22.12.2017 21:29 5,8 C 3,9 C 95 % 1033,0 hPa 0,0 l/m 6,4 km/h (2 Bft) W 270 0 min 0,000 mm 0,0 UV-I 0 W/m 5,1 C 5,8 C 9,7 km/h (2 Bft) 100,00 %
22.12.2017 21:30 5,8 C 3,9 C 95 % 1033,0 hPa 0,0 l/m 8,0 km/h (2 Bft) W 270 0 min 0,000 mm 0,0 UV-I 0 W/m 5,1 C 4,4 C 12,9 km/h (3 Bft) 100,00 %
22.12.2017 21:31 5,7 C 3,9 C 95 % 1032,9 hPa 0,0 l/m 11,3 km/h (2 Bft) W-SW 247 0 min 0,000 mm 0,0 UV-I 0 W/m 5,0 C 2,0 C 14,5 km/h (3 Bft) 95,65 %
22.12.2017 21:32 5,7 C 3,9 C 95 % 1032,9 hPa 0,0 l/m 11,3 km/h (2 Bft) W-SW 247 0 min 0,000 mm 0,0 UV-I 0 W/m 5,0 C 2,0 C 14,5 km/h (3 Bft) 95,65 %
22.12.2017 21:33 5,7 C 3,9 C 95 % 1032,9 hPa 0,0 l/m 11,3 km/h (2 Bft) W 270 0 min 0,000 mm 0,0 UV-I 0 W/m 5,0 C 2,0 C 16,1 km/h (3 Bft) 100,00 %
22.12.2017 21:34 5,7 C 3,9 C 95 % 1033,0 hPa 0,0 l/m 8,0 km/h (2 Bft) W 270 0 min 0,000 mm 0,0 UV-I 0 W/m 5,0 C 4,3 C 11,3 km/h (2 Bft) 100,00 %
22.12.2017 21:35 5,7 C 3,9 C 95 % 1032,9 hPa 0,0 l/m 9,7 km/h (2 Bft) W 270 0 min 0,000 mm 0,0 UV-I 0 W/m 5,0 C 3,1 C 11,3 km/h (2 Bft) 100,00 %
22.12.2017 21:36 5,7 C 3,9 C 95 % 1033,0 hPa 0,0 l/m 8,0 km/h (2 Bft) W-SW 247 0 min 0,000 mm 0,0 UV-I 0 W/m 5,0 C 4,3 C 11,3 km/h (2 Bft) 100,00 %
22.12.2017 21:37 5,7 C 3,9 C 95 % 1032,9 hPa 0,0 l/m 9,7 km/h (2 Bft) W-SW 247 0 min 0,000 mm 0,0 UV-I 0 W/m 5,0 C 3,1 C 12,9 km/h (3 Bft) 100,00 %
22.12.2017 21:38 5,6 C 3,9 C 95 % 1032,9 hPa 0,0 l/m 8,0 km/h (2 Bft) W-SW 247 0 min 0,000 mm 0,0 UV-I 0 W/m 4,9 C 4,2 C 11,3 km/h (2 Bft) 91,30 %
22.12.2017 21:39 5,6 C 3,9 C 95 % 1033,0 hPa 0,0 l/m 6,4 km/h (2 Bft) W 270 0 min 0,000 mm 0,0 UV-I 0 W/m 4,9 C 5,6 C 9,7 km/h (2 Bft) 100,00 %
22.12.2017 21:40 5,6 C 3,9 C 95 % 1033,0 hPa 0,0 l/m 6,4 km/h (2 Bft) W-SW 247 0 min 0,000 mm 0,0 UV-I 0 W/m 4,9 C 5,6 C 11,3 km/h (2 Bft) 95,65 %
22.12.2017 21:41 5,6 C 3,9 C 95 % 1033,0 hPa 0,0 l/m 6,4 km/h (2 Bft) SW 225 0 min 0,000 mm 0,0 UV-I 0 W/m 4,9 C 5,6 C 8,0 km/h (2 Bft) 95,65 %
22.12.2017 21:42 5,6 C 3,9 C 95 % 1033,0 hPa 0,0 l/m 8,0 km/h (2 Bft) SW 225 0 min 0,000 mm 0,0 UV-I 0 W/m 4,9 C 4,2 C 8,0 km/h (2 Bft) 95,65 %
22.12.2017 21:43 5,6 C 3,9 C 95 % 1033,0 hPa 0,0 l/m 6,4 km/h (2 Bft) SW 225 0 min 0,000 mm 0,0 UV-I 0 W/m 4,9 C 5,6 C 9,7 km/h (2 Bft) 100,00 %
22.12.2017 21:44 5,6 C 3,9 C 95 % 1033,1 hPa 0,0 l/m 8,0 km/h (2 Bft) SW 225 0 min 0,000 mm 0,0 UV-I 0 W/m 4,9 C 4,2 C 9,7 km/h (2 Bft) 86,96 %
22.12.2017 21:45 5,5 C 3,9 C 95 % 1033,1 hPa 0,0 l/m 9,7 km/h (2 Bft) SW 225 0 min 0,000 mm 0,0 UV-I 0 W/m 4,8 C 2,8 C 12,9 km/h (3 Bft) 91,30 %
22.12.2017 21:46 5,6 C 3,9 C 95 % 1033,1 hPa 0,0 l/m 8,0 km/h (2 Bft) W-SW 247 0 min 0,000 mm 0,0 UV-I 0 W/m 4,9 C 4,2 C 9,7 km/h (2 Bft) 91,30 %
22.12.2017 21:47 5,6 C 3,9 C 95 % 1033,1 hPa 0,0 l/m 6,4 km/h (2 Bft) W-SW 247 0 min 0,000 mm 0,0 UV-I 0 W/m 4,9 C 5,6 C 9,7 km/h (2 Bft) 100,00 %
22.12.2017 21:48 5,6 C 3,9 C 95 % 1033,1 hPa 0,0 l/m 6,4 km/h (2 Bft) W-SW 247 0 min 0,000 mm 0,0 UV-I 0 W/m 4,9 C 5,6 C 8,0 km/h (2 Bft) 95,65 %
22.12.2017 21:49 5,6 C 3,9 C 95 % 1033,1 hPa 0,0 l/m 6,4 km/h (2 Bft) W-SW 247 0 min 0,000 mm 0,0 UV-I 0 W/m 4,9 C 5,6 C 8,0 km/h (2 Bft) 73,91 %
22.12.2017 21:50 5,6 C 3,9 C 95 % 1033,1 hPa 0,0 l/m 6,4 km/h (2 Bft) SW 225 0 min 0,000 mm 0,0 UV-I 0 W/m 4,9 C 5,6 C 9,7 km/h (2 Bft) 100,00 %
22.12.2017 21:51 5,6 C 3,9 C 95 % 1033,1 hPa 0,0 l/m 8,0 km/h (2 Bft) SW 225 0 min 0,000 mm 0,0 UV-I 0 W/m 4,9 C 4,2 C 9,7 km/h (2 Bft) 95,65 %
22.12.2017 21:52 5,5 C 3,9 C 95 % 1033,1 hPa 0,0 l/m 6,4 km/h (2 Bft) W-SW 247 0 min 0,000 mm 0,0 UV-I 0 W/m 4,8 C 5,5 C 8,0 km/h (2 Bft) 95,65 %
22.12.2017 21:53 5,5 C 3,9 C 95 % 1033,1 hPa 0,0 l/m 6,4 km/h (2 Bft) W-SW 247 0 min 0,000 mm 0,0 UV-I 0 W/m 4,8 C 5,5 C 8,0 km/h (2 Bft) 95,65 %
22.12.2017 21:54 5,5 C 3,9 C 95 % 1033,1 hPa 0,0 l/m 6,4 km/h (2 Bft) W-SW 247 0 min 0,000 mm 0,0 UV-I 0 W/m 4,8 C 5,5 C 8,0 km/h (2 Bft) 100,00 %
22.12.2017 21:55 5,5 C 3,9 C 95 % 1033,1 hPa 0,0 l/m 6,4 km/h (2 Bft) SW 225 0 min 0,000 mm 0,0 UV-I 0 W/m 4,8 C 5,5 C 8,0 km/h (2 Bft) 95,65 %
22.12.2017 21:56 5,5 C 3,9 C 95 % 1033,1 hPa 0,0 l/m 4,8 km/h (1 Bft) SW 225 0 min 0,000 mm 0,0 UV-I 0 W/m 4,8 C 5,5 C 8,0 km/h (2 Bft) 100,00 %
22.12.2017 21:57 5,5 C 3,9 C 95 % 1033,1 hPa 0,0 l/m 4,8 km/h (1 Bft) SW 225 0 min 0,000 mm 0,0 UV-I 0 W/m 4,8 C 5,5 C 6,4 km/h (2 Bft) 95,65 %
22.12.2017 21:58 5,5 C 3,9 C 95 % 1033,1 hPa 0,0 l/m 4,8 km/h (1 Bft) SW 225 0 min 0,000 mm 0,0 UV-I 0 W/m 4,8 C 5,5 C 8,0 km/h (2 Bft) 100,00 %
22.12.2017 21:59 5,5 C 3,9 C 95 % 1033,1 hPa 0,0 l/m 4,8 km/h (1 Bft) W-SW 247 0 min 0,000 mm 0,0 UV-I 0 W/m 4,8 C 5,5 C 6,4 km/h (2 Bft) 91,30 %
22.12.2017 22:00 5,5 C 3,9 C 95 % 1033,1 hPa 0,0 l/m 3,2 km/h (1 Bft) W-SW 247 0 min 0,000 mm 0,0 UV-I 0 W/m 4,8 C 5,5 C 4,8 km/h (1 Bft) 100,00 %
22.12.2017 22:01 5,5 C 3,9 C 95 % 1033,1 hPa 0,0 l/m 3,2 km/h (1 Bft) W-SW 247 0 min 0,000 mm 0,0 UV-I 0 W/m 4,8 C 5,5 C 4,8 km/h (1 Bft) 91,30 %
22.12.2017 22:02 5,5 C 3,9 C 95 % 1033,2 hPa 0,0 l/m 4,8 km/h (1 Bft) W-SW 247 0 min 0,000 mm 0,0 UV-I 0 W/m 4,8 C 5,5 C 6,4 km/h (2 Bft) 100,00 %
22.12.2017 22:03 5,5 C 3,9 C 95 % 1033,1 hPa 0,0 l/m 3,2 km/h (1 Bft) W-SW 247 0 min 0,000 mm 0,0 UV-I 0 W/m 4,8 C 5,5 C 6,4 km/h (2 Bft) 100,00 %
22.12.2017 22:04 5,5 C 3,9 C 95 % 1033,1 hPa 0,0 l/m 4,8 km/h (1 Bft) S-SW 202 0 min 0,000 mm 0,0 UV-I 0 W/m 4,8 C 5,5 C 6,4 km/h (2 Bft) 100,00 %
22.12.2017 22:05 5,5 C 3,9 C 95 % 1033,1 hPa 0,0 l/m 3,2 km/h (1 Bft) SW 225 0 min 0,000 mm 0,0 UV-I 0 W/m 4,8 C 5,5 C 4,8 km/h (1 Bft) 100,00 %
22.12.2017 22:06 5,5 C 3,9 C 95 % 1033,1 hPa 0,0 l/m 4,8 km/h (1 Bft) SW 225 0 min 0,000 mm 0,0 UV-I 0 W/m 4,8 C 5,5 C 8,0 km/h (2 Bft) 95,65 %
22.12.2017 22:07 5,5 C 3,9 C 95 % 1033,1 hPa 0,0 l/m 6,4 km/h (2 Bft) S-SW 202 0 min 0,000 mm 0,0 UV-I 0 W/m 4,8 C 5,5 C 8,0 km/h (2 Bft) 100,00 %
22.12.2017 22:08 5,5 C 3,9 C 95 % 1033,1 hPa 0,0 l/m 6,4 km/h (2 Bft) SW 225 0 min 0,000 mm 0,0 UV-I 0 W/m 4,8 C 5,5 C 8,0 km/h (2 Bft) 100,00 %
22.12.2017 22:09 5,5 C 3,9 C 95 % 1033,1 hPa 0,0 l/m 6,4 km/h (2 Bft) W-SW 247 0 min 0,000 mm 0,0 UV-I 0 W/m 4,8 C 5,5 C 8,0 km/h (2 Bft) 100,00 %
22.12.2017 22:10 5,4 C 3,9 C 95 % 1033,2 hPa 0,0 l/m 4,8 km/h (1 Bft) W-SW 247 0 min 0,000 mm 0,0 UV-I 0 W/m 4,7 C 5,4 C 8,0 km/h (2 Bft) 100,00 %
22.12.2017 22:11 5,4 C 3,9 C 95 % 1033,1 hPa 0,0 l/m 3,2 km/h (1 Bft) W-SW 247 0 min 0,000 mm 0,0 UV-I 0 W/m 4,7 C 5,4 C 4,8 km/h (1 Bft) 100,00 %
22.12.2017 22:12 5,4 C 3,9 C 95 % 1033,1 hPa 0,0 l/m 3,2 km/h (1 Bft) W-SW 247 0 min 0,000 mm 0,0 UV-I 0 W/m 4,7 C 5,4 C 6,4 km/h (2 Bft) 95,65 %
22.12.2017 22:13 5,4 C 3,9 C 95 % 1033,1 hPa 0,0 l/m 4,8 km/h (1 Bft) SW 225 0 min 0,000 mm 0,0 UV-I 0 W/m 4,7 C 5,4 C 6,4 km/h (2 Bft) 95,65 %
22.12.2017 22:14 5,4 C 3,9 C 95 % 1033,1 hPa 0,0 l/m 4,8 km/h (1 Bft) SW 225 0 min 0,000 mm 0,0 UV-I 0 W/m 4,7 C 5,4 C 6,4 km/h (2 Bft) 100,00 %
22.12.2017 22:15 5,4 C 3,9 C 96 % 1033,1 hPa 0,0 l/m 3,2 km/h (1 Bft) W-SW 247 0 min 0,000 mm 0,0 UV-I 0 W/m 4,8 C 5,4 C 8,0 km/h (2 Bft) 100,00 %
22.12.2017 22:16 5,4 C 3,9 C 95 % 1033,1 hPa 0,0 l/m 4,8 km/h (1 Bft) SW 225 0 min 0,000 mm 0,0 UV-I 0 W/m 4,7 C 5,4 C 6,4 km/h (2 Bft) 100,00 %
22.12.2017 22:17 5,4 C 3,9 C 95 % 1033,1 hPa 0,0 l/m 4,8 km/h (1 Bft) SW 225 0 min 0,000 mm 0,0 UV-I 0 W/m 4,7 C 5,4 C 8,0 km/h (2 Bft) 100,00 %
22.12.2017 22:18 5,4 C 3,9 C 95 % 1033,1 hPa 0,0 l/m 6,4 km/h (2 Bft) SW 225 0 min 0,000 mm 0,0 UV-I 0 W/m 4,7 C 5,4 C 6,4 km/h (2 Bft) 100,00 %
22.12.2017 22:19 5,4 C 3,9 C 95 % 1033,1 hPa 0,0 l/m 4,8 km/h (1 Bft) SW 225 0 min 0,000 mm 0,0 UV-I 0 W/m 4,7 C 5,4 C 6,4 km/h (2 Bft) 100,00 %
22.12.2017 22:20 5,4 C 3,9 C 95 % 1033,2 hPa 0,0 l/m 4,8 km/h (1 Bft) W-SW 247 0 min 0,000 mm 0,0 UV-I 0 W/m 4,7 C 5,4 C 4,8 km/h (1 Bft) 95,65 %
22.12.2017 22:21 5,4 C 3,9 C 96 % 1033,2 hPa 0,0 l/m 4,8 km/h (1 Bft) SW 225 0 min 0,000 mm 0,0 UV-I 0 W/m 4,8 C 5,4 C 8,0 km/h (2 Bft) 100,00 %
22.12.2017 22:22 5,4 C 3,9 C 96 % 1033,2 hPa 0,0 l/m 4,8 km/h (1 Bft) SW 225 0 min 0,000 mm 0,0 UV-I 0 W/m 4,8 C 5,4 C 6,4 km/h (2 Bft) 95,65 %
22.12.2017 22:23 5,4 C 3,9 C 96 % 1033,2 hPa 0,0 l/m 6,4 km/h (2 Bft) S-SW 202 0 min 0,000 mm 0,0 UV-I 0 W/m 4,8 C 5,4 C 8,0 km/h (2 Bft) 100,00 %
22.12.2017 22:24 5,4 C 3,9 C 96 % 1033,1 hPa 0,0 l/m 6,4 km/h (2 Bft) SW 225 0 min 0,000 mm 0,0 UV-I 0 W/m 4,8 C 5,4 C 8,0 km/h (2 Bft) 100,00 %
22.12.2017 22:25 5,4 C 3,9 C 96 % 1033,1 hPa 0,0 l/m 4,8 km/h (1 Bft) W-SW 247 0 min 0,000 mm 0,0 UV-I 0 W/m 4,8 C 5,4 C 6,4 km/h (2 Bft) 100,00 %
22.12.2017 22:26 5,3 C 3,9 C 96 % 1033,1 hPa 0,0 l/m 4,8 km/h (1 Bft) S-SW 202 0 min 0,000 mm 0,0 UV-I 0 W/m 4,7 C 5,3 C 6,4 km/h (2 Bft) 100,00 %
22.12.2017 22:27 5,4 C 3,9 C 96 % 1033,1 hPa 0,0 l/m 6,4 km/h (2 Bft) SW 225 0 min 0,000 mm 0,0 UV-I 0 W/m 4,8 C 5,4 C 9,7 km/h (2 Bft) 95,65 %
22.12.2017 22:28 5,4 C 3,9 C 96 % 1033,1 hPa 0,0 l/m 4,8 km/h (1 Bft) S-SW 202 0 min 0,000 mm 0,0 UV-I 0 W/m 4,8 C 5,4 C 8,0 km/h (2 Bft) 95,65 %
22.12.2017 22:29 5,4 C 3,9 C 96 % 1033,1 hPa 0,0 l/m 6,4 km/h (2 Bft) S-SW 202 0 min 0,000 mm 0,0 UV-I 0 W/m 4,8 C 5,4 C 9,7 km/h (2 Bft) 95,65 %
22.12.2017 22:30 5,4 C 3,9 C 96 % 1033,1 hPa 0,0 l/m 4,8 km/h (1 Bft) S-SW 202 0 min 0,000 mm 0,0 UV-I 0 W/m 4,8 C 5,4 C 8,0 km/h (2 Bft) 100,00 %
22.12.2017 22:31 5,4 C 3,9 C 96 % 1033,1 hPa 0,0 l/m 4,8 km/h (1 Bft) S-SW 202 0 min 0,000 mm 0,0 UV-I 0 W/m 4,8 C 5,4 C 6,4 km/h (2 Bft) 95,65 %
22.12.2017 22:32 5,4 C 3,9 C 96 % 1033,1 hPa 0,0 l/m 3,2 km/h (1 Bft) S-SW 202 0 min 0,000 mm 0,0 UV-I 0 W/m 4,8 C 5,4 C 4,8 km/h (1 Bft) 100,00 %
22.12.2017 22:33 5,4 C 3,9 C 96 % 1033,2 hPa 0,0 l/m 3,2 km/h (1 Bft) S-SW 202 0 min 0,000 mm 0,0 UV-I 0 W/m 4,8 C 5,4 C 6,4 km/h (2 Bft) 95,65 %
22.12.2017 22:34 5,4 C 3,9 C 96 % 1033,2 hPa 0,0 l/m 1,6 km/h (1 Bft) S-SW 202 0 min 0,000 mm 0,0 UV-I 0 W/m 4,8 C 5,4 C 3,2 km/h (1 Bft) 95,65 %
22.12.2017 22:35 5,4 C 3,9 C 96 % 1033,2 hPa 0,0 l/m 3,2 km/h (1 Bft) S 180 0 min 0,000 mm 0,0 UV-I 0 W/m 4,8 C 5,4 C 6,4 km/h (2 Bft) 95,65 %
22.12.2017 22:36 5,4 C 3,9 C 96 % 1033,2 hPa 0,0 l/m 4,8 km/h (1 Bft) S 180 0 min 0,000 mm 0,0 UV-I 0 W/m 4,8 C 5,4 C 9,7 km/h (2 Bft) 100,00 %
22.12.2017 22:37 5,4 C 3,9 C 96 % 1033,3 hPa 0,0 l/m 4,8 km/h (1 Bft) S-SW 202 0 min 0,000 mm 0,0 UV-I 0 W/m 4,8 C 5,4 C 6,4 km/h (2 Bft) 91,30 %
22.12.2017 22:38 5,4 C 3,9 C 96 % 1033,2 hPa 0,0 l/m 4,8 km/h (1 Bft) S-SW 202 0 min 0,000 mm 0,0 UV-I 0 W/m 4,8 C 5,4 C 6,4 km/h (2 Bft) 95,65 %
22.12.2017 22:39 5,4 C 3,9 C 96 % 1033,3 hPa 0,0 l/m 6,4 km/h (2 Bft) S-SW 202 0 min 0,000 mm 0,0 UV-I 0 W/m 4,8 C 5,4 C 8,0 km/h (2 Bft) 100,00 %
22.12.2017 22:40 5,4 C 3,9 C 96 % 1033,3 hPa 0,0 l/m 6,4 km/h (2 Bft) S-SW 202 0 min 0,000 mm 0,0 UV-I 0 W/m 4,8 C 5,4 C 8,0 km/h (2 Bft) 95,65 %
22.12.2017 22:41 5,4 C 3,9 C 96 % 1033,3 hPa 0,0 l/m 3,2 km/h (1 Bft) S-SW 202 0 min 0,000 mm 0,0 UV-I 0 W/m 4,8 C 5,4 C 4,8 km/h (1 Bft) 95,65 %
22.12.2017 22:42 5,4 C 3,9 C 96 % 1033,3 hPa 0,0 l/m 4,8 km/h (1 Bft) S-SW 202 0 min 0,000 mm 0,0 UV-I 0 W/m 4,8 C 5,4 C 8,0 km/h (2 Bft) 95,65 %
22.12.2017 22:43 5,4 C 3,9 C 96 % 1033,3 hPa 0,0 l/m 4,8 km/h (1 Bft) S-SW 202 0 min 0,000 mm 0,0 UV-I 0 W/m 4,8 C 5,4 C 8,0 km/h (2 Bft) 100,00 %
22.12.2017 22:44 5,4 C 3,9 C 96 % 1033,3 hPa 0,0 l/m 4,8 km/h (1 Bft) S-SW 202 0 min 0,000 mm 0,0 UV-I 0 W/m 4,8 C 5,4 C 6,4 km/h (2 Bft) 95,65 %
22.12.2017 22:45 5,4 C 3,9 C 96 % 1033,3 hPa 0,0 l/m 6,4 km/h (2 Bft) SW 225 0 min 0,000 mm 0,0 UV-I 0 W/m 4,8 C 5,4 C 9,7 km/h (2 Bft) 100,00 %
22.12.2017 22:46 5,4 C 3,9 C 96 % 1033,3 hPa 0,0 l/m 8,0 km/h (2 Bft) S-SW 202 0 min 0,000 mm 0,0 UV-I 0 W/m 4,8 C 4,0 C 11,3 km/h (2 Bft) 95,65 %
22.12.2017 22:47 5,4 C 3,9 C 96 % 1033,4 hPa 0,0 l/m 6,4 km/h (2 Bft) S-SW 202 0 min 0,000 mm 0,0 UV-I 0 W/m 4,8 C 5,4 C 9,7 km/h (2 Bft) 95,65 %
22.12.2017 22:48 5,4 C 3,9 C 96 % 1033,4 hPa 0,0 l/m 4,8 km/h (1 Bft) S-SW 202 0 min 0,000 mm 0,0 UV-I 0 W/m 4,8 C 5,4 C 6,4 km/h (2 Bft) 95,65 %
22.12.2017 22:49 5,4 C 3,9 C 96 % 1033,3 hPa 0,0 l/m 6,4 km/h (2 Bft) SW 225 0 min 0,000 mm 0,0 UV-I 0 W/m 4,8 C 5,4 C 8,0 km/h (2 Bft) 95,65 %
22.12.2017 22:50 5,4 C 3,9 C 95 % 1033,3 hPa 0,0 l/m 6,4 km/h (2 Bft) S-SW 202 0 min 0,000 mm 0,0 UV-I 0 W/m 4,7 C 5,4 C 8,0 km/h (2 Bft) 100,00 %
22.12.2017 22:51 5,4 C 3,9 C 95 % 1033,3 hPa 0,0 l/m 6,4 km/h (2 Bft) S-SW 202 0 min 0,000 mm 0,0 UV-I 0 W/m 4,7 C 5,4 C 9,7 km/h (2 Bft) 95,65 %
22.12.2017 22:52 5,4 C 3,9 C 96 % 1033,3 hPa 0,0 l/m 6,4 km/h (2 Bft) S-SW 202 0 min 0,000 mm 0,0 UV-I 0 W/m 4,8 C 5,4 C 9,7 km/h (2 Bft) 100,00 %
22.12.2017 22:53 5,4 C 3,9 C 96 % 1033,3 hPa 0,0 l/m 3,2 km/h (1 Bft) S-SW 202 0 min 0,000 mm 0,0 UV-I 0 W/m 4,8 C 5,4 C 6,4 km/h (2 Bft) 95,65 %
22.12.2017 22:54 5,4 C 3,9 C 96 % 1033,3 hPa 0,0 l/m 3,2 km/h (1 Bft) S-SW 202 0 min 0,000 mm 0,0 UV-I 0 W/m 4,8 C 5,4 C 4,8 km/h (1 Bft) 95,65 %
22.12.2017 22:55 5,4 C 3,9 C 96 % 1033,4 hPa 0,0 l/m 6,4 km/h (2 Bft) SW 225 0 min 0,000 mm 0,0 UV-I 0 W/m 4,8 C 5,4 C 8,0 km/h (2 Bft) 95,65 %
22.12.2017 22:56 5,4 C 3,9 C 96 % 1033,4 hPa 0,0 l/m 6,4 km/h (2 Bft) W-SW 247 0 min 0,000 mm 0,0 UV-I 0 W/m 4,8 C 5,4 C 6,4 km/h (2 Bft) 91,30 %
22.12.2017 22:57 5,4 C 3,9 C 96 % 1033,4 hPa 0,0 l/m 6,4 km/h (2 Bft) S-SW 202 0 min 0,000 mm 0,0 UV-I 0 W/m 4,8 C 5,4 C 8,0 km/h (2 Bft) 100,00 %
22.12.2017 22:58 5,4 C 3,9 C 96 % 1033,4 hPa 0,0 l/m 4,8 km/h (1 Bft) S-SW 202 0 min 0,000 mm 0,0 UV-I 0 W/m 4,8 C 5,4 C 6,4 km/h (2 Bft) 95,65 %
22.12.2017 22:59 5,4 C 3,9 C 96 % 1033,4 hPa 0,0 l/m 4,8 km/h (1 Bft) W-SW 247 0 min 0,000 mm 0,0 UV-I 0 W/m 4,8 C 5,4 C 6,4 km/h (2 Bft) 100,00 %
22.12.2017 23:00 5,4 C 3,9 C 96 % 1033,4 hPa 0,0 l/m 6,4 km/h (2 Bft) SW 225 0 min 0,000 mm 0,0 UV-I 0 W/m 4,8 C 5,4 C 8,0 km/h (2 Bft) 91,30 %
22.12.2017 23:01 5,4 C 3,9 C 96 % 1033,4 hPa 0,0 l/m 6,4 km/h (2 Bft) W-SW 247 0 min 0,000 mm 0,0 UV-I 0 W/m 4,8 C 5,4 C 8,0 km/h (2 Bft) 100,00 %
22.12.2017 23:02 5,4 C 3,9 C 96 % 1033,4 hPa 0,0 l/m 6,4 km/h (2 Bft) SW 225 0 min 0,000 mm 0,0 UV-I 0 W/m 4,8 C 5,4 C 9,7 km/h (2 Bft) 91,30 %
22.12.2017 23:03 5,4 C 3,9 C 96 % 1033,3 hPa 0,0 l/m 3,2 km/h (1 Bft) S 180 0 min 0,000 mm 0,0 UV-I 0 W/m 4,8 C 5,4 C 4,8 km/h (1 Bft) 95,65 %
22.12.2017 23:04 5,4 C 3,9 C 96 % 1033,3 hPa 0,0 l/m 4,8 km/h (1 Bft) S 180 0 min 0,000 mm 0,0 UV-I 0 W/m 4,8 C 5,4 C 6,4 km/h (2 Bft) 95,65 %
22.12.2017 23:05 5,4 C 3,9 C 96 % 1033,4 hPa 0,0 l/m 4,8 km/h (1 Bft) W-SW 247 0 min 0,000 mm 0,0 UV-I 0 W/m 4,8 C 5,4 C 6,4 km/h (2 Bft) 95,65 %
22.12.2017 23:06 5,4 C 3,9 C 96 % 1033,3 hPa 0,0 l/m 3,2 km/h (1 Bft) W-SW 247 0 min 0,000 mm 0,0 UV-I 0 W/m 4,8 C 5,4 C 6,4 km/h (2 Bft) 100,00 %
22.12.2017 23:07 5,4 C 3,9 C 96 % 1033,3 hPa 0,0 l/m 3,2 km/h (1 Bft) W-SW 247 0 min 0,000 mm 0,0 UV-I 0 W/m 4,8 C 5,4 C 6,4 km/h (2 Bft) 95,65 %
22.12.2017 23:08 5,4 C 3,9 C 95 % 1033,4 hPa 0,0 l/m 8,0 km/h (2 Bft) S-SW 202 0 min 0,000 mm 0,0 UV-I 0 W/m 4,7 C 4,0 C 9,7 km/h (2 Bft) 95,65 %
22.12.2017 23:09 5,4 C 3,9 C 95 % 1033,4 hPa 0,0 l/m 9,7 km/h (2 Bft) S-SW 202 0 min 0,000 mm 0,0 UV-I 0 W/m 4,7 C 2,7 C 12,9 km/h (3 Bft) 95,65 %
22.12.2017 23:10 5,4 C 3,9 C 96 % 1033,4 hPa 0,0 l/m 9,7 km/h (2 Bft) S-SW 202 0 min 0,000 mm 0,0 UV-I 0 W/m 4,8 C 2,7 C 11,3 km/h (2 Bft) 91,30 %
22.12.2017 23:11 5,4 C 3,9 C 95 % 1033,4 hPa 0,0 l/m 6,4 km/h (2 Bft) SW 225 0 min 0,000 mm 0,0 UV-I 0 W/m 4,7 C 5,4 C 9,7 km/h (2 Bft) 100,00 %
22.12.2017 23:12 5,4 C 3,9 C 95 % 1033,5 hPa 0,0 l/m 4,8 km/h (1 Bft) SW 225 0 min 0,000 mm 0,0 UV-I 0 W/m 4,7 C 5,4 C 8,0 km/h (2 Bft) 95,65 %
22.12.2017 23:13 5,4 C 3,9 C 95 % 1033,5 hPa 0,0 l/m 6,4 km/h (2 Bft) W-SW 247 0 min 0,000 mm 0,0 UV-I 0 W/m 4,7 C 5,4 C 11,3 km/h (2 Bft) 100,00 %
22.12.2017 23:14 5,4 C 3,9 C 95 % 1033,5 hPa 0,0 l/m 4,8 km/h (1 Bft) SW 225 0 min 0,000 mm 0,0 UV-I 0 W/m 4,7 C 5,4 C 6,4 km/h (2 Bft) 91,30 %
22.12.2017 23:15 5,4 C 3,9 C 95 % 1033,5 hPa 0,0 l/m 4,8 km/h (1 Bft) SW 225 0 min 0,000 mm 0,0 UV-I 0 W/m 4,7 C 5,4 C 8,0 km/h (2 Bft) 100,00 %
22.12.2017 23:16 5,4 C 3,9 C 95 % 1033,5 hPa 0,0 l/m 4,8 km/h (1 Bft) SW 225 0 min 0,000 mm 0,0 UV-I 0 W/m 4,7 C 5,4 C 6,4 km/h (2 Bft) 86,96 %
22.12.2017 23:17 5,4 C 3,9 C 95 % 1033,5 hPa 0,0 l/m 3,2 km/h (1 Bft) SW 225 0 min 0,000 mm 0,0 UV-I 0 W/m 4,7 C 5,4 C 4,8 km/h (1 Bft) 95,65 %
22.12.2017 23:18 5,4 C 3,9 C 95 % 1033,5 hPa 0,0 l/m 3,2 km/h (1 Bft) W-SW 247 0 min 0,000 mm 0,0 UV-I 0 W/m 4,7 C 5,4 C 4,8 km/h (1 Bft) 95,65 %
22.12.2017 23:19 5,4 C 3,9 C 95 % 1033,5 hPa 0,0 l/m 3,2 km/h (1 Bft) W-SW 247 0 min 0,000 mm 0,0 UV-I 0 W/m 4,7 C 5,4 C 4,8 km/h (1 Bft) 95,65 %
22.12.2017 23:20 5,3 C 3,9 C 95 % 1033,5 hPa 0,0 l/m 3,2 km/h (1 Bft) W-SW 247 0 min 0,000 mm 0,0 UV-I 0 W/m 4,6 C 5,3 C 3,2 km/h (1 Bft) 95,65 %
22.12.2017 23:21 5,3 C 3,9 C 95 % 1033,5 hPa 0,0 l/m 3,2 km/h (1 Bft) W-SW 247 0 min 0,000 mm 0,0 UV-I 0 W/m 4,6 C 5,3 C 4,8 km/h (1 Bft) 100,00 %
22.12.2017 23:22 5,3 C 3,9 C 95 % 1033,5 hPa 0,0 l/m 3,2 km/h (1 Bft) W-SW 247 0 min 0,000 mm 0,0 UV-I 0 W/m 4,6 C 5,3 C 4,8 km/h (1 Bft) 95,65 %
22.12.2017 23:23 5,3 C 3,9 C 95 % 1033,5 hPa 0,0 l/m 6,4 km/h (2 Bft) SW 225 0 min 0,000 mm 0,0 UV-I 0 W/m 4,6 C 5,3 C 8,0 km/h (2 Bft) 95,65 %
22.12.2017 23:24 5,3 C 3,9 C 95 % 1033,5 hPa 0,0 l/m 4,8 km/h (1 Bft) SW 225 0 min 0,000 mm 0,0 UV-I 0 W/m 4,6 C 5,3 C 6,4 km/h (2 Bft) 95,65 %
22.12.2017 23:25 5,3 C 3,9 C 95 % 1033,5 hPa 0,0 l/m 1,6 km/h (1 Bft) SW 225 0 min 0,000 mm 0,0 UV-I 0 W/m 4,6 C 5,3 C 3,2 km/h (1 Bft) 95,65 %
22.12.2017 23:26 5,3 C 3,9 C 95 % 1033,4 hPa 0,0 l/m 4,8 km/h (1 Bft) SW 225 0 min 0,000 mm 0,0 UV-I 0 W/m 4,6 C 5,3 C 6,4 km/h (2 Bft) 95,65 %
22.12.2017 23:27 5,3 C 3,9 C 95 % 1033,4 hPa 0,0 l/m 3,2 km/h (1 Bft) SW 225 0 min 0,000 mm 0,0 UV-I 0 W/m 4,6 C 5,3 C 3,2 km/h (1 Bft) 100,00 %
22.12.2017 23:28 5,3 C 3,9 C 95 % 1033,4 hPa 0,0 l/m 3,2 km/h (1 Bft) SW 225 0 min 0,000 mm 0,0 UV-I 0 W/m 4,6 C 5,3 C 4,8 km/h (1 Bft) 95,65 %
22.12.2017 23:29 5,3 C 3,9 C 95 % 1033,3 hPa 0,0 l/m 3,2 km/h (1 Bft) SW 225 0 min 0,000 mm 0,0 UV-I 0 W/m 4,6 C 5,3 C 4,8 km/h (1 Bft) 95,65 %
22.12.2017 23:30 5,3 C 3,9 C 95 % 1033,3 hPa 0,0 l/m 1,6 km/h (1 Bft) SW 225 0 min 0,000 mm 0,0 UV-I 0 W/m 4,6 C 5,3 C 3,2 km/h (1 Bft) 100,00 %
22.12.2017 23:31 5,3 C 3,9 C 95 % 1033,3 hPa 0,0 l/m 6,4 km/h (2 Bft) SW 225 0 min 0,000 mm 0,0 UV-I 0 W/m 4,6 C 5,3 C 9,7 km/h (2 Bft) 95,65 %
22.12.2017 23:32 5,3 C 3,9 C 95 % 1033,4 hPa 0,0 l/m 4,8 km/h (1 Bft) SW 225 0 min 0,000 mm 0,0 UV-I 0 W/m 4,6 C 5,3 C 8,0 km/h (2 Bft) 100,00 %
22.12.2017 23:33 5,3 C 3,9 C 95 % 1033,3 hPa 0,0 l/m 6,4 km/h (2 Bft) S-SW 202 0 min 0,000 mm 0,0 UV-I 0 W/m 4,6 C 5,3 C 8,0 km/h (2 Bft) 100,00 %
22.12.2017 23:34 5,3 C 3,9 C 95 % 1033,3 hPa 0,0 l/m 4,8 km/h (1 Bft) SW 225 0 min 0,000 mm 0,0 UV-I 0 W/m 4,6 C 5,3 C 6,4 km/h (2 Bft) 95,65 %
22.12.2017 23:35 5,3 C 3,9 C 95 % 1033,3 hPa 0,0 l/m 4,8 km/h (1 Bft) SW 225 0 min 0,000 mm 0,0 UV-I 0 W/m 4,6 C 5,3 C 6,4 km/h (2 Bft) 100,00 %
22.12.2017 23:36 5,3 C 3,9 C 95 % 1033,3 hPa 0,0 l/m 4,8 km/h (1 Bft) SW 225 0 min 0,000 mm 0,0 UV-I 0 W/m 4,6 C 5,3 C 6,4 km/h (2 Bft) 100,00 %
22.12.2017 23:37 5,3 C 3,9 C 95 % 1033,3 hPa 0,0 l/m 4,8 km/h (1 Bft) W-SW 247 0 min 0,000 mm 0,0 UV-I 0 W/m 4,6 C 5,3 C 8,0 km/h (2 Bft) 100,00 %
22.12.2017 23:38 5,3 C 3,9 C 95 % 1033,3 hPa 0,0 l/m 1,6 km/h (1 Bft) W-SW 247 0 min 0,000 mm 0,0 UV-I 0 W/m 4,6 C 5,3 C 3,2 km/h (1 Bft) 95,65 %
22.12.2017 23:39 5,3 C 3,9 C 95 % 1033,3 hPa 0,0 l/m 3,2 km/h (1 Bft) W-SW 247 0 min 0,000 mm 0,0 UV-I 0 W/m 4,6 C 5,3 C 4,8 km/h (1 Bft) 100,00 %
22.12.2017 23:40 5,3 C 3,9 C 95 % 1033,3 hPa 0,0 l/m 6,4 km/h (2 Bft) SW 225 0 min 0,000 mm 0,0 UV-I 0 W/m 4,6 C 5,3 C 8,0 km/h (2 Bft) 100,00 %
22.12.2017 23:41 5,3 C 3,9 C 95 % 1033,3 hPa 0,0 l/m 4,8 km/h (1 Bft) SW 225 0 min 0,000 mm 0,0 UV-I 0 W/m 4,6 C 5,3 C 6,4 km/h (2 Bft) 95,65 %
22.12.2017 23:42 5,3 C 3,9 C 95 % 1033,3 hPa 0,0 l/m 3,2 km/h (1 Bft) SW 225 0 min 0,000 mm 0,0 UV-I 0 W/m 4,6 C 5,3 C 3,2 km/h (1 Bft) 100,00 %
22.12.2017 23:43 5,3 C 3,9 C 95 % 1033,3 hPa 0,0 l/m 3,2 km/h (1 Bft) SW 225 0 min 0,000 mm 0,0 UV-I 0 W/m 4,6 C 5,3 C 3,2 km/h (1 Bft) 100,00 %
22.12.2017 23:44 5,3 C 3,9 C 95 % 1033,3 hPa 0,0 l/m 3,2 km/h (1 Bft) SW 225 0 min 0,000 mm 0,0 UV-I 0 W/m 4,6 C 5,3 C 4,8 km/h (1 Bft) 95,65 %
22.12.2017 23:45 5,3 C 3,9 C 95 % 1033,3 hPa 0,0 l/m 4,8 km/h (1 Bft) SW 225 0 min 0,000 mm 0,0 UV-I 0 W/m 4,6 C 5,3 C 6,4 km/h (2 Bft) 95,65 %
22.12.2017 23:46 5,3 C 3,9 C 95 % 1033,3 hPa 0,0 l/m 4,8 km/h (1 Bft) S-SW 202 0 min 0,000 mm 0,0 UV-I 0 W/m 4,6 C 5,3 C 6,4 km/h (2 Bft) 100,00 %
22.12.2017 23:47 5,3 C 3,9 C 95 % 1033,3 hPa 0,0 l/m 1,6 km/h (1 Bft) S 180 0 min 0,000 mm 0,0 UV-I 0 W/m 4,6 C 5,3 C 4,8 km/h (1 Bft) 95,65 %
22.12.2017 23:48 5,3 C 3,9 C 95 % 1033,3 hPa 0,0 l/m 3,2 km/h (1 Bft) S-SW 202 0 min 0,000 mm 0,0 UV-I 0 W/m 4,6 C 5,3 C 6,4 km/h (2 Bft) 100,00 %
22.12.2017 23:49 5,3 C 3,9 C 95 % 1033,3 hPa 0,0 l/m 4,8 km/h (1 Bft) S-SW 202 0 min 0,000 mm 0,0 UV-I 0 W/m 4,6 C 5,3 C 4,8 km/h (1 Bft) 100,00 %
22.12.2017 23:50 5,3 C 3,9 C 95 % 1033,3 hPa 0,0 l/m 4,8 km/h (1 Bft) S-SW 202 0 min 0,000 mm 0,0 UV-I 0 W/m 4,6 C 5,3 C 8,0 km/h (2 Bft) 95,65 %
22.12.2017 23:51 5,3 C 3,9 C 95 % 1033,3 hPa 0,0 l/m 4,8 km/h (1 Bft) S-SW 202 0 min 0,000 mm 0,0 UV-I 0 W/m 4,6 C 5,3 C 8,0 km/h (2 Bft) 100,00 %
22.12.2017 23:52 5,3 C 3,9 C 95 % 1033,3 hPa 0,0 l/m 1,6 km/h (1 Bft) S-SW 202 0 min 0,000 mm 0,0 UV-I 0 W/m 4,6 C 5,3 C 4,8 km/h (1 Bft) 95,65 %
22.12.2017 23:53 5,3 C 3,9 C 95 % 1033,4 hPa 0,0 l/m 4,8 km/h (1 Bft) SW 225 0 min 0,000 mm 0,0 UV-I 0 W/m 4,6 C 5,3 C 6,4 km/h (2 Bft) 100,00 %
22.12.2017 23:54 5,3 C 3,9 C 95 % 1033,4 hPa 0,0 l/m 4,8 km/h (1 Bft) SW 225 0 min 0,000 mm 0,0 UV-I 0 W/m 4,6 C 5,3 C 8,0 km/h (2 Bft) 100,00 %
22.12.2017 23:55 5,3 C 3,9 C 95 % 1033,4 hPa 0,0 l/m 6,4 km/h (2 Bft) S-SW 202 0 min 0,000 mm 0,0 UV-I 0 W/m 4,6 C 5,3 C 8,0 km/h (2 Bft) 100,00 %
22.12.2017 23:56 5,3 C 3,9 C 95 % 1033,4 hPa 0,0 l/m 4,8 km/h (1 Bft) S-SW 202 0 min 0,000 mm 0,0 UV-I 0 W/m 4,6 C 5,3 C 8,0 km/h (2 Bft) 100,00 %
22.12.2017 23:57 5,3 C 3,9 C 95 % 1033,4 hPa 0,0 l/m 4,8 km/h (1 Bft) SW 225 0 min 0,000 mm 0,0 UV-I 0 W/m 4,6 C 5,3 C 4,8 km/h (1 Bft) 100,00 %
22.12.2017 23:58 5,3 C 3,9 C 95 % 1033,4 hPa 0,0 l/m 3,2 km/h (1 Bft) SW 225 0 min 0,000 mm 0,0 UV-I 0 W/m 4,6 C 5,3 C 6,4 km/h (2 Bft) 100,00 %
22.12.2017 23:59 5,3 C 3,9 C 95 % 1033,3 hPa 0,0 l/m 4,8 km/h (1 Bft) SW 225 0 min 0,000 mm 0,0 UV-I 0 W/m 4,6 C 5,3 C 8,0 km/h (2 Bft) 91,30 %
_ Min-Zeit 00:00 00:00 14:18 14:24 - 00:02 - - - - - - 00:00 00:36 00:02 00:02
Minimum _ 3,0 C 3,9 C 93 % 1031,0 hPa - 0,0 km/h (0 Bft) - - - - - - 2,3 C -8,3 C 0,0 km/h (0 Bft) 0,00 %
_ Max-Zeit 13:04 00:00 04:10 00:00 00:07 00:36 - - 00:00 11:00 00:00 13:04 21:08 13:07 00:40 00:04
Maximum _ 5,9 C 3,9 C 97 % 1034,1 hPa 0,2 l/m 27,4 km/h
SW (4 Bft)
- - 0 min 0,025 mm 0,0 UV-I 107 W/m 5,2 C 5,9 C 35,4 km/h
SW (5 Bft)
100,00 %
Durchschnitt _ 4,9 C 3,9 C 95 % 1032,6 hPa #1,2 l/m 9,9 km/h (2 Bft) W-SW - #0 min. #0,125 mm 0,0 UV-I 29 W/m 4,2 C 2,2 C 14,0 km/h (3 Bft) 96,91 %